<?xml version="1.0" encoding="UTF-8" standalone="no" ?>
<gpx xmlns="http://www.topografix.com/GPX/1/1" xmlns:xsi="http://www.w3.org/2001/XMLSchema-instance" xsi:schemaLocation="http://www.topografix.com/GPX/1/1 http://www.topografix.com/GPX/1/1/gpx.xsd" version="1.1" creator="VisuGPX - https://www.visugpx.com">
  <metadata>
    <name>Anglès , La Souque -</name>
    <desc><![CDATA[Petite sortie , tres agréable de Anglés a La Souque , par les sentiers a travers la foret .
Pas de difficulté , quelques raidillons .]]></desc>
  </metadata>
  <trk>
    <name><![CDATA[Anglès : Sortie en couple -]]></name>
    <extensions>
      <line xmlns="http://www.topografix.com/GPX/gpx_style/0/2">
        <color>0000FF</color>
        <width>4</width>
      </line>
    </extensions>
    <trkseg>
      <trkpt lat="43.56987" lon="2.57048">
        <ele>745.59997558594</ele>
        <time>2021-07-03T06:57:03.000Z</time>
      </trkpt>
      <trkpt lat="43.56987" lon="2.57048">
        <ele>745.59997558594</ele>
        <time>2021-07-03T06:57:04.000Z</time>
      </trkpt>
      <trkpt lat="43.56989" lon="2.57044">
        <ele>751.59997558594</ele>
        <time>2021-07-03T06:57:17.000Z</time>
      </trkpt>
      <trkpt lat="43.56994" lon="2.57041">
        <ele>751.59997558594</ele>
        <time>2021-07-03T06:57:20.000Z</time>
      </trkpt>
      <trkpt lat="43.56995" lon="2.57035">
        <ele>751.59997558594</ele>
        <time>2021-07-03T06:57:24.000Z</time>
      </trkpt>
      <trkpt lat="43.56994" lon="2.57032">
        <ele>750</ele>
        <time>2021-07-03T06:57:26.000Z</time>
      </trkpt>
      <trkpt lat="43.56986" lon="2.57029">
        <ele>748.40002441406</ele>
        <time>2021-07-03T06:57:27.000Z</time>
      </trkpt>
      <trkpt lat="43.56982" lon="2.57027">
        <ele>746.59997558594</ele>
        <time>2021-07-03T06:57:28.000Z</time>
      </trkpt>
      <trkpt lat="43.56978" lon="2.57025">
        <ele>745</ele>
        <time>2021-07-03T06:57:29.000Z</time>
      </trkpt>
      <trkpt lat="43.56974" lon="2.57023">
        <ele>744.20001220703</ele>
        <time>2021-07-03T06:57:30.000Z</time>
      </trkpt>
      <trkpt lat="43.56968" lon="2.57021">
        <ele>743.40002441406</ele>
        <time>2021-07-03T06:57:31.000Z</time>
      </trkpt>
      <trkpt lat="43.56962" lon="2.57019">
        <ele>742.79998779297</ele>
        <time>2021-07-03T06:57:32.000Z</time>
      </trkpt>
      <trkpt lat="43.56955" lon="2.57018">
        <ele>741.79998779297</ele>
        <time>2021-07-03T06:57:33.000Z</time>
      </trkpt>
      <trkpt lat="43.56938" lon="2.57014">
        <ele>738.40002441406</ele>
        <time>2021-07-03T06:57:34.000Z</time>
      </trkpt>
      <trkpt lat="43.56938" lon="2.57014">
        <ele>738.40002441406</ele>
        <time>2021-07-03T06:57:37.000Z</time>
      </trkpt>
      <trkpt lat="43.56934" lon="2.57009">
        <ele>738.40002441406</ele>
        <time>2021-07-03T06:57:38.000Z</time>
      </trkpt>
      <trkpt lat="43.56924" lon="2.56994">
        <ele>738.40002441406</ele>
        <time>2021-07-03T06:57:41.000Z</time>
      </trkpt>
      <trkpt lat="43.56917" lon="2.56984">
        <ele>738.40002441406</ele>
        <time>2021-07-03T06:57:45.000Z</time>
      </trkpt>
      <trkpt lat="43.56911" lon="2.5698">
        <ele>738.40002441406</ele>
        <time>2021-07-03T06:57:48.000Z</time>
      </trkpt>
      <trkpt lat="43.5691" lon="2.56981">
        <ele>738</ele>
        <time>2021-07-03T06:57:49.000Z</time>
      </trkpt>
      <trkpt lat="43.5691" lon="2.56983">
        <ele>737.59997558594</ele>
        <time>2021-07-03T06:57:50.000Z</time>
      </trkpt>
      <trkpt lat="43.56911" lon="2.56985">
        <ele>737.20001220703</ele>
        <time>2021-07-03T06:57:51.000Z</time>
      </trkpt>
      <trkpt lat="43.56912" lon="2.56984">
        <ele>736.79998779297</ele>
        <time>2021-07-03T06:57:52.000Z</time>
      </trkpt>
      <trkpt lat="43.56913" lon="2.56981">
        <ele>736.40002441406</ele>
        <time>2021-07-03T06:57:53.000Z</time>
      </trkpt>
      <trkpt lat="43.56907" lon="2.56974">
        <ele>736.40002441406</ele>
        <time>2021-07-03T06:57:56.000Z</time>
      </trkpt>
      <trkpt lat="43.56904" lon="2.56971">
        <ele>736.40002441406</ele>
        <time>2021-07-03T06:57:57.000Z</time>
      </trkpt>
      <trkpt lat="43.56888" lon="2.56957">
        <ele>736.40002441406</ele>
        <time>2021-07-03T06:58:02.000Z</time>
      </trkpt>
      <trkpt lat="43.56885" lon="2.56954">
        <ele>736.40002441406</ele>
        <time>2021-07-03T06:58:03.000Z</time>
      </trkpt>
      <trkpt lat="43.56869" lon="2.5693">
        <ele>736.40002441406</ele>
        <time>2021-07-03T06:58:08.000Z</time>
      </trkpt>
      <trkpt lat="43.56867" lon="2.56924">
        <ele>736.40002441406</ele>
        <time>2021-07-03T06:58:09.000Z</time>
      </trkpt>
      <trkpt lat="43.56866" lon="2.56917">
        <ele>736</ele>
        <time>2021-07-03T06:58:10.000Z</time>
      </trkpt>
      <trkpt lat="43.56866" lon="2.5691">
        <ele>735.59997558594</ele>
        <time>2021-07-03T06:58:11.000Z</time>
      </trkpt>
      <trkpt lat="43.56867" lon="2.56902">
        <ele>735</ele>
        <time>2021-07-03T06:58:12.000Z</time>
      </trkpt>
      <trkpt lat="43.56868" lon="2.56894">
        <ele>734.59997558594</ele>
        <time>2021-07-03T06:58:13.000Z</time>
      </trkpt>
      <trkpt lat="43.56871" lon="2.56886">
        <ele>734.20001220703</ele>
        <time>2021-07-03T06:58:14.000Z</time>
      </trkpt>
      <trkpt lat="43.56873" lon="2.56878">
        <ele>734.20001220703</ele>
        <time>2021-07-03T06:58:15.000Z</time>
      </trkpt>
      <trkpt lat="43.56876" lon="2.5687">
        <ele>733.79998779297</ele>
        <time>2021-07-03T06:58:16.000Z</time>
      </trkpt>
      <trkpt lat="43.56879" lon="2.56861">
        <ele>733.40002441406</ele>
        <time>2021-07-03T06:58:17.000Z</time>
      </trkpt>
      <trkpt lat="43.56881" lon="2.56852">
        <ele>733</ele>
        <time>2021-07-03T06:58:18.000Z</time>
      </trkpt>
      <trkpt lat="43.56883" lon="2.56844">
        <ele>732.59997558594</ele>
        <time>2021-07-03T06:58:19.000Z</time>
      </trkpt>
      <trkpt lat="43.56886" lon="2.56834">
        <ele>732.20001220703</ele>
        <time>2021-07-03T06:58:20.000Z</time>
      </trkpt>
      <trkpt lat="43.56892" lon="2.56817">
        <ele>732.20001220703</ele>
        <time>2021-07-03T06:58:22.000Z</time>
      </trkpt>
      <trkpt lat="43.56894" lon="2.56808">
        <ele>731.79998779297</ele>
        <time>2021-07-03T06:58:23.000Z</time>
      </trkpt>
      <trkpt lat="43.56896" lon="2.56799">
        <ele>731.40002441406</ele>
        <time>2021-07-03T06:58:24.000Z</time>
      </trkpt>
      <trkpt lat="43.56897" lon="2.56792">
        <ele>731</ele>
        <time>2021-07-03T06:58:25.000Z</time>
      </trkpt>
      <trkpt lat="43.56898" lon="2.56784">
        <ele>730.59997558594</ele>
        <time>2021-07-03T06:58:26.000Z</time>
      </trkpt>
      <trkpt lat="43.56899" lon="2.56776">
        <ele>730.20001220703</ele>
        <time>2021-07-03T06:58:27.000Z</time>
      </trkpt>
      <trkpt lat="43.56901" lon="2.56762">
        <ele>730.20001220703</ele>
        <time>2021-07-03T06:58:29.000Z</time>
      </trkpt>
      <trkpt lat="43.56899" lon="2.56748">
        <ele>730.20001220703</ele>
        <time>2021-07-03T06:58:31.000Z</time>
      </trkpt>
      <trkpt lat="43.56893" lon="2.56731">
        <ele>730.20001220703</ele>
        <time>2021-07-03T06:58:34.000Z</time>
      </trkpt>
      <trkpt lat="43.56891" lon="2.56725">
        <ele>730.20001220703</ele>
        <time>2021-07-03T06:58:35.000Z</time>
      </trkpt>
      <trkpt lat="43.56888" lon="2.56719">
        <ele>729.59997558594</ele>
        <time>2021-07-03T06:58:36.000Z</time>
      </trkpt>
      <trkpt lat="43.56884" lon="2.56713">
        <ele>729.20001220703</ele>
        <time>2021-07-03T06:58:37.000Z</time>
      </trkpt>
      <trkpt lat="43.56881" lon="2.56707">
        <ele>728.79998779297</ele>
        <time>2021-07-03T06:58:38.000Z</time>
      </trkpt>
      <trkpt lat="43.56878" lon="2.56701">
        <ele>728.40002441406</ele>
        <time>2021-07-03T06:58:39.000Z</time>
      </trkpt>
      <trkpt lat="43.56874" lon="2.56696">
        <ele>728</ele>
        <time>2021-07-03T06:58:40.000Z</time>
      </trkpt>
      <trkpt lat="43.56859" lon="2.56672">
        <ele>728</ele>
        <time>2021-07-03T06:58:45.000Z</time>
      </trkpt>
      <trkpt lat="43.56855" lon="2.56668">
        <ele>728</ele>
        <time>2021-07-03T06:58:46.000Z</time>
      </trkpt>
      <trkpt lat="43.56832" lon="2.56647">
        <ele>728</ele>
        <time>2021-07-03T06:58:52.000Z</time>
      </trkpt>
      <trkpt lat="43.56806" lon="2.56626">
        <ele>728</ele>
        <time>2021-07-03T06:58:59.000Z</time>
      </trkpt>
      <trkpt lat="43.56795" lon="2.56618">
        <ele>728</ele>
        <time>2021-07-03T06:59:03.000Z</time>
      </trkpt>
      <trkpt lat="43.56783" lon="2.5661">
        <ele>728</ele>
        <time>2021-07-03T06:59:07.000Z</time>
      </trkpt>
      <trkpt lat="43.56781" lon="2.56609">
        <ele>728</ele>
        <time>2021-07-03T06:59:08.000Z</time>
      </trkpt>
      <trkpt lat="43.56768" lon="2.56603">
        <ele>728</ele>
        <time>2021-07-03T06:59:12.000Z</time>
      </trkpt>
      <trkpt lat="43.56765" lon="2.56602">
        <ele>728</ele>
        <time>2021-07-03T06:59:13.000Z</time>
      </trkpt>
      <trkpt lat="43.56749" lon="2.56593">
        <ele>728</ele>
        <time>2021-07-03T06:59:18.000Z</time>
      </trkpt>
      <trkpt lat="43.56732" lon="2.56585">
        <ele>728</ele>
        <time>2021-07-03T06:59:23.000Z</time>
      </trkpt>
      <trkpt lat="43.56705" lon="2.56577">
        <ele>728</ele>
        <time>2021-07-03T06:59:29.000Z</time>
      </trkpt>
      <trkpt lat="43.56691" lon="2.56572">
        <ele>728</ele>
        <time>2021-07-03T06:59:32.000Z</time>
      </trkpt>
      <trkpt lat="43.56681" lon="2.56567">
        <ele>727.59997558594</ele>
        <time>2021-07-03T06:59:34.000Z</time>
      </trkpt>
      <trkpt lat="43.56676" lon="2.56565">
        <ele>727.20001220703</ele>
        <time>2021-07-03T06:59:35.000Z</time>
      </trkpt>
      <trkpt lat="43.5667" lon="2.56563">
        <ele>726.79998779297</ele>
        <time>2021-07-03T06:59:36.000Z</time>
      </trkpt>
      <trkpt lat="43.56664" lon="2.56561">
        <ele>726.40002441406</ele>
        <time>2021-07-03T06:59:37.000Z</time>
      </trkpt>
      <trkpt lat="43.56658" lon="2.5656">
        <ele>726</ele>
        <time>2021-07-03T06:59:38.000Z</time>
      </trkpt>
      <trkpt lat="43.56647" lon="2.56555">
        <ele>726</ele>
        <time>2021-07-03T06:59:40.000Z</time>
      </trkpt>
      <trkpt lat="43.56635" lon="2.5655">
        <ele>725.59997558594</ele>
        <time>2021-07-03T06:59:42.000Z</time>
      </trkpt>
      <trkpt lat="43.56629" lon="2.56547">
        <ele>725.20001220703</ele>
        <time>2021-07-03T06:59:43.000Z</time>
      </trkpt>
      <trkpt lat="43.56623" lon="2.56544">
        <ele>724.59997558594</ele>
        <time>2021-07-03T06:59:44.000Z</time>
      </trkpt>
      <trkpt lat="43.56617" lon="2.56541">
        <ele>724.20001220703</ele>
        <time>2021-07-03T06:59:45.000Z</time>
      </trkpt>
      <trkpt lat="43.56611" lon="2.56537">
        <ele>723.79998779297</ele>
        <time>2021-07-03T06:59:46.000Z</time>
      </trkpt>
      <trkpt lat="43.56604" lon="2.56533">
        <ele>723.79998779297</ele>
        <time>2021-07-03T06:59:47.000Z</time>
      </trkpt>
      <trkpt lat="43.56592" lon="2.56524">
        <ele>723.79998779297</ele>
        <time>2021-07-03T06:59:49.000Z</time>
      </trkpt>
      <trkpt lat="43.56587" lon="2.56518">
        <ele>723.40002441406</ele>
        <time>2021-07-03T06:59:50.000Z</time>
      </trkpt>
      <trkpt lat="43.56581" lon="2.56513">
        <ele>723</ele>
        <time>2021-07-03T06:59:51.000Z</time>
      </trkpt>
      <trkpt lat="43.56577" lon="2.56507">
        <ele>722.59997558594</ele>
        <time>2021-07-03T06:59:52.000Z</time>
      </trkpt>
      <trkpt lat="43.56572" lon="2.56502">
        <ele>722.20001220703</ele>
        <time>2021-07-03T06:59:53.000Z</time>
      </trkpt>
      <trkpt lat="43.56567" lon="2.56497">
        <ele>721.79998779297</ele>
        <time>2021-07-03T06:59:54.000Z</time>
      </trkpt>
      <trkpt lat="43.56553" lon="2.56483">
        <ele>721.79998779297</ele>
        <time>2021-07-03T06:59:57.000Z</time>
      </trkpt>
      <trkpt lat="43.5655" lon="2.5648">
        <ele>721.79998779297</ele>
        <time>2021-07-03T06:59:58.000Z</time>
      </trkpt>
      <trkpt lat="43.56547" lon="2.56474">
        <ele>721.79998779297</ele>
        <time>2021-07-03T07:00:02.000Z</time>
      </trkpt>
      <trkpt lat="43.56546" lon="2.56472">
        <ele>721.79998779297</ele>
        <time>2021-07-03T07:00:31.000Z</time>
      </trkpt>
      <trkpt lat="43.56544" lon="2.5647">
        <ele>721.79998779297</ele>
        <time>2021-07-03T07:00:32.000Z</time>
      </trkpt>
      <trkpt lat="43.56542" lon="2.56468">
        <ele>721.79998779297</ele>
        <time>2021-07-03T07:00:33.000Z</time>
      </trkpt>
      <trkpt lat="43.56526" lon="2.56453">
        <ele>721.79998779297</ele>
        <time>2021-07-03T07:00:38.000Z</time>
      </trkpt>
      <trkpt lat="43.56522" lon="2.5645">
        <ele>721.79998779297</ele>
        <time>2021-07-03T07:00:39.000Z</time>
      </trkpt>
      <trkpt lat="43.56516" lon="2.56443">
        <ele>721.79998779297</ele>
        <time>2021-07-03T07:00:41.000Z</time>
      </trkpt>
      <trkpt lat="43.5651" lon="2.56435">
        <ele>721.79998779297</ele>
        <time>2021-07-03T07:00:43.000Z</time>
      </trkpt>
      <trkpt lat="43.56505" lon="2.56428">
        <ele>721.40002441406</ele>
        <time>2021-07-03T07:00:45.000Z</time>
      </trkpt>
      <trkpt lat="43.56503" lon="2.56424">
        <ele>721</ele>
        <time>2021-07-03T07:00:46.000Z</time>
      </trkpt>
      <trkpt lat="43.56501" lon="2.56421">
        <ele>720.40002441406</ele>
        <time>2021-07-03T07:00:47.000Z</time>
      </trkpt>
      <trkpt lat="43.56498" lon="2.56418">
        <ele>720</ele>
        <time>2021-07-03T07:00:48.000Z</time>
      </trkpt>
      <trkpt lat="43.56495" lon="2.56416">
        <ele>719.59997558594</ele>
        <time>2021-07-03T07:00:49.000Z</time>
      </trkpt>
      <trkpt lat="43.56478" lon="2.56407">
        <ele>719.59997558594</ele>
        <time>2021-07-03T07:00:55.000Z</time>
      </trkpt>
      <trkpt lat="43.56465" lon="2.56399">
        <ele>719.59997558594</ele>
        <time>2021-07-03T07:01:00.000Z</time>
      </trkpt>
      <trkpt lat="43.56455" lon="2.56386">
        <ele>719.59997558594</ele>
        <time>2021-07-03T07:01:05.000Z</time>
      </trkpt>
      <trkpt lat="43.56444" lon="2.56376">
        <ele>719.59997558594</ele>
        <time>2021-07-03T07:01:10.000Z</time>
      </trkpt>
      <trkpt lat="43.56426" lon="2.56357">
        <ele>719.59997558594</ele>
        <time>2021-07-03T07:01:17.000Z</time>
      </trkpt>
      <trkpt lat="43.56423" lon="2.56354">
        <ele>720</ele>
        <time>2021-07-03T07:01:18.000Z</time>
      </trkpt>
      <trkpt lat="43.5642" lon="2.56351">
        <ele>720.59997558594</ele>
        <time>2021-07-03T07:01:19.000Z</time>
      </trkpt>
      <trkpt lat="43.56417" lon="2.56349">
        <ele>721.40002441406</ele>
        <time>2021-07-03T07:01:20.000Z</time>
      </trkpt>
      <trkpt lat="43.56414" lon="2.56346">
        <ele>721.79998779297</ele>
        <time>2021-07-03T07:01:21.000Z</time>
      </trkpt>
      <trkpt lat="43.56406" lon="2.56336">
        <ele>721.79998779297</ele>
        <time>2021-07-03T07:01:24.000Z</time>
      </trkpt>
      <trkpt lat="43.56388" lon="2.56319">
        <ele>721.79998779297</ele>
        <time>2021-07-03T07:01:30.000Z</time>
      </trkpt>
      <trkpt lat="43.56366" lon="2.56285">
        <ele>721.79998779297</ele>
        <time>2021-07-03T07:01:37.000Z</time>
      </trkpt>
      <trkpt lat="43.56355" lon="2.56254">
        <ele>721.40002441406</ele>
        <time>2021-07-03T07:01:42.000Z</time>
      </trkpt>
      <trkpt lat="43.56353" lon="2.56247">
        <ele>721</ele>
        <time>2021-07-03T07:01:43.000Z</time>
      </trkpt>
      <trkpt lat="43.56351" lon="2.56241">
        <ele>720.40002441406</ele>
        <time>2021-07-03T07:01:44.000Z</time>
      </trkpt>
      <trkpt lat="43.56349" lon="2.56235">
        <ele>719.59997558594</ele>
        <time>2021-07-03T07:01:45.000Z</time>
      </trkpt>
      <trkpt lat="43.56338" lon="2.56203">
        <ele>719.59997558594</ele>
        <time>2021-07-03T07:01:50.000Z</time>
      </trkpt>
      <trkpt lat="43.56336" lon="2.56195">
        <ele>719.20001220703</ele>
        <time>2021-07-03T07:01:51.000Z</time>
      </trkpt>
      <trkpt lat="43.56335" lon="2.56187">
        <ele>718.79998779297</ele>
        <time>2021-07-03T07:01:52.000Z</time>
      </trkpt>
      <trkpt lat="43.56334" lon="2.5618">
        <ele>718.40002441406</ele>
        <time>2021-07-03T07:01:53.000Z</time>
      </trkpt>
      <trkpt lat="43.56334" lon="2.56173">
        <ele>718</ele>
        <time>2021-07-03T07:01:54.000Z</time>
      </trkpt>
      <trkpt lat="43.56334" lon="2.56166">
        <ele>717.59997558594</ele>
        <time>2021-07-03T07:01:55.000Z</time>
      </trkpt>
      <trkpt lat="43.56334" lon="2.56159">
        <ele>717.59997558594</ele>
        <time>2021-07-03T07:01:56.000Z</time>
      </trkpt>
      <trkpt lat="43.56337" lon="2.56135">
        <ele>717.59997558594</ele>
        <time>2021-07-03T07:02:00.000Z</time>
      </trkpt>
      <trkpt lat="43.56339" lon="2.56113">
        <ele>717.59997558594</ele>
        <time>2021-07-03T07:02:05.000Z</time>
      </trkpt>
      <trkpt lat="43.56339" lon="2.56109">
        <ele>717</ele>
        <time>2021-07-03T07:02:06.000Z</time>
      </trkpt>
      <trkpt lat="43.5634" lon="2.56106">
        <ele>716.59997558594</ele>
        <time>2021-07-03T07:02:07.000Z</time>
      </trkpt>
      <trkpt lat="43.5634" lon="2.56103">
        <ele>716.20001220703</ele>
        <time>2021-07-03T07:02:08.000Z</time>
      </trkpt>
      <trkpt lat="43.56339" lon="2.56102">
        <ele>715.79998779297</ele>
        <time>2021-07-03T07:02:09.000Z</time>
      </trkpt>
      <trkpt lat="43.56337" lon="2.56103">
        <ele>715.40002441406</ele>
        <time>2021-07-03T07:02:10.000Z</time>
      </trkpt>
      <trkpt lat="43.56331" lon="2.56109">
        <ele>715.40002441406</ele>
        <time>2021-07-03T07:02:15.000Z</time>
      </trkpt>
      <trkpt lat="43.56331" lon="2.56109">
        <ele>715.40002441406</ele>
        <time>2021-07-03T07:02:16.000Z</time>
      </trkpt>
      <trkpt lat="43.56329" lon="2.56109">
        <ele>715.40002441406</ele>
        <time>2021-07-03T07:02:29.000Z</time>
      </trkpt>
      <trkpt lat="43.56324" lon="2.56109">
        <ele>715.40002441406</ele>
        <time>2021-07-03T07:02:31.000Z</time>
      </trkpt>
      <trkpt lat="43.56305" lon="2.5611">
        <ele>715</ele>
        <time>2021-07-03T07:02:37.000Z</time>
      </trkpt>
      <trkpt lat="43.56302" lon="2.5611">
        <ele>714.59997558594</ele>
        <time>2021-07-03T07:02:38.000Z</time>
      </trkpt>
      <trkpt lat="43.56301" lon="2.5611">
        <ele>714.20001220703</ele>
        <time>2021-07-03T07:02:39.000Z</time>
      </trkpt>
      <trkpt lat="43.56299" lon="2.5611">
        <ele>713.79998779297</ele>
        <time>2021-07-03T07:02:40.000Z</time>
      </trkpt>
      <trkpt lat="43.56299" lon="2.5611">
        <ele>713.40002441406</ele>
        <time>2021-07-03T07:02:41.000Z</time>
      </trkpt>
      <trkpt lat="43.56298" lon="2.56112">
        <ele>713.40002441406</ele>
        <time>2021-07-03T07:02:42.000Z</time>
      </trkpt>
      <trkpt lat="43.56296" lon="2.56121">
        <ele>713.40002441406</ele>
        <time>2021-07-03T07:02:44.000Z</time>
      </trkpt>
      <trkpt lat="43.56293" lon="2.56133">
        <ele>712.79998779297</ele>
        <time>2021-07-03T07:02:46.000Z</time>
      </trkpt>
      <trkpt lat="43.56292" lon="2.56139">
        <ele>712.40002441406</ele>
        <time>2021-07-03T07:02:47.000Z</time>
      </trkpt>
      <trkpt lat="43.5629" lon="2.56144">
        <ele>712</ele>
        <time>2021-07-03T07:02:48.000Z</time>
      </trkpt>
      <trkpt lat="43.56287" lon="2.56148">
        <ele>711.40002441406</ele>
        <time>2021-07-03T07:02:49.000Z</time>
      </trkpt>
      <trkpt lat="43.56282" lon="2.5615">
        <ele>711</ele>
        <time>2021-07-03T07:02:50.000Z</time>
      </trkpt>
      <trkpt lat="43.56259" lon="2.56157">
        <ele>710.59997558594</ele>
        <time>2021-07-03T07:02:54.000Z</time>
      </trkpt>
      <trkpt lat="43.56253" lon="2.56159">
        <ele>710.20001220703</ele>
        <time>2021-07-03T07:02:55.000Z</time>
      </trkpt>
      <trkpt lat="43.56248" lon="2.56161">
        <ele>709.79998779297</ele>
        <time>2021-07-03T07:02:56.000Z</time>
      </trkpt>
      <trkpt lat="43.56243" lon="2.56162">
        <ele>709.40002441406</ele>
        <time>2021-07-03T07:02:57.000Z</time>
      </trkpt>
      <trkpt lat="43.56238" lon="2.56163">
        <ele>709</ele>
        <time>2021-07-03T07:02:58.000Z</time>
      </trkpt>
      <trkpt lat="43.56228" lon="2.56168">
        <ele>709</ele>
        <time>2021-07-03T07:03:00.000Z</time>
      </trkpt>
      <trkpt lat="43.56213" lon="2.56175">
        <ele>709</ele>
        <time>2021-07-03T07:03:03.000Z</time>
      </trkpt>
      <trkpt lat="43.56191" lon="2.56192">
        <ele>709</ele>
        <time>2021-07-03T07:03:08.000Z</time>
      </trkpt>
      <trkpt lat="43.56187" lon="2.56197">
        <ele>708.40002441406</ele>
        <time>2021-07-03T07:03:09.000Z</time>
      </trkpt>
      <trkpt lat="43.56182" lon="2.56204">
        <ele>708</ele>
        <time>2021-07-03T07:03:10.000Z</time>
      </trkpt>
      <trkpt lat="43.56179" lon="2.56212">
        <ele>707.40002441406</ele>
        <time>2021-07-03T07:03:11.000Z</time>
      </trkpt>
      <trkpt lat="43.56176" lon="2.56221">
        <ele>707</ele>
        <time>2021-07-03T07:03:12.000Z</time>
      </trkpt>
      <trkpt lat="43.56174" lon="2.5623">
        <ele>706.59997558594</ele>
        <time>2021-07-03T07:03:13.000Z</time>
      </trkpt>
      <trkpt lat="43.56173" lon="2.56246">
        <ele>706.59997558594</ele>
        <time>2021-07-03T07:03:15.000Z</time>
      </trkpt>
      <trkpt lat="43.56175" lon="2.56263">
        <ele>706.20001220703</ele>
        <time>2021-07-03T07:03:17.000Z</time>
      </trkpt>
      <trkpt lat="43.56176" lon="2.56272">
        <ele>705.79998779297</ele>
        <time>2021-07-03T07:03:18.000Z</time>
      </trkpt>
      <trkpt lat="43.56176" lon="2.5628">
        <ele>705.40002441406</ele>
        <time>2021-07-03T07:03:19.000Z</time>
      </trkpt>
      <trkpt lat="43.56175" lon="2.56289">
        <ele>705</ele>
        <time>2021-07-03T07:03:20.000Z</time>
      </trkpt>
      <trkpt lat="43.56174" lon="2.56297">
        <ele>704.59997558594</ele>
        <time>2021-07-03T07:03:21.000Z</time>
      </trkpt>
      <trkpt lat="43.56174" lon="2.56305">
        <ele>704.59997558594</ele>
        <time>2021-07-03T07:03:22.000Z</time>
      </trkpt>
      <trkpt lat="43.56172" lon="2.56312">
        <ele>704.59997558594</ele>
        <time>2021-07-03T07:03:23.000Z</time>
      </trkpt>
      <trkpt lat="43.56165" lon="2.56336">
        <ele>704.59997558594</ele>
        <time>2021-07-03T07:03:27.000Z</time>
      </trkpt>
      <trkpt lat="43.56159" lon="2.56344">
        <ele>704.59997558594</ele>
        <time>2021-07-03T07:03:29.000Z</time>
      </trkpt>
      <trkpt lat="43.56148" lon="2.56356">
        <ele>704.59997558594</ele>
        <time>2021-07-03T07:03:32.000Z</time>
      </trkpt>
      <trkpt lat="43.56144" lon="2.56359">
        <ele>704.59997558594</ele>
        <time>2021-07-03T07:03:33.000Z</time>
      </trkpt>
      <trkpt lat="43.56131" lon="2.56369">
        <ele>704.59997558594</ele>
        <time>2021-07-03T07:03:37.000Z</time>
      </trkpt>
      <trkpt lat="43.56117" lon="2.56377">
        <ele>705</ele>
        <time>2021-07-03T07:03:42.000Z</time>
      </trkpt>
      <trkpt lat="43.56114" lon="2.56377">
        <ele>705.40002441406</ele>
        <time>2021-07-03T07:03:43.000Z</time>
      </trkpt>
      <trkpt lat="43.56113" lon="2.56378">
        <ele>705.79998779297</ele>
        <time>2021-07-03T07:03:44.000Z</time>
      </trkpt>
      <trkpt lat="43.56112" lon="2.56379">
        <ele>706.20001220703</ele>
        <time>2021-07-03T07:03:45.000Z</time>
      </trkpt>
      <trkpt lat="43.56111" lon="2.56381">
        <ele>706.59997558594</ele>
        <time>2021-07-03T07:04:02.000Z</time>
      </trkpt>
      <trkpt lat="43.56102" lon="2.56388">
        <ele>706.59997558594</ele>
        <time>2021-07-03T07:04:07.000Z</time>
      </trkpt>
      <trkpt lat="43.56091" lon="2.56394">
        <ele>706.59997558594</ele>
        <time>2021-07-03T07:04:12.000Z</time>
      </trkpt>
      <trkpt lat="43.56079" lon="2.564">
        <ele>707</ele>
        <time>2021-07-03T07:04:16.000Z</time>
      </trkpt>
      <trkpt lat="43.56076" lon="2.56401">
        <ele>707.59997558594</ele>
        <time>2021-07-03T07:04:17.000Z</time>
      </trkpt>
      <trkpt lat="43.56073" lon="2.56403">
        <ele>708</ele>
        <time>2021-07-03T07:04:18.000Z</time>
      </trkpt>
      <trkpt lat="43.5607" lon="2.56404">
        <ele>708.40002441406</ele>
        <time>2021-07-03T07:04:19.000Z</time>
      </trkpt>
      <trkpt lat="43.56067" lon="2.56404">
        <ele>708.79998779297</ele>
        <time>2021-07-03T07:04:20.000Z</time>
      </trkpt>
      <trkpt lat="43.56046" lon="2.56409">
        <ele>709.20001220703</ele>
        <time>2021-07-03T07:04:26.000Z</time>
      </trkpt>
      <trkpt lat="43.56043" lon="2.5641">
        <ele>709.59997558594</ele>
        <time>2021-07-03T07:04:27.000Z</time>
      </trkpt>
      <trkpt lat="43.56039" lon="2.56411">
        <ele>710</ele>
        <time>2021-07-03T07:04:28.000Z</time>
      </trkpt>
      <trkpt lat="43.56036" lon="2.56411">
        <ele>710.59997558594</ele>
        <time>2021-07-03T07:04:29.000Z</time>
      </trkpt>
      <trkpt lat="43.56032" lon="2.56412">
        <ele>711</ele>
        <time>2021-07-03T07:04:30.000Z</time>
      </trkpt>
      <trkpt lat="43.56023" lon="2.56415">
        <ele>711</ele>
        <time>2021-07-03T07:04:34.000Z</time>
      </trkpt>
      <trkpt lat="43.56011" lon="2.56418">
        <ele>711</ele>
        <time>2021-07-03T07:04:40.000Z</time>
      </trkpt>
      <trkpt lat="43.55992" lon="2.56422">
        <ele>711</ele>
        <time>2021-07-03T07:04:47.000Z</time>
      </trkpt>
      <trkpt lat="43.55974" lon="2.56428">
        <ele>711</ele>
        <time>2021-07-03T07:04:53.000Z</time>
      </trkpt>
      <trkpt lat="43.55952" lon="2.5644">
        <ele>711</ele>
        <time>2021-07-03T07:04:59.000Z</time>
      </trkpt>
      <trkpt lat="43.5593" lon="2.56452">
        <ele>711</ele>
        <time>2021-07-03T07:05:05.000Z</time>
      </trkpt>
      <trkpt lat="43.55911" lon="2.56461">
        <ele>711</ele>
        <time>2021-07-03T07:05:10.000Z</time>
      </trkpt>
      <trkpt lat="43.55907" lon="2.56463">
        <ele>711</ele>
        <time>2021-07-03T07:05:11.000Z</time>
      </trkpt>
      <trkpt lat="43.5589" lon="2.56472">
        <ele>711</ele>
        <time>2021-07-03T07:05:15.000Z</time>
      </trkpt>
      <trkpt lat="43.55871" lon="2.56481">
        <ele>711</ele>
        <time>2021-07-03T07:05:20.000Z</time>
      </trkpt>
      <trkpt lat="43.55851" lon="2.56492">
        <ele>711</ele>
        <time>2021-07-03T07:05:26.000Z</time>
      </trkpt>
      <trkpt lat="43.55836" lon="2.56503">
        <ele>711</ele>
        <time>2021-07-03T07:05:30.000Z</time>
      </trkpt>
      <trkpt lat="43.55832" lon="2.56506">
        <ele>711</ele>
        <time>2021-07-03T07:05:31.000Z</time>
      </trkpt>
      <trkpt lat="43.55814" lon="2.56518">
        <ele>710.40002441406</ele>
        <time>2021-07-03T07:05:34.000Z</time>
      </trkpt>
      <trkpt lat="43.55808" lon="2.56522">
        <ele>710</ele>
        <time>2021-07-03T07:05:35.000Z</time>
      </trkpt>
      <trkpt lat="43.55802" lon="2.56526">
        <ele>709.40002441406</ele>
        <time>2021-07-03T07:05:36.000Z</time>
      </trkpt>
      <trkpt lat="43.55797" lon="2.5653">
        <ele>709</ele>
        <time>2021-07-03T07:05:37.000Z</time>
      </trkpt>
      <trkpt lat="43.55791" lon="2.56535">
        <ele>708.40002441406</ele>
        <time>2021-07-03T07:05:38.000Z</time>
      </trkpt>
      <trkpt lat="43.55786" lon="2.5654">
        <ele>708</ele>
        <time>2021-07-03T07:05:39.000Z</time>
      </trkpt>
      <trkpt lat="43.55781" lon="2.56544">
        <ele>707.40002441406</ele>
        <time>2021-07-03T07:05:40.000Z</time>
      </trkpt>
      <trkpt lat="43.55776" lon="2.56548">
        <ele>707</ele>
        <time>2021-07-03T07:05:41.000Z</time>
      </trkpt>
      <trkpt lat="43.55771" lon="2.56551">
        <ele>706.40002441406</ele>
        <time>2021-07-03T07:05:42.000Z</time>
      </trkpt>
      <trkpt lat="43.55766" lon="2.56555">
        <ele>706</ele>
        <time>2021-07-03T07:05:43.000Z</time>
      </trkpt>
      <trkpt lat="43.55762" lon="2.56559">
        <ele>705.59997558594</ele>
        <time>2021-07-03T07:05:44.000Z</time>
      </trkpt>
      <trkpt lat="43.55758" lon="2.56561">
        <ele>705</ele>
        <time>2021-07-03T07:05:45.000Z</time>
      </trkpt>
      <trkpt lat="43.55754" lon="2.56564">
        <ele>704.59997558594</ele>
        <time>2021-07-03T07:05:46.000Z</time>
      </trkpt>
      <trkpt lat="43.55749" lon="2.56565">
        <ele>704.20001220703</ele>
        <time>2021-07-03T07:05:47.000Z</time>
      </trkpt>
      <trkpt lat="43.55744" lon="2.56564">
        <ele>703.79998779297</ele>
        <time>2021-07-03T07:05:48.000Z</time>
      </trkpt>
      <trkpt lat="43.5574" lon="2.56564">
        <ele>703.20001220703</ele>
        <time>2021-07-03T07:05:49.000Z</time>
      </trkpt>
      <trkpt lat="43.55735" lon="2.56562">
        <ele>702.79998779297</ele>
        <time>2021-07-03T07:05:50.000Z</time>
      </trkpt>
      <trkpt lat="43.5573" lon="2.56561">
        <ele>702.40002441406</ele>
        <time>2021-07-03T07:05:51.000Z</time>
      </trkpt>
      <trkpt lat="43.55726" lon="2.5656">
        <ele>701.40002441406</ele>
        <time>2021-07-03T07:05:52.000Z</time>
      </trkpt>
      <trkpt lat="43.55722" lon="2.5656">
        <ele>701</ele>
        <time>2021-07-03T07:05:53.000Z</time>
      </trkpt>
      <trkpt lat="43.55719" lon="2.5656">
        <ele>700.40002441406</ele>
        <time>2021-07-03T07:05:54.000Z</time>
      </trkpt>
      <trkpt lat="43.55716" lon="2.5656">
        <ele>700</ele>
        <time>2021-07-03T07:05:55.000Z</time>
      </trkpt>
      <trkpt lat="43.55714" lon="2.5656">
        <ele>699.59997558594</ele>
        <time>2021-07-03T07:05:56.000Z</time>
      </trkpt>
      <trkpt lat="43.55711" lon="2.56559">
        <ele>699.20001220703</ele>
        <time>2021-07-03T07:05:57.000Z</time>
      </trkpt>
      <trkpt lat="43.55709" lon="2.56558">
        <ele>698.79998779297</ele>
        <time>2021-07-03T07:05:58.000Z</time>
      </trkpt>
      <trkpt lat="43.55706" lon="2.56557">
        <ele>698.40002441406</ele>
        <time>2021-07-03T07:05:59.000Z</time>
      </trkpt>
      <trkpt lat="43.55702" lon="2.56557">
        <ele>698</ele>
        <time>2021-07-03T07:06:00.000Z</time>
      </trkpt>
      <trkpt lat="43.55699" lon="2.56557">
        <ele>697.59997558594</ele>
        <time>2021-07-03T07:06:01.000Z</time>
      </trkpt>
      <trkpt lat="43.55692" lon="2.56558">
        <ele>697.20001220703</ele>
        <time>2021-07-03T07:06:03.000Z</time>
      </trkpt>
      <trkpt lat="43.55689" lon="2.56558">
        <ele>696.59997558594</ele>
        <time>2021-07-03T07:06:04.000Z</time>
      </trkpt>
      <trkpt lat="43.55686" lon="2.56559">
        <ele>696.20001220703</ele>
        <time>2021-07-03T07:06:05.000Z</time>
      </trkpt>
      <trkpt lat="43.55683" lon="2.56559">
        <ele>695.79998779297</ele>
        <time>2021-07-03T07:06:06.000Z</time>
      </trkpt>
      <trkpt lat="43.5568" lon="2.56559">
        <ele>695.40002441406</ele>
        <time>2021-07-03T07:06:07.000Z</time>
      </trkpt>
      <trkpt lat="43.55673" lon="2.5656">
        <ele>695.40002441406</ele>
        <time>2021-07-03T07:06:09.000Z</time>
      </trkpt>
      <trkpt lat="43.55667" lon="2.56562">
        <ele>695</ele>
        <time>2021-07-03T07:06:11.000Z</time>
      </trkpt>
      <trkpt lat="43.55664" lon="2.56564">
        <ele>694.40002441406</ele>
        <time>2021-07-03T07:06:12.000Z</time>
      </trkpt>
      <trkpt lat="43.55661" lon="2.56566">
        <ele>694</ele>
        <time>2021-07-03T07:06:13.000Z</time>
      </trkpt>
      <trkpt lat="43.55658" lon="2.56568">
        <ele>693.59997558594</ele>
        <time>2021-07-03T07:06:14.000Z</time>
      </trkpt>
      <trkpt lat="43.55654" lon="2.56569">
        <ele>693.20001220703</ele>
        <time>2021-07-03T07:06:15.000Z</time>
      </trkpt>
      <trkpt lat="43.55648" lon="2.56571">
        <ele>692.59997558594</ele>
        <time>2021-07-03T07:06:17.000Z</time>
      </trkpt>
      <trkpt lat="43.55644" lon="2.56573">
        <ele>692.20001220703</ele>
        <time>2021-07-03T07:06:18.000Z</time>
      </trkpt>
      <trkpt lat="43.55641" lon="2.56575">
        <ele>691.79998779297</ele>
        <time>2021-07-03T07:06:19.000Z</time>
      </trkpt>
      <trkpt lat="43.55638" lon="2.56577">
        <ele>691.40002441406</ele>
        <time>2021-07-03T07:06:20.000Z</time>
      </trkpt>
      <trkpt lat="43.55635" lon="2.56579">
        <ele>691</ele>
        <time>2021-07-03T07:06:21.000Z</time>
      </trkpt>
      <trkpt lat="43.55626" lon="2.56585">
        <ele>690.40002441406</ele>
        <time>2021-07-03T07:06:24.000Z</time>
      </trkpt>
      <trkpt lat="43.55623" lon="2.56587">
        <ele>690</ele>
        <time>2021-07-03T07:06:25.000Z</time>
      </trkpt>
      <trkpt lat="43.5562" lon="2.56588">
        <ele>689.59997558594</ele>
        <time>2021-07-03T07:06:26.000Z</time>
      </trkpt>
      <trkpt lat="43.55617" lon="2.5659">
        <ele>689.20001220703</ele>
        <time>2021-07-03T07:06:27.000Z</time>
      </trkpt>
      <trkpt lat="43.55614" lon="2.56593">
        <ele>688.59997558594</ele>
        <time>2021-07-03T07:06:28.000Z</time>
      </trkpt>
      <trkpt lat="43.5561" lon="2.56601">
        <ele>688.59997558594</ele>
        <time>2021-07-03T07:06:30.000Z</time>
      </trkpt>
      <trkpt lat="43.55608" lon="2.56606">
        <ele>688.20001220703</ele>
        <time>2021-07-03T07:06:31.000Z</time>
      </trkpt>
      <trkpt lat="43.55608" lon="2.5661">
        <ele>687.79998779297</ele>
        <time>2021-07-03T07:06:32.000Z</time>
      </trkpt>
      <trkpt lat="43.55607" lon="2.56614">
        <ele>687.40002441406</ele>
        <time>2021-07-03T07:06:33.000Z</time>
      </trkpt>
      <trkpt lat="43.55605" lon="2.56619">
        <ele>686.79998779297</ele>
        <time>2021-07-03T07:06:34.000Z</time>
      </trkpt>
      <trkpt lat="43.55605" lon="2.56623">
        <ele>686.40002441406</ele>
        <time>2021-07-03T07:06:35.000Z</time>
      </trkpt>
      <trkpt lat="43.55604" lon="2.56628">
        <ele>686.40002441406</ele>
        <time>2021-07-03T07:06:36.000Z</time>
      </trkpt>
      <trkpt lat="43.55601" lon="2.56641">
        <ele>686</ele>
        <time>2021-07-03T07:06:39.000Z</time>
      </trkpt>
      <trkpt lat="43.556" lon="2.56645">
        <ele>685.59997558594</ele>
        <time>2021-07-03T07:06:40.000Z</time>
      </trkpt>
      <trkpt lat="43.556" lon="2.5665">
        <ele>685.20001220703</ele>
        <time>2021-07-03T07:06:41.000Z</time>
      </trkpt>
      <trkpt lat="43.55599" lon="2.56654">
        <ele>684.40002441406</ele>
        <time>2021-07-03T07:06:42.000Z</time>
      </trkpt>
      <trkpt lat="43.55596" lon="2.56675">
        <ele>684.40002441406</ele>
        <time>2021-07-03T07:06:48.000Z</time>
      </trkpt>
      <trkpt lat="43.55596" lon="2.56677">
        <ele>684</ele>
        <time>2021-07-03T07:06:49.000Z</time>
      </trkpt>
      <trkpt lat="43.55595" lon="2.5668">
        <ele>683.40002441406</ele>
        <time>2021-07-03T07:06:50.000Z</time>
      </trkpt>
      <trkpt lat="43.55595" lon="2.56684">
        <ele>683</ele>
        <time>2021-07-03T07:06:51.000Z</time>
      </trkpt>
      <trkpt lat="43.55595" lon="2.56686">
        <ele>682.59997558594</ele>
        <time>2021-07-03T07:06:52.000Z</time>
      </trkpt>
      <trkpt lat="43.55594" lon="2.56689">
        <ele>682.20001220703</ele>
        <time>2021-07-03T07:06:53.000Z</time>
      </trkpt>
      <trkpt lat="43.55594" lon="2.56691">
        <ele>682.20001220703</ele>
        <time>2021-07-03T07:06:55.000Z</time>
      </trkpt>
      <trkpt lat="43.55594" lon="2.56692">
        <ele>682.20001220703</ele>
        <time>2021-07-03T07:06:56.000Z</time>
      </trkpt>
      <trkpt lat="43.55593" lon="2.56694">
        <ele>682.20001220703</ele>
        <time>2021-07-03T07:07:45.000Z</time>
      </trkpt>
      <trkpt lat="43.55589" lon="2.56707">
        <ele>682.20001220703</ele>
        <time>2021-07-03T07:07:50.000Z</time>
      </trkpt>
      <trkpt lat="43.55586" lon="2.56714">
        <ele>682.20001220703</ele>
        <time>2021-07-03T07:07:52.000Z</time>
      </trkpt>
      <trkpt lat="43.55583" lon="2.5672">
        <ele>682.20001220703</ele>
        <time>2021-07-03T07:07:54.000Z</time>
      </trkpt>
      <trkpt lat="43.55577" lon="2.56726">
        <ele>682.20001220703</ele>
        <time>2021-07-03T07:07:58.000Z</time>
      </trkpt>
      <trkpt lat="43.55572" lon="2.56729">
        <ele>682.20001220703</ele>
        <time>2021-07-03T07:08:02.000Z</time>
      </trkpt>
      <trkpt lat="43.55571" lon="2.56731">
        <ele>682.20001220703</ele>
        <time>2021-07-03T07:08:04.000Z</time>
      </trkpt>
      <trkpt lat="43.55569" lon="2.56735">
        <ele>682.20001220703</ele>
        <time>2021-07-03T07:08:10.000Z</time>
      </trkpt>
      <trkpt lat="43.55564" lon="2.56738">
        <ele>682.20001220703</ele>
        <time>2021-07-03T07:08:14.000Z</time>
      </trkpt>
      <trkpt lat="43.5554" lon="2.56736">
        <ele>688.20001220703</ele>
        <time>2021-07-03T07:09:31.000Z</time>
      </trkpt>
      <trkpt lat="43.55535" lon="2.56735">
        <ele>688.20001220703</ele>
        <time>2021-07-03T07:09:36.000Z</time>
      </trkpt>
      <trkpt lat="43.55535" lon="2.56735">
        <ele>688.59997558594</ele>
        <time>2021-07-03T07:09:37.000Z</time>
      </trkpt>
      <trkpt lat="43.55533" lon="2.56733">
        <ele>689</ele>
        <time>2021-07-03T07:09:38.000Z</time>
      </trkpt>
      <trkpt lat="43.55533" lon="2.56733">
        <ele>689.59997558594</ele>
        <time>2021-07-03T07:09:39.000Z</time>
      </trkpt>
      <trkpt lat="43.55532" lon="2.56732">
        <ele>690</ele>
        <time>2021-07-03T07:09:40.000Z</time>
      </trkpt>
      <trkpt lat="43.55525" lon="2.56734">
        <ele>690.40002441406</ele>
        <time>2021-07-03T07:11:00.000Z</time>
      </trkpt>
      <trkpt lat="43.55521" lon="2.56733">
        <ele>690.40002441406</ele>
        <time>2021-07-03T07:11:03.000Z</time>
      </trkpt>
      <trkpt lat="43.55519" lon="2.56733">
        <ele>690.79998779297</ele>
        <time>2021-07-03T07:11:04.000Z</time>
      </trkpt>
      <trkpt lat="43.55517" lon="2.56732">
        <ele>691.20001220703</ele>
        <time>2021-07-03T07:11:05.000Z</time>
      </trkpt>
      <trkpt lat="43.55515" lon="2.56731">
        <ele>691.59997558594</ele>
        <time>2021-07-03T07:11:06.000Z</time>
      </trkpt>
      <trkpt lat="43.55513" lon="2.56731">
        <ele>692</ele>
        <time>2021-07-03T07:11:07.000Z</time>
      </trkpt>
      <trkpt lat="43.55511" lon="2.56733">
        <ele>692.59997558594</ele>
        <time>2021-07-03T07:11:08.000Z</time>
      </trkpt>
      <trkpt lat="43.55507" lon="2.56735">
        <ele>692.59997558594</ele>
        <time>2021-07-03T07:11:11.000Z</time>
      </trkpt>
      <trkpt lat="43.55502" lon="2.56736">
        <ele>692.59997558594</ele>
        <time>2021-07-03T07:11:13.000Z</time>
      </trkpt>
      <trkpt lat="43.55495" lon="2.56737">
        <ele>692.59997558594</ele>
        <time>2021-07-03T07:11:16.000Z</time>
      </trkpt>
      <trkpt lat="43.55494" lon="2.56738">
        <ele>693</ele>
        <time>2021-07-03T07:11:17.000Z</time>
      </trkpt>
      <trkpt lat="43.55493" lon="2.56739">
        <ele>693.40002441406</ele>
        <time>2021-07-03T07:11:18.000Z</time>
      </trkpt>
      <trkpt lat="43.55492" lon="2.56739">
        <ele>693.79998779297</ele>
        <time>2021-07-03T07:11:19.000Z</time>
      </trkpt>
      <trkpt lat="43.55492" lon="2.56739">
        <ele>694.20001220703</ele>
        <time>2021-07-03T07:11:20.000Z</time>
      </trkpt>
      <trkpt lat="43.5549" lon="2.5674">
        <ele>694.59997558594</ele>
        <time>2021-07-03T07:11:21.000Z</time>
      </trkpt>
      <trkpt lat="43.55488" lon="2.5674">
        <ele>694.59997558594</ele>
        <time>2021-07-03T07:11:22.000Z</time>
      </trkpt>
      <trkpt lat="43.55485" lon="2.56741">
        <ele>695</ele>
        <time>2021-07-03T07:11:24.000Z</time>
      </trkpt>
      <trkpt lat="43.55483" lon="2.56742">
        <ele>695.40002441406</ele>
        <time>2021-07-03T07:11:25.000Z</time>
      </trkpt>
      <trkpt lat="43.55481" lon="2.56741">
        <ele>696</ele>
        <time>2021-07-03T07:11:26.000Z</time>
      </trkpt>
      <trkpt lat="43.55477" lon="2.56738">
        <ele>696.40002441406</ele>
        <time>2021-07-03T07:11:27.000Z</time>
      </trkpt>
      <trkpt lat="43.55474" lon="2.56736">
        <ele>696.79998779297</ele>
        <time>2021-07-03T07:11:28.000Z</time>
      </trkpt>
      <trkpt lat="43.55459" lon="2.56728">
        <ele>697.20001220703</ele>
        <time>2021-07-03T07:11:32.000Z</time>
      </trkpt>
      <trkpt lat="43.55456" lon="2.56727">
        <ele>697.79998779297</ele>
        <time>2021-07-03T07:11:33.000Z</time>
      </trkpt>
      <trkpt lat="43.55451" lon="2.56724">
        <ele>698.20001220703</ele>
        <time>2021-07-03T07:11:34.000Z</time>
      </trkpt>
      <trkpt lat="43.55449" lon="2.56721">
        <ele>698.59997558594</ele>
        <time>2021-07-03T07:11:35.000Z</time>
      </trkpt>
      <trkpt lat="43.55445" lon="2.56719">
        <ele>699</ele>
        <time>2021-07-03T07:11:36.000Z</time>
      </trkpt>
      <trkpt lat="43.55437" lon="2.56715">
        <ele>699.59997558594</ele>
        <time>2021-07-03T07:11:38.000Z</time>
      </trkpt>
      <trkpt lat="43.55433" lon="2.56713">
        <ele>700</ele>
        <time>2021-07-03T07:11:39.000Z</time>
      </trkpt>
      <trkpt lat="43.55429" lon="2.5671">
        <ele>700.40002441406</ele>
        <time>2021-07-03T07:11:40.000Z</time>
      </trkpt>
      <trkpt lat="43.55425" lon="2.56708">
        <ele>701</ele>
        <time>2021-07-03T07:11:41.000Z</time>
      </trkpt>
      <trkpt lat="43.55421" lon="2.56706">
        <ele>701.40002441406</ele>
        <time>2021-07-03T07:11:42.000Z</time>
      </trkpt>
      <trkpt lat="43.55416" lon="2.56705">
        <ele>701.79998779297</ele>
        <time>2021-07-03T07:11:43.000Z</time>
      </trkpt>
      <trkpt lat="43.55412" lon="2.56704">
        <ele>702.20001220703</ele>
        <time>2021-07-03T07:11:44.000Z</time>
      </trkpt>
      <trkpt lat="43.55409" lon="2.56703">
        <ele>702.59997558594</ele>
        <time>2021-07-03T07:11:45.000Z</time>
      </trkpt>
      <trkpt lat="43.55405" lon="2.56701">
        <ele>703</ele>
        <time>2021-07-03T07:11:46.000Z</time>
      </trkpt>
      <trkpt lat="43.55402" lon="2.567">
        <ele>703.59997558594</ele>
        <time>2021-07-03T07:11:47.000Z</time>
      </trkpt>
      <trkpt lat="43.55399" lon="2.56698">
        <ele>703.59997558594</ele>
        <time>2021-07-03T07:11:48.000Z</time>
      </trkpt>
      <trkpt lat="43.55396" lon="2.56696">
        <ele>704</ele>
        <time>2021-07-03T07:11:49.000Z</time>
      </trkpt>
      <trkpt lat="43.55394" lon="2.56694">
        <ele>704.40002441406</ele>
        <time>2021-07-03T07:11:50.000Z</time>
      </trkpt>
      <trkpt lat="43.55392" lon="2.56692">
        <ele>705</ele>
        <time>2021-07-03T07:11:51.000Z</time>
      </trkpt>
      <trkpt lat="43.5539" lon="2.5669">
        <ele>705.40002441406</ele>
        <time>2021-07-03T07:11:52.000Z</time>
      </trkpt>
      <trkpt lat="43.55387" lon="2.56687">
        <ele>705.79998779297</ele>
        <time>2021-07-03T07:11:53.000Z</time>
      </trkpt>
      <trkpt lat="43.55384" lon="2.56684">
        <ele>706.40002441406</ele>
        <time>2021-07-03T07:11:54.000Z</time>
      </trkpt>
      <trkpt lat="43.55382" lon="2.56682">
        <ele>706.79998779297</ele>
        <time>2021-07-03T07:11:55.000Z</time>
      </trkpt>
      <trkpt lat="43.5538" lon="2.5668">
        <ele>707.20001220703</ele>
        <time>2021-07-03T07:11:56.000Z</time>
      </trkpt>
      <trkpt lat="43.55378" lon="2.56678">
        <ele>707.79998779297</ele>
        <time>2021-07-03T07:11:57.000Z</time>
      </trkpt>
      <trkpt lat="43.55376" lon="2.56676">
        <ele>708.20001220703</ele>
        <time>2021-07-03T07:11:58.000Z</time>
      </trkpt>
      <trkpt lat="43.55373" lon="2.56675">
        <ele>708.59997558594</ele>
        <time>2021-07-03T07:11:59.000Z</time>
      </trkpt>
      <trkpt lat="43.55371" lon="2.56675">
        <ele>709</ele>
        <time>2021-07-03T07:12:00.000Z</time>
      </trkpt>
      <trkpt lat="43.55369" lon="2.56674">
        <ele>709.40002441406</ele>
        <time>2021-07-03T07:12:01.000Z</time>
      </trkpt>
      <trkpt lat="43.55368" lon="2.56674">
        <ele>709.79998779297</ele>
        <time>2021-07-03T07:12:02.000Z</time>
      </trkpt>
      <trkpt lat="43.55367" lon="2.56675">
        <ele>710.20001220703</ele>
        <time>2021-07-03T07:12:03.000Z</time>
      </trkpt>
      <trkpt lat="43.55366" lon="2.56686">
        <ele>710.20001220703</ele>
        <time>2021-07-03T07:12:07.000Z</time>
      </trkpt>
      <trkpt lat="43.55367" lon="2.56687">
        <ele>710.20001220703</ele>
        <time>2021-07-03T07:12:08.000Z</time>
      </trkpt>
      <trkpt lat="43.55367" lon="2.56689">
        <ele>710.59997558594</ele>
        <time>2021-07-03T07:12:09.000Z</time>
      </trkpt>
      <trkpt lat="43.55368" lon="2.5669">
        <ele>711</ele>
        <time>2021-07-03T07:12:10.000Z</time>
      </trkpt>
      <trkpt lat="43.55367" lon="2.5669">
        <ele>711.59997558594</ele>
        <time>2021-07-03T07:12:11.000Z</time>
      </trkpt>
      <trkpt lat="43.55368" lon="2.56691">
        <ele>712</ele>
        <time>2021-07-03T07:12:12.000Z</time>
      </trkpt>
      <trkpt lat="43.55368" lon="2.56691">
        <ele>712.40002441406</ele>
        <time>2021-07-03T07:12:13.000Z</time>
      </trkpt>
      <trkpt lat="43.55368" lon="2.56689">
        <ele>712.40002441406</ele>
        <time>2021-07-03T07:12:33.000Z</time>
      </trkpt>
      <trkpt lat="43.55367" lon="2.56687">
        <ele>712.40002441406</ele>
        <time>2021-07-03T07:12:35.000Z</time>
      </trkpt>
      <trkpt lat="43.5536" lon="2.56677">
        <ele>712.40002441406</ele>
        <time>2021-07-03T07:12:41.000Z</time>
      </trkpt>
      <trkpt lat="43.55354" lon="2.5667">
        <ele>712.40002441406</ele>
        <time>2021-07-03T07:12:43.000Z</time>
      </trkpt>
      <trkpt lat="43.55345" lon="2.56666">
        <ele>712.40002441406</ele>
        <time>2021-07-03T07:12:45.000Z</time>
      </trkpt>
      <trkpt lat="43.55339" lon="2.56663">
        <ele>712</ele>
        <time>2021-07-03T07:12:46.000Z</time>
      </trkpt>
      <trkpt lat="43.55334" lon="2.56661">
        <ele>711.59997558594</ele>
        <time>2021-07-03T07:12:47.000Z</time>
      </trkpt>
      <trkpt lat="43.55331" lon="2.56659">
        <ele>711.20001220703</ele>
        <time>2021-07-03T07:12:48.000Z</time>
      </trkpt>
      <trkpt lat="43.55328" lon="2.56657">
        <ele>710.59997558594</ele>
        <time>2021-07-03T07:12:49.000Z</time>
      </trkpt>
      <trkpt lat="43.55325" lon="2.56656">
        <ele>710.20001220703</ele>
        <time>2021-07-03T07:12:50.000Z</time>
      </trkpt>
      <trkpt lat="43.55322" lon="2.56658">
        <ele>710.20001220703</ele>
        <time>2021-07-03T07:12:52.000Z</time>
      </trkpt>
      <trkpt lat="43.55323" lon="2.56659">
        <ele>710.20001220703</ele>
        <time>2021-07-03T07:12:57.000Z</time>
      </trkpt>
      <trkpt lat="43.55336" lon="2.56665">
        <ele>710.20001220703</ele>
        <time>2021-07-03T07:13:03.000Z</time>
      </trkpt>
      <trkpt lat="43.55338" lon="2.56666">
        <ele>710.20001220703</ele>
        <time>2021-07-03T07:13:08.000Z</time>
      </trkpt>
      <trkpt lat="43.55342" lon="2.56671">
        <ele>710.20001220703</ele>
        <time>2021-07-03T07:13:32.000Z</time>
      </trkpt>
      <trkpt lat="43.55346" lon="2.56674">
        <ele>710.20001220703</ele>
        <time>2021-07-03T07:13:34.000Z</time>
      </trkpt>
      <trkpt lat="43.5535" lon="2.56678">
        <ele>710.20001220703</ele>
        <time>2021-07-03T07:13:36.000Z</time>
      </trkpt>
      <trkpt lat="43.55356" lon="2.56683">
        <ele>710.20001220703</ele>
        <time>2021-07-03T07:13:39.000Z</time>
      </trkpt>
      <trkpt lat="43.55357" lon="2.56684">
        <ele>710.59997558594</ele>
        <time>2021-07-03T07:13:40.000Z</time>
      </trkpt>
      <trkpt lat="43.55359" lon="2.56686">
        <ele>711.20001220703</ele>
        <time>2021-07-03T07:13:41.000Z</time>
      </trkpt>
      <trkpt lat="43.55361" lon="2.56687">
        <ele>712</ele>
        <time>2021-07-03T07:13:42.000Z</time>
      </trkpt>
      <trkpt lat="43.55362" lon="2.56689">
        <ele>712.40002441406</ele>
        <time>2021-07-03T07:13:43.000Z</time>
      </trkpt>
      <trkpt lat="43.55363" lon="2.56691">
        <ele>712.40002441406</ele>
        <time>2021-07-03T07:13:44.000Z</time>
      </trkpt>
      <trkpt lat="43.55367" lon="2.5671">
        <ele>712.40002441406</ele>
        <time>2021-07-03T07:13:50.000Z</time>
      </trkpt>
      <trkpt lat="43.55369" lon="2.56718">
        <ele>712.79998779297</ele>
        <time>2021-07-03T07:13:53.000Z</time>
      </trkpt>
      <trkpt lat="43.55369" lon="2.5672">
        <ele>713.20001220703</ele>
        <time>2021-07-03T07:13:54.000Z</time>
      </trkpt>
      <trkpt lat="43.5537" lon="2.56723">
        <ele>713.59997558594</ele>
        <time>2021-07-03T07:13:55.000Z</time>
      </trkpt>
      <trkpt lat="43.5537" lon="2.56726">
        <ele>714.20001220703</ele>
        <time>2021-07-03T07:13:56.000Z</time>
      </trkpt>
      <trkpt lat="43.5537" lon="2.56728">
        <ele>714.59997558594</ele>
        <time>2021-07-03T07:13:57.000Z</time>
      </trkpt>
      <trkpt lat="43.5537" lon="2.56731">
        <ele>714.59997558594</ele>
        <time>2021-07-03T07:13:58.000Z</time>
      </trkpt>
      <trkpt lat="43.55371" lon="2.56734">
        <ele>714.59997558594</ele>
        <time>2021-07-03T07:13:59.000Z</time>
      </trkpt>
      <trkpt lat="43.55376" lon="2.56751">
        <ele>714.59997558594</ele>
        <time>2021-07-03T07:14:04.000Z</time>
      </trkpt>
      <trkpt lat="43.55378" lon="2.56755">
        <ele>715</ele>
        <time>2021-07-03T07:14:05.000Z</time>
      </trkpt>
      <trkpt lat="43.55379" lon="2.56759">
        <ele>715.40002441406</ele>
        <time>2021-07-03T07:14:06.000Z</time>
      </trkpt>
      <trkpt lat="43.5538" lon="2.56762">
        <ele>715.79998779297</ele>
        <time>2021-07-03T07:14:07.000Z</time>
      </trkpt>
      <trkpt lat="43.55382" lon="2.56766">
        <ele>716.59997558594</ele>
        <time>2021-07-03T07:14:08.000Z</time>
      </trkpt>
      <trkpt lat="43.55383" lon="2.56771">
        <ele>716.59997558594</ele>
        <time>2021-07-03T07:14:09.000Z</time>
      </trkpt>
      <trkpt lat="43.55386" lon="2.56785">
        <ele>717</ele>
        <time>2021-07-03T07:14:12.000Z</time>
      </trkpt>
      <trkpt lat="43.55387" lon="2.5679">
        <ele>717.40002441406</ele>
        <time>2021-07-03T07:14:13.000Z</time>
      </trkpt>
      <trkpt lat="43.55388" lon="2.56795">
        <ele>718</ele>
        <time>2021-07-03T07:14:14.000Z</time>
      </trkpt>
      <trkpt lat="43.5539" lon="2.568">
        <ele>718.40002441406</ele>
        <time>2021-07-03T07:14:15.000Z</time>
      </trkpt>
      <trkpt lat="43.55391" lon="2.56805">
        <ele>718.79998779297</ele>
        <time>2021-07-03T07:14:16.000Z</time>
      </trkpt>
      <trkpt lat="43.55401" lon="2.56825">
        <ele>718.79998779297</ele>
        <time>2021-07-03T07:14:22.000Z</time>
      </trkpt>
      <trkpt lat="43.55404" lon="2.56827">
        <ele>719.20001220703</ele>
        <time>2021-07-03T07:14:23.000Z</time>
      </trkpt>
      <trkpt lat="43.55407" lon="2.56829">
        <ele>719.79998779297</ele>
        <time>2021-07-03T07:14:24.000Z</time>
      </trkpt>
      <trkpt lat="43.5541" lon="2.5683">
        <ele>720.20001220703</ele>
        <time>2021-07-03T07:14:25.000Z</time>
      </trkpt>
      <trkpt lat="43.55412" lon="2.56832">
        <ele>720.59997558594</ele>
        <time>2021-07-03T07:14:26.000Z</time>
      </trkpt>
      <trkpt lat="43.55415" lon="2.56833">
        <ele>721</ele>
        <time>2021-07-03T07:14:27.000Z</time>
      </trkpt>
      <trkpt lat="43.55417" lon="2.56833">
        <ele>721</ele>
        <time>2021-07-03T07:14:28.000Z</time>
      </trkpt>
      <trkpt lat="43.55428" lon="2.56837">
        <ele>722</ele>
        <time>2021-07-03T07:14:32.000Z</time>
      </trkpt>
      <trkpt lat="43.55431" lon="2.56838">
        <ele>722.40002441406</ele>
        <time>2021-07-03T07:14:33.000Z</time>
      </trkpt>
      <trkpt lat="43.55433" lon="2.56839">
        <ele>722.79998779297</ele>
        <time>2021-07-03T07:14:34.000Z</time>
      </trkpt>
      <trkpt lat="43.55436" lon="2.5684">
        <ele>723.20001220703</ele>
        <time>2021-07-03T07:14:35.000Z</time>
      </trkpt>
      <trkpt lat="43.55444" lon="2.56845">
        <ele>723.59997558594</ele>
        <time>2021-07-03T07:14:39.000Z</time>
      </trkpt>
      <trkpt lat="43.55446" lon="2.56846">
        <ele>724</ele>
        <time>2021-07-03T07:14:40.000Z</time>
      </trkpt>
      <trkpt lat="43.55447" lon="2.56848">
        <ele>724.40002441406</ele>
        <time>2021-07-03T07:14:41.000Z</time>
      </trkpt>
      <trkpt lat="43.55448" lon="2.56849">
        <ele>725</ele>
        <time>2021-07-03T07:14:42.000Z</time>
      </trkpt>
      <trkpt lat="43.55448" lon="2.56848">
        <ele>725.40002441406</ele>
        <time>2021-07-03T07:14:43.000Z</time>
      </trkpt>
      <trkpt lat="43.55449" lon="2.5685">
        <ele>725.40002441406</ele>
        <time>2021-07-03T07:14:52.000Z</time>
      </trkpt>
      <trkpt lat="43.55456" lon="2.5686">
        <ele>725.40002441406</ele>
        <time>2021-07-03T07:14:56.000Z</time>
      </trkpt>
      <trkpt lat="43.55459" lon="2.56865">
        <ele>725.79998779297</ele>
        <time>2021-07-03T07:14:58.000Z</time>
      </trkpt>
      <trkpt lat="43.55461" lon="2.56868">
        <ele>726.20001220703</ele>
        <time>2021-07-03T07:14:59.000Z</time>
      </trkpt>
      <trkpt lat="43.55462" lon="2.56871">
        <ele>726.59997558594</ele>
        <time>2021-07-03T07:15:00.000Z</time>
      </trkpt>
      <trkpt lat="43.55463" lon="2.56874">
        <ele>727</ele>
        <time>2021-07-03T07:15:01.000Z</time>
      </trkpt>
      <trkpt lat="43.55464" lon="2.56877">
        <ele>727.40002441406</ele>
        <time>2021-07-03T07:15:02.000Z</time>
      </trkpt>
      <trkpt lat="43.55466" lon="2.56893">
        <ele>727.40002441406</ele>
        <time>2021-07-03T07:15:07.000Z</time>
      </trkpt>
      <trkpt lat="43.55466" lon="2.56903">
        <ele>727.79998779297</ele>
        <time>2021-07-03T07:15:10.000Z</time>
      </trkpt>
      <trkpt lat="43.55466" lon="2.56906">
        <ele>728.20001220703</ele>
        <time>2021-07-03T07:15:11.000Z</time>
      </trkpt>
      <trkpt lat="43.55466" lon="2.56909">
        <ele>728.59997558594</ele>
        <time>2021-07-03T07:15:12.000Z</time>
      </trkpt>
      <trkpt lat="43.55465" lon="2.56912">
        <ele>729</ele>
        <time>2021-07-03T07:15:13.000Z</time>
      </trkpt>
      <trkpt lat="43.55466" lon="2.56916">
        <ele>729.40002441406</ele>
        <time>2021-07-03T07:15:14.000Z</time>
      </trkpt>
      <trkpt lat="43.55464" lon="2.56928">
        <ele>729.40002441406</ele>
        <time>2021-07-03T07:15:18.000Z</time>
      </trkpt>
      <trkpt lat="43.55461" lon="2.56937">
        <ele>730</ele>
        <time>2021-07-03T07:15:21.000Z</time>
      </trkpt>
      <trkpt lat="43.5546" lon="2.5694">
        <ele>730.79998779297</ele>
        <time>2021-07-03T07:15:22.000Z</time>
      </trkpt>
      <trkpt lat="43.5546" lon="2.56944">
        <ele>731.20001220703</ele>
        <time>2021-07-03T07:15:23.000Z</time>
      </trkpt>
      <trkpt lat="43.55459" lon="2.56947">
        <ele>731.59997558594</ele>
        <time>2021-07-03T07:15:24.000Z</time>
      </trkpt>
      <trkpt lat="43.55458" lon="2.56953">
        <ele>731.59997558594</ele>
        <time>2021-07-03T07:15:26.000Z</time>
      </trkpt>
      <trkpt lat="43.55458" lon="2.56966">
        <ele>732</ele>
        <time>2021-07-03T07:15:30.000Z</time>
      </trkpt>
      <trkpt lat="43.55458" lon="2.56969">
        <ele>732.59997558594</ele>
        <time>2021-07-03T07:15:31.000Z</time>
      </trkpt>
      <trkpt lat="43.55458" lon="2.56973">
        <ele>733</ele>
        <time>2021-07-03T07:15:32.000Z</time>
      </trkpt>
      <trkpt lat="43.55458" lon="2.56976">
        <ele>733.40002441406</ele>
        <time>2021-07-03T07:15:33.000Z</time>
      </trkpt>
      <trkpt lat="43.55458" lon="2.5698">
        <ele>733.79998779297</ele>
        <time>2021-07-03T07:15:34.000Z</time>
      </trkpt>
      <trkpt lat="43.55455" lon="2.56999">
        <ele>733.79998779297</ele>
        <time>2021-07-03T07:15:39.000Z</time>
      </trkpt>
      <trkpt lat="43.55452" lon="2.57023">
        <ele>733.79998779297</ele>
        <time>2021-07-03T07:15:46.000Z</time>
      </trkpt>
      <trkpt lat="43.55449" lon="2.57049">
        <ele>733.79998779297</ele>
        <time>2021-07-03T07:15:54.000Z</time>
      </trkpt>
      <trkpt lat="43.55448" lon="2.57054">
        <ele>733.79998779297</ele>
        <time>2021-07-03T07:15:56.000Z</time>
      </trkpt>
      <trkpt lat="43.55449" lon="2.57056">
        <ele>733.79998779297</ele>
        <time>2021-07-03T07:15:58.000Z</time>
      </trkpt>
      <trkpt lat="43.55448" lon="2.57058">
        <ele>733.79998779297</ele>
        <time>2021-07-03T07:16:24.000Z</time>
      </trkpt>
      <trkpt lat="43.55446" lon="2.57071">
        <ele>733.79998779297</ele>
        <time>2021-07-03T07:16:28.000Z</time>
      </trkpt>
      <trkpt lat="43.55442" lon="2.57086">
        <ele>733.79998779297</ele>
        <time>2021-07-03T07:16:31.000Z</time>
      </trkpt>
      <trkpt lat="43.55439" lon="2.57098">
        <ele>733.79998779297</ele>
        <time>2021-07-03T07:16:33.000Z</time>
      </trkpt>
      <trkpt lat="43.55438" lon="2.57103">
        <ele>733.79998779297</ele>
        <time>2021-07-03T07:16:34.000Z</time>
      </trkpt>
      <trkpt lat="43.55432" lon="2.57122">
        <ele>733.79998779297</ele>
        <time>2021-07-03T07:16:38.000Z</time>
      </trkpt>
      <trkpt lat="43.55421" lon="2.5715">
        <ele>733.79998779297</ele>
        <time>2021-07-03T07:16:44.000Z</time>
      </trkpt>
      <trkpt lat="43.55413" lon="2.57176">
        <ele>733.79998779297</ele>
        <time>2021-07-03T07:16:49.000Z</time>
      </trkpt>
      <trkpt lat="43.5541" lon="2.57187">
        <ele>733.79998779297</ele>
        <time>2021-07-03T07:16:51.000Z</time>
      </trkpt>
      <trkpt lat="43.55407" lon="2.57214">
        <ele>733.79998779297</ele>
        <time>2021-07-03T07:16:56.000Z</time>
      </trkpt>
      <trkpt lat="43.55408" lon="2.57238">
        <ele>733.79998779297</ele>
        <time>2021-07-03T07:17:01.000Z</time>
      </trkpt>
      <trkpt lat="43.55408" lon="2.57248">
        <ele>734.20001220703</ele>
        <time>2021-07-03T07:17:03.000Z</time>
      </trkpt>
      <trkpt lat="43.55407" lon="2.57252">
        <ele>734.59997558594</ele>
        <time>2021-07-03T07:17:04.000Z</time>
      </trkpt>
      <trkpt lat="43.55405" lon="2.57256">
        <ele>735.20001220703</ele>
        <time>2021-07-03T07:17:05.000Z</time>
      </trkpt>
      <trkpt lat="43.55404" lon="2.5726">
        <ele>735.59997558594</ele>
        <time>2021-07-03T07:17:06.000Z</time>
      </trkpt>
      <trkpt lat="43.55403" lon="2.57264">
        <ele>736</ele>
        <time>2021-07-03T07:17:07.000Z</time>
      </trkpt>
      <trkpt lat="43.55395" lon="2.57283">
        <ele>736.40002441406</ele>
        <time>2021-07-03T07:17:12.000Z</time>
      </trkpt>
      <trkpt lat="43.55393" lon="2.57286">
        <ele>737</ele>
        <time>2021-07-03T07:17:13.000Z</time>
      </trkpt>
      <trkpt lat="43.55391" lon="2.57289">
        <ele>737.40002441406</ele>
        <time>2021-07-03T07:17:14.000Z</time>
      </trkpt>
      <trkpt lat="43.5539" lon="2.57293">
        <ele>738</ele>
        <time>2021-07-03T07:17:15.000Z</time>
      </trkpt>
      <trkpt lat="43.55389" lon="2.57297">
        <ele>738.40002441406</ele>
        <time>2021-07-03T07:17:16.000Z</time>
      </trkpt>
      <trkpt lat="43.55384" lon="2.57308">
        <ele>738.40002441406</ele>
        <time>2021-07-03T07:17:19.000Z</time>
      </trkpt>
      <trkpt lat="43.55381" lon="2.57316">
        <ele>738.79998779297</ele>
        <time>2021-07-03T07:17:21.000Z</time>
      </trkpt>
      <trkpt lat="43.55379" lon="2.5732">
        <ele>739.20001220703</ele>
        <time>2021-07-03T07:17:22.000Z</time>
      </trkpt>
      <trkpt lat="43.55377" lon="2.57323">
        <ele>739.59997558594</ele>
        <time>2021-07-03T07:17:23.000Z</time>
      </trkpt>
      <trkpt lat="43.55375" lon="2.57327">
        <ele>740</ele>
        <time>2021-07-03T07:17:24.000Z</time>
      </trkpt>
      <trkpt lat="43.55373" lon="2.5733">
        <ele>740.40002441406</ele>
        <time>2021-07-03T07:17:25.000Z</time>
      </trkpt>
      <trkpt lat="43.55357" lon="2.57353">
        <ele>740.79998779297</ele>
        <time>2021-07-03T07:17:33.000Z</time>
      </trkpt>
      <trkpt lat="43.55355" lon="2.57356">
        <ele>741.20001220703</ele>
        <time>2021-07-03T07:17:34.000Z</time>
      </trkpt>
      <trkpt lat="43.55353" lon="2.57359">
        <ele>741.59997558594</ele>
        <time>2021-07-03T07:17:35.000Z</time>
      </trkpt>
      <trkpt lat="43.55352" lon="2.57362">
        <ele>742.20001220703</ele>
        <time>2021-07-03T07:17:36.000Z</time>
      </trkpt>
      <trkpt lat="43.5535" lon="2.57365">
        <ele>742.59997558594</ele>
        <time>2021-07-03T07:17:37.000Z</time>
      </trkpt>
      <trkpt lat="43.55346" lon="2.57374">
        <ele>742.59997558594</ele>
        <time>2021-07-03T07:17:41.000Z</time>
      </trkpt>
      <trkpt lat="43.55337" lon="2.57389">
        <ele>742.59997558594</ele>
        <time>2021-07-03T07:17:47.000Z</time>
      </trkpt>
      <trkpt lat="43.55326" lon="2.57414">
        <ele>742.59997558594</ele>
        <time>2021-07-03T07:17:55.000Z</time>
      </trkpt>
      <trkpt lat="43.55319" lon="2.57443">
        <ele>742.59997558594</ele>
        <time>2021-07-03T07:18:03.000Z</time>
      </trkpt>
      <trkpt lat="43.55318" lon="2.5746">
        <ele>742.59997558594</ele>
        <time>2021-07-03T07:18:08.000Z</time>
      </trkpt>
      <trkpt lat="43.55317" lon="2.57465">
        <ele>742.59997558594</ele>
        <time>2021-07-03T07:18:11.000Z</time>
      </trkpt>
      <trkpt lat="43.55317" lon="2.57468">
        <ele>742.59997558594</ele>
        <time>2021-07-03T07:18:48.000Z</time>
      </trkpt>
      <trkpt lat="43.55316" lon="2.57488">
        <ele>742.59997558594</ele>
        <time>2021-07-03T07:18:52.000Z</time>
      </trkpt>
      <trkpt lat="43.55315" lon="2.57494">
        <ele>742.59997558594</ele>
        <time>2021-07-03T07:18:53.000Z</time>
      </trkpt>
      <trkpt lat="43.55315" lon="2.57518">
        <ele>742.59997558594</ele>
        <time>2021-07-03T07:18:57.000Z</time>
      </trkpt>
      <trkpt lat="43.55315" lon="2.57524">
        <ele>742.59997558594</ele>
        <time>2021-07-03T07:18:58.000Z</time>
      </trkpt>
      <trkpt lat="43.55313" lon="2.57572">
        <ele>742.59997558594</ele>
        <time>2021-07-03T07:19:06.000Z</time>
      </trkpt>
      <trkpt lat="43.55311" lon="2.57599">
        <ele>743</ele>
        <time>2021-07-03T07:19:11.000Z</time>
      </trkpt>
      <trkpt lat="43.5531" lon="2.57603">
        <ele>743.40002441406</ele>
        <time>2021-07-03T07:19:12.000Z</time>
      </trkpt>
      <trkpt lat="43.5531" lon="2.57608">
        <ele>744</ele>
        <time>2021-07-03T07:19:13.000Z</time>
      </trkpt>
      <trkpt lat="43.55309" lon="2.57612">
        <ele>744.40002441406</ele>
        <time>2021-07-03T07:19:14.000Z</time>
      </trkpt>
      <trkpt lat="43.55308" lon="2.57616">
        <ele>744.79998779297</ele>
        <time>2021-07-03T07:19:15.000Z</time>
      </trkpt>
      <trkpt lat="43.55307" lon="2.5762">
        <ele>745.20001220703</ele>
        <time>2021-07-03T07:19:16.000Z</time>
      </trkpt>
      <trkpt lat="43.55306" lon="2.57624">
        <ele>745.59997558594</ele>
        <time>2021-07-03T07:19:17.000Z</time>
      </trkpt>
      <trkpt lat="43.55306" lon="2.57628">
        <ele>746.20001220703</ele>
        <time>2021-07-03T07:19:18.000Z</time>
      </trkpt>
      <trkpt lat="43.55305" lon="2.57632">
        <ele>746.59997558594</ele>
        <time>2021-07-03T07:19:19.000Z</time>
      </trkpt>
      <trkpt lat="43.55304" lon="2.57636">
        <ele>747</ele>
        <time>2021-07-03T07:19:20.000Z</time>
      </trkpt>
      <trkpt lat="43.55302" lon="2.57655">
        <ele>747.40002441406</ele>
        <time>2021-07-03T07:19:24.000Z</time>
      </trkpt>
      <trkpt lat="43.55302" lon="2.5766">
        <ele>747.79998779297</ele>
        <time>2021-07-03T07:19:25.000Z</time>
      </trkpt>
      <trkpt lat="43.55301" lon="2.57665">
        <ele>748.40002441406</ele>
        <time>2021-07-03T07:19:26.000Z</time>
      </trkpt>
      <trkpt lat="43.553" lon="2.57671">
        <ele>748.79998779297</ele>
        <time>2021-07-03T07:19:27.000Z</time>
      </trkpt>
      <trkpt lat="43.553" lon="2.57676">
        <ele>749.20001220703</ele>
        <time>2021-07-03T07:19:28.000Z</time>
      </trkpt>
      <trkpt lat="43.55299" lon="2.57681">
        <ele>749.20001220703</ele>
        <time>2021-07-03T07:19:29.000Z</time>
      </trkpt>
      <trkpt lat="43.55297" lon="2.57697">
        <ele>749.59997558594</ele>
        <time>2021-07-03T07:19:32.000Z</time>
      </trkpt>
      <trkpt lat="43.55297" lon="2.57701">
        <ele>750</ele>
        <time>2021-07-03T07:19:33.000Z</time>
      </trkpt>
      <trkpt lat="43.55296" lon="2.57705">
        <ele>750.40002441406</ele>
        <time>2021-07-03T07:19:34.000Z</time>
      </trkpt>
      <trkpt lat="43.55296" lon="2.57708">
        <ele>750.79998779297</ele>
        <time>2021-07-03T07:19:35.000Z</time>
      </trkpt>
      <trkpt lat="43.55297" lon="2.57711">
        <ele>751.20001220703</ele>
        <time>2021-07-03T07:19:36.000Z</time>
      </trkpt>
      <trkpt lat="43.55296" lon="2.57726">
        <ele>751.20001220703</ele>
        <time>2021-07-03T07:19:40.000Z</time>
      </trkpt>
      <trkpt lat="43.55293" lon="2.57744">
        <ele>751.20001220703</ele>
        <time>2021-07-03T07:19:46.000Z</time>
      </trkpt>
      <trkpt lat="43.55294" lon="2.5775">
        <ele>751.20001220703</ele>
        <time>2021-07-03T07:19:49.000Z</time>
      </trkpt>
      <trkpt lat="43.55296" lon="2.57751">
        <ele>751.20001220703</ele>
        <time>2021-07-03T07:19:50.000Z</time>
      </trkpt>
      <trkpt lat="43.55295" lon="2.5776">
        <ele>751.20001220703</ele>
        <time>2021-07-03T07:19:53.000Z</time>
      </trkpt>
      <trkpt lat="43.5529" lon="2.57776">
        <ele>751.20001220703</ele>
        <time>2021-07-03T07:19:58.000Z</time>
      </trkpt>
      <trkpt lat="43.55289" lon="2.57785">
        <ele>751.59997558594</ele>
        <time>2021-07-03T07:20:01.000Z</time>
      </trkpt>
      <trkpt lat="43.55289" lon="2.57788">
        <ele>752</ele>
        <time>2021-07-03T07:20:02.000Z</time>
      </trkpt>
      <trkpt lat="43.5529" lon="2.57792">
        <ele>752.40002441406</ele>
        <time>2021-07-03T07:20:03.000Z</time>
      </trkpt>
      <trkpt lat="43.5529" lon="2.57795">
        <ele>752.79998779297</ele>
        <time>2021-07-03T07:20:04.000Z</time>
      </trkpt>
      <trkpt lat="43.55289" lon="2.57798">
        <ele>753.20001220703</ele>
        <time>2021-07-03T07:20:05.000Z</time>
      </trkpt>
      <trkpt lat="43.55287" lon="2.57803">
        <ele>753.20001220703</ele>
        <time>2021-07-03T07:20:07.000Z</time>
      </trkpt>
      <trkpt lat="43.55286" lon="2.57807">
        <ele>753.20001220703</ele>
        <time>2021-07-03T07:20:08.000Z</time>
      </trkpt>
      <trkpt lat="43.55283" lon="2.57828">
        <ele>753.59997558594</ele>
        <time>2021-07-03T07:20:13.000Z</time>
      </trkpt>
      <trkpt lat="43.55283" lon="2.57832">
        <ele>754</ele>
        <time>2021-07-03T07:20:14.000Z</time>
      </trkpt>
      <trkpt lat="43.55282" lon="2.57836">
        <ele>754.40002441406</ele>
        <time>2021-07-03T07:20:15.000Z</time>
      </trkpt>
      <trkpt lat="43.55282" lon="2.5784">
        <ele>754.79998779297</ele>
        <time>2021-07-03T07:20:16.000Z</time>
      </trkpt>
      <trkpt lat="43.55281" lon="2.57843">
        <ele>755.20001220703</ele>
        <time>2021-07-03T07:20:17.000Z</time>
      </trkpt>
      <trkpt lat="43.55279" lon="2.57868">
        <ele>755.20001220703</ele>
        <time>2021-07-03T07:20:23.000Z</time>
      </trkpt>
      <trkpt lat="43.55279" lon="2.57871">
        <ele>755.59997558594</ele>
        <time>2021-07-03T07:20:24.000Z</time>
      </trkpt>
      <trkpt lat="43.55278" lon="2.57875">
        <ele>756</ele>
        <time>2021-07-03T07:20:25.000Z</time>
      </trkpt>
      <trkpt lat="43.55278" lon="2.57878">
        <ele>756.40002441406</ele>
        <time>2021-07-03T07:20:26.000Z</time>
      </trkpt>
      <trkpt lat="43.55278" lon="2.57882">
        <ele>756.79998779297</ele>
        <time>2021-07-03T07:20:27.000Z</time>
      </trkpt>
      <trkpt lat="43.55278" lon="2.57885">
        <ele>757.20001220703</ele>
        <time>2021-07-03T07:20:28.000Z</time>
      </trkpt>
      <trkpt lat="43.55279" lon="2.57892">
        <ele>757.20001220703</ele>
        <time>2021-07-03T07:20:30.000Z</time>
      </trkpt>
      <trkpt lat="43.55284" lon="2.57917">
        <ele>757.20001220703</ele>
        <time>2021-07-03T07:20:38.000Z</time>
      </trkpt>
      <trkpt lat="43.55286" lon="2.57928">
        <ele>757.79998779297</ele>
        <time>2021-07-03T07:20:41.000Z</time>
      </trkpt>
      <trkpt lat="43.55287" lon="2.57932">
        <ele>758.20001220703</ele>
        <time>2021-07-03T07:20:42.000Z</time>
      </trkpt>
      <trkpt lat="43.55287" lon="2.57935">
        <ele>759</ele>
        <time>2021-07-03T07:20:43.000Z</time>
      </trkpt>
      <trkpt lat="43.55287" lon="2.57938">
        <ele>759.40002441406</ele>
        <time>2021-07-03T07:20:44.000Z</time>
      </trkpt>
      <trkpt lat="43.55287" lon="2.57942">
        <ele>759.40002441406</ele>
        <time>2021-07-03T07:20:45.000Z</time>
      </trkpt>
      <trkpt lat="43.55287" lon="2.57958">
        <ele>759.40002441406</ele>
        <time>2021-07-03T07:20:50.000Z</time>
      </trkpt>
      <trkpt lat="43.55285" lon="2.57963">
        <ele>759.79998779297</ele>
        <time>2021-07-03T07:20:52.000Z</time>
      </trkpt>
      <trkpt lat="43.55284" lon="2.57966">
        <ele>760.40002441406</ele>
        <time>2021-07-03T07:20:53.000Z</time>
      </trkpt>
      <trkpt lat="43.55283" lon="2.57969">
        <ele>760.79998779297</ele>
        <time>2021-07-03T07:20:54.000Z</time>
      </trkpt>
      <trkpt lat="43.55281" lon="2.57971">
        <ele>761.20001220703</ele>
        <time>2021-07-03T07:20:55.000Z</time>
      </trkpt>
      <trkpt lat="43.55279" lon="2.57973">
        <ele>761.59997558594</ele>
        <time>2021-07-03T07:20:56.000Z</time>
      </trkpt>
      <trkpt lat="43.5527" lon="2.57982">
        <ele>761.59997558594</ele>
        <time>2021-07-03T07:21:01.000Z</time>
      </trkpt>
      <trkpt lat="43.55269" lon="2.57984">
        <ele>762</ele>
        <time>2021-07-03T07:21:02.000Z</time>
      </trkpt>
      <trkpt lat="43.55268" lon="2.57987">
        <ele>762.40002441406</ele>
        <time>2021-07-03T07:21:03.000Z</time>
      </trkpt>
      <trkpt lat="43.55267" lon="2.57989">
        <ele>762.79998779297</ele>
        <time>2021-07-03T07:21:04.000Z</time>
      </trkpt>
      <trkpt lat="43.55265" lon="2.57991">
        <ele>763.20001220703</ele>
        <time>2021-07-03T07:21:05.000Z</time>
      </trkpt>
      <trkpt lat="43.55264" lon="2.57994">
        <ele>763.79998779297</ele>
        <time>2021-07-03T07:21:06.000Z</time>
      </trkpt>
      <trkpt lat="43.55261" lon="2.57998">
        <ele>763.79998779297</ele>
        <time>2021-07-03T07:21:08.000Z</time>
      </trkpt>
      <trkpt lat="43.55256" lon="2.58005">
        <ele>764.20001220703</ele>
        <time>2021-07-03T07:21:11.000Z</time>
      </trkpt>
      <trkpt lat="43.55255" lon="2.58007">
        <ele>764.59997558594</ele>
        <time>2021-07-03T07:21:12.000Z</time>
      </trkpt>
      <trkpt lat="43.55254" lon="2.5801">
        <ele>765</ele>
        <time>2021-07-03T07:21:13.000Z</time>
      </trkpt>
      <trkpt lat="43.55253" lon="2.58012">
        <ele>765.40002441406</ele>
        <time>2021-07-03T07:21:14.000Z</time>
      </trkpt>
      <trkpt lat="43.55252" lon="2.58015">
        <ele>765.79998779297</ele>
        <time>2021-07-03T07:21:15.000Z</time>
      </trkpt>
      <trkpt lat="43.55251" lon="2.58018">
        <ele>765.79998779297</ele>
        <time>2021-07-03T07:21:16.000Z</time>
      </trkpt>
      <trkpt lat="43.55247" lon="2.58025">
        <ele>766.20001220703</ele>
        <time>2021-07-03T07:21:19.000Z</time>
      </trkpt>
      <trkpt lat="43.55246" lon="2.58027">
        <ele>766.59997558594</ele>
        <time>2021-07-03T07:21:20.000Z</time>
      </trkpt>
      <trkpt lat="43.55244" lon="2.5803">
        <ele>767</ele>
        <time>2021-07-03T07:21:21.000Z</time>
      </trkpt>
      <trkpt lat="43.55243" lon="2.58032">
        <ele>767.40002441406</ele>
        <time>2021-07-03T07:21:22.000Z</time>
      </trkpt>
      <trkpt lat="43.55241" lon="2.58034">
        <ele>767.79998779297</ele>
        <time>2021-07-03T07:21:23.000Z</time>
      </trkpt>
      <trkpt lat="43.55233" lon="2.58045">
        <ele>768.20001220703</ele>
        <time>2021-07-03T07:21:28.000Z</time>
      </trkpt>
      <trkpt lat="43.55231" lon="2.58047">
        <ele>768.59997558594</ele>
        <time>2021-07-03T07:21:29.000Z</time>
      </trkpt>
      <trkpt lat="43.5523" lon="2.5805">
        <ele>769</ele>
        <time>2021-07-03T07:21:30.000Z</time>
      </trkpt>
      <trkpt lat="43.55229" lon="2.58053">
        <ele>769.59997558594</ele>
        <time>2021-07-03T07:21:31.000Z</time>
      </trkpt>
      <trkpt lat="43.55228" lon="2.58056">
        <ele>770</ele>
        <time>2021-07-03T07:21:32.000Z</time>
      </trkpt>
      <trkpt lat="43.55225" lon="2.58061">
        <ele>770</ele>
        <time>2021-07-03T07:21:34.000Z</time>
      </trkpt>
      <trkpt lat="43.5522" lon="2.58068">
        <ele>770.40002441406</ele>
        <time>2021-07-03T07:21:37.000Z</time>
      </trkpt>
      <trkpt lat="43.55219" lon="2.5807">
        <ele>770.79998779297</ele>
        <time>2021-07-03T07:21:38.000Z</time>
      </trkpt>
      <trkpt lat="43.55217" lon="2.58072">
        <ele>771.40002441406</ele>
        <time>2021-07-03T07:21:39.000Z</time>
      </trkpt>
      <trkpt lat="43.55215" lon="2.58073">
        <ele>771.79998779297</ele>
        <time>2021-07-03T07:21:40.000Z</time>
      </trkpt>
      <trkpt lat="43.55213" lon="2.58075">
        <ele>772.20001220703</ele>
        <time>2021-07-03T07:21:41.000Z</time>
      </trkpt>
      <trkpt lat="43.55206" lon="2.58087">
        <ele>772.20001220703</ele>
        <time>2021-07-03T07:21:46.000Z</time>
      </trkpt>
      <trkpt lat="43.55204" lon="2.58093">
        <ele>772.20001220703</ele>
        <time>2021-07-03T07:21:49.000Z</time>
      </trkpt>
      <trkpt lat="43.55204" lon="2.58097">
        <ele>772.59997558594</ele>
        <time>2021-07-03T07:21:51.000Z</time>
      </trkpt>
      <trkpt lat="43.55204" lon="2.581">
        <ele>773</ele>
        <time>2021-07-03T07:21:52.000Z</time>
      </trkpt>
      <trkpt lat="43.55203" lon="2.58103">
        <ele>773.40002441406</ele>
        <time>2021-07-03T07:21:53.000Z</time>
      </trkpt>
      <trkpt lat="43.55203" lon="2.58105">
        <ele>773.79998779297</ele>
        <time>2021-07-03T07:21:54.000Z</time>
      </trkpt>
      <trkpt lat="43.55203" lon="2.58108">
        <ele>774.20001220703</ele>
        <time>2021-07-03T07:21:55.000Z</time>
      </trkpt>
      <trkpt lat="43.55202" lon="2.5811">
        <ele>774.20001220703</ele>
        <time>2021-07-03T07:21:56.000Z</time>
      </trkpt>
      <trkpt lat="43.55201" lon="2.58115">
        <ele>774.20001220703</ele>
        <time>2021-07-03T07:21:58.000Z</time>
      </trkpt>
      <trkpt lat="43.552" lon="2.58119">
        <ele>774.20001220703</ele>
        <time>2021-07-03T07:22:02.000Z</time>
      </trkpt>
      <trkpt lat="43.55199" lon="2.58123">
        <ele>774.20001220703</ele>
        <time>2021-07-03T07:22:58.000Z</time>
      </trkpt>
      <trkpt lat="43.55197" lon="2.58131">
        <ele>774.20001220703</ele>
        <time>2021-07-03T07:23:00.000Z</time>
      </trkpt>
      <trkpt lat="43.55191" lon="2.58155">
        <ele>774.20001220703</ele>
        <time>2021-07-03T07:23:05.000Z</time>
      </trkpt>
      <trkpt lat="43.55183" lon="2.58178">
        <ele>774.20001220703</ele>
        <time>2021-07-03T07:23:10.000Z</time>
      </trkpt>
      <trkpt lat="43.55182" lon="2.58182">
        <ele>774.79998779297</ele>
        <time>2021-07-03T07:23:11.000Z</time>
      </trkpt>
      <trkpt lat="43.5518" lon="2.58186">
        <ele>775.20001220703</ele>
        <time>2021-07-03T07:23:12.000Z</time>
      </trkpt>
      <trkpt lat="43.55179" lon="2.58191">
        <ele>775.59997558594</ele>
        <time>2021-07-03T07:23:13.000Z</time>
      </trkpt>
      <trkpt lat="43.55178" lon="2.58195">
        <ele>776.20001220703</ele>
        <time>2021-07-03T07:23:14.000Z</time>
      </trkpt>
      <trkpt lat="43.55177" lon="2.582">
        <ele>776.59997558594</ele>
        <time>2021-07-03T07:23:15.000Z</time>
      </trkpt>
      <trkpt lat="43.55177" lon="2.58205">
        <ele>776.59997558594</ele>
        <time>2021-07-03T07:23:16.000Z</time>
      </trkpt>
      <trkpt lat="43.55169" lon="2.58227">
        <ele>776.59997558594</ele>
        <time>2021-07-03T07:23:21.000Z</time>
      </trkpt>
      <trkpt lat="43.55162" lon="2.58243">
        <ele>776.59997558594</ele>
        <time>2021-07-03T07:23:25.000Z</time>
      </trkpt>
      <trkpt lat="43.55155" lon="2.58268">
        <ele>776.59997558594</ele>
        <time>2021-07-03T07:23:30.000Z</time>
      </trkpt>
      <trkpt lat="43.55147" lon="2.58299">
        <ele>776.59997558594</ele>
        <time>2021-07-03T07:23:36.000Z</time>
      </trkpt>
      <trkpt lat="43.55143" lon="2.58312">
        <ele>777</ele>
        <time>2021-07-03T07:23:38.000Z</time>
      </trkpt>
      <trkpt lat="43.55141" lon="2.58317">
        <ele>777.40002441406</ele>
        <time>2021-07-03T07:23:39.000Z</time>
      </trkpt>
      <trkpt lat="43.55139" lon="2.58322">
        <ele>777.79998779297</ele>
        <time>2021-07-03T07:23:40.000Z</time>
      </trkpt>
      <trkpt lat="43.55137" lon="2.58327">
        <ele>778.20001220703</ele>
        <time>2021-07-03T07:23:41.000Z</time>
      </trkpt>
      <trkpt lat="43.55134" lon="2.58332">
        <ele>778.59997558594</ele>
        <time>2021-07-03T07:23:42.000Z</time>
      </trkpt>
      <trkpt lat="43.55124" lon="2.58352">
        <ele>778.59997558594</ele>
        <time>2021-07-03T07:23:47.000Z</time>
      </trkpt>
      <trkpt lat="43.55113" lon="2.58373">
        <ele>778.59997558594</ele>
        <time>2021-07-03T07:23:53.000Z</time>
      </trkpt>
      <trkpt lat="43.55102" lon="2.58398">
        <ele>778.59997558594</ele>
        <time>2021-07-03T07:24:00.000Z</time>
      </trkpt>
      <trkpt lat="43.55095" lon="2.58411">
        <ele>778.59997558594</ele>
        <time>2021-07-03T07:24:05.000Z</time>
      </trkpt>
      <trkpt lat="43.55086" lon="2.5842">
        <ele>778.59997558594</ele>
        <time>2021-07-03T07:24:11.000Z</time>
      </trkpt>
      <trkpt lat="43.55079" lon="2.58429">
        <ele>778.59997558594</ele>
        <time>2021-07-03T07:24:16.000Z</time>
      </trkpt>
      <trkpt lat="43.55073" lon="2.58443">
        <ele>778.59997558594</ele>
        <time>2021-07-03T07:24:20.000Z</time>
      </trkpt>
      <trkpt lat="43.55067" lon="2.58449">
        <ele>778.59997558594</ele>
        <time>2021-07-03T07:24:22.000Z</time>
      </trkpt>
      <trkpt lat="43.55063" lon="2.58457">
        <ele>778.59997558594</ele>
        <time>2021-07-03T07:24:24.000Z</time>
      </trkpt>
      <trkpt lat="43.55048" lon="2.58477">
        <ele>778.59997558594</ele>
        <time>2021-07-03T07:24:29.000Z</time>
      </trkpt>
      <trkpt lat="43.55046" lon="2.58481">
        <ele>778.59997558594</ele>
        <time>2021-07-03T07:24:30.000Z</time>
      </trkpt>
      <trkpt lat="43.55035" lon="2.58494">
        <ele>778.59997558594</ele>
        <time>2021-07-03T07:24:34.000Z</time>
      </trkpt>
      <trkpt lat="43.55022" lon="2.58511">
        <ele>778.59997558594</ele>
        <time>2021-07-03T07:24:40.000Z</time>
      </trkpt>
      <trkpt lat="43.55009" lon="2.58524">
        <ele>778.59997558594</ele>
        <time>2021-07-03T07:24:45.000Z</time>
      </trkpt>
      <trkpt lat="43.54997" lon="2.58539">
        <ele>778.59997558594</ele>
        <time>2021-07-03T07:24:50.000Z</time>
      </trkpt>
      <trkpt lat="43.54989" lon="2.58548">
        <ele>778.59997558594</ele>
        <time>2021-07-03T07:24:54.000Z</time>
      </trkpt>
      <trkpt lat="43.54986" lon="2.58564">
        <ele>778.59997558594</ele>
        <time>2021-07-03T07:24:59.000Z</time>
      </trkpt>
      <trkpt lat="43.54985" lon="2.58565">
        <ele>778.59997558594</ele>
        <time>2021-07-03T07:25:01.000Z</time>
      </trkpt>
      <trkpt lat="43.54982" lon="2.58567">
        <ele>778.59997558594</ele>
        <time>2021-07-03T07:25:03.000Z</time>
      </trkpt>
      <trkpt lat="43.54982" lon="2.58569">
        <ele>778.59997558594</ele>
        <time>2021-07-03T07:25:04.000Z</time>
      </trkpt>
      <trkpt lat="43.54977" lon="2.58575">
        <ele>778.59997558594</ele>
        <time>2021-07-03T07:25:08.000Z</time>
      </trkpt>
      <trkpt lat="43.5497" lon="2.58585">
        <ele>778.59997558594</ele>
        <time>2021-07-03T07:25:14.000Z</time>
      </trkpt>
      <trkpt lat="43.5496" lon="2.58594">
        <ele>778.59997558594</ele>
        <time>2021-07-03T07:25:20.000Z</time>
      </trkpt>
      <trkpt lat="43.54948" lon="2.58604">
        <ele>778.59997558594</ele>
        <time>2021-07-03T07:25:24.000Z</time>
      </trkpt>
      <trkpt lat="43.54948" lon="2.5861">
        <ele>778.59997558594</ele>
        <time>2021-07-03T07:25:25.000Z</time>
      </trkpt>
      <trkpt lat="43.54941" lon="2.58618">
        <ele>778.59997558594</ele>
        <time>2021-07-03T07:25:27.000Z</time>
      </trkpt>
      <trkpt lat="43.54938" lon="2.58625">
        <ele>778.59997558594</ele>
        <time>2021-07-03T07:25:28.000Z</time>
      </trkpt>
      <trkpt lat="43.54932" lon="2.58645">
        <ele>778.59997558594</ele>
        <time>2021-07-03T07:25:31.000Z</time>
      </trkpt>
      <trkpt lat="43.54923" lon="2.58667">
        <ele>778.59997558594</ele>
        <time>2021-07-03T07:25:35.000Z</time>
      </trkpt>
      <trkpt lat="43.54919" lon="2.58676">
        <ele>778.59997558594</ele>
        <time>2021-07-03T07:25:37.000Z</time>
      </trkpt>
      <trkpt lat="43.54911" lon="2.58693">
        <ele>778.59997558594</ele>
        <time>2021-07-03T07:25:41.000Z</time>
      </trkpt>
      <trkpt lat="43.549" lon="2.58716">
        <ele>778.59997558594</ele>
        <time>2021-07-03T07:25:46.000Z</time>
      </trkpt>
      <trkpt lat="43.54884" lon="2.58752">
        <ele>778.59997558594</ele>
        <time>2021-07-03T07:25:54.000Z</time>
      </trkpt>
      <trkpt lat="43.54875" lon="2.58764">
        <ele>778.59997558594</ele>
        <time>2021-07-03T07:25:58.000Z</time>
      </trkpt>
      <trkpt lat="43.54872" lon="2.58769">
        <ele>778.20001220703</ele>
        <time>2021-07-03T07:25:59.000Z</time>
      </trkpt>
      <trkpt lat="43.5487" lon="2.58774">
        <ele>777.79998779297</ele>
        <time>2021-07-03T07:26:00.000Z</time>
      </trkpt>
      <trkpt lat="43.54866" lon="2.58779">
        <ele>777.40002441406</ele>
        <time>2021-07-03T07:26:01.000Z</time>
      </trkpt>
      <trkpt lat="43.54864" lon="2.58785">
        <ele>777</ele>
        <time>2021-07-03T07:26:02.000Z</time>
      </trkpt>
      <trkpt lat="43.5486" lon="2.58791">
        <ele>776.59997558594</ele>
        <time>2021-07-03T07:26:03.000Z</time>
      </trkpt>
      <trkpt lat="43.54858" lon="2.58796">
        <ele>776.59997558594</ele>
        <time>2021-07-03T07:26:04.000Z</time>
      </trkpt>
      <trkpt lat="43.54847" lon="2.58815">
        <ele>776.59997558594</ele>
        <time>2021-07-03T07:26:08.000Z</time>
      </trkpt>
      <trkpt lat="43.54842" lon="2.58824">
        <ele>776.59997558594</ele>
        <time>2021-07-03T07:26:10.000Z</time>
      </trkpt>
      <trkpt lat="43.54833" lon="2.5884">
        <ele>776</ele>
        <time>2021-07-03T07:26:13.000Z</time>
      </trkpt>
      <trkpt lat="43.5483" lon="2.58846">
        <ele>775.59997558594</ele>
        <time>2021-07-03T07:26:14.000Z</time>
      </trkpt>
      <trkpt lat="43.54826" lon="2.58853">
        <ele>775.20001220703</ele>
        <time>2021-07-03T07:26:15.000Z</time>
      </trkpt>
      <trkpt lat="43.54823" lon="2.58859">
        <ele>774.79998779297</ele>
        <time>2021-07-03T07:26:16.000Z</time>
      </trkpt>
      <trkpt lat="43.54819" lon="2.58866">
        <ele>774.40002441406</ele>
        <time>2021-07-03T07:26:17.000Z</time>
      </trkpt>
      <trkpt lat="43.54806" lon="2.58889">
        <ele>774.40002441406</ele>
        <time>2021-07-03T07:26:21.000Z</time>
      </trkpt>
      <trkpt lat="43.54804" lon="2.58894">
        <ele>773.79998779297</ele>
        <time>2021-07-03T07:26:22.000Z</time>
      </trkpt>
      <trkpt lat="43.54801" lon="2.58898">
        <ele>773.40002441406</ele>
        <time>2021-07-03T07:26:23.000Z</time>
      </trkpt>
      <trkpt lat="43.54797" lon="2.58903">
        <ele>773</ele>
        <time>2021-07-03T07:26:24.000Z</time>
      </trkpt>
      <trkpt lat="43.54794" lon="2.58908">
        <ele>772.59997558594</ele>
        <time>2021-07-03T07:26:25.000Z</time>
      </trkpt>
      <trkpt lat="43.5479" lon="2.58912">
        <ele>772.20001220703</ele>
        <time>2021-07-03T07:26:26.000Z</time>
      </trkpt>
      <trkpt lat="43.54787" lon="2.58916">
        <ele>772.20001220703</ele>
        <time>2021-07-03T07:26:27.000Z</time>
      </trkpt>
      <trkpt lat="43.54784" lon="2.58922">
        <ele>771.79998779297</ele>
        <time>2021-07-03T07:26:28.000Z</time>
      </trkpt>
      <trkpt lat="43.54781" lon="2.58927">
        <ele>771.40002441406</ele>
        <time>2021-07-03T07:26:29.000Z</time>
      </trkpt>
      <trkpt lat="43.54779" lon="2.58933">
        <ele>771</ele>
        <time>2021-07-03T07:26:30.000Z</time>
      </trkpt>
      <trkpt lat="43.54777" lon="2.58939">
        <ele>770.59997558594</ele>
        <time>2021-07-03T07:26:31.000Z</time>
      </trkpt>
      <trkpt lat="43.54774" lon="2.58944">
        <ele>770.20001220703</ele>
        <time>2021-07-03T07:26:32.000Z</time>
      </trkpt>
      <trkpt lat="43.54771" lon="2.58952">
        <ele>770.20001220703</ele>
        <time>2021-07-03T07:26:34.000Z</time>
      </trkpt>
      <trkpt lat="43.5477" lon="2.58955">
        <ele>769.79998779297</ele>
        <time>2021-07-03T07:26:35.000Z</time>
      </trkpt>
      <trkpt lat="43.54769" lon="2.5896">
        <ele>769.40002441406</ele>
        <time>2021-07-03T07:26:36.000Z</time>
      </trkpt>
      <trkpt lat="43.54768" lon="2.58963">
        <ele>769</ele>
        <time>2021-07-03T07:26:37.000Z</time>
      </trkpt>
      <trkpt lat="43.54768" lon="2.58966">
        <ele>768.59997558594</ele>
        <time>2021-07-03T07:26:38.000Z</time>
      </trkpt>
      <trkpt lat="43.54768" lon="2.5897">
        <ele>768.20001220703</ele>
        <time>2021-07-03T07:26:39.000Z</time>
      </trkpt>
      <trkpt lat="43.54764" lon="2.58984">
        <ele>767.79998779297</ele>
        <time>2021-07-03T07:26:43.000Z</time>
      </trkpt>
      <trkpt lat="43.54763" lon="2.58988">
        <ele>767.20001220703</ele>
        <time>2021-07-03T07:26:44.000Z</time>
      </trkpt>
      <trkpt lat="43.54762" lon="2.58989">
        <ele>766.79998779297</ele>
        <time>2021-07-03T07:26:45.000Z</time>
      </trkpt>
      <trkpt lat="43.54761" lon="2.58992">
        <ele>766.40002441406</ele>
        <time>2021-07-03T07:26:46.000Z</time>
      </trkpt>
      <trkpt lat="43.5476" lon="2.58994">
        <ele>766</ele>
        <time>2021-07-03T07:26:47.000Z</time>
      </trkpt>
      <trkpt lat="43.5476" lon="2.58997">
        <ele>766</ele>
        <time>2021-07-03T07:26:48.000Z</time>
      </trkpt>
      <trkpt lat="43.54759" lon="2.59">
        <ele>765.59997558594</ele>
        <time>2021-07-03T07:26:49.000Z</time>
      </trkpt>
      <trkpt lat="43.54758" lon="2.59005">
        <ele>765.20001220703</ele>
        <time>2021-07-03T07:26:50.000Z</time>
      </trkpt>
      <trkpt lat="43.54758" lon="2.59008">
        <ele>764.79998779297</ele>
        <time>2021-07-03T07:26:51.000Z</time>
      </trkpt>
      <trkpt lat="43.54757" lon="2.59013">
        <ele>764.20001220703</ele>
        <time>2021-07-03T07:26:52.000Z</time>
      </trkpt>
      <trkpt lat="43.54756" lon="2.59017">
        <ele>763.20001220703</ele>
        <time>2021-07-03T07:26:53.000Z</time>
      </trkpt>
      <trkpt lat="43.54756" lon="2.59021">
        <ele>762.79998779297</ele>
        <time>2021-07-03T07:26:54.000Z</time>
      </trkpt>
      <trkpt lat="43.54755" lon="2.59026">
        <ele>762.20001220703</ele>
        <time>2021-07-03T07:26:55.000Z</time>
      </trkpt>
      <trkpt lat="43.54754" lon="2.5903">
        <ele>761.79998779297</ele>
        <time>2021-07-03T07:26:56.000Z</time>
      </trkpt>
      <trkpt lat="43.54753" lon="2.59033">
        <ele>761.20001220703</ele>
        <time>2021-07-03T07:26:57.000Z</time>
      </trkpt>
      <trkpt lat="43.54752" lon="2.59037">
        <ele>760.79998779297</ele>
        <time>2021-07-03T07:26:58.000Z</time>
      </trkpt>
      <trkpt lat="43.54751" lon="2.59041">
        <ele>760.20001220703</ele>
        <time>2021-07-03T07:26:59.000Z</time>
      </trkpt>
      <trkpt lat="43.54749" lon="2.59044">
        <ele>759.79998779297</ele>
        <time>2021-07-03T07:27:00.000Z</time>
      </trkpt>
      <trkpt lat="43.54749" lon="2.59045">
        <ele>759.20001220703</ele>
        <time>2021-07-03T07:27:01.000Z</time>
      </trkpt>
      <trkpt lat="43.54747" lon="2.5905">
        <ele>758.79998779297</ele>
        <time>2021-07-03T07:27:02.000Z</time>
      </trkpt>
      <trkpt lat="43.54745" lon="2.59054">
        <ele>758.40002441406</ele>
        <time>2021-07-03T07:27:03.000Z</time>
      </trkpt>
      <trkpt lat="43.54744" lon="2.59058">
        <ele>758</ele>
        <time>2021-07-03T07:27:04.000Z</time>
      </trkpt>
      <trkpt lat="43.54742" lon="2.59062">
        <ele>757.59997558594</ele>
        <time>2021-07-03T07:27:05.000Z</time>
      </trkpt>
      <trkpt lat="43.54738" lon="2.59069">
        <ele>757.20001220703</ele>
        <time>2021-07-03T07:27:07.000Z</time>
      </trkpt>
      <trkpt lat="43.54737" lon="2.59071">
        <ele>756.79998779297</ele>
        <time>2021-07-03T07:27:08.000Z</time>
      </trkpt>
      <trkpt lat="43.54735" lon="2.59075">
        <ele>756.40002441406</ele>
        <time>2021-07-03T07:27:09.000Z</time>
      </trkpt>
      <trkpt lat="43.54733" lon="2.59079">
        <ele>756</ele>
        <time>2021-07-03T07:27:10.000Z</time>
      </trkpt>
      <trkpt lat="43.54731" lon="2.59083">
        <ele>755.59997558594</ele>
        <time>2021-07-03T07:27:11.000Z</time>
      </trkpt>
      <trkpt lat="43.54725" lon="2.59098">
        <ele>755</ele>
        <time>2021-07-03T07:27:14.000Z</time>
      </trkpt>
      <trkpt lat="43.54724" lon="2.59102">
        <ele>754.59997558594</ele>
        <time>2021-07-03T07:27:15.000Z</time>
      </trkpt>
      <trkpt lat="43.54722" lon="2.59107">
        <ele>754.20001220703</ele>
        <time>2021-07-03T07:27:16.000Z</time>
      </trkpt>
      <trkpt lat="43.54721" lon="2.59113">
        <ele>753.20001220703</ele>
        <time>2021-07-03T07:27:17.000Z</time>
      </trkpt>
      <trkpt lat="43.54717" lon="2.59123">
        <ele>752.79998779297</ele>
        <time>2021-07-03T07:27:19.000Z</time>
      </trkpt>
      <trkpt lat="43.54715" lon="2.59128">
        <ele>752.40002441406</ele>
        <time>2021-07-03T07:27:20.000Z</time>
      </trkpt>
      <trkpt lat="43.54714" lon="2.59134">
        <ele>751.79998779297</ele>
        <time>2021-07-03T07:27:21.000Z</time>
      </trkpt>
      <trkpt lat="43.54712" lon="2.59138">
        <ele>751.40002441406</ele>
        <time>2021-07-03T07:27:22.000Z</time>
      </trkpt>
      <trkpt lat="43.5471" lon="2.59143">
        <ele>751</ele>
        <time>2021-07-03T07:27:23.000Z</time>
      </trkpt>
      <trkpt lat="43.54704" lon="2.59153">
        <ele>750.59997558594</ele>
        <time>2021-07-03T07:27:25.000Z</time>
      </trkpt>
      <trkpt lat="43.54701" lon="2.59157">
        <ele>750</ele>
        <time>2021-07-03T07:27:26.000Z</time>
      </trkpt>
      <trkpt lat="43.54699" lon="2.59162">
        <ele>749.59997558594</ele>
        <time>2021-07-03T07:27:27.000Z</time>
      </trkpt>
      <trkpt lat="43.54696" lon="2.59168">
        <ele>749.20001220703</ele>
        <time>2021-07-03T07:27:28.000Z</time>
      </trkpt>
      <trkpt lat="43.54692" lon="2.59174">
        <ele>748.79998779297</ele>
        <time>2021-07-03T07:27:29.000Z</time>
      </trkpt>
      <trkpt lat="43.54687" lon="2.59182">
        <ele>748.20001220703</ele>
        <time>2021-07-03T07:27:31.000Z</time>
      </trkpt>
      <trkpt lat="43.54683" lon="2.59188">
        <ele>747.79998779297</ele>
        <time>2021-07-03T07:27:32.000Z</time>
      </trkpt>
      <trkpt lat="43.5468" lon="2.59192">
        <ele>747.40002441406</ele>
        <time>2021-07-03T07:27:33.000Z</time>
      </trkpt>
      <trkpt lat="43.54678" lon="2.59197">
        <ele>746.79998779297</ele>
        <time>2021-07-03T07:27:34.000Z</time>
      </trkpt>
      <trkpt lat="43.54675" lon="2.59201">
        <ele>746.20001220703</ele>
        <time>2021-07-03T07:27:35.000Z</time>
      </trkpt>
      <trkpt lat="43.54673" lon="2.59205">
        <ele>745.59997558594</ele>
        <time>2021-07-03T07:27:36.000Z</time>
      </trkpt>
      <trkpt lat="43.54671" lon="2.5921">
        <ele>745.20001220703</ele>
        <time>2021-07-03T07:27:37.000Z</time>
      </trkpt>
      <trkpt lat="43.54668" lon="2.59214">
        <ele>744.59997558594</ele>
        <time>2021-07-03T07:27:38.000Z</time>
      </trkpt>
      <trkpt lat="43.54666" lon="2.59218">
        <ele>744</ele>
        <time>2021-07-03T07:27:39.000Z</time>
      </trkpt>
      <trkpt lat="43.54661" lon="2.59228">
        <ele>743.59997558594</ele>
        <time>2021-07-03T07:27:41.000Z</time>
      </trkpt>
      <trkpt lat="43.54658" lon="2.59232">
        <ele>742.79998779297</ele>
        <time>2021-07-03T07:27:42.000Z</time>
      </trkpt>
      <trkpt lat="43.54657" lon="2.59236">
        <ele>742.20001220703</ele>
        <time>2021-07-03T07:27:43.000Z</time>
      </trkpt>
      <trkpt lat="43.54656" lon="2.5924">
        <ele>741.79998779297</ele>
        <time>2021-07-03T07:27:44.000Z</time>
      </trkpt>
      <trkpt lat="43.54654" lon="2.59248">
        <ele>741.79998779297</ele>
        <time>2021-07-03T07:27:46.000Z</time>
      </trkpt>
      <trkpt lat="43.54649" lon="2.59267">
        <ele>741.79998779297</ele>
        <time>2021-07-03T07:27:51.000Z</time>
      </trkpt>
      <trkpt lat="43.54643" lon="2.59282">
        <ele>741.79998779297</ele>
        <time>2021-07-03T07:27:55.000Z</time>
      </trkpt>
      <trkpt lat="43.54633" lon="2.59307">
        <ele>741.40002441406</ele>
        <time>2021-07-03T07:28:02.000Z</time>
      </trkpt>
      <trkpt lat="43.54632" lon="2.5931">
        <ele>741</ele>
        <time>2021-07-03T07:28:03.000Z</time>
      </trkpt>
      <trkpt lat="43.5463" lon="2.59314">
        <ele>740.59997558594</ele>
        <time>2021-07-03T07:28:04.000Z</time>
      </trkpt>
      <trkpt lat="43.54629" lon="2.59317">
        <ele>740.20001220703</ele>
        <time>2021-07-03T07:28:05.000Z</time>
      </trkpt>
      <trkpt lat="43.54627" lon="2.5932">
        <ele>739.79998779297</ele>
        <time>2021-07-03T07:28:06.000Z</time>
      </trkpt>
      <trkpt lat="43.54624" lon="2.59326">
        <ele>739.79998779297</ele>
        <time>2021-07-03T07:28:08.000Z</time>
      </trkpt>
      <trkpt lat="43.54617" lon="2.59334">
        <ele>739.40002441406</ele>
        <time>2021-07-03T07:28:11.000Z</time>
      </trkpt>
      <trkpt lat="43.54616" lon="2.59338">
        <ele>739</ele>
        <time>2021-07-03T07:28:12.000Z</time>
      </trkpt>
      <trkpt lat="43.54614" lon="2.5934">
        <ele>738.40002441406</ele>
        <time>2021-07-03T07:28:13.000Z</time>
      </trkpt>
      <trkpt lat="43.54612" lon="2.59343">
        <ele>738</ele>
        <time>2021-07-03T07:28:14.000Z</time>
      </trkpt>
      <trkpt lat="43.5461" lon="2.59345">
        <ele>737.59997558594</ele>
        <time>2021-07-03T07:28:15.000Z</time>
      </trkpt>
      <trkpt lat="43.54602" lon="2.59356">
        <ele>737.59997558594</ele>
        <time>2021-07-03T07:28:19.000Z</time>
      </trkpt>
      <trkpt lat="43.54599" lon="2.59358">
        <ele>737.20001220703</ele>
        <time>2021-07-03T07:28:20.000Z</time>
      </trkpt>
      <trkpt lat="43.54597" lon="2.59359">
        <ele>736.79998779297</ele>
        <time>2021-07-03T07:28:21.000Z</time>
      </trkpt>
      <trkpt lat="43.54595" lon="2.59361">
        <ele>736.20001220703</ele>
        <time>2021-07-03T07:28:22.000Z</time>
      </trkpt>
      <trkpt lat="43.54593" lon="2.59363">
        <ele>735.79998779297</ele>
        <time>2021-07-03T07:28:23.000Z</time>
      </trkpt>
      <trkpt lat="43.5459" lon="2.59367">
        <ele>735.40002441406</ele>
        <time>2021-07-03T07:28:24.000Z</time>
      </trkpt>
      <trkpt lat="43.54586" lon="2.59371">
        <ele>735</ele>
        <time>2021-07-03T07:28:25.000Z</time>
      </trkpt>
      <trkpt lat="43.54582" lon="2.59377">
        <ele>734.40002441406</ele>
        <time>2021-07-03T07:28:26.000Z</time>
      </trkpt>
      <trkpt lat="43.54579" lon="2.59384">
        <ele>734</ele>
        <time>2021-07-03T07:28:27.000Z</time>
      </trkpt>
      <trkpt lat="43.54577" lon="2.5939">
        <ele>733.59997558594</ele>
        <time>2021-07-03T07:28:28.000Z</time>
      </trkpt>
      <trkpt lat="43.54575" lon="2.59397">
        <ele>733.20001220703</ele>
        <time>2021-07-03T07:28:29.000Z</time>
      </trkpt>
      <trkpt lat="43.54571" lon="2.59411">
        <ele>732.40002441406</ele>
        <time>2021-07-03T07:28:31.000Z</time>
      </trkpt>
      <trkpt lat="43.54569" lon="2.59418">
        <ele>732</ele>
        <time>2021-07-03T07:28:32.000Z</time>
      </trkpt>
      <trkpt lat="43.54566" lon="2.59426">
        <ele>731.59997558594</ele>
        <time>2021-07-03T07:28:33.000Z</time>
      </trkpt>
      <trkpt lat="43.54564" lon="2.59434">
        <ele>731.20001220703</ele>
        <time>2021-07-03T07:28:34.000Z</time>
      </trkpt>
      <trkpt lat="43.54562" lon="2.59443">
        <ele>731.20001220703</ele>
        <time>2021-07-03T07:28:35.000Z</time>
      </trkpt>
      <trkpt lat="43.54558" lon="2.59459">
        <ele>730.59997558594</ele>
        <time>2021-07-03T07:28:37.000Z</time>
      </trkpt>
      <trkpt lat="43.54555" lon="2.59467">
        <ele>730.20001220703</ele>
        <time>2021-07-03T07:28:38.000Z</time>
      </trkpt>
      <trkpt lat="43.54553" lon="2.59474">
        <ele>729.79998779297</ele>
        <time>2021-07-03T07:28:39.000Z</time>
      </trkpt>
      <trkpt lat="43.54551" lon="2.59482">
        <ele>729.40002441406</ele>
        <time>2021-07-03T07:28:40.000Z</time>
      </trkpt>
      <trkpt lat="43.54549" lon="2.59489">
        <ele>729</ele>
        <time>2021-07-03T07:28:41.000Z</time>
      </trkpt>
      <trkpt lat="43.54545" lon="2.59502">
        <ele>729</ele>
        <time>2021-07-03T07:28:43.000Z</time>
      </trkpt>
      <trkpt lat="43.54533" lon="2.59543">
        <ele>729</ele>
        <time>2021-07-03T07:28:50.000Z</time>
      </trkpt>
      <trkpt lat="43.54532" lon="2.59549">
        <ele>728.59997558594</ele>
        <time>2021-07-03T07:28:51.000Z</time>
      </trkpt>
      <trkpt lat="43.5453" lon="2.59554">
        <ele>728.20001220703</ele>
        <time>2021-07-03T07:28:52.000Z</time>
      </trkpt>
      <trkpt lat="43.54529" lon="2.5956">
        <ele>727.79998779297</ele>
        <time>2021-07-03T07:28:53.000Z</time>
      </trkpt>
      <trkpt lat="43.54527" lon="2.59566">
        <ele>727.40002441406</ele>
        <time>2021-07-03T07:28:54.000Z</time>
      </trkpt>
      <trkpt lat="43.54525" lon="2.59572">
        <ele>727</ele>
        <time>2021-07-03T07:28:55.000Z</time>
      </trkpt>
      <trkpt lat="43.54521" lon="2.59589">
        <ele>727</ele>
        <time>2021-07-03T07:28:58.000Z</time>
      </trkpt>
      <trkpt lat="43.54518" lon="2.59599">
        <ele>726.59997558594</ele>
        <time>2021-07-03T07:29:00.000Z</time>
      </trkpt>
      <trkpt lat="43.54517" lon="2.59604">
        <ele>726.20001220703</ele>
        <time>2021-07-03T07:29:01.000Z</time>
      </trkpt>
      <trkpt lat="43.54515" lon="2.59606">
        <ele>725.79998779297</ele>
        <time>2021-07-03T07:29:02.000Z</time>
      </trkpt>
      <trkpt lat="43.54514" lon="2.59609">
        <ele>725.40002441406</ele>
        <time>2021-07-03T07:29:03.000Z</time>
      </trkpt>
      <trkpt lat="43.54512" lon="2.59611">
        <ele>725</ele>
        <time>2021-07-03T07:29:04.000Z</time>
      </trkpt>
      <trkpt lat="43.54511" lon="2.59618">
        <ele>725</ele>
        <time>2021-07-03T07:29:06.000Z</time>
      </trkpt>
      <trkpt lat="43.5451" lon="2.59626">
        <ele>725</ele>
        <time>2021-07-03T07:29:08.000Z</time>
      </trkpt>
      <trkpt lat="43.54509" lon="2.5963">
        <ele>724.40002441406</ele>
        <time>2021-07-03T07:29:09.000Z</time>
      </trkpt>
      <trkpt lat="43.54509" lon="2.59634">
        <ele>724</ele>
        <time>2021-07-03T07:29:10.000Z</time>
      </trkpt>
      <trkpt lat="43.54508" lon="2.59637">
        <ele>723.59997558594</ele>
        <time>2021-07-03T07:29:11.000Z</time>
      </trkpt>
      <trkpt lat="43.54507" lon="2.5964">
        <ele>723.20001220703</ele>
        <time>2021-07-03T07:29:12.000Z</time>
      </trkpt>
      <trkpt lat="43.54506" lon="2.59643">
        <ele>722.59997558594</ele>
        <time>2021-07-03T07:29:13.000Z</time>
      </trkpt>
      <trkpt lat="43.54505" lon="2.59648">
        <ele>722.20001220703</ele>
        <time>2021-07-03T07:29:15.000Z</time>
      </trkpt>
      <trkpt lat="43.54504" lon="2.59651">
        <ele>721.79998779297</ele>
        <time>2021-07-03T07:29:16.000Z</time>
      </trkpt>
      <trkpt lat="43.54504" lon="2.59653">
        <ele>721.40002441406</ele>
        <time>2021-07-03T07:29:17.000Z</time>
      </trkpt>
      <trkpt lat="43.54503" lon="2.59655">
        <ele>721</ele>
        <time>2021-07-03T07:29:18.000Z</time>
      </trkpt>
      <trkpt lat="43.54502" lon="2.59657">
        <ele>720.40002441406</ele>
        <time>2021-07-03T07:29:19.000Z</time>
      </trkpt>
      <trkpt lat="43.54503" lon="2.59659">
        <ele>720.40002441406</ele>
        <time>2021-07-03T07:29:20.000Z</time>
      </trkpt>
      <trkpt lat="43.54504" lon="2.59661">
        <ele>719.59997558594</ele>
        <time>2021-07-03T07:29:21.000Z</time>
      </trkpt>
      <trkpt lat="43.54506" lon="2.59662">
        <ele>719.20001220703</ele>
        <time>2021-07-03T07:29:22.000Z</time>
      </trkpt>
      <trkpt lat="43.54507" lon="2.59662">
        <ele>718.79998779297</ele>
        <time>2021-07-03T07:29:23.000Z</time>
      </trkpt>
      <trkpt lat="43.54507" lon="2.59663">
        <ele>718.40002441406</ele>
        <time>2021-07-03T07:29:24.000Z</time>
      </trkpt>
      <trkpt lat="43.54511" lon="2.59669">
        <ele>718.40002441406</ele>
        <time>2021-07-03T07:29:30.000Z</time>
      </trkpt>
      <trkpt lat="43.54519" lon="2.59672">
        <ele>718</ele>
        <time>2021-07-03T07:29:36.000Z</time>
      </trkpt>
      <trkpt lat="43.54519" lon="2.59672">
        <ele>717.40002441406</ele>
        <time>2021-07-03T07:29:37.000Z</time>
      </trkpt>
      <trkpt lat="43.5452" lon="2.59671">
        <ele>717</ele>
        <time>2021-07-03T07:29:38.000Z</time>
      </trkpt>
      <trkpt lat="43.54522" lon="2.59671">
        <ele>716.59997558594</ele>
        <time>2021-07-03T07:29:39.000Z</time>
      </trkpt>
      <trkpt lat="43.54524" lon="2.59673">
        <ele>716.20001220703</ele>
        <time>2021-07-03T07:29:40.000Z</time>
      </trkpt>
      <trkpt lat="43.54528" lon="2.59675">
        <ele>716.20001220703</ele>
        <time>2021-07-03T07:29:41.000Z</time>
      </trkpt>
      <trkpt lat="43.54531" lon="2.59677">
        <ele>715.79998779297</ele>
        <time>2021-07-03T07:29:42.000Z</time>
      </trkpt>
      <trkpt lat="43.54535" lon="2.59679">
        <ele>715.40002441406</ele>
        <time>2021-07-03T07:29:43.000Z</time>
      </trkpt>
      <trkpt lat="43.5454" lon="2.59681">
        <ele>715</ele>
        <time>2021-07-03T07:29:44.000Z</time>
      </trkpt>
      <trkpt lat="43.54547" lon="2.59683">
        <ele>714.20001220703</ele>
        <time>2021-07-03T07:29:45.000Z</time>
      </trkpt>
      <trkpt lat="43.54553" lon="2.59687">
        <ele>714.20001220703</ele>
        <time>2021-07-03T07:29:46.000Z</time>
      </trkpt>
      <trkpt lat="43.54559" lon="2.59692">
        <ele>713.59997558594</ele>
        <time>2021-07-03T07:29:47.000Z</time>
      </trkpt>
      <trkpt lat="43.54564" lon="2.59695">
        <ele>713.20001220703</ele>
        <time>2021-07-03T07:29:48.000Z</time>
      </trkpt>
      <trkpt lat="43.54568" lon="2.59699">
        <ele>712.79998779297</ele>
        <time>2021-07-03T07:29:49.000Z</time>
      </trkpt>
      <trkpt lat="43.54572" lon="2.59702">
        <ele>712.40002441406</ele>
        <time>2021-07-03T07:29:50.000Z</time>
      </trkpt>
      <trkpt lat="43.54575" lon="2.59704">
        <ele>712</ele>
        <time>2021-07-03T07:29:51.000Z</time>
      </trkpt>
      <trkpt lat="43.54577" lon="2.59706">
        <ele>712</ele>
        <time>2021-07-03T07:29:52.000Z</time>
      </trkpt>
      <trkpt lat="43.54574" lon="2.59715">
        <ele>712</ele>
        <time>2021-07-03T07:29:55.000Z</time>
      </trkpt>
      <trkpt lat="43.54574" lon="2.59737">
        <ele>712</ele>
        <time>2021-07-03T07:29:59.000Z</time>
      </trkpt>
      <trkpt lat="43.54573" lon="2.59743">
        <ele>712</ele>
        <time>2021-07-03T07:30:00.000Z</time>
      </trkpt>
      <trkpt lat="43.54572" lon="2.59749">
        <ele>711.40002441406</ele>
        <time>2021-07-03T07:30:01.000Z</time>
      </trkpt>
      <trkpt lat="43.54572" lon="2.59755">
        <ele>711</ele>
        <time>2021-07-03T07:30:02.000Z</time>
      </trkpt>
      <trkpt lat="43.54572" lon="2.59761">
        <ele>710.59997558594</ele>
        <time>2021-07-03T07:30:03.000Z</time>
      </trkpt>
      <trkpt lat="43.54572" lon="2.59765">
        <ele>710.20001220703</ele>
        <time>2021-07-03T07:30:04.000Z</time>
      </trkpt>
      <trkpt lat="43.54572" lon="2.59769">
        <ele>709.79998779297</ele>
        <time>2021-07-03T07:30:05.000Z</time>
      </trkpt>
      <trkpt lat="43.54572" lon="2.59772">
        <ele>709.79998779297</ele>
        <time>2021-07-03T07:30:07.000Z</time>
      </trkpt>
      <trkpt lat="43.54574" lon="2.59771">
        <ele>709.79998779297</ele>
        <time>2021-07-03T07:30:48.000Z</time>
      </trkpt>
      <trkpt lat="43.54574" lon="2.59786">
        <ele>709.79998779297</ele>
        <time>2021-07-03T07:30:53.000Z</time>
      </trkpt>
      <trkpt lat="43.54573" lon="2.59791">
        <ele>709.79998779297</ele>
        <time>2021-07-03T07:30:55.000Z</time>
      </trkpt>
      <trkpt lat="43.5457" lon="2.59795">
        <ele>709.79998779297</ele>
        <time>2021-07-03T07:30:57.000Z</time>
      </trkpt>
      <trkpt lat="43.54566" lon="2.59798">
        <ele>709.79998779297</ele>
        <time>2021-07-03T07:30:59.000Z</time>
      </trkpt>
      <trkpt lat="43.54566" lon="2.59801">
        <ele>709.79998779297</ele>
        <time>2021-07-03T07:31:01.000Z</time>
      </trkpt>
      <trkpt lat="43.54567" lon="2.59803">
        <ele>709.79998779297</ele>
        <time>2021-07-03T07:31:04.000Z</time>
      </trkpt>
      <trkpt lat="43.54567" lon="2.59801">
        <ele>709.79998779297</ele>
        <time>2021-07-03T07:31:22.000Z</time>
      </trkpt>
      <trkpt lat="43.54568" lon="2.59799">
        <ele>709.79998779297</ele>
        <time>2021-07-03T07:31:23.000Z</time>
      </trkpt>
      <trkpt lat="43.54576" lon="2.59799">
        <ele>709.79998779297</ele>
        <time>2021-07-03T07:31:26.000Z</time>
      </trkpt>
      <trkpt lat="43.54579" lon="2.59801">
        <ele>709.79998779297</ele>
        <time>2021-07-03T07:31:27.000Z</time>
      </trkpt>
      <trkpt lat="43.54591" lon="2.59808">
        <ele>710.20001220703</ele>
        <time>2021-07-03T07:31:31.000Z</time>
      </trkpt>
      <trkpt lat="43.54594" lon="2.5981">
        <ele>710.59997558594</ele>
        <time>2021-07-03T07:31:32.000Z</time>
      </trkpt>
      <trkpt lat="43.54597" lon="2.59811">
        <ele>711</ele>
        <time>2021-07-03T07:31:33.000Z</time>
      </trkpt>
      <trkpt lat="43.546" lon="2.59813">
        <ele>711.59997558594</ele>
        <time>2021-07-03T07:31:34.000Z</time>
      </trkpt>
      <trkpt lat="43.54603" lon="2.59813">
        <ele>712</ele>
        <time>2021-07-03T07:31:35.000Z</time>
      </trkpt>
      <trkpt lat="43.54605" lon="2.59814">
        <ele>712.40002441406</ele>
        <time>2021-07-03T07:31:36.000Z</time>
      </trkpt>
      <trkpt lat="43.54607" lon="2.59815">
        <ele>712.79998779297</ele>
        <time>2021-07-03T07:31:37.000Z</time>
      </trkpt>
      <trkpt lat="43.5461" lon="2.59817">
        <ele>713.20001220703</ele>
        <time>2021-07-03T07:31:38.000Z</time>
      </trkpt>
      <trkpt lat="43.54613" lon="2.59818">
        <ele>713.79998779297</ele>
        <time>2021-07-03T07:31:39.000Z</time>
      </trkpt>
      <trkpt lat="43.54615" lon="2.59818">
        <ele>714.20001220703</ele>
        <time>2021-07-03T07:31:40.000Z</time>
      </trkpt>
      <trkpt lat="43.54617" lon="2.59817">
        <ele>714.20001220703</ele>
        <time>2021-07-03T07:31:41.000Z</time>
      </trkpt>
      <trkpt lat="43.54624" lon="2.59816">
        <ele>714.20001220703</ele>
        <time>2021-07-03T07:31:45.000Z</time>
      </trkpt>
      <trkpt lat="43.54621" lon="2.59816">
        <ele>714.20001220703</ele>
        <time>2021-07-03T07:31:49.000Z</time>
      </trkpt>
      <trkpt lat="43.54618" lon="2.59816">
        <ele>714.20001220703</ele>
        <time>2021-07-03T07:31:51.000Z</time>
      </trkpt>
      <trkpt lat="43.54613" lon="2.59816">
        <ele>714.20001220703</ele>
        <time>2021-07-03T07:31:56.000Z</time>
      </trkpt>
      <trkpt lat="43.54604" lon="2.59814">
        <ele>714.20001220703</ele>
        <time>2021-07-03T07:32:01.000Z</time>
      </trkpt>
      <trkpt lat="43.54603" lon="2.59812">
        <ele>714.20001220703</ele>
        <time>2021-07-03T07:32:03.000Z</time>
      </trkpt>
      <trkpt lat="43.54599" lon="2.59812">
        <ele>714.20001220703</ele>
        <time>2021-07-03T07:32:14.000Z</time>
      </trkpt>
      <trkpt lat="43.54589" lon="2.59806">
        <ele>713.79998779297</ele>
        <time>2021-07-03T07:32:18.000Z</time>
      </trkpt>
      <trkpt lat="43.54586" lon="2.59804">
        <ele>713.40002441406</ele>
        <time>2021-07-03T07:32:19.000Z</time>
      </trkpt>
      <trkpt lat="43.54583" lon="2.59802">
        <ele>712.79998779297</ele>
        <time>2021-07-03T07:32:20.000Z</time>
      </trkpt>
      <trkpt lat="43.5458" lon="2.59797">
        <ele>712.40002441406</ele>
        <time>2021-07-03T07:32:21.000Z</time>
      </trkpt>
      <trkpt lat="43.54579" lon="2.59791">
        <ele>712</ele>
        <time>2021-07-03T07:32:22.000Z</time>
      </trkpt>
      <trkpt lat="43.54578" lon="2.59784">
        <ele>711.40002441406</ele>
        <time>2021-07-03T07:32:23.000Z</time>
      </trkpt>
      <trkpt lat="43.54579" lon="2.59779">
        <ele>711</ele>
        <time>2021-07-03T07:32:24.000Z</time>
      </trkpt>
      <trkpt lat="43.54579" lon="2.59774">
        <ele>710.40002441406</ele>
        <time>2021-07-03T07:32:25.000Z</time>
      </trkpt>
      <trkpt lat="43.54579" lon="2.59769">
        <ele>710</ele>
        <time>2021-07-03T07:32:26.000Z</time>
      </trkpt>
      <trkpt lat="43.54581" lon="2.59745">
        <ele>710</ele>
        <time>2021-07-03T07:32:31.000Z</time>
      </trkpt>
      <trkpt lat="43.5459" lon="2.59716">
        <ele>710</ele>
        <time>2021-07-03T07:32:38.000Z</time>
      </trkpt>
      <trkpt lat="43.54593" lon="2.59715">
        <ele>710</ele>
        <time>2021-07-03T07:32:39.000Z</time>
      </trkpt>
      <trkpt lat="43.54597" lon="2.59716">
        <ele>710</ele>
        <time>2021-07-03T07:32:41.000Z</time>
      </trkpt>
      <trkpt lat="43.54605" lon="2.5972">
        <ele>710</ele>
        <time>2021-07-03T07:32:45.000Z</time>
      </trkpt>
      <trkpt lat="43.54613" lon="2.59725">
        <ele>710</ele>
        <time>2021-07-03T07:32:49.000Z</time>
      </trkpt>
      <trkpt lat="43.54619" lon="2.59729">
        <ele>710</ele>
        <time>2021-07-03T07:32:53.000Z</time>
      </trkpt>
      <trkpt lat="43.54623" lon="2.59732">
        <ele>710</ele>
        <time>2021-07-03T07:32:55.000Z</time>
      </trkpt>
      <trkpt lat="43.54628" lon="2.59733">
        <ele>710</ele>
        <time>2021-07-03T07:32:58.000Z</time>
      </trkpt>
      <trkpt lat="43.54642" lon="2.59738">
        <ele>710</ele>
        <time>2021-07-03T07:33:05.000Z</time>
      </trkpt>
      <trkpt lat="43.54645" lon="2.5974">
        <ele>710</ele>
        <time>2021-07-03T07:33:07.000Z</time>
      </trkpt>
      <trkpt lat="43.54651" lon="2.59747">
        <ele>710</ele>
        <time>2021-07-03T07:33:10.000Z</time>
      </trkpt>
      <trkpt lat="43.54654" lon="2.59752">
        <ele>710</ele>
        <time>2021-07-03T07:33:12.000Z</time>
      </trkpt>
      <trkpt lat="43.54664" lon="2.59754">
        <ele>710</ele>
        <time>2021-07-03T07:33:15.000Z</time>
      </trkpt>
      <trkpt lat="43.54666" lon="2.59755">
        <ele>710</ele>
        <time>2021-07-03T07:33:16.000Z</time>
      </trkpt>
      <trkpt lat="43.54671" lon="2.5976">
        <ele>710</ele>
        <time>2021-07-03T07:33:19.000Z</time>
      </trkpt>
      <trkpt lat="43.54684" lon="2.59771">
        <ele>710</ele>
        <time>2021-07-03T07:33:24.000Z</time>
      </trkpt>
      <trkpt lat="43.54688" lon="2.59778">
        <ele>710</ele>
        <time>2021-07-03T07:33:26.000Z</time>
      </trkpt>
      <trkpt lat="43.54691" lon="2.59786">
        <ele>710</ele>
        <time>2021-07-03T07:33:28.000Z</time>
      </trkpt>
      <trkpt lat="43.54698" lon="2.59811">
        <ele>710</ele>
        <time>2021-07-03T07:33:34.000Z</time>
      </trkpt>
      <trkpt lat="43.54698" lon="2.59822">
        <ele>710</ele>
        <time>2021-07-03T07:33:39.000Z</time>
      </trkpt>
      <trkpt lat="43.54698" lon="2.59823">
        <ele>710</ele>
        <time>2021-07-03T07:33:40.000Z</time>
      </trkpt>
      <trkpt lat="43.54701" lon="2.59826">
        <ele>710</ele>
        <time>2021-07-03T07:33:43.000Z</time>
      </trkpt>
      <trkpt lat="43.547" lon="2.59828">
        <ele>710</ele>
        <time>2021-07-03T07:33:44.000Z</time>
      </trkpt>
      <trkpt lat="43.54693" lon="2.59843">
        <ele>710</ele>
        <time>2021-07-03T07:33:48.000Z</time>
      </trkpt>
      <trkpt lat="43.54683" lon="2.59858">
        <ele>710</ele>
        <time>2021-07-03T07:33:53.000Z</time>
      </trkpt>
      <trkpt lat="43.54675" lon="2.5987">
        <ele>710</ele>
        <time>2021-07-03T07:33:57.000Z</time>
      </trkpt>
      <trkpt lat="43.54671" lon="2.59885">
        <ele>710</ele>
        <time>2021-07-03T07:34:01.000Z</time>
      </trkpt>
      <trkpt lat="43.54683" lon="2.599">
        <ele>710</ele>
        <time>2021-07-03T07:34:03.000Z</time>
      </trkpt>
      <trkpt lat="43.54685" lon="2.59904">
        <ele>710</ele>
        <time>2021-07-03T07:34:06.000Z</time>
      </trkpt>
      <trkpt lat="43.54684" lon="2.59902">
        <ele>710.40002441406</ele>
        <time>2021-07-03T07:34:07.000Z</time>
      </trkpt>
      <trkpt lat="43.54684" lon="2.59899">
        <ele>710.79998779297</ele>
        <time>2021-07-03T07:34:08.000Z</time>
      </trkpt>
      <trkpt lat="43.54684" lon="2.59896">
        <ele>711.20001220703</ele>
        <time>2021-07-03T07:34:09.000Z</time>
      </trkpt>
      <trkpt lat="43.54683" lon="2.59894">
        <ele>711.59997558594</ele>
        <time>2021-07-03T07:34:10.000Z</time>
      </trkpt>
      <trkpt lat="43.54683" lon="2.59892">
        <ele>712</ele>
        <time>2021-07-03T07:34:11.000Z</time>
      </trkpt>
      <trkpt lat="43.5468" lon="2.59887">
        <ele>712.40002441406</ele>
        <time>2021-07-03T07:34:14.000Z</time>
      </trkpt>
      <trkpt lat="43.54679" lon="2.59885">
        <ele>712.79998779297</ele>
        <time>2021-07-03T07:34:15.000Z</time>
      </trkpt>
      <trkpt lat="43.54678" lon="2.59883">
        <ele>713.20001220703</ele>
        <time>2021-07-03T07:34:16.000Z</time>
      </trkpt>
      <trkpt lat="43.54677" lon="2.59879">
        <ele>714.20001220703</ele>
        <time>2021-07-03T07:34:17.000Z</time>
      </trkpt>
      <trkpt lat="43.54675" lon="2.59872">
        <ele>714.20001220703</ele>
        <time>2021-07-03T07:34:20.000Z</time>
      </trkpt>
      <trkpt lat="43.54674" lon="2.59871">
        <ele>714.20001220703</ele>
        <time>2021-07-03T07:34:21.000Z</time>
      </trkpt>
      <trkpt lat="43.54674" lon="2.59867">
        <ele>715</ele>
        <time>2021-07-03T07:34:26.000Z</time>
      </trkpt>
      <trkpt lat="43.54673" lon="2.59864">
        <ele>715.40002441406</ele>
        <time>2021-07-03T07:34:27.000Z</time>
      </trkpt>
      <trkpt lat="43.54671" lon="2.59861">
        <ele>715.79998779297</ele>
        <time>2021-07-03T07:34:28.000Z</time>
      </trkpt>
      <trkpt lat="43.54668" lon="2.59858">
        <ele>716.20001220703</ele>
        <time>2021-07-03T07:34:29.000Z</time>
      </trkpt>
      <trkpt lat="43.54664" lon="2.59852">
        <ele>716.20001220703</ele>
        <time>2021-07-03T07:34:31.000Z</time>
      </trkpt>
      <trkpt lat="43.54662" lon="2.59849">
        <ele>716.20001220703</ele>
        <time>2021-07-03T07:34:32.000Z</time>
      </trkpt>
      <trkpt lat="43.54656" lon="2.59842">
        <ele>716.20001220703</ele>
        <time>2021-07-03T07:34:36.000Z</time>
      </trkpt>
      <trkpt lat="43.54655" lon="2.59841">
        <ele>716.20001220703</ele>
        <time>2021-07-03T07:34:39.000Z</time>
      </trkpt>
      <trkpt lat="43.54653" lon="2.59841">
        <ele>716.20001220703</ele>
        <time>2021-07-03T07:34:53.000Z</time>
      </trkpt>
      <trkpt lat="43.54651" lon="2.59842">
        <ele>716.59997558594</ele>
        <time>2021-07-03T07:34:55.000Z</time>
      </trkpt>
      <trkpt lat="43.5465" lon="2.59844">
        <ele>717</ele>
        <time>2021-07-03T07:34:56.000Z</time>
      </trkpt>
      <trkpt lat="43.5465" lon="2.59845">
        <ele>717.40002441406</ele>
        <time>2021-07-03T07:34:57.000Z</time>
      </trkpt>
      <trkpt lat="43.5465" lon="2.59846">
        <ele>717.79998779297</ele>
        <time>2021-07-03T07:34:58.000Z</time>
      </trkpt>
      <trkpt lat="43.54649" lon="2.59848">
        <ele>718.20001220703</ele>
        <time>2021-07-03T07:35:26.000Z</time>
      </trkpt>
      <trkpt lat="43.54651" lon="2.59848">
        <ele>718.20001220703</ele>
        <time>2021-07-03T07:35:28.000Z</time>
      </trkpt>
      <trkpt lat="43.54651" lon="2.59849">
        <ele>718.20001220703</ele>
        <time>2021-07-03T07:35:29.000Z</time>
      </trkpt>
      <trkpt lat="43.54657" lon="2.59857">
        <ele>720.40002441406</ele>
        <time>2021-07-03T07:35:50.000Z</time>
      </trkpt>
      <trkpt lat="43.54657" lon="2.59859">
        <ele>720.40002441406</ele>
        <time>2021-07-03T07:35:52.000Z</time>
      </trkpt>
      <trkpt lat="43.54662" lon="2.59875">
        <ele>722.40002441406</ele>
        <time>2021-07-03T07:37:05.000Z</time>
      </trkpt>
      <trkpt lat="43.54664" lon="2.5988">
        <ele>722.40002441406</ele>
        <time>2021-07-03T07:37:07.000Z</time>
      </trkpt>
      <trkpt lat="43.54665" lon="2.59886">
        <ele>722.40002441406</ele>
        <time>2021-07-03T07:37:09.000Z</time>
      </trkpt>
      <trkpt lat="43.54666" lon="2.59889">
        <ele>723.20001220703</ele>
        <time>2021-07-03T07:37:10.000Z</time>
      </trkpt>
      <trkpt lat="43.54665" lon="2.5989">
        <ele>723.79998779297</ele>
        <time>2021-07-03T07:37:11.000Z</time>
      </trkpt>
      <trkpt lat="43.54665" lon="2.59893">
        <ele>724.59997558594</ele>
        <time>2021-07-03T07:37:13.000Z</time>
      </trkpt>
      <trkpt lat="43.54666" lon="2.599">
        <ele>725</ele>
        <time>2021-07-03T07:37:16.000Z</time>
      </trkpt>
      <trkpt lat="43.54666" lon="2.59903">
        <ele>725.40002441406</ele>
        <time>2021-07-03T07:37:17.000Z</time>
      </trkpt>
      <trkpt lat="43.54665" lon="2.59906">
        <ele>725.79998779297</ele>
        <time>2021-07-03T07:37:18.000Z</time>
      </trkpt>
      <trkpt lat="43.54664" lon="2.59909">
        <ele>726.20001220703</ele>
        <time>2021-07-03T07:37:19.000Z</time>
      </trkpt>
      <trkpt lat="43.54663" lon="2.59911">
        <ele>726.79998779297</ele>
        <time>2021-07-03T07:37:20.000Z</time>
      </trkpt>
      <trkpt lat="43.54656" lon="2.59919">
        <ele>727.20001220703</ele>
        <time>2021-07-03T07:37:24.000Z</time>
      </trkpt>
      <trkpt lat="43.54654" lon="2.59921">
        <ele>727.59997558594</ele>
        <time>2021-07-03T07:37:25.000Z</time>
      </trkpt>
      <trkpt lat="43.54652" lon="2.59922">
        <ele>728</ele>
        <time>2021-07-03T07:37:26.000Z</time>
      </trkpt>
      <trkpt lat="43.5465" lon="2.59923">
        <ele>728.40002441406</ele>
        <time>2021-07-03T07:37:27.000Z</time>
      </trkpt>
      <trkpt lat="43.54648" lon="2.59926">
        <ele>728.79998779297</ele>
        <time>2021-07-03T07:37:28.000Z</time>
      </trkpt>
      <trkpt lat="43.54643" lon="2.59929">
        <ele>728.79998779297</ele>
        <time>2021-07-03T07:37:30.000Z</time>
      </trkpt>
      <trkpt lat="43.5464" lon="2.59932">
        <ele>729.20001220703</ele>
        <time>2021-07-03T07:37:31.000Z</time>
      </trkpt>
      <trkpt lat="43.54637" lon="2.59934">
        <ele>729.59997558594</ele>
        <time>2021-07-03T07:37:32.000Z</time>
      </trkpt>
      <trkpt lat="43.54634" lon="2.59935">
        <ele>730.20001220703</ele>
        <time>2021-07-03T07:37:33.000Z</time>
      </trkpt>
      <trkpt lat="43.54631" lon="2.59936">
        <ele>730.59997558594</ele>
        <time>2021-07-03T07:37:34.000Z</time>
      </trkpt>
      <trkpt lat="43.54628" lon="2.59938">
        <ele>731.40002441406</ele>
        <time>2021-07-03T07:37:35.000Z</time>
      </trkpt>
      <trkpt lat="43.54626" lon="2.59939">
        <ele>732</ele>
        <time>2021-07-03T07:37:36.000Z</time>
      </trkpt>
      <trkpt lat="43.54623" lon="2.59941">
        <ele>732.40002441406</ele>
        <time>2021-07-03T07:37:37.000Z</time>
      </trkpt>
      <trkpt lat="43.54621" lon="2.59942">
        <ele>732.79998779297</ele>
        <time>2021-07-03T07:37:38.000Z</time>
      </trkpt>
      <trkpt lat="43.5462" lon="2.59944">
        <ele>733.40002441406</ele>
        <time>2021-07-03T07:37:39.000Z</time>
      </trkpt>
      <trkpt lat="43.54618" lon="2.59948">
        <ele>733.79998779297</ele>
        <time>2021-07-03T07:37:40.000Z</time>
      </trkpt>
      <trkpt lat="43.54616" lon="2.59951">
        <ele>734.40002441406</ele>
        <time>2021-07-03T07:37:41.000Z</time>
      </trkpt>
      <trkpt lat="43.54615" lon="2.59954">
        <ele>734.79998779297</ele>
        <time>2021-07-03T07:37:42.000Z</time>
      </trkpt>
      <trkpt lat="43.54614" lon="2.59957">
        <ele>735.40002441406</ele>
        <time>2021-07-03T07:37:43.000Z</time>
      </trkpt>
      <trkpt lat="43.5461" lon="2.59962">
        <ele>735.40002441406</ele>
        <time>2021-07-03T07:37:45.000Z</time>
      </trkpt>
      <trkpt lat="43.54609" lon="2.59963">
        <ele>735.79998779297</ele>
        <time>2021-07-03T07:37:46.000Z</time>
      </trkpt>
      <trkpt lat="43.54603" lon="2.59965">
        <ele>736.40002441406</ele>
        <time>2021-07-03T07:37:47.000Z</time>
      </trkpt>
      <trkpt lat="43.54598" lon="2.59967">
        <ele>736.79998779297</ele>
        <time>2021-07-03T07:37:48.000Z</time>
      </trkpt>
      <trkpt lat="43.54594" lon="2.5997">
        <ele>737.20001220703</ele>
        <time>2021-07-03T07:37:49.000Z</time>
      </trkpt>
      <trkpt lat="43.54591" lon="2.59973">
        <ele>737.59997558594</ele>
        <time>2021-07-03T07:37:50.000Z</time>
      </trkpt>
      <trkpt lat="43.54589" lon="2.59976">
        <ele>737.59997558594</ele>
        <time>2021-07-03T07:37:51.000Z</time>
      </trkpt>
      <trkpt lat="43.54586" lon="2.59978">
        <ele>737.59997558594</ele>
        <time>2021-07-03T07:37:53.000Z</time>
      </trkpt>
      <trkpt lat="43.54581" lon="2.59982">
        <ele>737.59997558594</ele>
        <time>2021-07-03T07:38:05.000Z</time>
      </trkpt>
      <trkpt lat="43.54578" lon="2.59983">
        <ele>737.59997558594</ele>
        <time>2021-07-03T07:38:06.000Z</time>
      </trkpt>
      <trkpt lat="43.54557" lon="2.60001">
        <ele>737.59997558594</ele>
        <time>2021-07-03T07:38:13.000Z</time>
      </trkpt>
      <trkpt lat="43.54553" lon="2.60003">
        <ele>738.20001220703</ele>
        <time>2021-07-03T07:38:14.000Z</time>
      </trkpt>
      <trkpt lat="43.5455" lon="2.60006">
        <ele>738.59997558594</ele>
        <time>2021-07-03T07:38:15.000Z</time>
      </trkpt>
      <trkpt lat="43.54547" lon="2.60009">
        <ele>739</ele>
        <time>2021-07-03T07:38:16.000Z</time>
      </trkpt>
      <trkpt lat="43.54544" lon="2.60012">
        <ele>739.40002441406</ele>
        <time>2021-07-03T07:38:17.000Z</time>
      </trkpt>
      <trkpt lat="43.54541" lon="2.60014">
        <ele>739.79998779297</ele>
        <time>2021-07-03T07:38:18.000Z</time>
      </trkpt>
      <trkpt lat="43.54531" lon="2.60026">
        <ele>739.79998779297</ele>
        <time>2021-07-03T07:38:23.000Z</time>
      </trkpt>
      <trkpt lat="43.54525" lon="2.60033">
        <ele>740.20001220703</ele>
        <time>2021-07-03T07:38:26.000Z</time>
      </trkpt>
      <trkpt lat="43.54522" lon="2.60035">
        <ele>740.59997558594</ele>
        <time>2021-07-03T07:38:27.000Z</time>
      </trkpt>
      <trkpt lat="43.54519" lon="2.60036">
        <ele>741</ele>
        <time>2021-07-03T07:38:28.000Z</time>
      </trkpt>
      <trkpt lat="43.54516" lon="2.60036">
        <ele>741.40002441406</ele>
        <time>2021-07-03T07:38:29.000Z</time>
      </trkpt>
      <trkpt lat="43.54513" lon="2.60037">
        <ele>741.79998779297</ele>
        <time>2021-07-03T07:38:30.000Z</time>
      </trkpt>
      <trkpt lat="43.54508" lon="2.60036">
        <ele>742.40002441406</ele>
        <time>2021-07-03T07:38:33.000Z</time>
      </trkpt>
      <trkpt lat="43.54506" lon="2.60036">
        <ele>742.79998779297</ele>
        <time>2021-07-03T07:38:34.000Z</time>
      </trkpt>
      <trkpt lat="43.54504" lon="2.60036">
        <ele>743.20001220703</ele>
        <time>2021-07-03T07:38:35.000Z</time>
      </trkpt>
      <trkpt lat="43.54502" lon="2.60039">
        <ele>743.59997558594</ele>
        <time>2021-07-03T07:38:36.000Z</time>
      </trkpt>
      <trkpt lat="43.545" lon="2.60041">
        <ele>744</ele>
        <time>2021-07-03T07:38:37.000Z</time>
      </trkpt>
      <trkpt lat="43.54499" lon="2.60041">
        <ele>744</ele>
        <time>2021-07-03T07:38:38.000Z</time>
      </trkpt>
      <trkpt lat="43.54498" lon="2.60042">
        <ele>744</ele>
        <time>2021-07-03T07:38:39.000Z</time>
      </trkpt>
      <trkpt lat="43.54494" lon="2.60047">
        <ele>744</ele>
        <time>2021-07-03T07:39:28.000Z</time>
      </trkpt>
      <trkpt lat="43.54489" lon="2.60051">
        <ele>744</ele>
        <time>2021-07-03T07:39:30.000Z</time>
      </trkpt>
      <trkpt lat="43.54477" lon="2.60062">
        <ele>744.59997558594</ele>
        <time>2021-07-03T07:39:35.000Z</time>
      </trkpt>
      <trkpt lat="43.54474" lon="2.60064">
        <ele>745</ele>
        <time>2021-07-03T07:39:36.000Z</time>
      </trkpt>
      <trkpt lat="43.54471" lon="2.60067">
        <ele>745.40002441406</ele>
        <time>2021-07-03T07:39:37.000Z</time>
      </trkpt>
      <trkpt lat="43.54469" lon="2.60069">
        <ele>745.79998779297</ele>
        <time>2021-07-03T07:39:38.000Z</time>
      </trkpt>
      <trkpt lat="43.54465" lon="2.60072">
        <ele>746.20001220703</ele>
        <time>2021-07-03T07:39:39.000Z</time>
      </trkpt>
      <trkpt lat="43.54458" lon="2.6008">
        <ele>746.59997558594</ele>
        <time>2021-07-03T07:39:42.000Z</time>
      </trkpt>
      <trkpt lat="43.54455" lon="2.60082">
        <ele>747</ele>
        <time>2021-07-03T07:39:43.000Z</time>
      </trkpt>
      <trkpt lat="43.54453" lon="2.60085">
        <ele>747.59997558594</ele>
        <time>2021-07-03T07:39:44.000Z</time>
      </trkpt>
      <trkpt lat="43.5445" lon="2.60088">
        <ele>748</ele>
        <time>2021-07-03T07:39:45.000Z</time>
      </trkpt>
      <trkpt lat="43.54447" lon="2.6009">
        <ele>748.40002441406</ele>
        <time>2021-07-03T07:39:46.000Z</time>
      </trkpt>
      <trkpt lat="43.54439" lon="2.60097">
        <ele>748.40002441406</ele>
        <time>2021-07-03T07:39:49.000Z</time>
      </trkpt>
      <trkpt lat="43.54431" lon="2.60103">
        <ele>748.79998779297</ele>
        <time>2021-07-03T07:39:52.000Z</time>
      </trkpt>
      <trkpt lat="43.54429" lon="2.60107">
        <ele>749.20001220703</ele>
        <time>2021-07-03T07:39:53.000Z</time>
      </trkpt>
      <trkpt lat="43.54426" lon="2.6011">
        <ele>749.59997558594</ele>
        <time>2021-07-03T07:39:54.000Z</time>
      </trkpt>
      <trkpt lat="43.54423" lon="2.60113">
        <ele>750</ele>
        <time>2021-07-03T07:39:55.000Z</time>
      </trkpt>
      <trkpt lat="43.5442" lon="2.60117">
        <ele>750.40002441406</ele>
        <time>2021-07-03T07:39:56.000Z</time>
      </trkpt>
      <trkpt lat="43.54408" lon="2.60134">
        <ele>750.40002441406</ele>
        <time>2021-07-03T07:40:01.000Z</time>
      </trkpt>
      <trkpt lat="43.54398" lon="2.60149">
        <ele>750.79998779297</ele>
        <time>2021-07-03T07:40:05.000Z</time>
      </trkpt>
      <trkpt lat="43.54396" lon="2.60153">
        <ele>751.40002441406</ele>
        <time>2021-07-03T07:40:06.000Z</time>
      </trkpt>
      <trkpt lat="43.54394" lon="2.60155">
        <ele>751.79998779297</ele>
        <time>2021-07-03T07:40:07.000Z</time>
      </trkpt>
      <trkpt lat="43.54392" lon="2.60157">
        <ele>752.20001220703</ele>
        <time>2021-07-03T07:40:08.000Z</time>
      </trkpt>
      <trkpt lat="43.54388" lon="2.60159">
        <ele>752.59997558594</ele>
        <time>2021-07-03T07:40:09.000Z</time>
      </trkpt>
      <trkpt lat="43.54382" lon="2.60163">
        <ele>753</ele>
        <time>2021-07-03T07:40:12.000Z</time>
      </trkpt>
      <trkpt lat="43.5438" lon="2.60164">
        <ele>753.40002441406</ele>
        <time>2021-07-03T07:40:13.000Z</time>
      </trkpt>
      <trkpt lat="43.54377" lon="2.60165">
        <ele>753.79998779297</ele>
        <time>2021-07-03T07:40:14.000Z</time>
      </trkpt>
      <trkpt lat="43.54375" lon="2.60167">
        <ele>754.20001220703</ele>
        <time>2021-07-03T07:40:15.000Z</time>
      </trkpt>
      <trkpt lat="43.54373" lon="2.60169">
        <ele>754.79998779297</ele>
        <time>2021-07-03T07:40:16.000Z</time>
      </trkpt>
      <trkpt lat="43.54367" lon="2.60172">
        <ele>754.79998779297</ele>
        <time>2021-07-03T07:40:19.000Z</time>
      </trkpt>
      <trkpt lat="43.54356" lon="2.6018">
        <ele>754.79998779297</ele>
        <time>2021-07-03T07:40:26.000Z</time>
      </trkpt>
      <trkpt lat="43.54349" lon="2.60183">
        <ele>754.79998779297</ele>
        <time>2021-07-03T07:40:31.000Z</time>
      </trkpt>
      <trkpt lat="43.54341" lon="2.60192">
        <ele>754.79998779297</ele>
        <time>2021-07-03T07:40:38.000Z</time>
      </trkpt>
      <trkpt lat="43.5433" lon="2.60199">
        <ele>754.79998779297</ele>
        <time>2021-07-03T07:40:44.000Z</time>
      </trkpt>
      <trkpt lat="43.54325" lon="2.60202">
        <ele>754.79998779297</ele>
        <time>2021-07-03T07:40:46.000Z</time>
      </trkpt>
      <trkpt lat="43.54319" lon="2.60205">
        <ele>754.79998779297</ele>
        <time>2021-07-03T07:40:50.000Z</time>
      </trkpt>
      <trkpt lat="43.54319" lon="2.60212">
        <ele>754.79998779297</ele>
        <time>2021-07-03T07:40:54.000Z</time>
      </trkpt>
      <trkpt lat="43.5432" lon="2.60213">
        <ele>754.79998779297</ele>
        <time>2021-07-03T07:40:55.000Z</time>
      </trkpt>
      <trkpt lat="43.54325" lon="2.60218">
        <ele>755.20001220703</ele>
        <time>2021-07-03T07:40:58.000Z</time>
      </trkpt>
      <trkpt lat="43.54327" lon="2.6022">
        <ele>755.59997558594</ele>
        <time>2021-07-03T07:40:59.000Z</time>
      </trkpt>
      <trkpt lat="43.54329" lon="2.60221">
        <ele>756</ele>
        <time>2021-07-03T07:41:00.000Z</time>
      </trkpt>
      <trkpt lat="43.54331" lon="2.60223">
        <ele>756.40002441406</ele>
        <time>2021-07-03T07:41:01.000Z</time>
      </trkpt>
      <trkpt lat="43.54333" lon="2.60224">
        <ele>756.79998779297</ele>
        <time>2021-07-03T07:41:02.000Z</time>
      </trkpt>
      <trkpt lat="43.5434" lon="2.60228">
        <ele>756.79998779297</ele>
        <time>2021-07-03T07:41:06.000Z</time>
      </trkpt>
      <trkpt lat="43.54342" lon="2.6023">
        <ele>757.40002441406</ele>
        <time>2021-07-03T07:41:08.000Z</time>
      </trkpt>
      <trkpt lat="43.54343" lon="2.6023">
        <ele>757.79998779297</ele>
        <time>2021-07-03T07:41:09.000Z</time>
      </trkpt>
      <trkpt lat="43.54345" lon="2.6023">
        <ele>758.20001220703</ele>
        <time>2021-07-03T07:41:10.000Z</time>
      </trkpt>
      <trkpt lat="43.54347" lon="2.60231">
        <ele>758.59997558594</ele>
        <time>2021-07-03T07:41:11.000Z</time>
      </trkpt>
      <trkpt lat="43.5435" lon="2.60233">
        <ele>759</ele>
        <time>2021-07-03T07:41:12.000Z</time>
      </trkpt>
      <trkpt lat="43.5436" lon="2.60248">
        <ele>759</ele>
        <time>2021-07-03T07:41:18.000Z</time>
      </trkpt>
      <trkpt lat="43.54361" lon="2.60258">
        <ele>759</ele>
        <time>2021-07-03T07:41:22.000Z</time>
      </trkpt>
      <trkpt lat="43.54362" lon="2.60259">
        <ele>759</ele>
        <time>2021-07-03T07:41:23.000Z</time>
      </trkpt>
      <trkpt lat="43.54364" lon="2.60257">
        <ele>759</ele>
        <time>2021-07-03T07:41:25.000Z</time>
      </trkpt>
      <trkpt lat="43.54361" lon="2.60244">
        <ele>759</ele>
        <time>2021-07-03T07:41:29.000Z</time>
      </trkpt>
      <trkpt lat="43.54351" lon="2.60231">
        <ele>759</ele>
        <time>2021-07-03T07:41:34.000Z</time>
      </trkpt>
      <trkpt lat="43.54344" lon="2.60228">
        <ele>759</ele>
        <time>2021-07-03T07:41:37.000Z</time>
      </trkpt>
      <trkpt lat="43.54342" lon="2.60227">
        <ele>759</ele>
        <time>2021-07-03T07:41:39.000Z</time>
      </trkpt>
      <trkpt lat="43.54341" lon="2.60227">
        <ele>759</ele>
        <time>2021-07-03T07:41:40.000Z</time>
      </trkpt>
      <trkpt lat="43.54344" lon="2.60231">
        <ele>759</ele>
        <time>2021-07-03T07:42:16.000Z</time>
      </trkpt>
      <trkpt lat="43.54346" lon="2.6023">
        <ele>759</ele>
        <time>2021-07-03T07:42:18.000Z</time>
      </trkpt>
      <trkpt lat="43.54349" lon="2.60232">
        <ele>759</ele>
        <time>2021-07-03T07:42:20.000Z</time>
      </trkpt>
      <trkpt lat="43.54354" lon="2.60236">
        <ele>759</ele>
        <time>2021-07-03T07:42:24.000Z</time>
      </trkpt>
      <trkpt lat="43.5436" lon="2.60245">
        <ele>759</ele>
        <time>2021-07-03T07:42:28.000Z</time>
      </trkpt>
      <trkpt lat="43.54361" lon="2.60249">
        <ele>759</ele>
        <time>2021-07-03T07:42:29.000Z</time>
      </trkpt>
      <trkpt lat="43.54366" lon="2.60269">
        <ele>759</ele>
        <time>2021-07-03T07:42:34.000Z</time>
      </trkpt>
      <trkpt lat="43.5437" lon="2.60286">
        <ele>759</ele>
        <time>2021-07-03T07:42:38.000Z</time>
      </trkpt>
      <trkpt lat="43.54371" lon="2.6029">
        <ele>759</ele>
        <time>2021-07-03T07:42:39.000Z</time>
      </trkpt>
      <trkpt lat="43.54374" lon="2.60314">
        <ele>758.59997558594</ele>
        <time>2021-07-03T07:42:46.000Z</time>
      </trkpt>
      <trkpt lat="43.54373" lon="2.60316">
        <ele>758.20001220703</ele>
        <time>2021-07-03T07:42:47.000Z</time>
      </trkpt>
      <trkpt lat="43.54371" lon="2.60318">
        <ele>757.79998779297</ele>
        <time>2021-07-03T07:42:48.000Z</time>
      </trkpt>
      <trkpt lat="43.54369" lon="2.6032">
        <ele>757.20001220703</ele>
        <time>2021-07-03T07:42:49.000Z</time>
      </trkpt>
      <trkpt lat="43.54368" lon="2.60321">
        <ele>756.79998779297</ele>
        <time>2021-07-03T07:42:50.000Z</time>
      </trkpt>
      <trkpt lat="43.54358" lon="2.60326">
        <ele>756.79998779297</ele>
        <time>2021-07-03T07:42:55.000Z</time>
      </trkpt>
      <trkpt lat="43.5435" lon="2.60334">
        <ele>757.20001220703</ele>
        <time>2021-07-03T07:43:00.000Z</time>
      </trkpt>
      <trkpt lat="43.54348" lon="2.60335">
        <ele>757.59997558594</ele>
        <time>2021-07-03T07:43:01.000Z</time>
      </trkpt>
      <trkpt lat="43.54346" lon="2.60336">
        <ele>758.20001220703</ele>
        <time>2021-07-03T07:43:02.000Z</time>
      </trkpt>
      <trkpt lat="43.54344" lon="2.60336">
        <ele>758.59997558594</ele>
        <time>2021-07-03T07:43:03.000Z</time>
      </trkpt>
      <trkpt lat="43.54342" lon="2.60337">
        <ele>759</ele>
        <time>2021-07-03T07:43:04.000Z</time>
      </trkpt>
      <trkpt lat="43.54338" lon="2.60339">
        <ele>759</ele>
        <time>2021-07-03T07:43:06.000Z</time>
      </trkpt>
      <trkpt lat="43.54336" lon="2.60339">
        <ele>759.40002441406</ele>
        <time>2021-07-03T07:43:07.000Z</time>
      </trkpt>
      <trkpt lat="43.54334" lon="2.60339">
        <ele>759.79998779297</ele>
        <time>2021-07-03T07:43:08.000Z</time>
      </trkpt>
      <trkpt lat="43.54332" lon="2.60339">
        <ele>760.20001220703</ele>
        <time>2021-07-03T07:43:09.000Z</time>
      </trkpt>
      <trkpt lat="43.54329" lon="2.6034">
        <ele>760.59997558594</ele>
        <time>2021-07-03T07:43:10.000Z</time>
      </trkpt>
      <trkpt lat="43.54327" lon="2.6034">
        <ele>761</ele>
        <time>2021-07-03T07:43:11.000Z</time>
      </trkpt>
      <trkpt lat="43.54318" lon="2.60338">
        <ele>761</ele>
        <time>2021-07-03T07:43:15.000Z</time>
      </trkpt>
      <trkpt lat="43.54311" lon="2.60337">
        <ele>761.40002441406</ele>
        <time>2021-07-03T07:43:18.000Z</time>
      </trkpt>
      <trkpt lat="43.54311" lon="2.60337">
        <ele>762</ele>
        <time>2021-07-03T07:43:19.000Z</time>
      </trkpt>
      <trkpt lat="43.54308" lon="2.60336">
        <ele>763.20001220703</ele>
        <time>2021-07-03T07:43:47.000Z</time>
      </trkpt>
      <trkpt lat="43.54304" lon="2.60336">
        <ele>763.20001220703</ele>
        <time>2021-07-03T07:43:49.000Z</time>
      </trkpt>
      <trkpt lat="43.543" lon="2.60338">
        <ele>763.20001220703</ele>
        <time>2021-07-03T07:43:52.000Z</time>
      </trkpt>
      <trkpt lat="43.543" lon="2.60342">
        <ele>763.20001220703</ele>
        <time>2021-07-03T07:43:54.000Z</time>
      </trkpt>
      <trkpt lat="43.54299" lon="2.60344">
        <ele>763.59997558594</ele>
        <time>2021-07-03T07:43:55.000Z</time>
      </trkpt>
      <trkpt lat="43.543" lon="2.60346">
        <ele>764</ele>
        <time>2021-07-03T07:43:56.000Z</time>
      </trkpt>
      <trkpt lat="43.543" lon="2.60349">
        <ele>764.59997558594</ele>
        <time>2021-07-03T07:43:57.000Z</time>
      </trkpt>
      <trkpt lat="43.54301" lon="2.60351">
        <ele>765</ele>
        <time>2021-07-03T07:43:58.000Z</time>
      </trkpt>
      <trkpt lat="43.54302" lon="2.60354">
        <ele>765.40002441406</ele>
        <time>2021-07-03T07:43:59.000Z</time>
      </trkpt>
      <trkpt lat="43.54305" lon="2.60359">
        <ele>765.79998779297</ele>
        <time>2021-07-03T07:44:01.000Z</time>
      </trkpt>
      <trkpt lat="43.54306" lon="2.60361">
        <ele>766.20001220703</ele>
        <time>2021-07-03T07:44:02.000Z</time>
      </trkpt>
      <trkpt lat="43.54306" lon="2.60364">
        <ele>766.79998779297</ele>
        <time>2021-07-03T07:44:03.000Z</time>
      </trkpt>
      <trkpt lat="43.54306" lon="2.60367">
        <ele>767.20001220703</ele>
        <time>2021-07-03T07:44:04.000Z</time>
      </trkpt>
      <trkpt lat="43.54306" lon="2.60371">
        <ele>767.59997558594</ele>
        <time>2021-07-03T07:44:05.000Z</time>
      </trkpt>
      <trkpt lat="43.54307" lon="2.60374">
        <ele>768</ele>
        <time>2021-07-03T07:44:06.000Z</time>
      </trkpt>
      <trkpt lat="43.54307" lon="2.60376">
        <ele>768.40002441406</ele>
        <time>2021-07-03T07:44:07.000Z</time>
      </trkpt>
      <trkpt lat="43.54307" lon="2.60378">
        <ele>768.79998779297</ele>
        <time>2021-07-03T07:44:08.000Z</time>
      </trkpt>
      <trkpt lat="43.54307" lon="2.6038">
        <ele>769.20001220703</ele>
        <time>2021-07-03T07:44:09.000Z</time>
      </trkpt>
      <trkpt lat="43.54306" lon="2.60381">
        <ele>769.59997558594</ele>
        <time>2021-07-03T07:44:10.000Z</time>
      </trkpt>
      <trkpt lat="43.54307" lon="2.60384">
        <ele>769.59997558594</ele>
        <time>2021-07-03T07:44:11.000Z</time>
      </trkpt>
      <trkpt lat="43.54305" lon="2.60398">
        <ele>769.59997558594</ele>
        <time>2021-07-03T07:44:16.000Z</time>
      </trkpt>
      <trkpt lat="43.54305" lon="2.60405">
        <ele>769.59997558594</ele>
        <time>2021-07-03T07:44:27.000Z</time>
      </trkpt>
      <trkpt lat="43.54306" lon="2.60408">
        <ele>769.59997558594</ele>
        <time>2021-07-03T07:44:28.000Z</time>
      </trkpt>
      <trkpt lat="43.54307" lon="2.60433">
        <ele>769.59997558594</ele>
        <time>2021-07-03T07:44:34.000Z</time>
      </trkpt>
      <trkpt lat="43.54304" lon="2.60441">
        <ele>770.20001220703</ele>
        <time>2021-07-03T07:44:36.000Z</time>
      </trkpt>
      <trkpt lat="43.54303" lon="2.60445">
        <ele>770.59997558594</ele>
        <time>2021-07-03T07:44:37.000Z</time>
      </trkpt>
      <trkpt lat="43.54302" lon="2.60449">
        <ele>771</ele>
        <time>2021-07-03T07:44:38.000Z</time>
      </trkpt>
      <trkpt lat="43.54301" lon="2.60453">
        <ele>771.40002441406</ele>
        <time>2021-07-03T07:44:39.000Z</time>
      </trkpt>
      <trkpt lat="43.54301" lon="2.60457">
        <ele>771.79998779297</ele>
        <time>2021-07-03T07:44:40.000Z</time>
      </trkpt>
      <trkpt lat="43.543" lon="2.60469">
        <ele>771.79998779297</ele>
        <time>2021-07-03T07:44:44.000Z</time>
      </trkpt>
      <trkpt lat="43.54298" lon="2.60479">
        <ele>772.20001220703</ele>
        <time>2021-07-03T07:44:46.000Z</time>
      </trkpt>
      <trkpt lat="43.54298" lon="2.60482">
        <ele>772.59997558594</ele>
        <time>2021-07-03T07:44:47.000Z</time>
      </trkpt>
      <trkpt lat="43.54296" lon="2.60485">
        <ele>773</ele>
        <time>2021-07-03T07:44:48.000Z</time>
      </trkpt>
      <trkpt lat="43.54295" lon="2.60489">
        <ele>773.40002441406</ele>
        <time>2021-07-03T07:44:49.000Z</time>
      </trkpt>
      <trkpt lat="43.54294" lon="2.60491">
        <ele>773.79998779297</ele>
        <time>2021-07-03T07:44:50.000Z</time>
      </trkpt>
      <trkpt lat="43.5429" lon="2.60499">
        <ele>773.79998779297</ele>
        <time>2021-07-03T07:44:52.000Z</time>
      </trkpt>
      <trkpt lat="43.54287" lon="2.60503">
        <ele>774.20001220703</ele>
        <time>2021-07-03T07:44:53.000Z</time>
      </trkpt>
      <trkpt lat="43.54285" lon="2.60506">
        <ele>774.59997558594</ele>
        <time>2021-07-03T07:44:54.000Z</time>
      </trkpt>
      <trkpt lat="43.54282" lon="2.60514">
        <ele>775.20001220703</ele>
        <time>2021-07-03T07:44:55.000Z</time>
      </trkpt>
      <trkpt lat="43.5428" lon="2.60521">
        <ele>775.59997558594</ele>
        <time>2021-07-03T07:44:56.000Z</time>
      </trkpt>
      <trkpt lat="43.54277" lon="2.60527">
        <ele>776</ele>
        <time>2021-07-03T07:44:57.000Z</time>
      </trkpt>
      <trkpt lat="43.54275" lon="2.60534">
        <ele>776.40002441406</ele>
        <time>2021-07-03T07:44:58.000Z</time>
      </trkpt>
      <trkpt lat="43.54274" lon="2.60537">
        <ele>777</ele>
        <time>2021-07-03T07:44:59.000Z</time>
      </trkpt>
      <trkpt lat="43.54273" lon="2.60541">
        <ele>777.40002441406</ele>
        <time>2021-07-03T07:45:00.000Z</time>
      </trkpt>
      <trkpt lat="43.54273" lon="2.60542">
        <ele>778.40002441406</ele>
        <time>2021-07-03T07:45:01.000Z</time>
      </trkpt>
      <trkpt lat="43.54269" lon="2.60551">
        <ele>778.40002441406</ele>
        <time>2021-07-03T07:47:00.000Z</time>
      </trkpt>
      <trkpt lat="43.54266" lon="2.60558">
        <ele>778.79998779297</ele>
        <time>2021-07-03T07:47:02.000Z</time>
      </trkpt>
      <trkpt lat="43.54264" lon="2.60561">
        <ele>779.20001220703</ele>
        <time>2021-07-03T07:47:03.000Z</time>
      </trkpt>
      <trkpt lat="43.54263" lon="2.60564">
        <ele>780.20001220703</ele>
        <time>2021-07-03T07:47:04.000Z</time>
      </trkpt>
      <trkpt lat="43.54262" lon="2.60568">
        <ele>780.59997558594</ele>
        <time>2021-07-03T07:47:05.000Z</time>
      </trkpt>
      <trkpt lat="43.54259" lon="2.60576">
        <ele>781</ele>
        <time>2021-07-03T07:47:07.000Z</time>
      </trkpt>
      <trkpt lat="43.54258" lon="2.6058">
        <ele>781.40002441406</ele>
        <time>2021-07-03T07:47:08.000Z</time>
      </trkpt>
      <trkpt lat="43.54256" lon="2.60584">
        <ele>781.79998779297</ele>
        <time>2021-07-03T07:47:09.000Z</time>
      </trkpt>
      <trkpt lat="43.54255" lon="2.60588">
        <ele>782.40002441406</ele>
        <time>2021-07-03T07:47:10.000Z</time>
      </trkpt>
      <trkpt lat="43.54254" lon="2.60592">
        <ele>782.79998779297</ele>
        <time>2021-07-03T07:47:11.000Z</time>
      </trkpt>
      <trkpt lat="43.54255" lon="2.60599">
        <ele>782.79998779297</ele>
        <time>2021-07-03T07:47:14.000Z</time>
      </trkpt>
      <trkpt lat="43.54256" lon="2.60601">
        <ele>782.79998779297</ele>
        <time>2021-07-03T07:47:15.000Z</time>
      </trkpt>
      <trkpt lat="43.54255" lon="2.60605">
        <ele>783.20001220703</ele>
        <time>2021-07-03T07:47:18.000Z</time>
      </trkpt>
      <trkpt lat="43.54256" lon="2.60613">
        <ele>784.79998779297</ele>
        <time>2021-07-03T07:51:26.000Z</time>
      </trkpt>
      <trkpt lat="43.54258" lon="2.60626">
        <ele>784.79998779297</ele>
        <time>2021-07-03T07:51:32.000Z</time>
      </trkpt>
      <trkpt lat="43.54258" lon="2.6063">
        <ele>784.79998779297</ele>
        <time>2021-07-03T07:51:33.000Z</time>
      </trkpt>
      <trkpt lat="43.5426" lon="2.60642">
        <ele>784.79998779297</ele>
        <time>2021-07-03T07:51:36.000Z</time>
      </trkpt>
      <trkpt lat="43.54261" lon="2.60662">
        <ele>784.79998779297</ele>
        <time>2021-07-03T07:51:40.000Z</time>
      </trkpt>
      <trkpt lat="43.54258" lon="2.60682">
        <ele>784.79998779297</ele>
        <time>2021-07-03T07:51:45.000Z</time>
      </trkpt>
      <trkpt lat="43.54259" lon="2.60686">
        <ele>784.79998779297</ele>
        <time>2021-07-03T07:51:46.000Z</time>
      </trkpt>
      <trkpt lat="43.54258" lon="2.60695">
        <ele>785.40002441406</ele>
        <time>2021-07-03T07:51:49.000Z</time>
      </trkpt>
      <trkpt lat="43.54259" lon="2.60698">
        <ele>785.79998779297</ele>
        <time>2021-07-03T07:51:50.000Z</time>
      </trkpt>
      <trkpt lat="43.54259" lon="2.60702">
        <ele>786.20001220703</ele>
        <time>2021-07-03T07:51:51.000Z</time>
      </trkpt>
      <trkpt lat="43.54259" lon="2.60706">
        <ele>786.79998779297</ele>
        <time>2021-07-03T07:51:52.000Z</time>
      </trkpt>
      <trkpt lat="43.5426" lon="2.6071">
        <ele>787.20001220703</ele>
        <time>2021-07-03T07:51:53.000Z</time>
      </trkpt>
      <trkpt lat="43.54261" lon="2.60713">
        <ele>787.20001220703</ele>
        <time>2021-07-03T07:51:54.000Z</time>
      </trkpt>
      <trkpt lat="43.54262" lon="2.60731">
        <ele>787.59997558594</ele>
        <time>2021-07-03T07:51:59.000Z</time>
      </trkpt>
      <trkpt lat="43.54261" lon="2.60734">
        <ele>788</ele>
        <time>2021-07-03T07:52:00.000Z</time>
      </trkpt>
      <trkpt lat="43.54262" lon="2.60737">
        <ele>788.79998779297</ele>
        <time>2021-07-03T07:52:01.000Z</time>
      </trkpt>
      <trkpt lat="43.54262" lon="2.60738">
        <ele>789.20001220703</ele>
        <time>2021-07-03T07:52:02.000Z</time>
      </trkpt>
      <trkpt lat="43.54262" lon="2.60741">
        <ele>789.20001220703</ele>
        <time>2021-07-03T07:52:03.000Z</time>
      </trkpt>
      <trkpt lat="43.54261" lon="2.60744">
        <ele>789.20001220703</ele>
        <time>2021-07-03T07:52:04.000Z</time>
      </trkpt>
      <trkpt lat="43.54259" lon="2.60751">
        <ele>789.79998779297</ele>
        <time>2021-07-03T07:52:07.000Z</time>
      </trkpt>
      <trkpt lat="43.54258" lon="2.60754">
        <ele>790.20001220703</ele>
        <time>2021-07-03T07:52:08.000Z</time>
      </trkpt>
      <trkpt lat="43.54258" lon="2.60758">
        <ele>790.59997558594</ele>
        <time>2021-07-03T07:52:09.000Z</time>
      </trkpt>
      <trkpt lat="43.54257" lon="2.60761">
        <ele>791</ele>
        <time>2021-07-03T07:52:10.000Z</time>
      </trkpt>
      <trkpt lat="43.54257" lon="2.60765">
        <ele>791.40002441406</ele>
        <time>2021-07-03T07:52:11.000Z</time>
      </trkpt>
      <trkpt lat="43.54255" lon="2.6078">
        <ele>791.40002441406</ele>
        <time>2021-07-03T07:52:15.000Z</time>
      </trkpt>
      <trkpt lat="43.54255" lon="2.60784">
        <ele>791.79998779297</ele>
        <time>2021-07-03T07:52:16.000Z</time>
      </trkpt>
      <trkpt lat="43.54254" lon="2.60788">
        <ele>792.20001220703</ele>
        <time>2021-07-03T07:52:17.000Z</time>
      </trkpt>
      <trkpt lat="43.54254" lon="2.60792">
        <ele>792.59997558594</ele>
        <time>2021-07-03T07:52:18.000Z</time>
      </trkpt>
      <trkpt lat="43.54254" lon="2.60797">
        <ele>793</ele>
        <time>2021-07-03T07:52:19.000Z</time>
      </trkpt>
      <trkpt lat="43.54254" lon="2.60801">
        <ele>793.40002441406</ele>
        <time>2021-07-03T07:52:20.000Z</time>
      </trkpt>
      <trkpt lat="43.54252" lon="2.60805">
        <ele>793.40002441406</ele>
        <time>2021-07-03T07:52:21.000Z</time>
      </trkpt>
      <trkpt lat="43.5425" lon="2.60815">
        <ele>794</ele>
        <time>2021-07-03T07:52:24.000Z</time>
      </trkpt>
      <trkpt lat="43.54249" lon="2.60819">
        <ele>794.79998779297</ele>
        <time>2021-07-03T07:52:25.000Z</time>
      </trkpt>
      <trkpt lat="43.54249" lon="2.60823">
        <ele>795.40002441406</ele>
        <time>2021-07-03T07:52:26.000Z</time>
      </trkpt>
      <trkpt lat="43.54248" lon="2.60828">
        <ele>795.79998779297</ele>
        <time>2021-07-03T07:52:27.000Z</time>
      </trkpt>
      <trkpt lat="43.54248" lon="2.60833">
        <ele>796.20001220703</ele>
        <time>2021-07-03T07:52:28.000Z</time>
      </trkpt>
      <trkpt lat="43.54247" lon="2.60838">
        <ele>796.59997558594</ele>
        <time>2021-07-03T07:52:29.000Z</time>
      </trkpt>
      <trkpt lat="43.54246" lon="2.60843">
        <ele>797</ele>
        <time>2021-07-03T07:52:30.000Z</time>
      </trkpt>
      <trkpt lat="43.54245" lon="2.60846">
        <ele>797.40002441406</ele>
        <time>2021-07-03T07:52:31.000Z</time>
      </trkpt>
      <trkpt lat="43.54245" lon="2.60849">
        <ele>798</ele>
        <time>2021-07-03T07:52:32.000Z</time>
      </trkpt>
      <trkpt lat="43.54246" lon="2.60857">
        <ele>798</ele>
        <time>2021-07-03T07:52:35.000Z</time>
      </trkpt>
      <trkpt lat="43.54247" lon="2.60862">
        <ele>798</ele>
        <time>2021-07-03T07:52:39.000Z</time>
      </trkpt>
      <trkpt lat="43.54248" lon="2.60863">
        <ele>798</ele>
        <time>2021-07-03T07:52:55.000Z</time>
      </trkpt>
      <trkpt lat="43.5425" lon="2.6087">
        <ele>798</ele>
        <time>2021-07-03T07:52:58.000Z</time>
      </trkpt>
      <trkpt lat="43.54256" lon="2.60887">
        <ele>798</ele>
        <time>2021-07-03T07:53:04.000Z</time>
      </trkpt>
      <trkpt lat="43.54258" lon="2.609">
        <ele>798</ele>
        <time>2021-07-03T07:53:08.000Z</time>
      </trkpt>
      <trkpt lat="43.54261" lon="2.60913">
        <ele>797.40002441406</ele>
        <time>2021-07-03T07:53:12.000Z</time>
      </trkpt>
      <trkpt lat="43.54262" lon="2.60917">
        <ele>797</ele>
        <time>2021-07-03T07:53:13.000Z</time>
      </trkpt>
      <trkpt lat="43.54264" lon="2.6092">
        <ele>796.59997558594</ele>
        <time>2021-07-03T07:53:14.000Z</time>
      </trkpt>
      <trkpt lat="43.54266" lon="2.60923">
        <ele>795.79998779297</ele>
        <time>2021-07-03T07:53:15.000Z</time>
      </trkpt>
      <trkpt lat="43.54272" lon="2.60933">
        <ele>795.40002441406</ele>
        <time>2021-07-03T07:53:18.000Z</time>
      </trkpt>
      <trkpt lat="43.54274" lon="2.60935">
        <ele>795</ele>
        <time>2021-07-03T07:53:19.000Z</time>
      </trkpt>
      <trkpt lat="43.54276" lon="2.60938">
        <ele>794.59997558594</ele>
        <time>2021-07-03T07:53:20.000Z</time>
      </trkpt>
      <trkpt lat="43.54278" lon="2.6094">
        <ele>794.20001220703</ele>
        <time>2021-07-03T07:53:21.000Z</time>
      </trkpt>
      <trkpt lat="43.5428" lon="2.60943">
        <ele>793.79998779297</ele>
        <time>2021-07-03T07:53:22.000Z</time>
      </trkpt>
      <trkpt lat="43.54286" lon="2.60953">
        <ele>793.79998779297</ele>
        <time>2021-07-03T07:53:25.000Z</time>
      </trkpt>
      <trkpt lat="43.54298" lon="2.60963">
        <ele>793.79998779297</ele>
        <time>2021-07-03T07:53:30.000Z</time>
      </trkpt>
      <trkpt lat="43.5431" lon="2.60971">
        <ele>793.79998779297</ele>
        <time>2021-07-03T07:53:35.000Z</time>
      </trkpt>
      <trkpt lat="43.54327" lon="2.60973">
        <ele>793.79998779297</ele>
        <time>2021-07-03T07:53:40.000Z</time>
      </trkpt>
      <trkpt lat="43.54341" lon="2.60974">
        <ele>793.79998779297</ele>
        <time>2021-07-03T07:53:45.000Z</time>
      </trkpt>
      <trkpt lat="43.54347" lon="2.60975">
        <ele>793.79998779297</ele>
        <time>2021-07-03T07:53:47.000Z</time>
      </trkpt>
      <trkpt lat="43.54354" lon="2.60972">
        <ele>793.79998779297</ele>
        <time>2021-07-03T07:53:49.000Z</time>
      </trkpt>
      <trkpt lat="43.54371" lon="2.60963">
        <ele>793.79998779297</ele>
        <time>2021-07-03T07:53:54.000Z</time>
      </trkpt>
      <trkpt lat="43.5439" lon="2.6095">
        <ele>793.79998779297</ele>
        <time>2021-07-03T07:54:00.000Z</time>
      </trkpt>
      <trkpt lat="43.54393" lon="2.60948">
        <ele>793.20001220703</ele>
        <time>2021-07-03T07:54:01.000Z</time>
      </trkpt>
      <trkpt lat="43.54396" lon="2.60946">
        <ele>792.79998779297</ele>
        <time>2021-07-03T07:54:02.000Z</time>
      </trkpt>
      <trkpt lat="43.54399" lon="2.60944">
        <ele>792.40002441406</ele>
        <time>2021-07-03T07:54:03.000Z</time>
      </trkpt>
      <trkpt lat="43.54402" lon="2.60942">
        <ele>791.59997558594</ele>
        <time>2021-07-03T07:54:04.000Z</time>
      </trkpt>
      <trkpt lat="43.54411" lon="2.60938">
        <ele>791.20001220703</ele>
        <time>2021-07-03T07:54:07.000Z</time>
      </trkpt>
      <trkpt lat="43.54414" lon="2.60938">
        <ele>790.79998779297</ele>
        <time>2021-07-03T07:54:08.000Z</time>
      </trkpt>
      <trkpt lat="43.54417" lon="2.60936">
        <ele>790.40002441406</ele>
        <time>2021-07-03T07:54:09.000Z</time>
      </trkpt>
      <trkpt lat="43.54419" lon="2.60936">
        <ele>789.79998779297</ele>
        <time>2021-07-03T07:54:10.000Z</time>
      </trkpt>
      <trkpt lat="43.54422" lon="2.60935">
        <ele>789.40002441406</ele>
        <time>2021-07-03T07:54:11.000Z</time>
      </trkpt>
      <trkpt lat="43.54425" lon="2.60934">
        <ele>789.40002441406</ele>
        <time>2021-07-03T07:54:12.000Z</time>
      </trkpt>
      <trkpt lat="43.5443" lon="2.60932">
        <ele>789</ele>
        <time>2021-07-03T07:54:14.000Z</time>
      </trkpt>
      <trkpt lat="43.54433" lon="2.60931">
        <ele>788.59997558594</ele>
        <time>2021-07-03T07:54:15.000Z</time>
      </trkpt>
      <trkpt lat="43.54435" lon="2.60931">
        <ele>788.20001220703</ele>
        <time>2021-07-03T07:54:16.000Z</time>
      </trkpt>
      <trkpt lat="43.54437" lon="2.6093">
        <ele>787.59997558594</ele>
        <time>2021-07-03T07:54:17.000Z</time>
      </trkpt>
      <trkpt lat="43.5444" lon="2.6093">
        <ele>787.20001220703</ele>
        <time>2021-07-03T07:54:18.000Z</time>
      </trkpt>
      <trkpt lat="43.54443" lon="2.6093">
        <ele>786.79998779297</ele>
        <time>2021-07-03T07:54:19.000Z</time>
      </trkpt>
      <trkpt lat="43.54446" lon="2.60929">
        <ele>786.40002441406</ele>
        <time>2021-07-03T07:54:20.000Z</time>
      </trkpt>
      <trkpt lat="43.54449" lon="2.60928">
        <ele>786</ele>
        <time>2021-07-03T07:54:21.000Z</time>
      </trkpt>
      <trkpt lat="43.54451" lon="2.60928">
        <ele>785.59997558594</ele>
        <time>2021-07-03T07:54:22.000Z</time>
      </trkpt>
      <trkpt lat="43.54453" lon="2.60927">
        <ele>785</ele>
        <time>2021-07-03T07:54:23.000Z</time>
      </trkpt>
      <trkpt lat="43.54456" lon="2.60926">
        <ele>784.40002441406</ele>
        <time>2021-07-03T07:54:24.000Z</time>
      </trkpt>
      <trkpt lat="43.54459" lon="2.60926">
        <ele>784</ele>
        <time>2021-07-03T07:54:25.000Z</time>
      </trkpt>
      <trkpt lat="43.54462" lon="2.60925">
        <ele>783.40002441406</ele>
        <time>2021-07-03T07:54:26.000Z</time>
      </trkpt>
      <trkpt lat="43.54464" lon="2.60926">
        <ele>782.79998779297</ele>
        <time>2021-07-03T07:54:27.000Z</time>
      </trkpt>
      <trkpt lat="43.54466" lon="2.60926">
        <ele>782.40002441406</ele>
        <time>2021-07-03T07:54:28.000Z</time>
      </trkpt>
      <trkpt lat="43.54469" lon="2.60926">
        <ele>781.20001220703</ele>
        <time>2021-07-03T07:54:29.000Z</time>
      </trkpt>
      <trkpt lat="43.54472" lon="2.60924">
        <ele>780.79998779297</ele>
        <time>2021-07-03T07:54:30.000Z</time>
      </trkpt>
      <trkpt lat="43.54473" lon="2.60924">
        <ele>780.20001220703</ele>
        <time>2021-07-03T07:54:31.000Z</time>
      </trkpt>
      <trkpt lat="43.54474" lon="2.60922">
        <ele>779.79998779297</ele>
        <time>2021-07-03T07:54:32.000Z</time>
      </trkpt>
      <trkpt lat="43.54475" lon="2.6092">
        <ele>779.20001220703</ele>
        <time>2021-07-03T07:54:33.000Z</time>
      </trkpt>
      <trkpt lat="43.54476" lon="2.60918">
        <ele>778.59997558594</ele>
        <time>2021-07-03T07:54:34.000Z</time>
      </trkpt>
      <trkpt lat="43.54479" lon="2.60914">
        <ele>778.20001220703</ele>
        <time>2021-07-03T07:54:36.000Z</time>
      </trkpt>
      <trkpt lat="43.5448" lon="2.60913">
        <ele>777.79998779297</ele>
        <time>2021-07-03T07:54:37.000Z</time>
      </trkpt>
      <trkpt lat="43.54482" lon="2.6091">
        <ele>777.40002441406</ele>
        <time>2021-07-03T07:54:38.000Z</time>
      </trkpt>
      <trkpt lat="43.54483" lon="2.60907">
        <ele>777</ele>
        <time>2021-07-03T07:54:39.000Z</time>
      </trkpt>
      <trkpt lat="43.54484" lon="2.60904">
        <ele>776.40002441406</ele>
        <time>2021-07-03T07:54:40.000Z</time>
      </trkpt>
      <trkpt lat="43.54486" lon="2.609">
        <ele>776</ele>
        <time>2021-07-03T07:54:41.000Z</time>
      </trkpt>
      <trkpt lat="43.54487" lon="2.60898">
        <ele>775.59997558594</ele>
        <time>2021-07-03T07:54:42.000Z</time>
      </trkpt>
      <trkpt lat="43.54488" lon="2.60897">
        <ele>775.20001220703</ele>
        <time>2021-07-03T07:54:43.000Z</time>
      </trkpt>
      <trkpt lat="43.54489" lon="2.60896">
        <ele>774.79998779297</ele>
        <time>2021-07-03T07:54:44.000Z</time>
      </trkpt>
      <trkpt lat="43.54489" lon="2.60896">
        <ele>774.40002441406</ele>
        <time>2021-07-03T07:54:45.000Z</time>
      </trkpt>
      <trkpt lat="43.54492" lon="2.60898">
        <ele>774</ele>
        <time>2021-07-03T07:54:49.000Z</time>
      </trkpt>
      <trkpt lat="43.54492" lon="2.60898">
        <ele>773.59997558594</ele>
        <time>2021-07-03T07:54:50.000Z</time>
      </trkpt>
      <trkpt lat="43.54493" lon="2.60899">
        <ele>773.20001220703</ele>
        <time>2021-07-03T07:54:51.000Z</time>
      </trkpt>
      <trkpt lat="43.54498" lon="2.60901">
        <ele>772.20001220703</ele>
        <time>2021-07-03T07:54:54.000Z</time>
      </trkpt>
      <trkpt lat="43.545" lon="2.60904">
        <ele>772.20001220703</ele>
        <time>2021-07-03T07:54:56.000Z</time>
      </trkpt>
      <trkpt lat="43.54502" lon="2.60905">
        <ele>771.79998779297</ele>
        <time>2021-07-03T07:54:57.000Z</time>
      </trkpt>
      <trkpt lat="43.54504" lon="2.60907">
        <ele>771.40002441406</ele>
        <time>2021-07-03T07:54:58.000Z</time>
      </trkpt>
      <trkpt lat="43.54505" lon="2.60908">
        <ele>771</ele>
        <time>2021-07-03T07:54:59.000Z</time>
      </trkpt>
      <trkpt lat="43.54506" lon="2.6091">
        <ele>770.59997558594</ele>
        <time>2021-07-03T07:55:00.000Z</time>
      </trkpt>
      <trkpt lat="43.54508" lon="2.60911">
        <ele>770.20001220703</ele>
        <time>2021-07-03T07:55:01.000Z</time>
      </trkpt>
      <trkpt lat="43.5451" lon="2.60912">
        <ele>770.20001220703</ele>
        <time>2021-07-03T07:55:02.000Z</time>
      </trkpt>
      <trkpt lat="43.54511" lon="2.60913">
        <ele>769.79998779297</ele>
        <time>2021-07-03T07:55:04.000Z</time>
      </trkpt>
      <trkpt lat="43.54514" lon="2.60914">
        <ele>769.20001220703</ele>
        <time>2021-07-03T07:55:05.000Z</time>
      </trkpt>
      <trkpt lat="43.54515" lon="2.60915">
        <ele>768.79998779297</ele>
        <time>2021-07-03T07:55:06.000Z</time>
      </trkpt>
      <trkpt lat="43.54516" lon="2.60917">
        <ele>768.40002441406</ele>
        <time>2021-07-03T07:55:07.000Z</time>
      </trkpt>
      <trkpt lat="43.54517" lon="2.60918">
        <ele>768</ele>
        <time>2021-07-03T07:55:08.000Z</time>
      </trkpt>
      <trkpt lat="43.54521" lon="2.60922">
        <ele>767.59997558594</ele>
        <time>2021-07-03T07:55:10.000Z</time>
      </trkpt>
      <trkpt lat="43.54523" lon="2.60922">
        <ele>767</ele>
        <time>2021-07-03T07:55:11.000Z</time>
      </trkpt>
      <trkpt lat="43.54525" lon="2.60923">
        <ele>766.59997558594</ele>
        <time>2021-07-03T07:55:12.000Z</time>
      </trkpt>
      <trkpt lat="43.54528" lon="2.60923">
        <ele>766</ele>
        <time>2021-07-03T07:55:13.000Z</time>
      </trkpt>
      <trkpt lat="43.5453" lon="2.60924">
        <ele>765.59997558594</ele>
        <time>2021-07-03T07:55:14.000Z</time>
      </trkpt>
      <trkpt lat="43.54535" lon="2.60924">
        <ele>765.20001220703</ele>
        <time>2021-07-03T07:55:16.000Z</time>
      </trkpt>
      <trkpt lat="43.54538" lon="2.60925">
        <ele>764.59997558594</ele>
        <time>2021-07-03T07:55:17.000Z</time>
      </trkpt>
      <trkpt lat="43.54541" lon="2.60926">
        <ele>763.79998779297</ele>
        <time>2021-07-03T07:55:18.000Z</time>
      </trkpt>
      <trkpt lat="43.54543" lon="2.60927">
        <ele>763.20001220703</ele>
        <time>2021-07-03T07:55:19.000Z</time>
      </trkpt>
      <trkpt lat="43.54549" lon="2.60933">
        <ele>762.79998779297</ele>
        <time>2021-07-03T07:55:22.000Z</time>
      </trkpt>
      <trkpt lat="43.54551" lon="2.60935">
        <ele>762.40002441406</ele>
        <time>2021-07-03T07:55:23.000Z</time>
      </trkpt>
      <trkpt lat="43.54553" lon="2.60937">
        <ele>762</ele>
        <time>2021-07-03T07:55:24.000Z</time>
      </trkpt>
      <trkpt lat="43.54554" lon="2.60939">
        <ele>761.59997558594</ele>
        <time>2021-07-03T07:55:25.000Z</time>
      </trkpt>
      <trkpt lat="43.54555" lon="2.60941">
        <ele>761.20001220703</ele>
        <time>2021-07-03T07:55:26.000Z</time>
      </trkpt>
      <trkpt lat="43.54556" lon="2.60942">
        <ele>761.20001220703</ele>
        <time>2021-07-03T07:55:27.000Z</time>
      </trkpt>
      <trkpt lat="43.54557" lon="2.60951">
        <ele>760.79998779297</ele>
        <time>2021-07-03T07:55:31.000Z</time>
      </trkpt>
      <trkpt lat="43.54558" lon="2.60953">
        <ele>760.40002441406</ele>
        <time>2021-07-03T07:55:32.000Z</time>
      </trkpt>
      <trkpt lat="43.5456" lon="2.60956">
        <ele>760</ele>
        <time>2021-07-03T07:55:33.000Z</time>
      </trkpt>
      <trkpt lat="43.54561" lon="2.60959">
        <ele>759.40002441406</ele>
        <time>2021-07-03T07:55:34.000Z</time>
      </trkpt>
      <trkpt lat="43.54562" lon="2.60962">
        <ele>759</ele>
        <time>2021-07-03T07:55:35.000Z</time>
      </trkpt>
      <trkpt lat="43.54567" lon="2.60968">
        <ele>759</ele>
        <time>2021-07-03T07:55:38.000Z</time>
      </trkpt>
      <trkpt lat="43.5457" lon="2.60972">
        <ele>758.59997558594</ele>
        <time>2021-07-03T07:55:40.000Z</time>
      </trkpt>
      <trkpt lat="43.54571" lon="2.60973">
        <ele>758.20001220703</ele>
        <time>2021-07-03T07:55:41.000Z</time>
      </trkpt>
      <trkpt lat="43.54573" lon="2.60975">
        <ele>757.79998779297</ele>
        <time>2021-07-03T07:55:42.000Z</time>
      </trkpt>
      <trkpt lat="43.54574" lon="2.60976">
        <ele>756.79998779297</ele>
        <time>2021-07-03T07:55:43.000Z</time>
      </trkpt>
      <trkpt lat="43.54574" lon="2.60976">
        <ele>756.79998779297</ele>
        <time>2021-07-03T07:55:44.000Z</time>
      </trkpt>
      <trkpt lat="43.54577" lon="2.60978">
        <ele>756.79998779297</ele>
        <time>2021-07-03T07:56:03.000Z</time>
      </trkpt>
      <trkpt lat="43.54577" lon="2.60978">
        <ele>756.79998779297</ele>
        <time>2021-07-03T07:56:04.000Z</time>
      </trkpt>
      <trkpt lat="43.54579" lon="2.60982">
        <ele>756.79998779297</ele>
        <time>2021-07-03T07:56:06.000Z</time>
      </trkpt>
      <trkpt lat="43.54579" lon="2.60981">
        <ele>756.40002441406</ele>
        <time>2021-07-03T07:56:07.000Z</time>
      </trkpt>
      <trkpt lat="43.54579" lon="2.60982">
        <ele>755.59997558594</ele>
        <time>2021-07-03T07:56:08.000Z</time>
      </trkpt>
      <trkpt lat="43.54581" lon="2.60982">
        <ele>754.79998779297</ele>
        <time>2021-07-03T07:56:15.000Z</time>
      </trkpt>
      <trkpt lat="43.54582" lon="2.60983">
        <ele>754.79998779297</ele>
        <time>2021-07-03T07:56:16.000Z</time>
      </trkpt>
      <trkpt lat="43.54587" lon="2.60988">
        <ele>754.79998779297</ele>
        <time>2021-07-03T07:56:20.000Z</time>
      </trkpt>
      <trkpt lat="43.54588" lon="2.60989">
        <ele>754.40002441406</ele>
        <time>2021-07-03T07:56:21.000Z</time>
      </trkpt>
      <trkpt lat="43.5459" lon="2.6099">
        <ele>754</ele>
        <time>2021-07-03T07:56:22.000Z</time>
      </trkpt>
      <trkpt lat="43.54591" lon="2.60991">
        <ele>753.40002441406</ele>
        <time>2021-07-03T07:56:23.000Z</time>
      </trkpt>
      <trkpt lat="43.54593" lon="2.60993">
        <ele>753</ele>
        <time>2021-07-03T07:56:24.000Z</time>
      </trkpt>
      <trkpt lat="43.54595" lon="2.60994">
        <ele>752.59997558594</ele>
        <time>2021-07-03T07:56:25.000Z</time>
      </trkpt>
      <trkpt lat="43.54597" lon="2.60996">
        <ele>752.20001220703</ele>
        <time>2021-07-03T07:56:26.000Z</time>
      </trkpt>
      <trkpt lat="43.54599" lon="2.60999">
        <ele>751.59997558594</ele>
        <time>2021-07-03T07:56:27.000Z</time>
      </trkpt>
      <trkpt lat="43.54601" lon="2.61">
        <ele>751.20001220703</ele>
        <time>2021-07-03T07:56:28.000Z</time>
      </trkpt>
      <trkpt lat="43.54604" lon="2.61002">
        <ele>750.79998779297</ele>
        <time>2021-07-03T07:56:29.000Z</time>
      </trkpt>
      <trkpt lat="43.54606" lon="2.61003">
        <ele>750.40002441406</ele>
        <time>2021-07-03T07:56:30.000Z</time>
      </trkpt>
      <trkpt lat="43.54609" lon="2.61003">
        <ele>750.40002441406</ele>
        <time>2021-07-03T07:56:31.000Z</time>
      </trkpt>
      <trkpt lat="43.5461" lon="2.61003">
        <ele>750</ele>
        <time>2021-07-03T07:56:32.000Z</time>
      </trkpt>
      <trkpt lat="43.54614" lon="2.61001">
        <ele>749.59997558594</ele>
        <time>2021-07-03T07:56:33.000Z</time>
      </trkpt>
      <trkpt lat="43.54617" lon="2.61">
        <ele>748.59997558594</ele>
        <time>2021-07-03T07:56:34.000Z</time>
      </trkpt>
      <trkpt lat="43.5462" lon="2.60998">
        <ele>748.20001220703</ele>
        <time>2021-07-03T07:56:35.000Z</time>
      </trkpt>
      <trkpt lat="43.54626" lon="2.60995">
        <ele>747.79998779297</ele>
        <time>2021-07-03T07:56:37.000Z</time>
      </trkpt>
      <trkpt lat="43.54629" lon="2.60995">
        <ele>747.40002441406</ele>
        <time>2021-07-03T07:56:38.000Z</time>
      </trkpt>
      <trkpt lat="43.54633" lon="2.60995">
        <ele>747</ele>
        <time>2021-07-03T07:56:39.000Z</time>
      </trkpt>
      <trkpt lat="43.54636" lon="2.60995">
        <ele>746.59997558594</ele>
        <time>2021-07-03T07:56:40.000Z</time>
      </trkpt>
      <trkpt lat="43.54639" lon="2.60997">
        <ele>746.20001220703</ele>
        <time>2021-07-03T07:56:41.000Z</time>
      </trkpt>
      <trkpt lat="43.54648" lon="2.61001">
        <ele>745.79998779297</ele>
        <time>2021-07-03T07:56:44.000Z</time>
      </trkpt>
      <trkpt lat="43.5465" lon="2.61003">
        <ele>745.40002441406</ele>
        <time>2021-07-03T07:56:45.000Z</time>
      </trkpt>
      <trkpt lat="43.54652" lon="2.61004">
        <ele>745</ele>
        <time>2021-07-03T07:56:46.000Z</time>
      </trkpt>
      <trkpt lat="43.54654" lon="2.61006">
        <ele>744.59997558594</ele>
        <time>2021-07-03T07:56:47.000Z</time>
      </trkpt>
      <trkpt lat="43.54656" lon="2.61009">
        <ele>744</ele>
        <time>2021-07-03T07:56:48.000Z</time>
      </trkpt>
      <trkpt lat="43.54661" lon="2.61013">
        <ele>743.59997558594</ele>
        <time>2021-07-03T07:56:50.000Z</time>
      </trkpt>
      <trkpt lat="43.54664" lon="2.61016">
        <ele>743.20001220703</ele>
        <time>2021-07-03T07:56:51.000Z</time>
      </trkpt>
      <trkpt lat="43.54666" lon="2.61018">
        <ele>742.79998779297</ele>
        <time>2021-07-03T07:56:52.000Z</time>
      </trkpt>
      <trkpt lat="43.54669" lon="2.61019">
        <ele>742.40002441406</ele>
        <time>2021-07-03T07:56:53.000Z</time>
      </trkpt>
      <trkpt lat="43.54671" lon="2.61021">
        <ele>742</ele>
        <time>2021-07-03T07:56:54.000Z</time>
      </trkpt>
      <trkpt lat="43.54674" lon="2.61024">
        <ele>741.59997558594</ele>
        <time>2021-07-03T07:56:55.000Z</time>
      </trkpt>
      <trkpt lat="43.54676" lon="2.61026">
        <ele>741</ele>
        <time>2021-07-03T07:56:56.000Z</time>
      </trkpt>
      <trkpt lat="43.54679" lon="2.6103">
        <ele>740.59997558594</ele>
        <time>2021-07-03T07:56:57.000Z</time>
      </trkpt>
      <trkpt lat="43.54682" lon="2.61033">
        <ele>739.59997558594</ele>
        <time>2021-07-03T07:56:58.000Z</time>
      </trkpt>
      <trkpt lat="43.54684" lon="2.61037">
        <ele>739</ele>
        <time>2021-07-03T07:56:59.000Z</time>
      </trkpt>
      <trkpt lat="43.54686" lon="2.61041">
        <ele>738.59997558594</ele>
        <time>2021-07-03T07:57:00.000Z</time>
      </trkpt>
      <trkpt lat="43.54688" lon="2.61045">
        <ele>738.20001220703</ele>
        <time>2021-07-03T07:57:01.000Z</time>
      </trkpt>
      <trkpt lat="43.5469" lon="2.6105">
        <ele>737.59997558594</ele>
        <time>2021-07-03T07:57:02.000Z</time>
      </trkpt>
      <trkpt lat="43.54692" lon="2.61054">
        <ele>737.20001220703</ele>
        <time>2021-07-03T07:57:03.000Z</time>
      </trkpt>
      <trkpt lat="43.54694" lon="2.61062">
        <ele>736.79998779297</ele>
        <time>2021-07-03T07:57:05.000Z</time>
      </trkpt>
      <trkpt lat="43.54695" lon="2.61065">
        <ele>736.40002441406</ele>
        <time>2021-07-03T07:57:06.000Z</time>
      </trkpt>
      <trkpt lat="43.54695" lon="2.61069">
        <ele>736</ele>
        <time>2021-07-03T07:57:07.000Z</time>
      </trkpt>
      <trkpt lat="43.54696" lon="2.61072">
        <ele>735.59997558594</ele>
        <time>2021-07-03T07:57:08.000Z</time>
      </trkpt>
      <trkpt lat="43.54697" lon="2.61075">
        <ele>735</ele>
        <time>2021-07-03T07:57:09.000Z</time>
      </trkpt>
      <trkpt lat="43.547" lon="2.61087">
        <ele>734.59997558594</ele>
        <time>2021-07-03T07:57:13.000Z</time>
      </trkpt>
      <trkpt lat="43.54701" lon="2.6109">
        <ele>734.20001220703</ele>
        <time>2021-07-03T07:57:14.000Z</time>
      </trkpt>
      <trkpt lat="43.54702" lon="2.61093">
        <ele>733.79998779297</ele>
        <time>2021-07-03T07:57:15.000Z</time>
      </trkpt>
      <trkpt lat="43.54704" lon="2.61095">
        <ele>733.40002441406</ele>
        <time>2021-07-03T07:57:16.000Z</time>
      </trkpt>
      <trkpt lat="43.54705" lon="2.61098">
        <ele>733</ele>
        <time>2021-07-03T07:57:17.000Z</time>
      </trkpt>
      <trkpt lat="43.54706" lon="2.61099">
        <ele>732.59997558594</ele>
        <time>2021-07-03T07:57:18.000Z</time>
      </trkpt>
      <trkpt lat="43.54707" lon="2.61102">
        <ele>732.20001220703</ele>
        <time>2021-07-03T07:57:19.000Z</time>
      </trkpt>
      <trkpt lat="43.54708" lon="2.61105">
        <ele>731.79998779297</ele>
        <time>2021-07-03T07:57:20.000Z</time>
      </trkpt>
      <trkpt lat="43.5471" lon="2.61109">
        <ele>731.40002441406</ele>
        <time>2021-07-03T07:57:21.000Z</time>
      </trkpt>
      <trkpt lat="43.5471" lon="2.61112">
        <ele>731</ele>
        <time>2021-07-03T07:57:22.000Z</time>
      </trkpt>
      <trkpt lat="43.54711" lon="2.61115">
        <ele>730</ele>
        <time>2021-07-03T07:57:23.000Z</time>
      </trkpt>
      <trkpt lat="43.54713" lon="2.61119">
        <ele>729.59997558594</ele>
        <time>2021-07-03T07:57:24.000Z</time>
      </trkpt>
      <trkpt lat="43.54714" lon="2.61121">
        <ele>729.20001220703</ele>
        <time>2021-07-03T07:57:25.000Z</time>
      </trkpt>
      <trkpt lat="43.54715" lon="2.61124">
        <ele>728.79998779297</ele>
        <time>2021-07-03T07:57:26.000Z</time>
      </trkpt>
      <trkpt lat="43.54719" lon="2.61133">
        <ele>728.79998779297</ele>
        <time>2021-07-03T07:57:31.000Z</time>
      </trkpt>
      <trkpt lat="43.54719" lon="2.61134">
        <ele>728.79998779297</ele>
        <time>2021-07-03T07:57:33.000Z</time>
      </trkpt>
      <trkpt lat="43.54724" lon="2.61136">
        <ele>728.79998779297</ele>
        <time>2021-07-03T07:57:52.000Z</time>
      </trkpt>
      <trkpt lat="43.54726" lon="2.61132">
        <ele>728.79998779297</ele>
        <time>2021-07-03T07:57:54.000Z</time>
      </trkpt>
      <trkpt lat="43.54728" lon="2.61133">
        <ele>728.79998779297</ele>
        <time>2021-07-03T07:57:55.000Z</time>
      </trkpt>
      <trkpt lat="43.54734" lon="2.61132">
        <ele>728.79998779297</ele>
        <time>2021-07-03T07:57:58.000Z</time>
      </trkpt>
      <trkpt lat="43.54739" lon="2.61133">
        <ele>728.79998779297</ele>
        <time>2021-07-03T07:58:00.000Z</time>
      </trkpt>
      <trkpt lat="43.54747" lon="2.61135">
        <ele>728.79998779297</ele>
        <time>2021-07-03T07:58:03.000Z</time>
      </trkpt>
      <trkpt lat="43.54766" lon="2.61148">
        <ele>728.79998779297</ele>
        <time>2021-07-03T07:58:10.000Z</time>
      </trkpt>
      <trkpt lat="43.54775" lon="2.61157">
        <ele>729.20001220703</ele>
        <time>2021-07-03T07:58:14.000Z</time>
      </trkpt>
      <trkpt lat="43.54777" lon="2.6116">
        <ele>729.59997558594</ele>
        <time>2021-07-03T07:58:15.000Z</time>
      </trkpt>
      <trkpt lat="43.5478" lon="2.61162">
        <ele>730</ele>
        <time>2021-07-03T07:58:16.000Z</time>
      </trkpt>
      <trkpt lat="43.54783" lon="2.61164">
        <ele>730.40002441406</ele>
        <time>2021-07-03T07:58:17.000Z</time>
      </trkpt>
      <trkpt lat="43.54785" lon="2.61166">
        <ele>730.79998779297</ele>
        <time>2021-07-03T07:58:18.000Z</time>
      </trkpt>
      <trkpt lat="43.54795" lon="2.61174">
        <ele>731.40002441406</ele>
        <time>2021-07-03T07:58:22.000Z</time>
      </trkpt>
      <trkpt lat="43.54798" lon="2.61176">
        <ele>731.79998779297</ele>
        <time>2021-07-03T07:58:23.000Z</time>
      </trkpt>
      <trkpt lat="43.548" lon="2.61178">
        <ele>732.20001220703</ele>
        <time>2021-07-03T07:58:24.000Z</time>
      </trkpt>
      <trkpt lat="43.54802" lon="2.6118">
        <ele>732.79998779297</ele>
        <time>2021-07-03T07:58:25.000Z</time>
      </trkpt>
      <trkpt lat="43.54804" lon="2.61181">
        <ele>733.20001220703</ele>
        <time>2021-07-03T07:58:26.000Z</time>
      </trkpt>
      <trkpt lat="43.54814" lon="2.61186">
        <ele>733.20001220703</ele>
        <time>2021-07-03T07:58:30.000Z</time>
      </trkpt>
      <trkpt lat="43.54826" lon="2.61192">
        <ele>733.20001220703</ele>
        <time>2021-07-03T07:58:36.000Z</time>
      </trkpt>
      <trkpt lat="43.54828" lon="2.61193">
        <ele>734</ele>
        <time>2021-07-03T07:58:37.000Z</time>
      </trkpt>
      <trkpt lat="43.54831" lon="2.61193">
        <ele>734.40002441406</ele>
        <time>2021-07-03T07:58:38.000Z</time>
      </trkpt>
      <trkpt lat="43.54834" lon="2.61194">
        <ele>734.79998779297</ele>
        <time>2021-07-03T07:58:39.000Z</time>
      </trkpt>
      <trkpt lat="43.54836" lon="2.61195">
        <ele>735.20001220703</ele>
        <time>2021-07-03T07:58:40.000Z</time>
      </trkpt>
      <trkpt lat="43.54842" lon="2.61196">
        <ele>735.20001220703</ele>
        <time>2021-07-03T07:58:42.000Z</time>
      </trkpt>
      <trkpt lat="43.5485" lon="2.61199">
        <ele>735.20001220703</ele>
        <time>2021-07-03T07:58:47.000Z</time>
      </trkpt>
      <trkpt lat="43.54855" lon="2.61201">
        <ele>735.20001220703</ele>
        <time>2021-07-03T07:58:51.000Z</time>
      </trkpt>
      <trkpt lat="43.54858" lon="2.61202">
        <ele>735.20001220703</ele>
        <time>2021-07-03T07:58:53.000Z</time>
      </trkpt>
      <trkpt lat="43.54863" lon="2.61206">
        <ele>735.20001220703</ele>
        <time>2021-07-03T07:58:59.000Z</time>
      </trkpt>
      <trkpt lat="43.54875" lon="2.61213">
        <ele>735.20001220703</ele>
        <time>2021-07-03T07:59:05.000Z</time>
      </trkpt>
      <trkpt lat="43.54895" lon="2.61224">
        <ele>735.59997558594</ele>
        <time>2021-07-03T07:59:14.000Z</time>
      </trkpt>
      <trkpt lat="43.54897" lon="2.61225">
        <ele>736</ele>
        <time>2021-07-03T07:59:15.000Z</time>
      </trkpt>
      <trkpt lat="43.54898" lon="2.61226">
        <ele>736.40002441406</ele>
        <time>2021-07-03T07:59:16.000Z</time>
      </trkpt>
      <trkpt lat="43.54899" lon="2.61227">
        <ele>736.79998779297</ele>
        <time>2021-07-03T07:59:17.000Z</time>
      </trkpt>
      <trkpt lat="43.54898" lon="2.61227">
        <ele>737.40002441406</ele>
        <time>2021-07-03T07:59:18.000Z</time>
      </trkpt>
      <trkpt lat="43.549" lon="2.6123">
        <ele>737.40002441406</ele>
        <time>2021-07-03T08:00:06.000Z</time>
      </trkpt>
      <trkpt lat="43.54912" lon="2.61241">
        <ele>737.40002441406</ele>
        <time>2021-07-03T08:00:11.000Z</time>
      </trkpt>
      <trkpt lat="43.54923" lon="2.6125">
        <ele>737.40002441406</ele>
        <time>2021-07-03T08:00:14.000Z</time>
      </trkpt>
      <trkpt lat="43.5493" lon="2.61262">
        <ele>737.40002441406</ele>
        <time>2021-07-03T08:00:16.000Z</time>
      </trkpt>
      <trkpt lat="43.5493" lon="2.61271">
        <ele>736.79998779297</ele>
        <time>2021-07-03T08:00:17.000Z</time>
      </trkpt>
      <trkpt lat="43.54931" lon="2.61277">
        <ele>736.40002441406</ele>
        <time>2021-07-03T08:00:18.000Z</time>
      </trkpt>
      <trkpt lat="43.54931" lon="2.61283">
        <ele>736</ele>
        <time>2021-07-03T08:00:19.000Z</time>
      </trkpt>
      <trkpt lat="43.54931" lon="2.61287">
        <ele>735.59997558594</ele>
        <time>2021-07-03T08:00:20.000Z</time>
      </trkpt>
      <trkpt lat="43.54931" lon="2.61291">
        <ele>735.20001220703</ele>
        <time>2021-07-03T08:00:21.000Z</time>
      </trkpt>
      <trkpt lat="43.54933" lon="2.61298">
        <ele>735.20001220703</ele>
        <time>2021-07-03T08:00:23.000Z</time>
      </trkpt>
      <trkpt lat="43.54943" lon="2.61314">
        <ele>735.20001220703</ele>
        <time>2021-07-03T08:00:28.000Z</time>
      </trkpt>
      <trkpt lat="43.54949" lon="2.61325">
        <ele>735.20001220703</ele>
        <time>2021-07-03T08:00:32.000Z</time>
      </trkpt>
      <trkpt lat="43.54958" lon="2.61337">
        <ele>735.59997558594</ele>
        <time>2021-07-03T08:00:38.000Z</time>
      </trkpt>
      <trkpt lat="43.5496" lon="2.61339">
        <ele>736</ele>
        <time>2021-07-03T08:00:39.000Z</time>
      </trkpt>
      <trkpt lat="43.54961" lon="2.61341">
        <ele>736.40002441406</ele>
        <time>2021-07-03T08:00:40.000Z</time>
      </trkpt>
      <trkpt lat="43.54963" lon="2.61344">
        <ele>736.79998779297</ele>
        <time>2021-07-03T08:00:41.000Z</time>
      </trkpt>
      <trkpt lat="43.54965" lon="2.61346">
        <ele>737.20001220703</ele>
        <time>2021-07-03T08:00:42.000Z</time>
      </trkpt>
      <trkpt lat="43.5498" lon="2.61362">
        <ele>737.20001220703</ele>
        <time>2021-07-03T08:00:46.000Z</time>
      </trkpt>
      <trkpt lat="43.54998" lon="2.61378">
        <ele>737.20001220703</ele>
        <time>2021-07-03T08:00:52.000Z</time>
      </trkpt>
      <trkpt lat="43.55019" lon="2.61389">
        <ele>737.20001220703</ele>
        <time>2021-07-03T08:00:58.000Z</time>
      </trkpt>
      <trkpt lat="43.55026" lon="2.61394">
        <ele>737.59997558594</ele>
        <time>2021-07-03T08:01:00.000Z</time>
      </trkpt>
      <trkpt lat="43.55029" lon="2.61397">
        <ele>738</ele>
        <time>2021-07-03T08:01:01.000Z</time>
      </trkpt>
      <trkpt lat="43.55031" lon="2.614">
        <ele>738.40002441406</ele>
        <time>2021-07-03T08:01:02.000Z</time>
      </trkpt>
      <trkpt lat="43.55035" lon="2.61403">
        <ele>738.79998779297</ele>
        <time>2021-07-03T08:01:03.000Z</time>
      </trkpt>
      <trkpt lat="43.55037" lon="2.61406">
        <ele>739.20001220703</ele>
        <time>2021-07-03T08:01:04.000Z</time>
      </trkpt>
      <trkpt lat="43.55043" lon="2.61414">
        <ele>739.20001220703</ele>
        <time>2021-07-03T08:01:07.000Z</time>
      </trkpt>
      <trkpt lat="43.55047" lon="2.61422">
        <ele>739.59997558594</ele>
        <time>2021-07-03T08:01:09.000Z</time>
      </trkpt>
      <trkpt lat="43.5505" lon="2.61429">
        <ele>740.20001220703</ele>
        <time>2021-07-03T08:01:10.000Z</time>
      </trkpt>
      <trkpt lat="43.55052" lon="2.61435">
        <ele>740.59997558594</ele>
        <time>2021-07-03T08:01:11.000Z</time>
      </trkpt>
      <trkpt lat="43.55054" lon="2.61441">
        <ele>741</ele>
        <time>2021-07-03T08:01:12.000Z</time>
      </trkpt>
      <trkpt lat="43.55056" lon="2.61445">
        <ele>741.40002441406</ele>
        <time>2021-07-03T08:01:13.000Z</time>
      </trkpt>
      <trkpt lat="43.55058" lon="2.61456">
        <ele>741.79998779297</ele>
        <time>2021-07-03T08:01:15.000Z</time>
      </trkpt>
      <trkpt lat="43.5506" lon="2.61462">
        <ele>742.20001220703</ele>
        <time>2021-07-03T08:01:16.000Z</time>
      </trkpt>
      <trkpt lat="43.55061" lon="2.61467">
        <ele>742.59997558594</ele>
        <time>2021-07-03T08:01:17.000Z</time>
      </trkpt>
      <trkpt lat="43.55062" lon="2.61472">
        <ele>743</ele>
        <time>2021-07-03T08:01:18.000Z</time>
      </trkpt>
      <trkpt lat="43.55064" lon="2.61476">
        <ele>743.40002441406</ele>
        <time>2021-07-03T08:01:19.000Z</time>
      </trkpt>
      <trkpt lat="43.55072" lon="2.61488">
        <ele>743.79998779297</ele>
        <time>2021-07-03T08:01:23.000Z</time>
      </trkpt>
      <trkpt lat="43.55074" lon="2.61488">
        <ele>744.79998779297</ele>
        <time>2021-07-03T08:01:24.000Z</time>
      </trkpt>
      <trkpt lat="43.55076" lon="2.61488">
        <ele>745.20001220703</ele>
        <time>2021-07-03T08:01:25.000Z</time>
      </trkpt>
      <trkpt lat="43.55077" lon="2.61488">
        <ele>745.59997558594</ele>
        <time>2021-07-03T08:01:26.000Z</time>
      </trkpt>
      <trkpt lat="43.55078" lon="2.61486">
        <ele>745.59997558594</ele>
        <time>2021-07-03T08:01:27.000Z</time>
      </trkpt>
      <trkpt lat="43.55077" lon="2.61488">
        <ele>745.59997558594</ele>
        <time>2021-07-03T08:01:30.000Z</time>
      </trkpt>
      <trkpt lat="43.55067" lon="2.61496">
        <ele>745.59997558594</ele>
        <time>2021-07-03T08:01:36.000Z</time>
      </trkpt>
      <trkpt lat="43.55069" lon="2.615">
        <ele>745.59997558594</ele>
        <time>2021-07-03T08:01:40.000Z</time>
      </trkpt>
      <trkpt lat="43.5507" lon="2.61496">
        <ele>745.59997558594</ele>
        <time>2021-07-03T08:01:43.000Z</time>
      </trkpt>
      <trkpt lat="43.55067" lon="2.61495">
        <ele>745.59997558594</ele>
        <time>2021-07-03T08:01:46.000Z</time>
      </trkpt>
      <trkpt lat="43.55067" lon="2.61485">
        <ele>745.59997558594</ele>
        <time>2021-07-03T08:02:16.000Z</time>
      </trkpt>
      <trkpt lat="43.55065" lon="2.61473">
        <ele>745.59997558594</ele>
        <time>2021-07-03T08:02:21.000Z</time>
      </trkpt>
      <trkpt lat="43.55063" lon="2.6147">
        <ele>745.59997558594</ele>
        <time>2021-07-03T08:02:22.000Z</time>
      </trkpt>
      <trkpt lat="43.55056" lon="2.61452">
        <ele>745.59997558594</ele>
        <time>2021-07-03T08:02:26.000Z</time>
      </trkpt>
      <trkpt lat="43.55052" lon="2.61441">
        <ele>745.20001220703</ele>
        <time>2021-07-03T08:02:28.000Z</time>
      </trkpt>
      <trkpt lat="43.5505" lon="2.61434">
        <ele>744.79998779297</ele>
        <time>2021-07-03T08:02:29.000Z</time>
      </trkpt>
      <trkpt lat="43.55047" lon="2.61427">
        <ele>744.20001220703</ele>
        <time>2021-07-03T08:02:30.000Z</time>
      </trkpt>
      <trkpt lat="43.55044" lon="2.61419">
        <ele>743.79998779297</ele>
        <time>2021-07-03T08:02:31.000Z</time>
      </trkpt>
      <trkpt lat="43.55041" lon="2.61412">
        <ele>743.40002441406</ele>
        <time>2021-07-03T08:02:32.000Z</time>
      </trkpt>
      <trkpt lat="43.55036" lon="2.61405">
        <ele>743</ele>
        <time>2021-07-03T08:02:33.000Z</time>
      </trkpt>
      <trkpt lat="43.5503" lon="2.61398">
        <ele>742.40002441406</ele>
        <time>2021-07-03T08:02:34.000Z</time>
      </trkpt>
      <trkpt lat="43.55023" lon="2.61391">
        <ele>742</ele>
        <time>2021-07-03T08:02:35.000Z</time>
      </trkpt>
      <trkpt lat="43.55016" lon="2.61386">
        <ele>741.59997558594</ele>
        <time>2021-07-03T08:02:36.000Z</time>
      </trkpt>
      <trkpt lat="43.55009" lon="2.61382">
        <ele>741</ele>
        <time>2021-07-03T08:02:37.000Z</time>
      </trkpt>
      <trkpt lat="43.55002" lon="2.61377">
        <ele>740.20001220703</ele>
        <time>2021-07-03T08:02:38.000Z</time>
      </trkpt>
      <trkpt lat="43.54996" lon="2.61373">
        <ele>739.79998779297</ele>
        <time>2021-07-03T08:02:39.000Z</time>
      </trkpt>
      <trkpt lat="43.5499" lon="2.61369">
        <ele>739.40002441406</ele>
        <time>2021-07-03T08:02:40.000Z</time>
      </trkpt>
      <trkpt lat="43.54985" lon="2.61364">
        <ele>739</ele>
        <time>2021-07-03T08:02:41.000Z</time>
      </trkpt>
      <trkpt lat="43.54979" lon="2.61359">
        <ele>739</ele>
        <time>2021-07-03T08:02:42.000Z</time>
      </trkpt>
      <trkpt lat="43.54975" lon="2.61354">
        <ele>739</ele>
        <time>2021-07-03T08:02:43.000Z</time>
      </trkpt>
      <trkpt lat="43.54963" lon="2.61336">
        <ele>739</ele>
        <time>2021-07-03T08:02:46.000Z</time>
      </trkpt>
      <trkpt lat="43.54946" lon="2.6131">
        <ele>738.59997558594</ele>
        <time>2021-07-03T08:02:50.000Z</time>
      </trkpt>
      <trkpt lat="43.54942" lon="2.61303">
        <ele>738.20001220703</ele>
        <time>2021-07-03T08:02:51.000Z</time>
      </trkpt>
      <trkpt lat="43.5494" lon="2.61295">
        <ele>737.79998779297</ele>
        <time>2021-07-03T08:02:52.000Z</time>
      </trkpt>
      <trkpt lat="43.54938" lon="2.61287">
        <ele>737.20001220703</ele>
        <time>2021-07-03T08:02:53.000Z</time>
      </trkpt>
      <trkpt lat="43.54936" lon="2.6128">
        <ele>736.79998779297</ele>
        <time>2021-07-03T08:02:54.000Z</time>
      </trkpt>
      <trkpt lat="43.54933" lon="2.61264">
        <ele>736.79998779297</ele>
        <time>2021-07-03T08:02:56.000Z</time>
      </trkpt>
      <trkpt lat="43.54924" lon="2.6125">
        <ele>736.79998779297</ele>
        <time>2021-07-03T08:02:58.000Z</time>
      </trkpt>
      <trkpt lat="43.54915" lon="2.61242">
        <ele>736.79998779297</ele>
        <time>2021-07-03T08:03:00.000Z</time>
      </trkpt>
      <trkpt lat="43.54909" lon="2.61237">
        <ele>736.79998779297</ele>
        <time>2021-07-03T08:03:02.000Z</time>
      </trkpt>
      <trkpt lat="43.54903" lon="2.61229">
        <ele>736.79998779297</ele>
        <time>2021-07-03T08:03:05.000Z</time>
      </trkpt>
      <trkpt lat="43.54904" lon="2.61226">
        <ele>736.79998779297</ele>
        <time>2021-07-03T08:03:06.000Z</time>
      </trkpt>
      <trkpt lat="43.54909" lon="2.61221">
        <ele>736.79998779297</ele>
        <time>2021-07-03T08:03:09.000Z</time>
      </trkpt>
      <trkpt lat="43.54912" lon="2.61219">
        <ele>736.79998779297</ele>
        <time>2021-07-03T08:03:10.000Z</time>
      </trkpt>
      <trkpt lat="43.54914" lon="2.61217">
        <ele>737.20001220703</ele>
        <time>2021-07-03T08:03:11.000Z</time>
      </trkpt>
      <trkpt lat="43.54916" lon="2.61215">
        <ele>737.79998779297</ele>
        <time>2021-07-03T08:03:12.000Z</time>
      </trkpt>
      <trkpt lat="43.54918" lon="2.61213">
        <ele>738.20001220703</ele>
        <time>2021-07-03T08:03:13.000Z</time>
      </trkpt>
      <trkpt lat="43.5492" lon="2.61211">
        <ele>738.59997558594</ele>
        <time>2021-07-03T08:03:14.000Z</time>
      </trkpt>
      <trkpt lat="43.54922" lon="2.61208">
        <ele>739</ele>
        <time>2021-07-03T08:03:15.000Z</time>
      </trkpt>
      <trkpt lat="43.54923" lon="2.61206">
        <ele>739</ele>
        <time>2021-07-03T08:03:16.000Z</time>
      </trkpt>
      <trkpt lat="43.54933" lon="2.61192">
        <ele>739.40002441406</ele>
        <time>2021-07-03T08:03:22.000Z</time>
      </trkpt>
      <trkpt lat="43.54935" lon="2.61189">
        <ele>739.79998779297</ele>
        <time>2021-07-03T08:03:23.000Z</time>
      </trkpt>
      <trkpt lat="43.54937" lon="2.61187">
        <ele>740.20001220703</ele>
        <time>2021-07-03T08:03:24.000Z</time>
      </trkpt>
      <trkpt lat="43.54939" lon="2.61185">
        <ele>740.59997558594</ele>
        <time>2021-07-03T08:03:25.000Z</time>
      </trkpt>
      <trkpt lat="43.5494" lon="2.61183">
        <ele>741</ele>
        <time>2021-07-03T08:03:26.000Z</time>
      </trkpt>
      <trkpt lat="43.54945" lon="2.61176">
        <ele>741</ele>
        <time>2021-07-03T08:03:29.000Z</time>
      </trkpt>
      <trkpt lat="43.54956" lon="2.61157">
        <ele>741</ele>
        <time>2021-07-03T08:03:36.000Z</time>
      </trkpt>
      <trkpt lat="43.54958" lon="2.61155">
        <ele>741.40002441406</ele>
        <time>2021-07-03T08:03:37.000Z</time>
      </trkpt>
      <trkpt lat="43.5496" lon="2.61153">
        <ele>741.79998779297</ele>
        <time>2021-07-03T08:03:38.000Z</time>
      </trkpt>
      <trkpt lat="43.54962" lon="2.61152">
        <ele>742.20001220703</ele>
        <time>2021-07-03T08:03:39.000Z</time>
      </trkpt>
      <trkpt lat="43.54963" lon="2.61151">
        <ele>742.59997558594</ele>
        <time>2021-07-03T08:03:40.000Z</time>
      </trkpt>
      <trkpt lat="43.54965" lon="2.6115">
        <ele>743</ele>
        <time>2021-07-03T08:03:41.000Z</time>
      </trkpt>
      <trkpt lat="43.54973" lon="2.61153">
        <ele>743</ele>
        <time>2021-07-03T08:03:45.000Z</time>
      </trkpt>
      <trkpt lat="43.54979" lon="2.61156">
        <ele>743.59997558594</ele>
        <time>2021-07-03T08:03:48.000Z</time>
      </trkpt>
      <trkpt lat="43.54981" lon="2.61156">
        <ele>744</ele>
        <time>2021-07-03T08:03:49.000Z</time>
      </trkpt>
      <trkpt lat="43.54984" lon="2.61155">
        <ele>744.40002441406</ele>
        <time>2021-07-03T08:03:50.000Z</time>
      </trkpt>
      <trkpt lat="43.54986" lon="2.61153">
        <ele>744.79998779297</ele>
        <time>2021-07-03T08:03:51.000Z</time>
      </trkpt>
      <trkpt lat="43.54989" lon="2.61151">
        <ele>745.20001220703</ele>
        <time>2021-07-03T08:03:52.000Z</time>
      </trkpt>
      <trkpt lat="43.54998" lon="2.61148">
        <ele>745.20001220703</ele>
        <time>2021-07-03T08:03:57.000Z</time>
      </trkpt>
      <trkpt lat="43.55002" lon="2.61147">
        <ele>745.20001220703</ele>
        <time>2021-07-03T08:04:00.000Z</time>
      </trkpt>
      <trkpt lat="43.55004" lon="2.61143">
        <ele>745.20001220703</ele>
        <time>2021-07-03T08:04:02.000Z</time>
      </trkpt>
      <trkpt lat="43.55" lon="2.6114">
        <ele>745.20001220703</ele>
        <time>2021-07-03T08:04:06.000Z</time>
      </trkpt>
      <trkpt lat="43.54997" lon="2.61143">
        <ele>745.20001220703</ele>
        <time>2021-07-03T08:04:09.000Z</time>
      </trkpt>
      <trkpt lat="43.54996" lon="2.61144">
        <ele>745.20001220703</ele>
        <time>2021-07-03T08:04:10.000Z</time>
      </trkpt>
      <trkpt lat="43.54995" lon="2.61146">
        <ele>745.20001220703</ele>
        <time>2021-07-03T08:04:11.000Z</time>
      </trkpt>
      <trkpt lat="43.54995" lon="2.6115">
        <ele>745.20001220703</ele>
        <time>2021-07-03T08:04:14.000Z</time>
      </trkpt>
      <trkpt lat="43.54996" lon="2.61152">
        <ele>745.20001220703</ele>
        <time>2021-07-03T08:04:15.000Z</time>
      </trkpt>
      <trkpt lat="43.54998" lon="2.61156">
        <ele>745.20001220703</ele>
        <time>2021-07-03T08:04:18.000Z</time>
      </trkpt>
      <trkpt lat="43.54997" lon="2.61151">
        <ele>745.20001220703</ele>
        <time>2021-07-03T08:04:38.000Z</time>
      </trkpt>
      <trkpt lat="43.54999" lon="2.61147">
        <ele>745.20001220703</ele>
        <time>2021-07-03T08:04:41.000Z</time>
      </trkpt>
      <trkpt lat="43.54999" lon="2.61144">
        <ele>745.20001220703</ele>
        <time>2021-07-03T08:04:42.000Z</time>
      </trkpt>
      <trkpt lat="43.54999" lon="2.61133">
        <ele>745.20001220703</ele>
        <time>2021-07-03T08:04:45.000Z</time>
      </trkpt>
      <trkpt lat="43.54997" lon="2.61122">
        <ele>745.20001220703</ele>
        <time>2021-07-03T08:04:48.000Z</time>
      </trkpt>
      <trkpt lat="43.54996" lon="2.6112">
        <ele>745.20001220703</ele>
        <time>2021-07-03T08:04:49.000Z</time>
      </trkpt>
      <trkpt lat="43.54993" lon="2.61119">
        <ele>745.20001220703</ele>
        <time>2021-07-03T08:04:52.000Z</time>
      </trkpt>
      <trkpt lat="43.54983" lon="2.61112">
        <ele>745.20001220703</ele>
        <time>2021-07-03T08:04:55.000Z</time>
      </trkpt>
      <trkpt lat="43.54965" lon="2.61097">
        <ele>745.20001220703</ele>
        <time>2021-07-03T08:05:02.000Z</time>
      </trkpt>
      <trkpt lat="43.54958" lon="2.61092">
        <ele>745.20001220703</ele>
        <time>2021-07-03T08:05:08.000Z</time>
      </trkpt>
      <trkpt lat="43.54959" lon="2.61093">
        <ele>745.20001220703</ele>
        <time>2021-07-03T08:05:09.000Z</time>
      </trkpt>
      <trkpt lat="43.54959" lon="2.61094">
        <ele>745.20001220703</ele>
        <time>2021-07-03T08:05:18.000Z</time>
      </trkpt>
      <trkpt lat="43.54963" lon="2.61096">
        <ele>745.20001220703</ele>
        <time>2021-07-03T08:05:20.000Z</time>
      </trkpt>
      <trkpt lat="43.54975" lon="2.61106">
        <ele>745.20001220703</ele>
        <time>2021-07-03T08:05:25.000Z</time>
      </trkpt>
      <trkpt lat="43.54978" lon="2.6111">
        <ele>745.20001220703</ele>
        <time>2021-07-03T08:05:29.000Z</time>
      </trkpt>
      <trkpt lat="43.54987" lon="2.61117">
        <ele>745.20001220703</ele>
        <time>2021-07-03T08:05:34.000Z</time>
      </trkpt>
      <trkpt lat="43.54994" lon="2.61116">
        <ele>745.20001220703</ele>
        <time>2021-07-03T08:05:38.000Z</time>
      </trkpt>
      <trkpt lat="43.54994" lon="2.61114">
        <ele>745.20001220703</ele>
        <time>2021-07-03T08:05:39.000Z</time>
      </trkpt>
      <trkpt lat="43.54994" lon="2.61105">
        <ele>745.20001220703</ele>
        <time>2021-07-03T08:05:42.000Z</time>
      </trkpt>
      <trkpt lat="43.54994" lon="2.61102">
        <ele>745.20001220703</ele>
        <time>2021-07-03T08:05:43.000Z</time>
      </trkpt>
      <trkpt lat="43.54996" lon="2.61082">
        <ele>745.20001220703</ele>
        <time>2021-07-03T08:05:49.000Z</time>
      </trkpt>
      <trkpt lat="43.54998" lon="2.6107">
        <ele>745.20001220703</ele>
        <time>2021-07-03T08:05:54.000Z</time>
      </trkpt>
      <trkpt lat="43.54999" lon="2.61068">
        <ele>745.20001220703</ele>
        <time>2021-07-03T08:05:55.000Z</time>
      </trkpt>
      <trkpt lat="43.55003" lon="2.61067">
        <ele>745.20001220703</ele>
        <time>2021-07-03T08:05:58.000Z</time>
      </trkpt>
      <trkpt lat="43.55005" lon="2.61067">
        <ele>745.20001220703</ele>
        <time>2021-07-03T08:06:10.000Z</time>
      </trkpt>
      <trkpt lat="43.55013" lon="2.61068">
        <ele>745.20001220703</ele>
        <time>2021-07-03T08:06:14.000Z</time>
      </trkpt>
      <trkpt lat="43.55018" lon="2.61071">
        <ele>745.20001220703</ele>
        <time>2021-07-03T08:06:18.000Z</time>
      </trkpt>
      <trkpt lat="43.55019" lon="2.61074">
        <ele>745.20001220703</ele>
        <time>2021-07-03T08:06:19.000Z</time>
      </trkpt>
      <trkpt lat="43.55017" lon="2.61086">
        <ele>745.20001220703</ele>
        <time>2021-07-03T08:06:24.000Z</time>
      </trkpt>
      <trkpt lat="43.55017" lon="2.61089">
        <ele>745.20001220703</ele>
        <time>2021-07-03T08:06:25.000Z</time>
      </trkpt>
      <trkpt lat="43.55018" lon="2.61097">
        <ele>745.20001220703</ele>
        <time>2021-07-03T08:06:28.000Z</time>
      </trkpt>
      <trkpt lat="43.55019" lon="2.61111">
        <ele>745.20001220703</ele>
        <time>2021-07-03T08:06:35.000Z</time>
      </trkpt>
      <trkpt lat="43.55021" lon="2.61116">
        <ele>745.20001220703</ele>
        <time>2021-07-03T08:06:38.000Z</time>
      </trkpt>
      <trkpt lat="43.55024" lon="2.61118">
        <ele>745.20001220703</ele>
        <time>2021-07-03T08:06:41.000Z</time>
      </trkpt>
      <trkpt lat="43.55031" lon="2.61113">
        <ele>745.20001220703</ele>
        <time>2021-07-03T08:06:46.000Z</time>
      </trkpt>
      <trkpt lat="43.5503" lon="2.61111">
        <ele>745.20001220703</ele>
        <time>2021-07-03T08:06:49.000Z</time>
      </trkpt>
      <trkpt lat="43.55032" lon="2.61111">
        <ele>745.20001220703</ele>
        <time>2021-07-03T08:13:07.000Z</time>
      </trkpt>
      <trkpt lat="43.55034" lon="2.61129">
        <ele>745.20001220703</ele>
        <time>2021-07-03T08:13:12.000Z</time>
      </trkpt>
      <trkpt lat="43.55031" lon="2.61148">
        <ele>745.20001220703</ele>
        <time>2021-07-03T08:13:19.000Z</time>
      </trkpt>
      <trkpt lat="43.55023" lon="2.61158">
        <ele>745.20001220703</ele>
        <time>2021-07-03T08:13:25.000Z</time>
      </trkpt>
      <trkpt lat="43.55015" lon="2.61151">
        <ele>745.20001220703</ele>
        <time>2021-07-03T08:13:28.000Z</time>
      </trkpt>
      <trkpt lat="43.55013" lon="2.61148">
        <ele>745.20001220703</ele>
        <time>2021-07-03T08:13:29.000Z</time>
      </trkpt>
      <trkpt lat="43.55003" lon="2.61129">
        <ele>745.20001220703</ele>
        <time>2021-07-03T08:13:34.000Z</time>
      </trkpt>
      <trkpt lat="43.54998" lon="2.61118">
        <ele>745.20001220703</ele>
        <time>2021-07-03T08:13:38.000Z</time>
      </trkpt>
      <trkpt lat="43.54997" lon="2.61119">
        <ele>745.20001220703</ele>
        <time>2021-07-03T08:13:39.000Z</time>
      </trkpt>
      <trkpt lat="43.54999" lon="2.61127">
        <ele>745.20001220703</ele>
        <time>2021-07-03T08:13:42.000Z</time>
      </trkpt>
      <trkpt lat="43.55" lon="2.61129">
        <ele>745.20001220703</ele>
        <time>2021-07-03T08:13:43.000Z</time>
      </trkpt>
      <trkpt lat="43.55002" lon="2.61136">
        <ele>745.20001220703</ele>
        <time>2021-07-03T08:13:47.000Z</time>
      </trkpt>
      <trkpt lat="43.55001" lon="2.61137">
        <ele>745.20001220703</ele>
        <time>2021-07-03T08:13:48.000Z</time>
      </trkpt>
      <trkpt lat="43.55" lon="2.61144">
        <ele>745.20001220703</ele>
        <time>2021-07-03T08:13:54.000Z</time>
      </trkpt>
      <trkpt lat="43.54998" lon="2.61149">
        <ele>745.20001220703</ele>
        <time>2021-07-03T08:13:56.000Z</time>
      </trkpt>
      <trkpt lat="43.54993" lon="2.6115">
        <ele>745.20001220703</ele>
        <time>2021-07-03T08:13:58.000Z</time>
      </trkpt>
      <trkpt lat="43.54986" lon="2.61152">
        <ele>745.20001220703</ele>
        <time>2021-07-03T08:14:01.000Z</time>
      </trkpt>
      <trkpt lat="43.5498" lon="2.61153">
        <ele>745.20001220703</ele>
        <time>2021-07-03T08:14:04.000Z</time>
      </trkpt>
      <trkpt lat="43.54969" lon="2.6115">
        <ele>745.20001220703</ele>
        <time>2021-07-03T08:14:09.000Z</time>
      </trkpt>
      <trkpt lat="43.54961" lon="2.6115">
        <ele>745.20001220703</ele>
        <time>2021-07-03T08:14:13.000Z</time>
      </trkpt>
      <trkpt lat="43.5496" lon="2.61151">
        <ele>745.20001220703</ele>
        <time>2021-07-03T08:14:14.000Z</time>
      </trkpt>
      <trkpt lat="43.54957" lon="2.61159">
        <ele>745.20001220703</ele>
        <time>2021-07-03T08:14:18.000Z</time>
      </trkpt>
      <trkpt lat="43.54955" lon="2.61163">
        <ele>745.20001220703</ele>
        <time>2021-07-03T08:14:20.000Z</time>
      </trkpt>
      <trkpt lat="43.54948" lon="2.61172">
        <ele>744.79998779297</ele>
        <time>2021-07-03T08:14:25.000Z</time>
      </trkpt>
      <trkpt lat="43.54947" lon="2.61174">
        <ele>744.40002441406</ele>
        <time>2021-07-03T08:14:26.000Z</time>
      </trkpt>
      <trkpt lat="43.54946" lon="2.61176">
        <ele>744</ele>
        <time>2021-07-03T08:14:27.000Z</time>
      </trkpt>
      <trkpt lat="43.54944" lon="2.61178">
        <ele>743.59997558594</ele>
        <time>2021-07-03T08:14:28.000Z</time>
      </trkpt>
      <trkpt lat="43.54943" lon="2.6118">
        <ele>743.20001220703</ele>
        <time>2021-07-03T08:14:29.000Z</time>
      </trkpt>
      <trkpt lat="43.54939" lon="2.61185">
        <ele>743.20001220703</ele>
        <time>2021-07-03T08:14:32.000Z</time>
      </trkpt>
      <trkpt lat="43.54929" lon="2.61198">
        <ele>743.20001220703</ele>
        <time>2021-07-03T08:14:38.000Z</time>
      </trkpt>
      <trkpt lat="43.54923" lon="2.61207">
        <ele>742.79998779297</ele>
        <time>2021-07-03T08:14:42.000Z</time>
      </trkpt>
      <trkpt lat="43.54921" lon="2.61209">
        <ele>742.20001220703</ele>
        <time>2021-07-03T08:14:43.000Z</time>
      </trkpt>
      <trkpt lat="43.5492" lon="2.61211">
        <ele>741.79998779297</ele>
        <time>2021-07-03T08:14:44.000Z</time>
      </trkpt>
      <trkpt lat="43.54918" lon="2.61213">
        <ele>741.40002441406</ele>
        <time>2021-07-03T08:14:45.000Z</time>
      </trkpt>
      <trkpt lat="43.54916" lon="2.61216">
        <ele>741</ele>
        <time>2021-07-03T08:14:46.000Z</time>
      </trkpt>
      <trkpt lat="43.54901" lon="2.61223">
        <ele>741</ele>
        <time>2021-07-03T08:14:52.000Z</time>
      </trkpt>
      <trkpt lat="43.54897" lon="2.61222">
        <ele>740.59997558594</ele>
        <time>2021-07-03T08:14:53.000Z</time>
      </trkpt>
      <trkpt lat="43.54893" lon="2.61221">
        <ele>740.20001220703</ele>
        <time>2021-07-03T08:14:54.000Z</time>
      </trkpt>
      <trkpt lat="43.54889" lon="2.61219">
        <ele>739.79998779297</ele>
        <time>2021-07-03T08:14:55.000Z</time>
      </trkpt>
      <trkpt lat="43.54884" lon="2.61217">
        <ele>739.40002441406</ele>
        <time>2021-07-03T08:14:56.000Z</time>
      </trkpt>
      <trkpt lat="43.5488" lon="2.61215">
        <ele>739</ele>
        <time>2021-07-03T08:14:57.000Z</time>
      </trkpt>
      <trkpt lat="43.54867" lon="2.61207">
        <ele>739</ele>
        <time>2021-07-03T08:15:01.000Z</time>
      </trkpt>
      <trkpt lat="43.54866" lon="2.61206">
        <ele>738.59997558594</ele>
        <time>2021-07-03T08:15:03.000Z</time>
      </trkpt>
      <trkpt lat="43.54864" lon="2.61204">
        <ele>737</ele>
        <time>2021-07-03T08:16:00.000Z</time>
      </trkpt>
      <trkpt lat="43.54863" lon="2.61203">
        <ele>737</ele>
        <time>2021-07-03T08:16:01.000Z</time>
      </trkpt>
      <trkpt lat="43.54857" lon="2.61201">
        <ele>737</ele>
        <time>2021-07-03T08:16:04.000Z</time>
      </trkpt>
      <trkpt lat="43.54847" lon="2.61195">
        <ele>737</ele>
        <time>2021-07-03T08:16:08.000Z</time>
      </trkpt>
      <trkpt lat="43.54831" lon="2.61189">
        <ele>737</ele>
        <time>2021-07-03T08:16:14.000Z</time>
      </trkpt>
      <trkpt lat="43.54808" lon="2.61184">
        <ele>737</ele>
        <time>2021-07-03T08:16:22.000Z</time>
      </trkpt>
      <trkpt lat="43.548" lon="2.6118">
        <ele>736.59997558594</ele>
        <time>2021-07-03T08:16:26.000Z</time>
      </trkpt>
      <trkpt lat="43.54798" lon="2.61179">
        <ele>736.20001220703</ele>
        <time>2021-07-03T08:16:27.000Z</time>
      </trkpt>
      <trkpt lat="43.54796" lon="2.61178">
        <ele>735.79998779297</ele>
        <time>2021-07-03T08:16:28.000Z</time>
      </trkpt>
      <trkpt lat="43.54793" lon="2.61177">
        <ele>735.40002441406</ele>
        <time>2021-07-03T08:16:29.000Z</time>
      </trkpt>
      <trkpt lat="43.5479" lon="2.61175">
        <ele>735</ele>
        <time>2021-07-03T08:16:30.000Z</time>
      </trkpt>
      <trkpt lat="43.54782" lon="2.61167">
        <ele>735</ele>
        <time>2021-07-03T08:16:33.000Z</time>
      </trkpt>
      <trkpt lat="43.5478" lon="2.61164">
        <ele>734.40002441406</ele>
        <time>2021-07-03T08:16:34.000Z</time>
      </trkpt>
      <trkpt lat="43.54779" lon="2.61161">
        <ele>734</ele>
        <time>2021-07-03T08:16:35.000Z</time>
      </trkpt>
      <trkpt lat="43.54777" lon="2.61158">
        <ele>733.59997558594</ele>
        <time>2021-07-03T08:16:36.000Z</time>
      </trkpt>
      <trkpt lat="43.54774" lon="2.61154">
        <ele>733</ele>
        <time>2021-07-03T08:16:37.000Z</time>
      </trkpt>
      <trkpt lat="43.5477" lon="2.61149">
        <ele>732.59997558594</ele>
        <time>2021-07-03T08:16:38.000Z</time>
      </trkpt>
      <trkpt lat="43.54761" lon="2.61139">
        <ele>732</ele>
        <time>2021-07-03T08:16:40.000Z</time>
      </trkpt>
      <trkpt lat="43.54756" lon="2.61135">
        <ele>731.59997558594</ele>
        <time>2021-07-03T08:16:41.000Z</time>
      </trkpt>
      <trkpt lat="43.54752" lon="2.61132">
        <ele>731</ele>
        <time>2021-07-03T08:16:42.000Z</time>
      </trkpt>
      <trkpt lat="43.54747" lon="2.6113">
        <ele>730.40002441406</ele>
        <time>2021-07-03T08:16:43.000Z</time>
      </trkpt>
      <trkpt lat="43.54742" lon="2.6113">
        <ele>730</ele>
        <time>2021-07-03T08:16:44.000Z</time>
      </trkpt>
      <trkpt lat="43.54736" lon="2.61131">
        <ele>730</ele>
        <time>2021-07-03T08:16:45.000Z</time>
      </trkpt>
      <trkpt lat="43.54723" lon="2.61127">
        <ele>730</ele>
        <time>2021-07-03T08:16:48.000Z</time>
      </trkpt>
      <trkpt lat="43.54717" lon="2.61115">
        <ele>730</ele>
        <time>2021-07-03T08:16:51.000Z</time>
      </trkpt>
      <trkpt lat="43.54718" lon="2.61105">
        <ele>730</ele>
        <time>2021-07-03T08:16:54.000Z</time>
      </trkpt>
      <trkpt lat="43.54719" lon="2.61103">
        <ele>730</ele>
        <time>2021-07-03T08:16:55.000Z</time>
      </trkpt>
      <trkpt lat="43.54716" lon="2.611">
        <ele>730</ele>
        <time>2021-07-03T08:16:58.000Z</time>
      </trkpt>
      <trkpt lat="43.54714" lon="2.61105">
        <ele>730</ele>
        <time>2021-07-03T08:17:01.000Z</time>
      </trkpt>
      <trkpt lat="43.54715" lon="2.6111">
        <ele>730</ele>
        <time>2021-07-03T08:17:04.000Z</time>
      </trkpt>
      <trkpt lat="43.54717" lon="2.61116">
        <ele>730</ele>
        <time>2021-07-03T08:17:06.000Z</time>
      </trkpt>
      <trkpt lat="43.5472" lon="2.61128">
        <ele>730</ele>
        <time>2021-07-03T08:17:11.000Z</time>
      </trkpt>
      <trkpt lat="43.54721" lon="2.61129">
        <ele>730</ele>
        <time>2021-07-03T08:17:12.000Z</time>
      </trkpt>
      <trkpt lat="43.54722" lon="2.61128">
        <ele>730</ele>
        <time>2021-07-03T08:17:13.000Z</time>
      </trkpt>
      <trkpt lat="43.5472" lon="2.61125">
        <ele>730</ele>
        <time>2021-07-03T08:17:16.000Z</time>
      </trkpt>
      <trkpt lat="43.54711" lon="2.61115">
        <ele>730</ele>
        <time>2021-07-03T08:17:19.000Z</time>
      </trkpt>
      <trkpt lat="43.54708" lon="2.61106">
        <ele>730</ele>
        <time>2021-07-03T08:17:22.000Z</time>
      </trkpt>
      <trkpt lat="43.54706" lon="2.61098">
        <ele>730.40002441406</ele>
        <time>2021-07-03T08:17:25.000Z</time>
      </trkpt>
      <trkpt lat="43.54705" lon="2.61095">
        <ele>730.79998779297</ele>
        <time>2021-07-03T08:17:26.000Z</time>
      </trkpt>
      <trkpt lat="43.54705" lon="2.61093">
        <ele>731.20001220703</ele>
        <time>2021-07-03T08:17:27.000Z</time>
      </trkpt>
      <trkpt lat="43.54704" lon="2.6109">
        <ele>731.59997558594</ele>
        <time>2021-07-03T08:17:28.000Z</time>
      </trkpt>
      <trkpt lat="43.54703" lon="2.61087">
        <ele>732</ele>
        <time>2021-07-03T08:17:29.000Z</time>
      </trkpt>
      <trkpt lat="43.54701" lon="2.6108">
        <ele>732.40002441406</ele>
        <time>2021-07-03T08:17:31.000Z</time>
      </trkpt>
      <trkpt lat="43.54701" lon="2.61076">
        <ele>733</ele>
        <time>2021-07-03T08:17:32.000Z</time>
      </trkpt>
      <trkpt lat="43.54701" lon="2.61073">
        <ele>733.40002441406</ele>
        <time>2021-07-03T08:17:33.000Z</time>
      </trkpt>
      <trkpt lat="43.547" lon="2.61069">
        <ele>733.79998779297</ele>
        <time>2021-07-03T08:17:34.000Z</time>
      </trkpt>
      <trkpt lat="43.54699" lon="2.61066">
        <ele>734.40002441406</ele>
        <time>2021-07-03T08:17:35.000Z</time>
      </trkpt>
      <trkpt lat="43.54697" lon="2.6106">
        <ele>734.40002441406</ele>
        <time>2021-07-03T08:17:37.000Z</time>
      </trkpt>
      <trkpt lat="43.54692" lon="2.61055">
        <ele>734.79998779297</ele>
        <time>2021-07-03T08:17:39.000Z</time>
      </trkpt>
      <trkpt lat="43.5469" lon="2.61053">
        <ele>735.20001220703</ele>
        <time>2021-07-03T08:17:40.000Z</time>
      </trkpt>
      <trkpt lat="43.54688" lon="2.6105">
        <ele>735.59997558594</ele>
        <time>2021-07-03T08:17:41.000Z</time>
      </trkpt>
      <trkpt lat="43.54686" lon="2.61047">
        <ele>736</ele>
        <time>2021-07-03T08:17:42.000Z</time>
      </trkpt>
      <trkpt lat="43.54683" lon="2.61044">
        <ele>736.40002441406</ele>
        <time>2021-07-03T08:17:43.000Z</time>
      </trkpt>
      <trkpt lat="43.54681" lon="2.61042">
        <ele>736.79998779297</ele>
        <time>2021-07-03T08:17:44.000Z</time>
      </trkpt>
      <trkpt lat="43.54677" lon="2.61037">
        <ele>737.20001220703</ele>
        <time>2021-07-03T08:17:45.000Z</time>
      </trkpt>
      <trkpt lat="43.54674" lon="2.61035">
        <ele>737.59997558594</ele>
        <time>2021-07-03T08:17:46.000Z</time>
      </trkpt>
      <trkpt lat="43.54671" lon="2.61033">
        <ele>738</ele>
        <time>2021-07-03T08:17:47.000Z</time>
      </trkpt>
      <trkpt lat="43.54668" lon="2.61031">
        <ele>738.40002441406</ele>
        <time>2021-07-03T08:17:48.000Z</time>
      </trkpt>
      <trkpt lat="43.54665" lon="2.61028">
        <ele>739</ele>
        <time>2021-07-03T08:17:49.000Z</time>
      </trkpt>
      <trkpt lat="43.54662" lon="2.61025">
        <ele>739.40002441406</ele>
        <time>2021-07-03T08:17:50.000Z</time>
      </trkpt>
      <trkpt lat="43.54659" lon="2.61023">
        <ele>739.79998779297</ele>
        <time>2021-07-03T08:17:51.000Z</time>
      </trkpt>
      <trkpt lat="43.54656" lon="2.6102">
        <ele>740.40002441406</ele>
        <time>2021-07-03T08:17:52.000Z</time>
      </trkpt>
      <trkpt lat="43.54654" lon="2.61017">
        <ele>740.79998779297</ele>
        <time>2021-07-03T08:17:53.000Z</time>
      </trkpt>
      <trkpt lat="43.54648" lon="2.61013">
        <ele>741.59997558594</ele>
        <time>2021-07-03T08:17:55.000Z</time>
      </trkpt>
      <trkpt lat="43.54645" lon="2.61011">
        <ele>742</ele>
        <time>2021-07-03T08:17:56.000Z</time>
      </trkpt>
      <trkpt lat="43.54642" lon="2.61009">
        <ele>742.40002441406</ele>
        <time>2021-07-03T08:17:57.000Z</time>
      </trkpt>
      <trkpt lat="43.54639" lon="2.61008">
        <ele>742.79998779297</ele>
        <time>2021-07-03T08:17:58.000Z</time>
      </trkpt>
      <trkpt lat="43.54633" lon="2.61006">
        <ele>742.79998779297</ele>
        <time>2021-07-03T08:18:00.000Z</time>
      </trkpt>
      <trkpt lat="43.54631" lon="2.61005">
        <ele>743.40002441406</ele>
        <time>2021-07-03T08:18:01.000Z</time>
      </trkpt>
      <trkpt lat="43.54628" lon="2.61005">
        <ele>743.79998779297</ele>
        <time>2021-07-03T08:18:02.000Z</time>
      </trkpt>
      <trkpt lat="43.54627" lon="2.61005">
        <ele>744.20001220703</ele>
        <time>2021-07-03T08:18:03.000Z</time>
      </trkpt>
      <trkpt lat="43.54626" lon="2.61005">
        <ele>744.59997558594</ele>
        <time>2021-07-03T08:18:04.000Z</time>
      </trkpt>
      <trkpt lat="43.54625" lon="2.61005">
        <ele>745.20001220703</ele>
        <time>2021-07-03T08:18:05.000Z</time>
      </trkpt>
      <trkpt lat="43.54617" lon="2.61005">
        <ele>745.59997558594</ele>
        <time>2021-07-03T08:18:09.000Z</time>
      </trkpt>
      <trkpt lat="43.54616" lon="2.61004">
        <ele>746</ele>
        <time>2021-07-03T08:18:10.000Z</time>
      </trkpt>
      <trkpt lat="43.54614" lon="2.61003">
        <ele>746.40002441406</ele>
        <time>2021-07-03T08:18:11.000Z</time>
      </trkpt>
      <trkpt lat="43.54612" lon="2.61002">
        <ele>746.79998779297</ele>
        <time>2021-07-03T08:18:12.000Z</time>
      </trkpt>
      <trkpt lat="43.54609" lon="2.61002">
        <ele>747.40002441406</ele>
        <time>2021-07-03T08:18:13.000Z</time>
      </trkpt>
      <trkpt lat="43.54604" lon="2.61001">
        <ele>747.40002441406</ele>
        <time>2021-07-03T08:18:15.000Z</time>
      </trkpt>
      <trkpt lat="43.54602" lon="2.61">
        <ele>747.79998779297</ele>
        <time>2021-07-03T08:18:16.000Z</time>
      </trkpt>
      <trkpt lat="43.54601" lon="2.60999">
        <ele>748.40002441406</ele>
        <time>2021-07-03T08:18:17.000Z</time>
      </trkpt>
      <trkpt lat="43.54599" lon="2.60998">
        <ele>748.79998779297</ele>
        <time>2021-07-03T08:18:18.000Z</time>
      </trkpt>
      <trkpt lat="43.54597" lon="2.60998">
        <ele>749.79998779297</ele>
        <time>2021-07-03T08:18:19.000Z</time>
      </trkpt>
      <trkpt lat="43.54594" lon="2.60996">
        <ele>750.20001220703</ele>
        <time>2021-07-03T08:18:21.000Z</time>
      </trkpt>
      <trkpt lat="43.54592" lon="2.60995">
        <ele>750.59997558594</ele>
        <time>2021-07-03T08:18:22.000Z</time>
      </trkpt>
      <trkpt lat="43.54591" lon="2.60995">
        <ele>751</ele>
        <time>2021-07-03T08:18:23.000Z</time>
      </trkpt>
      <trkpt lat="43.54589" lon="2.60993">
        <ele>751.40002441406</ele>
        <time>2021-07-03T08:18:24.000Z</time>
      </trkpt>
      <trkpt lat="43.54588" lon="2.60992">
        <ele>751.79998779297</ele>
        <time>2021-07-03T08:18:25.000Z</time>
      </trkpt>
      <trkpt lat="43.54586" lon="2.6099">
        <ele>751.79998779297</ele>
        <time>2021-07-03T08:18:26.000Z</time>
      </trkpt>
      <trkpt lat="43.54584" lon="2.60988">
        <ele>752.20001220703</ele>
        <time>2021-07-03T08:18:27.000Z</time>
      </trkpt>
      <trkpt lat="43.54581" lon="2.60986">
        <ele>752.59997558594</ele>
        <time>2021-07-03T08:18:28.000Z</time>
      </trkpt>
      <trkpt lat="43.54579" lon="2.60985">
        <ele>753</ele>
        <time>2021-07-03T08:18:29.000Z</time>
      </trkpt>
      <trkpt lat="43.54578" lon="2.60983">
        <ele>753.40002441406</ele>
        <time>2021-07-03T08:18:30.000Z</time>
      </trkpt>
      <trkpt lat="43.54576" lon="2.60981">
        <ele>753.79998779297</ele>
        <time>2021-07-03T08:18:31.000Z</time>
      </trkpt>
      <trkpt lat="43.54572" lon="2.60977">
        <ele>754.20001220703</ele>
        <time>2021-07-03T08:18:33.000Z</time>
      </trkpt>
      <trkpt lat="43.5457" lon="2.60975">
        <ele>754.59997558594</ele>
        <time>2021-07-03T08:18:34.000Z</time>
      </trkpt>
      <trkpt lat="43.54569" lon="2.60974">
        <ele>755.20001220703</ele>
        <time>2021-07-03T08:18:35.000Z</time>
      </trkpt>
      <trkpt lat="43.54567" lon="2.60971">
        <ele>755.59997558594</ele>
        <time>2021-07-03T08:18:36.000Z</time>
      </trkpt>
      <trkpt lat="43.54566" lon="2.60969">
        <ele>756</ele>
        <time>2021-07-03T08:18:37.000Z</time>
      </trkpt>
      <trkpt lat="43.54563" lon="2.60958">
        <ele>756.40002441406</ele>
        <time>2021-07-03T08:18:42.000Z</time>
      </trkpt>
      <trkpt lat="43.54562" lon="2.60955">
        <ele>756.79998779297</ele>
        <time>2021-07-03T08:18:43.000Z</time>
      </trkpt>
      <trkpt lat="43.54561" lon="2.60953">
        <ele>757.59997558594</ele>
        <time>2021-07-03T08:18:44.000Z</time>
      </trkpt>
      <trkpt lat="43.5456" lon="2.60951">
        <ele>758</ele>
        <time>2021-07-03T08:18:45.000Z</time>
      </trkpt>
      <trkpt lat="43.54559" lon="2.60947">
        <ele>758</ele>
        <time>2021-07-03T08:18:47.000Z</time>
      </trkpt>
      <trkpt lat="43.54556" lon="2.60941">
        <ele>758.40002441406</ele>
        <time>2021-07-03T08:18:50.000Z</time>
      </trkpt>
      <trkpt lat="43.54555" lon="2.6094">
        <ele>759</ele>
        <time>2021-07-03T08:18:51.000Z</time>
      </trkpt>
      <trkpt lat="43.54554" lon="2.60938">
        <ele>759.40002441406</ele>
        <time>2021-07-03T08:18:52.000Z</time>
      </trkpt>
      <trkpt lat="43.54553" lon="2.60937">
        <ele>759.79998779297</ele>
        <time>2021-07-03T08:18:53.000Z</time>
      </trkpt>
      <trkpt lat="43.54552" lon="2.60936">
        <ele>760.20001220703</ele>
        <time>2021-07-03T08:18:54.000Z</time>
      </trkpt>
      <trkpt lat="43.54544" lon="2.6093">
        <ele>760.20001220703</ele>
        <time>2021-07-03T08:18:58.000Z</time>
      </trkpt>
      <trkpt lat="43.54542" lon="2.60929">
        <ele>760.59997558594</ele>
        <time>2021-07-03T08:18:59.000Z</time>
      </trkpt>
      <trkpt lat="43.5454" lon="2.60928">
        <ele>761</ele>
        <time>2021-07-03T08:19:00.000Z</time>
      </trkpt>
      <trkpt lat="43.54538" lon="2.60926">
        <ele>761.40002441406</ele>
        <time>2021-07-03T08:19:01.000Z</time>
      </trkpt>
      <trkpt lat="43.54535" lon="2.60925">
        <ele>761.79998779297</ele>
        <time>2021-07-03T08:19:02.000Z</time>
      </trkpt>
      <trkpt lat="43.54532" lon="2.60924">
        <ele>762.40002441406</ele>
        <time>2021-07-03T08:19:03.000Z</time>
      </trkpt>
      <trkpt lat="43.54526" lon="2.6092">
        <ele>762.79998779297</ele>
        <time>2021-07-03T08:19:05.000Z</time>
      </trkpt>
      <trkpt lat="43.54524" lon="2.60918">
        <ele>763.40002441406</ele>
        <time>2021-07-03T08:19:06.000Z</time>
      </trkpt>
      <trkpt lat="43.54522" lon="2.60916">
        <ele>763.79998779297</ele>
        <time>2021-07-03T08:19:07.000Z</time>
      </trkpt>
      <trkpt lat="43.5452" lon="2.60916">
        <ele>764.40002441406</ele>
        <time>2021-07-03T08:19:08.000Z</time>
      </trkpt>
      <trkpt lat="43.54518" lon="2.60915">
        <ele>765.59997558594</ele>
        <time>2021-07-03T08:19:09.000Z</time>
      </trkpt>
      <trkpt lat="43.54516" lon="2.60913">
        <ele>766.20001220703</ele>
        <time>2021-07-03T08:19:10.000Z</time>
      </trkpt>
      <trkpt lat="43.54513" lon="2.60912">
        <ele>766.79998779297</ele>
        <time>2021-07-03T08:19:11.000Z</time>
      </trkpt>
      <trkpt lat="43.54511" lon="2.60912">
        <ele>767.40002441406</ele>
        <time>2021-07-03T08:19:12.000Z</time>
      </trkpt>
      <trkpt lat="43.54509" lon="2.60913">
        <ele>768</ele>
        <time>2021-07-03T08:19:13.000Z</time>
      </trkpt>
      <trkpt lat="43.54506" lon="2.60913">
        <ele>768.59997558594</ele>
        <time>2021-07-03T08:19:14.000Z</time>
      </trkpt>
      <trkpt lat="43.54504" lon="2.60912">
        <ele>769.20001220703</ele>
        <time>2021-07-03T08:19:15.000Z</time>
      </trkpt>
      <trkpt lat="43.54502" lon="2.60911">
        <ele>770</ele>
        <time>2021-07-03T08:19:16.000Z</time>
      </trkpt>
      <trkpt lat="43.545" lon="2.6091">
        <ele>770.59997558594</ele>
        <time>2021-07-03T08:19:17.000Z</time>
      </trkpt>
      <trkpt lat="43.54499" lon="2.60909">
        <ele>771.20001220703</ele>
        <time>2021-07-03T08:19:18.000Z</time>
      </trkpt>
      <trkpt lat="43.54497" lon="2.60908">
        <ele>772</ele>
        <time>2021-07-03T08:19:19.000Z</time>
      </trkpt>
      <trkpt lat="43.54495" lon="2.60906">
        <ele>772</ele>
        <time>2021-07-03T08:19:20.000Z</time>
      </trkpt>
      <trkpt lat="43.54492" lon="2.60902">
        <ele>772.40002441406</ele>
        <time>2021-07-03T08:19:23.000Z</time>
      </trkpt>
      <trkpt lat="43.54492" lon="2.609">
        <ele>772.79998779297</ele>
        <time>2021-07-03T08:19:24.000Z</time>
      </trkpt>
      <trkpt lat="43.54491" lon="2.60899">
        <ele>773.20001220703</ele>
        <time>2021-07-03T08:19:25.000Z</time>
      </trkpt>
      <trkpt lat="43.54491" lon="2.60896">
        <ele>773.59997558594</ele>
        <time>2021-07-03T08:19:26.000Z</time>
      </trkpt>
      <trkpt lat="43.54491" lon="2.60895">
        <ele>774</ele>
        <time>2021-07-03T08:19:27.000Z</time>
      </trkpt>
      <trkpt lat="43.54493" lon="2.60892">
        <ele>774</ele>
        <time>2021-07-03T08:19:29.000Z</time>
      </trkpt>
      <trkpt lat="43.54493" lon="2.60892">
        <ele>774</ele>
        <time>2021-07-03T08:19:30.000Z</time>
      </trkpt>
      <trkpt lat="43.5449" lon="2.60897">
        <ele>774</ele>
        <time>2021-07-03T08:21:22.000Z</time>
      </trkpt>
      <trkpt lat="43.54489" lon="2.60899">
        <ele>774</ele>
        <time>2021-07-03T08:21:23.000Z</time>
      </trkpt>
      <trkpt lat="43.54485" lon="2.60909">
        <ele>774.40002441406</ele>
        <time>2021-07-03T08:21:26.000Z</time>
      </trkpt>
      <trkpt lat="43.54484" lon="2.60911">
        <ele>774.79998779297</ele>
        <time>2021-07-03T08:21:27.000Z</time>
      </trkpt>
      <trkpt lat="43.54483" lon="2.60914">
        <ele>775.20001220703</ele>
        <time>2021-07-03T08:21:28.000Z</time>
      </trkpt>
      <trkpt lat="43.54481" lon="2.60916">
        <ele>775.59997558594</ele>
        <time>2021-07-03T08:21:29.000Z</time>
      </trkpt>
      <trkpt lat="43.5448" lon="2.60917">
        <ele>776</ele>
        <time>2021-07-03T08:21:30.000Z</time>
      </trkpt>
      <trkpt lat="43.54476" lon="2.60919">
        <ele>776.59997558594</ele>
        <time>2021-07-03T08:21:31.000Z</time>
      </trkpt>
      <trkpt lat="43.54473" lon="2.6092">
        <ele>777</ele>
        <time>2021-07-03T08:21:32.000Z</time>
      </trkpt>
      <trkpt lat="43.54471" lon="2.6092">
        <ele>777.40002441406</ele>
        <time>2021-07-03T08:21:33.000Z</time>
      </trkpt>
      <trkpt lat="43.54467" lon="2.6092">
        <ele>778</ele>
        <time>2021-07-03T08:21:34.000Z</time>
      </trkpt>
      <trkpt lat="43.54465" lon="2.6092">
        <ele>778.40002441406</ele>
        <time>2021-07-03T08:21:35.000Z</time>
      </trkpt>
      <trkpt lat="43.54462" lon="2.60921">
        <ele>779</ele>
        <time>2021-07-03T08:21:36.000Z</time>
      </trkpt>
      <trkpt lat="43.54459" lon="2.60922">
        <ele>780.20001220703</ele>
        <time>2021-07-03T08:21:37.000Z</time>
      </trkpt>
      <trkpt lat="43.54456" lon="2.60924">
        <ele>780.59997558594</ele>
        <time>2021-07-03T08:21:38.000Z</time>
      </trkpt>
      <trkpt lat="43.54453" lon="2.60925">
        <ele>781.20001220703</ele>
        <time>2021-07-03T08:21:39.000Z</time>
      </trkpt>
      <trkpt lat="43.5445" lon="2.60925">
        <ele>781.79998779297</ele>
        <time>2021-07-03T08:21:40.000Z</time>
      </trkpt>
      <trkpt lat="43.54447" lon="2.60926">
        <ele>782.40002441406</ele>
        <time>2021-07-03T08:21:41.000Z</time>
      </trkpt>
      <trkpt lat="43.54444" lon="2.60927">
        <ele>782.79998779297</ele>
        <time>2021-07-03T08:21:42.000Z</time>
      </trkpt>
      <trkpt lat="43.54441" lon="2.60928">
        <ele>783.40002441406</ele>
        <time>2021-07-03T08:21:43.000Z</time>
      </trkpt>
      <trkpt lat="43.54438" lon="2.6093">
        <ele>784</ele>
        <time>2021-07-03T08:21:44.000Z</time>
      </trkpt>
      <trkpt lat="43.54435" lon="2.60931">
        <ele>784.59997558594</ele>
        <time>2021-07-03T08:21:45.000Z</time>
      </trkpt>
      <trkpt lat="43.54433" lon="2.60933">
        <ele>785.20001220703</ele>
        <time>2021-07-03T08:21:46.000Z</time>
      </trkpt>
      <trkpt lat="43.5443" lon="2.60934">
        <ele>785.59997558594</ele>
        <time>2021-07-03T08:21:47.000Z</time>
      </trkpt>
      <trkpt lat="43.54427" lon="2.60935">
        <ele>786.20001220703</ele>
        <time>2021-07-03T08:21:48.000Z</time>
      </trkpt>
      <trkpt lat="43.54424" lon="2.60936">
        <ele>786.79998779297</ele>
        <time>2021-07-03T08:21:49.000Z</time>
      </trkpt>
      <trkpt lat="43.5442" lon="2.60936">
        <ele>787.40002441406</ele>
        <time>2021-07-03T08:21:50.000Z</time>
      </trkpt>
      <trkpt lat="43.54414" lon="2.60938">
        <ele>787.79998779297</ele>
        <time>2021-07-03T08:21:52.000Z</time>
      </trkpt>
      <trkpt lat="43.54411" lon="2.60939">
        <ele>788.20001220703</ele>
        <time>2021-07-03T08:21:53.000Z</time>
      </trkpt>
      <trkpt lat="43.54409" lon="2.6094">
        <ele>788.59997558594</ele>
        <time>2021-07-03T08:21:54.000Z</time>
      </trkpt>
      <trkpt lat="43.54406" lon="2.60942">
        <ele>789</ele>
        <time>2021-07-03T08:21:55.000Z</time>
      </trkpt>
      <trkpt lat="43.54403" lon="2.60943">
        <ele>789.40002441406</ele>
        <time>2021-07-03T08:21:56.000Z</time>
      </trkpt>
      <trkpt lat="43.54394" lon="2.6095">
        <ele>790</ele>
        <time>2021-07-03T08:22:00.000Z</time>
      </trkpt>
      <trkpt lat="43.54391" lon="2.60951">
        <ele>790.40002441406</ele>
        <time>2021-07-03T08:22:01.000Z</time>
      </trkpt>
      <trkpt lat="43.54389" lon="2.60952">
        <ele>791.20001220703</ele>
        <time>2021-07-03T08:22:02.000Z</time>
      </trkpt>
      <trkpt lat="43.54388" lon="2.60953">
        <ele>791.79998779297</ele>
        <time>2021-07-03T08:22:03.000Z</time>
      </trkpt>
      <trkpt lat="43.54381" lon="2.60958">
        <ele>791.79998779297</ele>
        <time>2021-07-03T08:22:07.000Z</time>
      </trkpt>
      <trkpt lat="43.54374" lon="2.60964">
        <ele>792.20001220703</ele>
        <time>2021-07-03T08:22:11.000Z</time>
      </trkpt>
      <trkpt lat="43.54372" lon="2.60965">
        <ele>792.59997558594</ele>
        <time>2021-07-03T08:22:12.000Z</time>
      </trkpt>
      <trkpt lat="43.54371" lon="2.60966">
        <ele>793</ele>
        <time>2021-07-03T08:22:13.000Z</time>
      </trkpt>
      <trkpt lat="43.54369" lon="2.60966">
        <ele>793.40002441406</ele>
        <time>2021-07-03T08:22:14.000Z</time>
      </trkpt>
      <trkpt lat="43.54367" lon="2.60968">
        <ele>793.79998779297</ele>
        <time>2021-07-03T08:22:15.000Z</time>
      </trkpt>
      <trkpt lat="43.54361" lon="2.60971">
        <ele>793.79998779297</ele>
        <time>2021-07-03T08:22:18.000Z</time>
      </trkpt>
      <trkpt lat="43.54352" lon="2.60975">
        <ele>793.79998779297</ele>
        <time>2021-07-03T08:22:23.000Z</time>
      </trkpt>
      <trkpt lat="43.54351" lon="2.60975">
        <ele>793.79998779297</ele>
        <time>2021-07-03T08:22:24.000Z</time>
      </trkpt>
      <trkpt lat="43.54348" lon="2.60974">
        <ele>793.79998779297</ele>
        <time>2021-07-03T08:22:27.000Z</time>
      </trkpt>
      <trkpt lat="43.54342" lon="2.60972">
        <ele>793.79998779297</ele>
        <time>2021-07-03T08:22:31.000Z</time>
      </trkpt>
      <trkpt lat="43.54338" lon="2.60972">
        <ele>793.79998779297</ele>
        <time>2021-07-03T08:22:33.000Z</time>
      </trkpt>
      <trkpt lat="43.54334" lon="2.60972">
        <ele>793.79998779297</ele>
        <time>2021-07-03T08:22:35.000Z</time>
      </trkpt>
      <trkpt lat="43.54334" lon="2.60973">
        <ele>793.79998779297</ele>
        <time>2021-07-03T08:22:36.000Z</time>
      </trkpt>
      <trkpt lat="43.54331" lon="2.60974">
        <ele>793.79998779297</ele>
        <time>2021-07-03T08:22:38.000Z</time>
      </trkpt>
      <trkpt lat="43.54329" lon="2.60973">
        <ele>793.79998779297</ele>
        <time>2021-07-03T08:22:39.000Z</time>
      </trkpt>
      <trkpt lat="43.54325" lon="2.60973">
        <ele>793.79998779297</ele>
        <time>2021-07-03T08:22:41.000Z</time>
      </trkpt>
      <trkpt lat="43.54322" lon="2.60974">
        <ele>793.79998779297</ele>
        <time>2021-07-03T08:22:42.000Z</time>
      </trkpt>
      <trkpt lat="43.54312" lon="2.60973">
        <ele>793.79998779297</ele>
        <time>2021-07-03T08:22:46.000Z</time>
      </trkpt>
      <trkpt lat="43.54295" lon="2.60964">
        <ele>793.79998779297</ele>
        <time>2021-07-03T08:22:50.000Z</time>
      </trkpt>
      <trkpt lat="43.54288" lon="2.60955">
        <ele>793.79998779297</ele>
        <time>2021-07-03T08:22:53.000Z</time>
      </trkpt>
      <trkpt lat="43.54286" lon="2.60953">
        <ele>793.79998779297</ele>
        <time>2021-07-03T08:22:54.000Z</time>
      </trkpt>
      <trkpt lat="43.54273" lon="2.60933">
        <ele>793.79998779297</ele>
        <time>2021-07-03T08:23:00.000Z</time>
      </trkpt>
      <trkpt lat="43.54265" lon="2.60919">
        <ele>794.20001220703</ele>
        <time>2021-07-03T08:23:05.000Z</time>
      </trkpt>
      <trkpt lat="43.54263" lon="2.60914">
        <ele>794.59997558594</ele>
        <time>2021-07-03T08:23:06.000Z</time>
      </trkpt>
      <trkpt lat="43.54262" lon="2.60911">
        <ele>795.20001220703</ele>
        <time>2021-07-03T08:23:07.000Z</time>
      </trkpt>
      <trkpt lat="43.54261" lon="2.60907">
        <ele>795.59997558594</ele>
        <time>2021-07-03T08:23:08.000Z</time>
      </trkpt>
      <trkpt lat="43.5426" lon="2.60904">
        <ele>796</ele>
        <time>2021-07-03T08:23:09.000Z</time>
      </trkpt>
      <trkpt lat="43.54258" lon="2.60896">
        <ele>796</ele>
        <time>2021-07-03T08:23:11.000Z</time>
      </trkpt>
      <trkpt lat="43.54253" lon="2.60884">
        <ele>796.40002441406</ele>
        <time>2021-07-03T08:23:14.000Z</time>
      </trkpt>
      <trkpt lat="43.54251" lon="2.60881">
        <ele>796.79998779297</ele>
        <time>2021-07-03T08:23:15.000Z</time>
      </trkpt>
      <trkpt lat="43.54249" lon="2.60877">
        <ele>797.59997558594</ele>
        <time>2021-07-03T08:23:16.000Z</time>
      </trkpt>
      <trkpt lat="43.54246" lon="2.60874">
        <ele>798.20001220703</ele>
        <time>2021-07-03T08:23:17.000Z</time>
      </trkpt>
      <trkpt lat="43.54245" lon="2.60871">
        <ele>798.59997558594</ele>
        <time>2021-07-03T08:23:18.000Z</time>
      </trkpt>
      <trkpt lat="43.54244" lon="2.60868">
        <ele>799</ele>
        <time>2021-07-03T08:23:19.000Z</time>
      </trkpt>
      <trkpt lat="43.54243" lon="2.60867">
        <ele>799.40002441406</ele>
        <time>2021-07-03T08:23:20.000Z</time>
      </trkpt>
      <trkpt lat="43.54243" lon="2.60865">
        <ele>799.79998779297</ele>
        <time>2021-07-03T08:23:21.000Z</time>
      </trkpt>
      <trkpt lat="43.54244" lon="2.60865">
        <ele>800.20001220703</ele>
        <time>2021-07-03T08:23:22.000Z</time>
      </trkpt>
      <trkpt lat="43.54244" lon="2.60858">
        <ele>800.20001220703</ele>
        <time>2021-07-03T08:23:25.000Z</time>
      </trkpt>
      <trkpt lat="43.54244" lon="2.60856">
        <ele>800.20001220703</ele>
        <time>2021-07-03T08:23:26.000Z</time>
      </trkpt>
      <trkpt lat="43.54244" lon="2.60843">
        <ele>799.79998779297</ele>
        <time>2021-07-03T08:23:30.000Z</time>
      </trkpt>
      <trkpt lat="43.54245" lon="2.60839">
        <ele>799.40002441406</ele>
        <time>2021-07-03T08:23:31.000Z</time>
      </trkpt>
      <trkpt lat="43.54246" lon="2.60835">
        <ele>799</ele>
        <time>2021-07-03T08:23:32.000Z</time>
      </trkpt>
      <trkpt lat="43.54248" lon="2.60831">
        <ele>798.40002441406</ele>
        <time>2021-07-03T08:23:33.000Z</time>
      </trkpt>
      <trkpt lat="43.54249" lon="2.60828">
        <ele>798</ele>
        <time>2021-07-03T08:23:34.000Z</time>
      </trkpt>
      <trkpt lat="43.5425" lon="2.60823">
        <ele>797.59997558594</ele>
        <time>2021-07-03T08:23:35.000Z</time>
      </trkpt>
      <trkpt lat="43.5425" lon="2.60818">
        <ele>797.20001220703</ele>
        <time>2021-07-03T08:23:36.000Z</time>
      </trkpt>
      <trkpt lat="43.5425" lon="2.60813">
        <ele>796.79998779297</ele>
        <time>2021-07-03T08:23:37.000Z</time>
      </trkpt>
      <trkpt lat="43.54251" lon="2.60806">
        <ele>796.40002441406</ele>
        <time>2021-07-03T08:23:38.000Z</time>
      </trkpt>
      <trkpt lat="43.54254" lon="2.60803">
        <ele>796</ele>
        <time>2021-07-03T08:23:39.000Z</time>
      </trkpt>
      <trkpt lat="43.54256" lon="2.60799">
        <ele>795.59997558594</ele>
        <time>2021-07-03T08:23:40.000Z</time>
      </trkpt>
      <trkpt lat="43.54258" lon="2.60794">
        <ele>794.79998779297</ele>
        <time>2021-07-03T08:23:41.000Z</time>
      </trkpt>
      <trkpt lat="43.5426" lon="2.6079">
        <ele>794.40002441406</ele>
        <time>2021-07-03T08:23:42.000Z</time>
      </trkpt>
      <trkpt lat="43.54262" lon="2.60784">
        <ele>794</ele>
        <time>2021-07-03T08:23:43.000Z</time>
      </trkpt>
      <trkpt lat="43.54264" lon="2.6078">
        <ele>794</ele>
        <time>2021-07-03T08:23:44.000Z</time>
      </trkpt>
      <trkpt lat="43.54264" lon="2.60774">
        <ele>794</ele>
        <time>2021-07-03T08:23:45.000Z</time>
      </trkpt>
      <trkpt lat="43.54265" lon="2.6077">
        <ele>793.40002441406</ele>
        <time>2021-07-03T08:23:46.000Z</time>
      </trkpt>
      <trkpt lat="43.54265" lon="2.60765">
        <ele>793</ele>
        <time>2021-07-03T08:23:47.000Z</time>
      </trkpt>
      <trkpt lat="43.54265" lon="2.6076">
        <ele>792.59997558594</ele>
        <time>2021-07-03T08:23:48.000Z</time>
      </trkpt>
      <trkpt lat="43.54265" lon="2.60755">
        <ele>792</ele>
        <time>2021-07-03T08:23:49.000Z</time>
      </trkpt>
      <trkpt lat="43.54264" lon="2.60748">
        <ele>791.59997558594</ele>
        <time>2021-07-03T08:23:50.000Z</time>
      </trkpt>
      <trkpt lat="43.54264" lon="2.60736">
        <ele>791.20001220703</ele>
        <time>2021-07-03T08:23:52.000Z</time>
      </trkpt>
      <trkpt lat="43.54264" lon="2.6073">
        <ele>790.79998779297</ele>
        <time>2021-07-03T08:23:53.000Z</time>
      </trkpt>
      <trkpt lat="43.54263" lon="2.60724">
        <ele>790.40002441406</ele>
        <time>2021-07-03T08:23:54.000Z</time>
      </trkpt>
      <trkpt lat="43.54262" lon="2.60718">
        <ele>790</ele>
        <time>2021-07-03T08:23:55.000Z</time>
      </trkpt>
      <trkpt lat="43.54262" lon="2.60712">
        <ele>789.59997558594</ele>
        <time>2021-07-03T08:23:56.000Z</time>
      </trkpt>
      <trkpt lat="43.5426" lon="2.60704">
        <ele>789.59997558594</ele>
        <time>2021-07-03T08:23:58.000Z</time>
      </trkpt>
      <trkpt lat="43.54261" lon="2.60693">
        <ele>789</ele>
        <time>2021-07-03T08:24:00.000Z</time>
      </trkpt>
      <trkpt lat="43.54262" lon="2.60686">
        <ele>788.59997558594</ele>
        <time>2021-07-03T08:24:01.000Z</time>
      </trkpt>
      <trkpt lat="43.54264" lon="2.6068">
        <ele>788.20001220703</ele>
        <time>2021-07-03T08:24:02.000Z</time>
      </trkpt>
      <trkpt lat="43.54266" lon="2.60676">
        <ele>787.59997558594</ele>
        <time>2021-07-03T08:24:03.000Z</time>
      </trkpt>
      <trkpt lat="43.54266" lon="2.60671">
        <ele>787.20001220703</ele>
        <time>2021-07-03T08:24:04.000Z</time>
      </trkpt>
      <trkpt lat="43.54266" lon="2.60656">
        <ele>787.20001220703</ele>
        <time>2021-07-03T08:24:07.000Z</time>
      </trkpt>
      <trkpt lat="43.54264" lon="2.60646">
        <ele>786.79998779297</ele>
        <time>2021-07-03T08:24:09.000Z</time>
      </trkpt>
      <trkpt lat="43.54262" lon="2.6064">
        <ele>786.40002441406</ele>
        <time>2021-07-03T08:24:10.000Z</time>
      </trkpt>
      <trkpt lat="43.54261" lon="2.60636">
        <ele>786</ele>
        <time>2021-07-03T08:24:11.000Z</time>
      </trkpt>
      <trkpt lat="43.54259" lon="2.6063">
        <ele>785.40002441406</ele>
        <time>2021-07-03T08:24:12.000Z</time>
      </trkpt>
      <trkpt lat="43.54258" lon="2.60627">
        <ele>785</ele>
        <time>2021-07-03T08:24:13.000Z</time>
      </trkpt>
      <trkpt lat="43.54256" lon="2.60606">
        <ele>785</ele>
        <time>2021-07-03T08:24:17.000Z</time>
      </trkpt>
      <trkpt lat="43.54259" lon="2.60581">
        <ele>785</ele>
        <time>2021-07-03T08:24:22.000Z</time>
      </trkpt>
      <trkpt lat="43.54266" lon="2.60561">
        <ele>784.59997558594</ele>
        <time>2021-07-03T08:24:27.000Z</time>
      </trkpt>
      <trkpt lat="43.54268" lon="2.60558">
        <ele>784.20001220703</ele>
        <time>2021-07-03T08:24:28.000Z</time>
      </trkpt>
      <trkpt lat="43.5427" lon="2.60554">
        <ele>783.79998779297</ele>
        <time>2021-07-03T08:24:29.000Z</time>
      </trkpt>
      <trkpt lat="43.54272" lon="2.60551">
        <ele>783</ele>
        <time>2021-07-03T08:24:30.000Z</time>
      </trkpt>
      <trkpt lat="43.54275" lon="2.60546">
        <ele>782.40002441406</ele>
        <time>2021-07-03T08:24:32.000Z</time>
      </trkpt>
      <trkpt lat="43.54277" lon="2.60543">
        <ele>782</ele>
        <time>2021-07-03T08:24:33.000Z</time>
      </trkpt>
      <trkpt lat="43.54277" lon="2.60541">
        <ele>781.59997558594</ele>
        <time>2021-07-03T08:24:34.000Z</time>
      </trkpt>
      <trkpt lat="43.54278" lon="2.60539">
        <ele>781</ele>
        <time>2021-07-03T08:24:35.000Z</time>
      </trkpt>
      <trkpt lat="43.5428" lon="2.60538">
        <ele>780.59997558594</ele>
        <time>2021-07-03T08:24:36.000Z</time>
      </trkpt>
      <trkpt lat="43.54282" lon="2.60537">
        <ele>780</ele>
        <time>2021-07-03T08:24:37.000Z</time>
      </trkpt>
      <trkpt lat="43.54284" lon="2.60535">
        <ele>779.59997558594</ele>
        <time>2021-07-03T08:24:38.000Z</time>
      </trkpt>
      <trkpt lat="43.54287" lon="2.60533">
        <ele>779</ele>
        <time>2021-07-03T08:24:39.000Z</time>
      </trkpt>
      <trkpt lat="43.54289" lon="2.6053">
        <ele>778.40002441406</ele>
        <time>2021-07-03T08:24:40.000Z</time>
      </trkpt>
      <trkpt lat="43.5429" lon="2.60527">
        <ele>778</ele>
        <time>2021-07-03T08:24:41.000Z</time>
      </trkpt>
      <trkpt lat="43.54292" lon="2.60525">
        <ele>777.59997558594</ele>
        <time>2021-07-03T08:24:42.000Z</time>
      </trkpt>
      <trkpt lat="43.54294" lon="2.60521">
        <ele>777.20001220703</ele>
        <time>2021-07-03T08:24:43.000Z</time>
      </trkpt>
      <trkpt lat="43.54294" lon="2.60518">
        <ele>776.79998779297</ele>
        <time>2021-07-03T08:24:44.000Z</time>
      </trkpt>
      <trkpt lat="43.54296" lon="2.60513">
        <ele>776.40002441406</ele>
        <time>2021-07-03T08:24:45.000Z</time>
      </trkpt>
      <trkpt lat="43.54299" lon="2.60495">
        <ele>776</ele>
        <time>2021-07-03T08:24:48.000Z</time>
      </trkpt>
      <trkpt lat="43.54299" lon="2.6049">
        <ele>775.59997558594</ele>
        <time>2021-07-03T08:24:49.000Z</time>
      </trkpt>
      <trkpt lat="43.543" lon="2.60486">
        <ele>775</ele>
        <time>2021-07-03T08:24:50.000Z</time>
      </trkpt>
      <trkpt lat="43.54301" lon="2.60481">
        <ele>774.59997558594</ele>
        <time>2021-07-03T08:24:51.000Z</time>
      </trkpt>
      <trkpt lat="43.54301" lon="2.60476">
        <ele>774.20001220703</ele>
        <time>2021-07-03T08:24:52.000Z</time>
      </trkpt>
      <trkpt lat="43.54304" lon="2.60467">
        <ele>774.20001220703</ele>
        <time>2021-07-03T08:24:54.000Z</time>
      </trkpt>
      <trkpt lat="43.54306" lon="2.60463">
        <ele>773.40002441406</ele>
        <time>2021-07-03T08:24:55.000Z</time>
      </trkpt>
      <trkpt lat="43.54307" lon="2.60459">
        <ele>773</ele>
        <time>2021-07-03T08:24:56.000Z</time>
      </trkpt>
      <trkpt lat="43.54307" lon="2.60456">
        <ele>772.59997558594</ele>
        <time>2021-07-03T08:24:57.000Z</time>
      </trkpt>
      <trkpt lat="43.54308" lon="2.60453">
        <ele>772.20001220703</ele>
        <time>2021-07-03T08:24:58.000Z</time>
      </trkpt>
      <trkpt lat="43.54309" lon="2.60449">
        <ele>772.20001220703</ele>
        <time>2021-07-03T08:25:00.000Z</time>
      </trkpt>
      <trkpt lat="43.54309" lon="2.60438">
        <ele>772.20001220703</ele>
        <time>2021-07-03T08:25:03.000Z</time>
      </trkpt>
      <trkpt lat="43.54305" lon="2.60408">
        <ele>772.20001220703</ele>
        <time>2021-07-03T08:25:08.000Z</time>
      </trkpt>
      <trkpt lat="43.54301" lon="2.60392">
        <ele>771.79998779297</ele>
        <time>2021-07-03T08:25:13.000Z</time>
      </trkpt>
      <trkpt lat="43.54301" lon="2.6039">
        <ele>771.20001220703</ele>
        <time>2021-07-03T08:25:14.000Z</time>
      </trkpt>
      <trkpt lat="43.543" lon="2.60388">
        <ele>770.79998779297</ele>
        <time>2021-07-03T08:25:15.000Z</time>
      </trkpt>
      <trkpt lat="43.543" lon="2.60384">
        <ele>770.20001220703</ele>
        <time>2021-07-03T08:25:16.000Z</time>
      </trkpt>
      <trkpt lat="43.543" lon="2.6038">
        <ele>769.79998779297</ele>
        <time>2021-07-03T08:25:17.000Z</time>
      </trkpt>
      <trkpt lat="43.543" lon="2.60375">
        <ele>769.40002441406</ele>
        <time>2021-07-03T08:25:18.000Z</time>
      </trkpt>
      <trkpt lat="43.543" lon="2.60372">
        <ele>768.40002441406</ele>
        <time>2021-07-03T08:25:19.000Z</time>
      </trkpt>
      <trkpt lat="43.543" lon="2.6037">
        <ele>768</ele>
        <time>2021-07-03T08:25:20.000Z</time>
      </trkpt>
      <trkpt lat="43.543" lon="2.60369">
        <ele>767.59997558594</ele>
        <time>2021-07-03T08:25:21.000Z</time>
      </trkpt>
      <trkpt lat="43.54298" lon="2.60367">
        <ele>767.59997558594</ele>
        <time>2021-07-03T08:25:23.000Z</time>
      </trkpt>
      <trkpt lat="43.54297" lon="2.60366">
        <ele>767.59997558594</ele>
        <time>2021-07-03T08:25:24.000Z</time>
      </trkpt>
      <trkpt lat="43.54297" lon="2.60358">
        <ele>767.20001220703</ele>
        <time>2021-07-03T08:25:26.000Z</time>
      </trkpt>
      <trkpt lat="43.54298" lon="2.60354">
        <ele>766.79998779297</ele>
        <time>2021-07-03T08:25:27.000Z</time>
      </trkpt>
      <trkpt lat="43.54299" lon="2.60352">
        <ele>766.20001220703</ele>
        <time>2021-07-03T08:25:28.000Z</time>
      </trkpt>
      <trkpt lat="43.543" lon="2.60351">
        <ele>765.79998779297</ele>
        <time>2021-07-03T08:25:29.000Z</time>
      </trkpt>
      <trkpt lat="43.543" lon="2.60351">
        <ele>765.40002441406</ele>
        <time>2021-07-03T08:25:30.000Z</time>
      </trkpt>
      <trkpt lat="43.54305" lon="2.60351">
        <ele>765.40002441406</ele>
        <time>2021-07-03T08:25:32.000Z</time>
      </trkpt>
      <trkpt lat="43.54313" lon="2.60351">
        <ele>765</ele>
        <time>2021-07-03T08:25:35.000Z</time>
      </trkpt>
      <trkpt lat="43.54316" lon="2.60351">
        <ele>764.59997558594</ele>
        <time>2021-07-03T08:25:36.000Z</time>
      </trkpt>
      <trkpt lat="43.54319" lon="2.6035">
        <ele>764.20001220703</ele>
        <time>2021-07-03T08:25:37.000Z</time>
      </trkpt>
      <trkpt lat="43.54322" lon="2.60351">
        <ele>763.79998779297</ele>
        <time>2021-07-03T08:25:38.000Z</time>
      </trkpt>
      <trkpt lat="43.54324" lon="2.60351">
        <ele>763.40002441406</ele>
        <time>2021-07-03T08:25:39.000Z</time>
      </trkpt>
      <trkpt lat="43.54333" lon="2.60351">
        <ele>763.40002441406</ele>
        <time>2021-07-03T08:25:43.000Z</time>
      </trkpt>
      <trkpt lat="43.54338" lon="2.60349">
        <ele>762.79998779297</ele>
        <time>2021-07-03T08:25:45.000Z</time>
      </trkpt>
      <trkpt lat="43.5434" lon="2.60347">
        <ele>762.40002441406</ele>
        <time>2021-07-03T08:25:46.000Z</time>
      </trkpt>
      <trkpt lat="43.54342" lon="2.60346">
        <ele>762</ele>
        <time>2021-07-03T08:25:47.000Z</time>
      </trkpt>
      <trkpt lat="43.54344" lon="2.60345">
        <ele>761.59997558594</ele>
        <time>2021-07-03T08:25:48.000Z</time>
      </trkpt>
      <trkpt lat="43.54345" lon="2.60344">
        <ele>761.20001220703</ele>
        <time>2021-07-03T08:25:49.000Z</time>
      </trkpt>
      <trkpt lat="43.54357" lon="2.60336">
        <ele>760.79998779297</ele>
        <time>2021-07-03T08:25:53.000Z</time>
      </trkpt>
      <trkpt lat="43.54359" lon="2.60334">
        <ele>760.20001220703</ele>
        <time>2021-07-03T08:25:54.000Z</time>
      </trkpt>
      <trkpt lat="43.54361" lon="2.60332">
        <ele>759.79998779297</ele>
        <time>2021-07-03T08:25:55.000Z</time>
      </trkpt>
      <trkpt lat="43.54365" lon="2.60329">
        <ele>759.40002441406</ele>
        <time>2021-07-03T08:25:56.000Z</time>
      </trkpt>
      <trkpt lat="43.54368" lon="2.60326">
        <ele>759</ele>
        <time>2021-07-03T08:25:57.000Z</time>
      </trkpt>
      <trkpt lat="43.54376" lon="2.60315">
        <ele>759</ele>
        <time>2021-07-03T08:26:02.000Z</time>
      </trkpt>
      <trkpt lat="43.54373" lon="2.60306">
        <ele>759</ele>
        <time>2021-07-03T08:26:05.000Z</time>
      </trkpt>
      <trkpt lat="43.54371" lon="2.60296">
        <ele>759</ele>
        <time>2021-07-03T08:26:08.000Z</time>
      </trkpt>
      <trkpt lat="43.5437" lon="2.6029">
        <ele>759</ele>
        <time>2021-07-03T08:26:10.000Z</time>
      </trkpt>
      <trkpt lat="43.54365" lon="2.60267">
        <ele>759</ele>
        <time>2021-07-03T08:26:17.000Z</time>
      </trkpt>
      <trkpt lat="43.54359" lon="2.60243">
        <ele>759</ele>
        <time>2021-07-03T08:26:24.000Z</time>
      </trkpt>
      <trkpt lat="43.54356" lon="2.60239">
        <ele>759</ele>
        <time>2021-07-03T08:26:26.000Z</time>
      </trkpt>
      <trkpt lat="43.5435" lon="2.60235">
        <ele>759</ele>
        <time>2021-07-03T08:26:29.000Z</time>
      </trkpt>
      <trkpt lat="43.5434" lon="2.60228">
        <ele>759</ele>
        <time>2021-07-03T08:26:34.000Z</time>
      </trkpt>
      <trkpt lat="43.54328" lon="2.6022">
        <ele>759</ele>
        <time>2021-07-03T08:26:39.000Z</time>
      </trkpt>
      <trkpt lat="43.54323" lon="2.60214">
        <ele>758.59997558594</ele>
        <time>2021-07-03T08:26:42.000Z</time>
      </trkpt>
      <trkpt lat="43.54322" lon="2.6021">
        <ele>758.20001220703</ele>
        <time>2021-07-03T08:26:43.000Z</time>
      </trkpt>
      <trkpt lat="43.54324" lon="2.60205">
        <ele>757.79998779297</ele>
        <time>2021-07-03T08:26:44.000Z</time>
      </trkpt>
      <trkpt lat="43.54325" lon="2.60202">
        <ele>757.40002441406</ele>
        <time>2021-07-03T08:26:45.000Z</time>
      </trkpt>
      <trkpt lat="43.54327" lon="2.60199">
        <ele>757</ele>
        <time>2021-07-03T08:26:46.000Z</time>
      </trkpt>
      <trkpt lat="43.54332" lon="2.60196">
        <ele>757</ele>
        <time>2021-07-03T08:26:48.000Z</time>
      </trkpt>
      <trkpt lat="43.54341" lon="2.60192">
        <ele>757</ele>
        <time>2021-07-03T08:26:52.000Z</time>
      </trkpt>
      <trkpt lat="43.54357" lon="2.60181">
        <ele>757</ele>
        <time>2021-07-03T08:26:57.000Z</time>
      </trkpt>
      <trkpt lat="43.54374" lon="2.60172">
        <ele>757</ele>
        <time>2021-07-03T08:27:03.000Z</time>
      </trkpt>
      <trkpt lat="43.54382" lon="2.60169">
        <ele>756.40002441406</ele>
        <time>2021-07-03T08:27:06.000Z</time>
      </trkpt>
      <trkpt lat="43.54384" lon="2.60166">
        <ele>756</ele>
        <time>2021-07-03T08:27:07.000Z</time>
      </trkpt>
      <trkpt lat="43.54386" lon="2.60164">
        <ele>755.59997558594</ele>
        <time>2021-07-03T08:27:08.000Z</time>
      </trkpt>
      <trkpt lat="43.54388" lon="2.60162">
        <ele>755</ele>
        <time>2021-07-03T08:27:09.000Z</time>
      </trkpt>
      <trkpt lat="43.5439" lon="2.60159">
        <ele>754.59997558594</ele>
        <time>2021-07-03T08:27:10.000Z</time>
      </trkpt>
      <trkpt lat="43.54398" lon="2.6015">
        <ele>754.20001220703</ele>
        <time>2021-07-03T08:27:14.000Z</time>
      </trkpt>
      <trkpt lat="43.54401" lon="2.60147">
        <ele>753.79998779297</ele>
        <time>2021-07-03T08:27:15.000Z</time>
      </trkpt>
      <trkpt lat="43.54403" lon="2.60143">
        <ele>753.40002441406</ele>
        <time>2021-07-03T08:27:16.000Z</time>
      </trkpt>
      <trkpt lat="43.54406" lon="2.60139">
        <ele>753</ele>
        <time>2021-07-03T08:27:17.000Z</time>
      </trkpt>
      <trkpt lat="43.54409" lon="2.60135">
        <ele>752.40002441406</ele>
        <time>2021-07-03T08:27:18.000Z</time>
      </trkpt>
      <trkpt lat="43.54413" lon="2.6013">
        <ele>752.40002441406</ele>
        <time>2021-07-03T08:27:20.000Z</time>
      </trkpt>
      <trkpt lat="43.54429" lon="2.60111">
        <ele>752.40002441406</ele>
        <time>2021-07-03T08:27:26.000Z</time>
      </trkpt>
      <trkpt lat="43.54433" lon="2.60108">
        <ele>752</ele>
        <time>2021-07-03T08:27:27.000Z</time>
      </trkpt>
      <trkpt lat="43.54437" lon="2.60104">
        <ele>751.59997558594</ele>
        <time>2021-07-03T08:27:28.000Z</time>
      </trkpt>
      <trkpt lat="43.5444" lon="2.60101">
        <ele>751.20001220703</ele>
        <time>2021-07-03T08:27:29.000Z</time>
      </trkpt>
      <trkpt lat="43.54444" lon="2.60098">
        <ele>750.79998779297</ele>
        <time>2021-07-03T08:27:30.000Z</time>
      </trkpt>
      <trkpt lat="43.54448" lon="2.60095">
        <ele>750.40002441406</ele>
        <time>2021-07-03T08:27:31.000Z</time>
      </trkpt>
      <trkpt lat="43.54451" lon="2.60092">
        <ele>750.40002441406</ele>
        <time>2021-07-03T08:27:32.000Z</time>
      </trkpt>
      <trkpt lat="43.54461" lon="2.60085">
        <ele>750</ele>
        <time>2021-07-03T08:27:35.000Z</time>
      </trkpt>
      <trkpt lat="43.54464" lon="2.60082">
        <ele>749.40002441406</ele>
        <time>2021-07-03T08:27:36.000Z</time>
      </trkpt>
      <trkpt lat="43.54467" lon="2.60078">
        <ele>749</ele>
        <time>2021-07-03T08:27:37.000Z</time>
      </trkpt>
      <trkpt lat="43.5447" lon="2.60076">
        <ele>748.40002441406</ele>
        <time>2021-07-03T08:27:38.000Z</time>
      </trkpt>
      <trkpt lat="43.54473" lon="2.60073">
        <ele>748</ele>
        <time>2021-07-03T08:27:39.000Z</time>
      </trkpt>
      <trkpt lat="43.54479" lon="2.60067">
        <ele>747.59997558594</ele>
        <time>2021-07-03T08:27:41.000Z</time>
      </trkpt>
      <trkpt lat="43.54483" lon="2.60063">
        <ele>747.20001220703</ele>
        <time>2021-07-03T08:27:42.000Z</time>
      </trkpt>
      <trkpt lat="43.54486" lon="2.6006">
        <ele>746.59997558594</ele>
        <time>2021-07-03T08:27:43.000Z</time>
      </trkpt>
      <trkpt lat="43.54487" lon="2.60057">
        <ele>746.20001220703</ele>
        <time>2021-07-03T08:27:44.000Z</time>
      </trkpt>
      <trkpt lat="43.54489" lon="2.60055">
        <ele>745.79998779297</ele>
        <time>2021-07-03T08:27:45.000Z</time>
      </trkpt>
      <trkpt lat="43.54492" lon="2.60053">
        <ele>745.79998779297</ele>
        <time>2021-07-03T08:27:47.000Z</time>
      </trkpt>
      <trkpt lat="43.54494" lon="2.60053">
        <ele>745.79998779297</ele>
        <time>2021-07-03T08:27:49.000Z</time>
      </trkpt>
      <trkpt lat="43.54496" lon="2.60053">
        <ele>745.40002441406</ele>
        <time>2021-07-03T08:27:50.000Z</time>
      </trkpt>
      <trkpt lat="43.54497" lon="2.60053">
        <ele>745</ele>
        <time>2021-07-03T08:27:51.000Z</time>
      </trkpt>
      <trkpt lat="43.54499" lon="2.60053">
        <ele>744.59997558594</ele>
        <time>2021-07-03T08:27:52.000Z</time>
      </trkpt>
      <trkpt lat="43.54502" lon="2.60052">
        <ele>744</ele>
        <time>2021-07-03T08:27:53.000Z</time>
      </trkpt>
      <trkpt lat="43.54505" lon="2.60052">
        <ele>743.59997558594</ele>
        <time>2021-07-03T08:27:54.000Z</time>
      </trkpt>
      <trkpt lat="43.54507" lon="2.60052">
        <ele>743.20001220703</ele>
        <time>2021-07-03T08:27:55.000Z</time>
      </trkpt>
      <trkpt lat="43.5451" lon="2.6005">
        <ele>742.79998779297</ele>
        <time>2021-07-03T08:27:56.000Z</time>
      </trkpt>
      <trkpt lat="43.54515" lon="2.60047">
        <ele>742.40002441406</ele>
        <time>2021-07-03T08:27:57.000Z</time>
      </trkpt>
      <trkpt lat="43.54517" lon="2.60044">
        <ele>742</ele>
        <time>2021-07-03T08:27:58.000Z</time>
      </trkpt>
      <trkpt lat="43.54522" lon="2.6004">
        <ele>741.59997558594</ele>
        <time>2021-07-03T08:27:59.000Z</time>
      </trkpt>
      <trkpt lat="43.54544" lon="2.60022">
        <ele>741.20001220703</ele>
        <time>2021-07-03T08:28:04.000Z</time>
      </trkpt>
      <trkpt lat="43.54549" lon="2.60019">
        <ele>740.79998779297</ele>
        <time>2021-07-03T08:28:05.000Z</time>
      </trkpt>
      <trkpt lat="43.54553" lon="2.60016">
        <ele>740.40002441406</ele>
        <time>2021-07-03T08:28:06.000Z</time>
      </trkpt>
      <trkpt lat="43.54558" lon="2.60013">
        <ele>740</ele>
        <time>2021-07-03T08:28:07.000Z</time>
      </trkpt>
      <trkpt lat="43.54562" lon="2.6001">
        <ele>739.40002441406</ele>
        <time>2021-07-03T08:28:08.000Z</time>
      </trkpt>
      <trkpt lat="43.54574" lon="2.60001">
        <ele>739.40002441406</ele>
        <time>2021-07-03T08:28:11.000Z</time>
      </trkpt>
      <trkpt lat="43.54587" lon="2.59992">
        <ele>739</ele>
        <time>2021-07-03T08:28:16.000Z</time>
      </trkpt>
      <trkpt lat="43.54589" lon="2.59992">
        <ele>738.59997558594</ele>
        <time>2021-07-03T08:28:17.000Z</time>
      </trkpt>
      <trkpt lat="43.54593" lon="2.59991">
        <ele>738.20001220703</ele>
        <time>2021-07-03T08:28:18.000Z</time>
      </trkpt>
      <trkpt lat="43.54596" lon="2.59988">
        <ele>737.79998779297</ele>
        <time>2021-07-03T08:28:19.000Z</time>
      </trkpt>
      <trkpt lat="43.54598" lon="2.59987">
        <ele>737.40002441406</ele>
        <time>2021-07-03T08:28:20.000Z</time>
      </trkpt>
      <trkpt lat="43.546" lon="2.59985">
        <ele>737</ele>
        <time>2021-07-03T08:28:21.000Z</time>
      </trkpt>
      <trkpt lat="43.54601" lon="2.59983">
        <ele>736.40002441406</ele>
        <time>2021-07-03T08:28:22.000Z</time>
      </trkpt>
      <trkpt lat="43.54603" lon="2.59982">
        <ele>736</ele>
        <time>2021-07-03T08:28:23.000Z</time>
      </trkpt>
      <trkpt lat="43.54604" lon="2.59981">
        <ele>735.59997558594</ele>
        <time>2021-07-03T08:28:24.000Z</time>
      </trkpt>
      <trkpt lat="43.54605" lon="2.5998">
        <ele>735.20001220703</ele>
        <time>2021-07-03T08:28:25.000Z</time>
      </trkpt>
      <trkpt lat="43.54607" lon="2.59979">
        <ele>734.79998779297</ele>
        <time>2021-07-03T08:28:26.000Z</time>
      </trkpt>
      <trkpt lat="43.54609" lon="2.59978">
        <ele>734.20001220703</ele>
        <time>2021-07-03T08:28:27.000Z</time>
      </trkpt>
      <trkpt lat="43.54611" lon="2.59977">
        <ele>733.79998779297</ele>
        <time>2021-07-03T08:28:28.000Z</time>
      </trkpt>
      <trkpt lat="43.54614" lon="2.59976">
        <ele>733.40002441406</ele>
        <time>2021-07-03T08:28:29.000Z</time>
      </trkpt>
      <trkpt lat="43.54618" lon="2.59972">
        <ele>732.79998779297</ele>
        <time>2021-07-03T08:28:30.000Z</time>
      </trkpt>
      <trkpt lat="43.54622" lon="2.5997">
        <ele>732.20001220703</ele>
        <time>2021-07-03T08:28:31.000Z</time>
      </trkpt>
      <trkpt lat="43.54625" lon="2.59968">
        <ele>731.79998779297</ele>
        <time>2021-07-03T08:28:32.000Z</time>
      </trkpt>
      <trkpt lat="43.54628" lon="2.59965">
        <ele>731.20001220703</ele>
        <time>2021-07-03T08:28:33.000Z</time>
      </trkpt>
      <trkpt lat="43.54632" lon="2.59963">
        <ele>730.79998779297</ele>
        <time>2021-07-03T08:28:34.000Z</time>
      </trkpt>
      <trkpt lat="43.54635" lon="2.59961">
        <ele>730.20001220703</ele>
        <time>2021-07-03T08:28:35.000Z</time>
      </trkpt>
      <trkpt lat="43.54638" lon="2.59959">
        <ele>729.79998779297</ele>
        <time>2021-07-03T08:28:36.000Z</time>
      </trkpt>
      <trkpt lat="43.54641" lon="2.59956">
        <ele>729</ele>
        <time>2021-07-03T08:28:37.000Z</time>
      </trkpt>
      <trkpt lat="43.54644" lon="2.59953">
        <ele>728.40002441406</ele>
        <time>2021-07-03T08:28:38.000Z</time>
      </trkpt>
      <trkpt lat="43.54648" lon="2.59944">
        <ele>728</ele>
        <time>2021-07-03T08:28:40.000Z</time>
      </trkpt>
      <trkpt lat="43.54651" lon="2.59941">
        <ele>727.59997558594</ele>
        <time>2021-07-03T08:28:41.000Z</time>
      </trkpt>
      <trkpt lat="43.54652" lon="2.59937">
        <ele>727.20001220703</ele>
        <time>2021-07-03T08:28:42.000Z</time>
      </trkpt>
      <trkpt lat="43.54653" lon="2.59933">
        <ele>726.79998779297</ele>
        <time>2021-07-03T08:28:43.000Z</time>
      </trkpt>
      <trkpt lat="43.54655" lon="2.5993">
        <ele>726.20001220703</ele>
        <time>2021-07-03T08:28:44.000Z</time>
      </trkpt>
      <trkpt lat="43.54657" lon="2.59923">
        <ele>726.20001220703</ele>
        <time>2021-07-03T08:28:46.000Z</time>
      </trkpt>
      <trkpt lat="43.54657" lon="2.59916">
        <ele>725.79998779297</ele>
        <time>2021-07-03T08:28:48.000Z</time>
      </trkpt>
      <trkpt lat="43.54658" lon="2.59913">
        <ele>725.40002441406</ele>
        <time>2021-07-03T08:28:49.000Z</time>
      </trkpt>
      <trkpt lat="43.54659" lon="2.59909">
        <ele>725</ele>
        <time>2021-07-03T08:28:50.000Z</time>
      </trkpt>
      <trkpt lat="43.54658" lon="2.59905">
        <ele>724.59997558594</ele>
        <time>2021-07-03T08:28:51.000Z</time>
      </trkpt>
      <trkpt lat="43.54658" lon="2.59901">
        <ele>724.20001220703</ele>
        <time>2021-07-03T08:28:52.000Z</time>
      </trkpt>
      <trkpt lat="43.54658" lon="2.59895">
        <ele>724.20001220703</ele>
        <time>2021-07-03T08:28:54.000Z</time>
      </trkpt>
      <trkpt lat="43.54659" lon="2.59891">
        <ele>724.20001220703</ele>
        <time>2021-07-03T08:28:56.000Z</time>
      </trkpt>
      <trkpt lat="43.54658" lon="2.59891">
        <ele>723.79998779297</ele>
        <time>2021-07-03T08:28:57.000Z</time>
      </trkpt>
      <trkpt lat="43.54651" lon="2.59863">
        <ele>722</ele>
        <time>2021-07-03T08:29:26.000Z</time>
      </trkpt>
      <trkpt lat="43.54651" lon="2.59861">
        <ele>721.59997558594</ele>
        <time>2021-07-03T08:29:27.000Z</time>
      </trkpt>
      <trkpt lat="43.5465" lon="2.59859">
        <ele>721.20001220703</ele>
        <time>2021-07-03T08:29:28.000Z</time>
      </trkpt>
      <trkpt lat="43.54649" lon="2.59857">
        <ele>720.79998779297</ele>
        <time>2021-07-03T08:29:29.000Z</time>
      </trkpt>
      <trkpt lat="43.54649" lon="2.59858">
        <ele>720.40002441406</ele>
        <time>2021-07-03T08:29:30.000Z</time>
      </trkpt>
      <trkpt lat="43.54648" lon="2.59857">
        <ele>720</ele>
        <time>2021-07-03T08:29:31.000Z</time>
      </trkpt>
      <trkpt lat="43.54647" lon="2.59856">
        <ele>720</ele>
        <time>2021-07-03T08:29:32.000Z</time>
      </trkpt>
      <trkpt lat="43.54647" lon="2.59856">
        <ele>720</ele>
        <time>2021-07-03T08:29:33.000Z</time>
      </trkpt>
      <trkpt lat="43.54646" lon="2.59853">
        <ele>719.59997558594</ele>
        <time>2021-07-03T08:29:34.000Z</time>
      </trkpt>
      <trkpt lat="43.54647" lon="2.59854">
        <ele>719.20001220703</ele>
        <time>2021-07-03T08:29:35.000Z</time>
      </trkpt>
      <trkpt lat="43.54643" lon="2.59851">
        <ele>718</ele>
        <time>2021-07-03T08:29:56.000Z</time>
      </trkpt>
      <trkpt lat="43.54641" lon="2.59848">
        <ele>717.59997558594</ele>
        <time>2021-07-03T08:29:57.000Z</time>
      </trkpt>
      <trkpt lat="43.5464" lon="2.59845">
        <ele>717.20001220703</ele>
        <time>2021-07-03T08:29:58.000Z</time>
      </trkpt>
      <trkpt lat="43.54638" lon="2.59842">
        <ele>716.59997558594</ele>
        <time>2021-07-03T08:29:59.000Z</time>
      </trkpt>
      <trkpt lat="43.54636" lon="2.5984">
        <ele>716.20001220703</ele>
        <time>2021-07-03T08:30:00.000Z</time>
      </trkpt>
      <trkpt lat="43.54635" lon="2.59838">
        <ele>715.79998779297</ele>
        <time>2021-07-03T08:30:01.000Z</time>
      </trkpt>
      <trkpt lat="43.54631" lon="2.59832">
        <ele>715.79998779297</ele>
        <time>2021-07-03T08:30:04.000Z</time>
      </trkpt>
      <trkpt lat="43.54625" lon="2.59827">
        <ele>715.40002441406</ele>
        <time>2021-07-03T08:30:06.000Z</time>
      </trkpt>
      <trkpt lat="43.54622" lon="2.59825">
        <ele>715</ele>
        <time>2021-07-03T08:30:07.000Z</time>
      </trkpt>
      <trkpt lat="43.54619" lon="2.59824">
        <ele>714.59997558594</ele>
        <time>2021-07-03T08:30:08.000Z</time>
      </trkpt>
      <trkpt lat="43.54615" lon="2.59824">
        <ele>714</ele>
        <time>2021-07-03T08:30:09.000Z</time>
      </trkpt>
      <trkpt lat="43.54612" lon="2.59824">
        <ele>713.59997558594</ele>
        <time>2021-07-03T08:30:10.000Z</time>
      </trkpt>
      <trkpt lat="43.54605" lon="2.59821">
        <ele>713.59997558594</ele>
        <time>2021-07-03T08:30:14.000Z</time>
      </trkpt>
      <trkpt lat="43.54603" lon="2.5982">
        <ele>712.40002441406</ele>
        <time>2021-07-03T08:30:16.000Z</time>
      </trkpt>
      <trkpt lat="43.54601" lon="2.59819">
        <ele>712</ele>
        <time>2021-07-03T08:30:17.000Z</time>
      </trkpt>
      <trkpt lat="43.54599" lon="2.59816">
        <ele>711.59997558594</ele>
        <time>2021-07-03T08:30:18.000Z</time>
      </trkpt>
      <trkpt lat="43.54586" lon="2.59807">
        <ele>711.20001220703</ele>
        <time>2021-07-03T08:30:22.000Z</time>
      </trkpt>
      <trkpt lat="43.54582" lon="2.59805">
        <ele>710.79998779297</ele>
        <time>2021-07-03T08:30:23.000Z</time>
      </trkpt>
      <trkpt lat="43.54579" lon="2.59802">
        <ele>710.40002441406</ele>
        <time>2021-07-03T08:30:24.000Z</time>
      </trkpt>
      <trkpt lat="43.54577" lon="2.59798">
        <ele>710</ele>
        <time>2021-07-03T08:30:25.000Z</time>
      </trkpt>
      <trkpt lat="43.54575" lon="2.59794">
        <ele>709.59997558594</ele>
        <time>2021-07-03T08:30:26.000Z</time>
      </trkpt>
      <trkpt lat="43.54576" lon="2.59784">
        <ele>709.20001220703</ele>
        <time>2021-07-03T08:30:28.000Z</time>
      </trkpt>
      <trkpt lat="43.54576" lon="2.5978">
        <ele>708.79998779297</ele>
        <time>2021-07-03T08:30:29.000Z</time>
      </trkpt>
      <trkpt lat="43.54576" lon="2.59775">
        <ele>708.20001220703</ele>
        <time>2021-07-03T08:30:30.000Z</time>
      </trkpt>
      <trkpt lat="43.54576" lon="2.5977">
        <ele>707.79998779297</ele>
        <time>2021-07-03T08:30:31.000Z</time>
      </trkpt>
      <trkpt lat="43.54577" lon="2.59766">
        <ele>707.40002441406</ele>
        <time>2021-07-03T08:30:32.000Z</time>
      </trkpt>
      <trkpt lat="43.54578" lon="2.59762">
        <ele>707.40002441406</ele>
        <time>2021-07-03T08:30:33.000Z</time>
      </trkpt>
      <trkpt lat="43.54583" lon="2.5973">
        <ele>707.40002441406</ele>
        <time>2021-07-03T08:30:39.000Z</time>
      </trkpt>
      <trkpt lat="43.54586" lon="2.59721">
        <ele>707.40002441406</ele>
        <time>2021-07-03T08:30:41.000Z</time>
      </trkpt>
      <trkpt lat="43.5459" lon="2.59713">
        <ele>707.40002441406</ele>
        <time>2021-07-03T08:30:43.000Z</time>
      </trkpt>
      <trkpt lat="43.54592" lon="2.59705">
        <ele>707.40002441406</ele>
        <time>2021-07-03T08:30:46.000Z</time>
      </trkpt>
      <trkpt lat="43.5459" lon="2.59703">
        <ele>707.40002441406</ele>
        <time>2021-07-03T08:30:47.000Z</time>
      </trkpt>
      <trkpt lat="43.54576" lon="2.59689">
        <ele>707.40002441406</ele>
        <time>2021-07-03T08:30:52.000Z</time>
      </trkpt>
      <trkpt lat="43.54569" lon="2.59686">
        <ele>707.79998779297</ele>
        <time>2021-07-03T08:30:55.000Z</time>
      </trkpt>
      <trkpt lat="43.54567" lon="2.59686">
        <ele>708.20001220703</ele>
        <time>2021-07-03T08:30:56.000Z</time>
      </trkpt>
      <trkpt lat="43.54563" lon="2.59684">
        <ele>708.79998779297</ele>
        <time>2021-07-03T08:30:57.000Z</time>
      </trkpt>
      <trkpt lat="43.5456" lon="2.59682">
        <ele>709.20001220703</ele>
        <time>2021-07-03T08:30:58.000Z</time>
      </trkpt>
      <trkpt lat="43.54558" lon="2.59681">
        <ele>709.59997558594</ele>
        <time>2021-07-03T08:30:59.000Z</time>
      </trkpt>
      <trkpt lat="43.54551" lon="2.5968">
        <ele>709.59997558594</ele>
        <time>2021-07-03T08:31:02.000Z</time>
      </trkpt>
      <trkpt lat="43.54545" lon="2.59679">
        <ele>710.20001220703</ele>
        <time>2021-07-03T08:31:04.000Z</time>
      </trkpt>
      <trkpt lat="43.54543" lon="2.59678">
        <ele>710.59997558594</ele>
        <time>2021-07-03T08:31:05.000Z</time>
      </trkpt>
      <trkpt lat="43.5454" lon="2.59678">
        <ele>711.79998779297</ele>
        <time>2021-07-03T08:31:06.000Z</time>
      </trkpt>
      <trkpt lat="43.54538" lon="2.59678">
        <ele>712.40002441406</ele>
        <time>2021-07-03T08:31:07.000Z</time>
      </trkpt>
      <trkpt lat="43.54527" lon="2.59675">
        <ele>712.79998779297</ele>
        <time>2021-07-03T08:31:11.000Z</time>
      </trkpt>
      <trkpt lat="43.54524" lon="2.59673">
        <ele>713.20001220703</ele>
        <time>2021-07-03T08:31:12.000Z</time>
      </trkpt>
      <trkpt lat="43.54522" lon="2.59673">
        <ele>713.59997558594</ele>
        <time>2021-07-03T08:31:13.000Z</time>
      </trkpt>
      <trkpt lat="43.54519" lon="2.59672">
        <ele>714</ele>
        <time>2021-07-03T08:31:14.000Z</time>
      </trkpt>
      <trkpt lat="43.54517" lon="2.59671">
        <ele>714.40002441406</ele>
        <time>2021-07-03T08:31:15.000Z</time>
      </trkpt>
      <trkpt lat="43.54515" lon="2.5967">
        <ele>714.40002441406</ele>
        <time>2021-07-03T08:31:16.000Z</time>
      </trkpt>
      <trkpt lat="43.54515" lon="2.59666">
        <ele>714.40002441406</ele>
        <time>2021-07-03T08:31:18.000Z</time>
      </trkpt>
      <trkpt lat="43.54515" lon="2.5966">
        <ele>714.79998779297</ele>
        <time>2021-07-03T08:31:21.000Z</time>
      </trkpt>
      <trkpt lat="43.54515" lon="2.59657">
        <ele>715.40002441406</ele>
        <time>2021-07-03T08:31:22.000Z</time>
      </trkpt>
      <trkpt lat="43.54515" lon="2.59655">
        <ele>715.79998779297</ele>
        <time>2021-07-03T08:31:23.000Z</time>
      </trkpt>
      <trkpt lat="43.54514" lon="2.59652">
        <ele>716.40002441406</ele>
        <time>2021-07-03T08:31:24.000Z</time>
      </trkpt>
      <trkpt lat="43.54515" lon="2.59649">
        <ele>716.79998779297</ele>
        <time>2021-07-03T08:31:25.000Z</time>
      </trkpt>
      <trkpt lat="43.54515" lon="2.59646">
        <ele>716.79998779297</ele>
        <time>2021-07-03T08:31:26.000Z</time>
      </trkpt>
      <trkpt lat="43.54515" lon="2.59643">
        <ele>717.20001220703</ele>
        <time>2021-07-03T08:31:27.000Z</time>
      </trkpt>
      <trkpt lat="43.54515" lon="2.59639">
        <ele>717.79998779297</ele>
        <time>2021-07-03T08:31:28.000Z</time>
      </trkpt>
      <trkpt lat="43.54515" lon="2.59637">
        <ele>718.20001220703</ele>
        <time>2021-07-03T08:31:29.000Z</time>
      </trkpt>
      <trkpt lat="43.54516" lon="2.59635">
        <ele>719.20001220703</ele>
        <time>2021-07-03T08:31:30.000Z</time>
      </trkpt>
      <trkpt lat="43.54517" lon="2.59632">
        <ele>719.20001220703</ele>
        <time>2021-07-03T08:31:31.000Z</time>
      </trkpt>
      <trkpt lat="43.54519" lon="2.59622">
        <ele>719.59997558594</ele>
        <time>2021-07-03T08:31:34.000Z</time>
      </trkpt>
      <trkpt lat="43.5452" lon="2.59617">
        <ele>720</ele>
        <time>2021-07-03T08:31:35.000Z</time>
      </trkpt>
      <trkpt lat="43.5452" lon="2.59615">
        <ele>720.40002441406</ele>
        <time>2021-07-03T08:31:36.000Z</time>
      </trkpt>
      <trkpt lat="43.54521" lon="2.59611">
        <ele>720.79998779297</ele>
        <time>2021-07-03T08:31:37.000Z</time>
      </trkpt>
      <trkpt lat="43.54521" lon="2.59608">
        <ele>721.20001220703</ele>
        <time>2021-07-03T08:31:38.000Z</time>
      </trkpt>
      <trkpt lat="43.54523" lon="2.596">
        <ele>721.20001220703</ele>
        <time>2021-07-03T08:31:41.000Z</time>
      </trkpt>
      <trkpt lat="43.54523" lon="2.59599">
        <ele>721.20001220703</ele>
        <time>2021-07-03T08:31:42.000Z</time>
      </trkpt>
      <trkpt lat="43.54523" lon="2.59599">
        <ele>721.20001220703</ele>
        <time>2021-07-03T08:32:14.000Z</time>
      </trkpt>
      <trkpt lat="43.54524" lon="2.59596">
        <ele>721.20001220703</ele>
        <time>2021-07-03T08:32:15.000Z</time>
      </trkpt>
      <trkpt lat="43.54529" lon="2.59571">
        <ele>721.20001220703</ele>
        <time>2021-07-03T08:32:20.000Z</time>
      </trkpt>
      <trkpt lat="43.54532" lon="2.59561">
        <ele>721.59997558594</ele>
        <time>2021-07-03T08:32:22.000Z</time>
      </trkpt>
      <trkpt lat="43.54533" lon="2.59556">
        <ele>722.20001220703</ele>
        <time>2021-07-03T08:32:23.000Z</time>
      </trkpt>
      <trkpt lat="43.54534" lon="2.5955">
        <ele>722.59997558594</ele>
        <time>2021-07-03T08:32:24.000Z</time>
      </trkpt>
      <trkpt lat="43.54535" lon="2.59544">
        <ele>723</ele>
        <time>2021-07-03T08:32:25.000Z</time>
      </trkpt>
      <trkpt lat="43.54537" lon="2.59539">
        <ele>723.40002441406</ele>
        <time>2021-07-03T08:32:26.000Z</time>
      </trkpt>
      <trkpt lat="43.54538" lon="2.59534">
        <ele>723.40002441406</ele>
        <time>2021-07-03T08:32:27.000Z</time>
      </trkpt>
      <trkpt lat="43.54549" lon="2.59499">
        <ele>723.40002441406</ele>
        <time>2021-07-03T08:32:33.000Z</time>
      </trkpt>
      <trkpt lat="43.54561" lon="2.59451">
        <ele>723.79998779297</ele>
        <time>2021-07-03T08:32:41.000Z</time>
      </trkpt>
      <trkpt lat="43.54562" lon="2.59445">
        <ele>724.40002441406</ele>
        <time>2021-07-03T08:32:42.000Z</time>
      </trkpt>
      <trkpt lat="43.54564" lon="2.59439">
        <ele>724.79998779297</ele>
        <time>2021-07-03T08:32:43.000Z</time>
      </trkpt>
      <trkpt lat="43.54565" lon="2.59434">
        <ele>725.59997558594</ele>
        <time>2021-07-03T08:32:44.000Z</time>
      </trkpt>
      <trkpt lat="43.5457" lon="2.59414">
        <ele>725.59997558594</ele>
        <time>2021-07-03T08:32:48.000Z</time>
      </trkpt>
      <trkpt lat="43.54572" lon="2.59409">
        <ele>726</ele>
        <time>2021-07-03T08:32:49.000Z</time>
      </trkpt>
      <trkpt lat="43.54573" lon="2.59404">
        <ele>726.40002441406</ele>
        <time>2021-07-03T08:32:50.000Z</time>
      </trkpt>
      <trkpt lat="43.54574" lon="2.594">
        <ele>727</ele>
        <time>2021-07-03T08:32:51.000Z</time>
      </trkpt>
      <trkpt lat="43.54576" lon="2.59395">
        <ele>727.40002441406</ele>
        <time>2021-07-03T08:32:52.000Z</time>
      </trkpt>
      <trkpt lat="43.54577" lon="2.5939">
        <ele>727.79998779297</ele>
        <time>2021-07-03T08:32:53.000Z</time>
      </trkpt>
      <trkpt lat="43.54578" lon="2.59386">
        <ele>727.79998779297</ele>
        <time>2021-07-03T08:32:54.000Z</time>
      </trkpt>
      <trkpt lat="43.54586" lon="2.59376">
        <ele>727.79998779297</ele>
        <time>2021-07-03T08:32:59.000Z</time>
      </trkpt>
      <trkpt lat="43.54589" lon="2.59372">
        <ele>728.20001220703</ele>
        <time>2021-07-03T08:33:01.000Z</time>
      </trkpt>
      <trkpt lat="43.54591" lon="2.59369">
        <ele>728.59997558594</ele>
        <time>2021-07-03T08:33:02.000Z</time>
      </trkpt>
      <trkpt lat="43.54593" lon="2.59367">
        <ele>729</ele>
        <time>2021-07-03T08:33:03.000Z</time>
      </trkpt>
      <trkpt lat="43.54595" lon="2.59364">
        <ele>729.40002441406</ele>
        <time>2021-07-03T08:33:04.000Z</time>
      </trkpt>
      <trkpt lat="43.54596" lon="2.59362">
        <ele>729.79998779297</ele>
        <time>2021-07-03T08:33:05.000Z</time>
      </trkpt>
      <trkpt lat="43.54601" lon="2.59356">
        <ele>730.40002441406</ele>
        <time>2021-07-03T08:33:07.000Z</time>
      </trkpt>
      <trkpt lat="43.54603" lon="2.59354">
        <ele>730.79998779297</ele>
        <time>2021-07-03T08:33:08.000Z</time>
      </trkpt>
      <trkpt lat="43.54606" lon="2.59351">
        <ele>731.59997558594</ele>
        <time>2021-07-03T08:33:09.000Z</time>
      </trkpt>
      <trkpt lat="43.54608" lon="2.59349">
        <ele>732</ele>
        <time>2021-07-03T08:33:10.000Z</time>
      </trkpt>
      <trkpt lat="43.54614" lon="2.59342">
        <ele>732.40002441406</ele>
        <time>2021-07-03T08:33:13.000Z</time>
      </trkpt>
      <trkpt lat="43.54616" lon="2.5934">
        <ele>733</ele>
        <time>2021-07-03T08:33:14.000Z</time>
      </trkpt>
      <trkpt lat="43.54618" lon="2.59337">
        <ele>733.40002441406</ele>
        <time>2021-07-03T08:33:15.000Z</time>
      </trkpt>
      <trkpt lat="43.5462" lon="2.59335">
        <ele>733.79998779297</ele>
        <time>2021-07-03T08:33:16.000Z</time>
      </trkpt>
      <trkpt lat="43.54621" lon="2.59332">
        <ele>734.40002441406</ele>
        <time>2021-07-03T08:33:17.000Z</time>
      </trkpt>
      <trkpt lat="43.54625" lon="2.59326">
        <ele>734.40002441406</ele>
        <time>2021-07-03T08:33:19.000Z</time>
      </trkpt>
      <trkpt lat="43.54632" lon="2.59311">
        <ele>734.79998779297</ele>
        <time>2021-07-03T08:33:24.000Z</time>
      </trkpt>
      <trkpt lat="43.54634" lon="2.59308">
        <ele>735.20001220703</ele>
        <time>2021-07-03T08:33:25.000Z</time>
      </trkpt>
      <trkpt lat="43.54635" lon="2.59304">
        <ele>735.59997558594</ele>
        <time>2021-07-03T08:33:26.000Z</time>
      </trkpt>
      <trkpt lat="43.54637" lon="2.59301">
        <ele>736</ele>
        <time>2021-07-03T08:33:27.000Z</time>
      </trkpt>
      <trkpt lat="43.54638" lon="2.59297">
        <ele>736.40002441406</ele>
        <time>2021-07-03T08:33:28.000Z</time>
      </trkpt>
      <trkpt lat="43.54641" lon="2.5929">
        <ele>736.40002441406</ele>
        <time>2021-07-03T08:33:30.000Z</time>
      </trkpt>
      <trkpt lat="43.54645" lon="2.5927">
        <ele>736.40002441406</ele>
        <time>2021-07-03T08:33:35.000Z</time>
      </trkpt>
      <trkpt lat="43.54652" lon="2.5925">
        <ele>736.40002441406</ele>
        <time>2021-07-03T08:33:40.000Z</time>
      </trkpt>
      <trkpt lat="43.54658" lon="2.59236">
        <ele>736.79998779297</ele>
        <time>2021-07-03T08:33:44.000Z</time>
      </trkpt>
      <trkpt lat="43.5466" lon="2.59233">
        <ele>737.20001220703</ele>
        <time>2021-07-03T08:33:45.000Z</time>
      </trkpt>
      <trkpt lat="43.54662" lon="2.5923">
        <ele>737.59997558594</ele>
        <time>2021-07-03T08:33:46.000Z</time>
      </trkpt>
      <trkpt lat="43.54663" lon="2.59227">
        <ele>738</ele>
        <time>2021-07-03T08:33:47.000Z</time>
      </trkpt>
      <trkpt lat="43.54665" lon="2.59224">
        <ele>738.40002441406</ele>
        <time>2021-07-03T08:33:48.000Z</time>
      </trkpt>
      <trkpt lat="43.54672" lon="2.59214">
        <ele>738.40002441406</ele>
        <time>2021-07-03T08:33:52.000Z</time>
      </trkpt>
      <trkpt lat="43.54678" lon="2.59205">
        <ele>738.79998779297</ele>
        <time>2021-07-03T08:33:56.000Z</time>
      </trkpt>
      <trkpt lat="43.54679" lon="2.59203">
        <ele>739.40002441406</ele>
        <time>2021-07-03T08:33:57.000Z</time>
      </trkpt>
      <trkpt lat="43.5468" lon="2.592">
        <ele>740.20001220703</ele>
        <time>2021-07-03T08:33:58.000Z</time>
      </trkpt>
      <trkpt lat="43.54682" lon="2.59198">
        <ele>740.59997558594</ele>
        <time>2021-07-03T08:33:59.000Z</time>
      </trkpt>
      <trkpt lat="43.54692" lon="2.59185">
        <ele>741</ele>
        <time>2021-07-03T08:34:04.000Z</time>
      </trkpt>
      <trkpt lat="43.54694" lon="2.59183">
        <ele>741.59997558594</ele>
        <time>2021-07-03T08:34:05.000Z</time>
      </trkpt>
      <trkpt lat="43.54695" lon="2.59181">
        <ele>742</ele>
        <time>2021-07-03T08:34:06.000Z</time>
      </trkpt>
      <trkpt lat="43.54697" lon="2.59178">
        <ele>742.40002441406</ele>
        <time>2021-07-03T08:34:07.000Z</time>
      </trkpt>
      <trkpt lat="43.54698" lon="2.59177">
        <ele>743</ele>
        <time>2021-07-03T08:34:08.000Z</time>
      </trkpt>
      <trkpt lat="43.54699" lon="2.59176">
        <ele>743</ele>
        <time>2021-07-03T08:34:09.000Z</time>
      </trkpt>
      <trkpt lat="43.54703" lon="2.59168">
        <ele>743.40002441406</ele>
        <time>2021-07-03T08:34:13.000Z</time>
      </trkpt>
      <trkpt lat="43.54704" lon="2.59166">
        <ele>743.79998779297</ele>
        <time>2021-07-03T08:34:14.000Z</time>
      </trkpt>
      <trkpt lat="43.54705" lon="2.59163">
        <ele>744.20001220703</ele>
        <time>2021-07-03T08:34:15.000Z</time>
      </trkpt>
      <trkpt lat="43.54706" lon="2.59161">
        <ele>744.59997558594</ele>
        <time>2021-07-03T08:34:16.000Z</time>
      </trkpt>
      <trkpt lat="43.54707" lon="2.59159">
        <ele>745</ele>
        <time>2021-07-03T08:34:17.000Z</time>
      </trkpt>
      <trkpt lat="43.54708" lon="2.59157">
        <ele>745</ele>
        <time>2021-07-03T08:34:18.000Z</time>
      </trkpt>
      <trkpt lat="43.54714" lon="2.59143">
        <ele>746</ele>
        <time>2021-07-03T08:34:23.000Z</time>
      </trkpt>
      <trkpt lat="43.54715" lon="2.5914">
        <ele>746.40002441406</ele>
        <time>2021-07-03T08:34:24.000Z</time>
      </trkpt>
      <trkpt lat="43.54716" lon="2.59137">
        <ele>746.79998779297</ele>
        <time>2021-07-03T08:34:25.000Z</time>
      </trkpt>
      <trkpt lat="43.54717" lon="2.59134">
        <ele>747.40002441406</ele>
        <time>2021-07-03T08:34:26.000Z</time>
      </trkpt>
      <trkpt lat="43.5472" lon="2.59122">
        <ele>747.40002441406</ele>
        <time>2021-07-03T08:34:30.000Z</time>
      </trkpt>
      <trkpt lat="43.54721" lon="2.59119">
        <ele>747.79998779297</ele>
        <time>2021-07-03T08:34:31.000Z</time>
      </trkpt>
      <trkpt lat="43.54722" lon="2.59116">
        <ele>748.20001220703</ele>
        <time>2021-07-03T08:34:32.000Z</time>
      </trkpt>
      <trkpt lat="43.54723" lon="2.59114">
        <ele>748.59997558594</ele>
        <time>2021-07-03T08:34:33.000Z</time>
      </trkpt>
      <trkpt lat="43.54724" lon="2.59112">
        <ele>749</ele>
        <time>2021-07-03T08:34:34.000Z</time>
      </trkpt>
      <trkpt lat="43.54725" lon="2.59109">
        <ele>749.40002441406</ele>
        <time>2021-07-03T08:34:35.000Z</time>
      </trkpt>
      <trkpt lat="43.54734" lon="2.59092">
        <ele>749.79998779297</ele>
        <time>2021-07-03T08:34:40.000Z</time>
      </trkpt>
      <trkpt lat="43.54736" lon="2.59089">
        <ele>750.20001220703</ele>
        <time>2021-07-03T08:34:41.000Z</time>
      </trkpt>
      <trkpt lat="43.54737" lon="2.59087">
        <ele>750.59997558594</ele>
        <time>2021-07-03T08:34:42.000Z</time>
      </trkpt>
      <trkpt lat="43.54738" lon="2.59084">
        <ele>751</ele>
        <time>2021-07-03T08:34:43.000Z</time>
      </trkpt>
      <trkpt lat="43.54739" lon="2.59082">
        <ele>751.40002441406</ele>
        <time>2021-07-03T08:34:44.000Z</time>
      </trkpt>
      <trkpt lat="43.54741" lon="2.5908">
        <ele>751.40002441406</ele>
        <time>2021-07-03T08:34:45.000Z</time>
      </trkpt>
      <trkpt lat="43.54743" lon="2.59072">
        <ele>752.40002441406</ele>
        <time>2021-07-03T08:34:48.000Z</time>
      </trkpt>
      <trkpt lat="43.54744" lon="2.59069">
        <ele>752.79998779297</ele>
        <time>2021-07-03T08:34:49.000Z</time>
      </trkpt>
      <trkpt lat="43.54745" lon="2.59066">
        <ele>753.20001220703</ele>
        <time>2021-07-03T08:34:50.000Z</time>
      </trkpt>
      <trkpt lat="43.54746" lon="2.59064">
        <ele>753.59997558594</ele>
        <time>2021-07-03T08:34:51.000Z</time>
      </trkpt>
      <trkpt lat="43.54749" lon="2.59059">
        <ele>753.59997558594</ele>
        <time>2021-07-03T08:34:53.000Z</time>
      </trkpt>
      <trkpt lat="43.54749" lon="2.59056">
        <ele>754</ele>
        <time>2021-07-03T08:34:54.000Z</time>
      </trkpt>
      <trkpt lat="43.5475" lon="2.59054">
        <ele>754.59997558594</ele>
        <time>2021-07-03T08:34:55.000Z</time>
      </trkpt>
      <trkpt lat="43.5475" lon="2.59052">
        <ele>755</ele>
        <time>2021-07-03T08:34:56.000Z</time>
      </trkpt>
      <trkpt lat="43.54751" lon="2.5905">
        <ele>755.40002441406</ele>
        <time>2021-07-03T08:34:57.000Z</time>
      </trkpt>
      <trkpt lat="43.54752" lon="2.59045">
        <ele>755.79998779297</ele>
        <time>2021-07-03T08:34:58.000Z</time>
      </trkpt>
      <trkpt lat="43.54755" lon="2.59036">
        <ele>756.20001220703</ele>
        <time>2021-07-03T08:35:00.000Z</time>
      </trkpt>
      <trkpt lat="43.54755" lon="2.59033">
        <ele>756.59997558594</ele>
        <time>2021-07-03T08:35:01.000Z</time>
      </trkpt>
      <trkpt lat="43.54755" lon="2.59028">
        <ele>757</ele>
        <time>2021-07-03T08:35:02.000Z</time>
      </trkpt>
      <trkpt lat="43.54756" lon="2.59024">
        <ele>757.40002441406</ele>
        <time>2021-07-03T08:35:03.000Z</time>
      </trkpt>
      <trkpt lat="43.54756" lon="2.59021">
        <ele>757.79998779297</ele>
        <time>2021-07-03T08:35:04.000Z</time>
      </trkpt>
      <trkpt lat="43.54757" lon="2.59017">
        <ele>758.20001220703</ele>
        <time>2021-07-03T08:35:05.000Z</time>
      </trkpt>
      <trkpt lat="43.54758" lon="2.59013">
        <ele>758.79998779297</ele>
        <time>2021-07-03T08:35:06.000Z</time>
      </trkpt>
      <trkpt lat="43.54759" lon="2.59011">
        <ele>759.20001220703</ele>
        <time>2021-07-03T08:35:07.000Z</time>
      </trkpt>
      <trkpt lat="43.5476" lon="2.59007">
        <ele>759.59997558594</ele>
        <time>2021-07-03T08:35:08.000Z</time>
      </trkpt>
      <trkpt lat="43.54762" lon="2.59005">
        <ele>760</ele>
        <time>2021-07-03T08:35:09.000Z</time>
      </trkpt>
      <trkpt lat="43.54762" lon="2.58998">
        <ele>760.40002441406</ele>
        <time>2021-07-03T08:35:11.000Z</time>
      </trkpt>
      <trkpt lat="43.54762" lon="2.58996">
        <ele>760.79998779297</ele>
        <time>2021-07-03T08:35:12.000Z</time>
      </trkpt>
      <trkpt lat="43.54762" lon="2.58996">
        <ele>762</ele>
        <time>2021-07-03T08:35:44.000Z</time>
      </trkpt>
      <trkpt lat="43.54763" lon="2.58994">
        <ele>762</ele>
        <time>2021-07-03T08:35:45.000Z</time>
      </trkpt>
      <trkpt lat="43.54767" lon="2.58984">
        <ele>762</ele>
        <time>2021-07-03T08:35:49.000Z</time>
      </trkpt>
      <trkpt lat="43.54767" lon="2.58982">
        <ele>762</ele>
        <time>2021-07-03T08:35:50.000Z</time>
      </trkpt>
      <trkpt lat="43.54769" lon="2.58974">
        <ele>762.40002441406</ele>
        <time>2021-07-03T08:35:53.000Z</time>
      </trkpt>
      <trkpt lat="43.5477" lon="2.58971">
        <ele>763</ele>
        <time>2021-07-03T08:35:54.000Z</time>
      </trkpt>
      <trkpt lat="43.5477" lon="2.58968">
        <ele>763.40002441406</ele>
        <time>2021-07-03T08:35:55.000Z</time>
      </trkpt>
      <trkpt lat="43.54771" lon="2.58965">
        <ele>763.79998779297</ele>
        <time>2021-07-03T08:35:56.000Z</time>
      </trkpt>
      <trkpt lat="43.54773" lon="2.58962">
        <ele>764.20001220703</ele>
        <time>2021-07-03T08:35:57.000Z</time>
      </trkpt>
      <trkpt lat="43.54775" lon="2.58955">
        <ele>764.20001220703</ele>
        <time>2021-07-03T08:35:59.000Z</time>
      </trkpt>
      <trkpt lat="43.54778" lon="2.5894">
        <ele>764.59997558594</ele>
        <time>2021-07-03T08:36:03.000Z</time>
      </trkpt>
      <trkpt lat="43.54779" lon="2.58937">
        <ele>765</ele>
        <time>2021-07-03T08:36:04.000Z</time>
      </trkpt>
      <trkpt lat="43.5478" lon="2.58934">
        <ele>765.40002441406</ele>
        <time>2021-07-03T08:36:05.000Z</time>
      </trkpt>
      <trkpt lat="43.54782" lon="2.5893">
        <ele>765.79998779297</ele>
        <time>2021-07-03T08:36:06.000Z</time>
      </trkpt>
      <trkpt lat="43.54784" lon="2.58927">
        <ele>766.40002441406</ele>
        <time>2021-07-03T08:36:07.000Z</time>
      </trkpt>
      <trkpt lat="43.54793" lon="2.58914">
        <ele>766.40002441406</ele>
        <time>2021-07-03T08:36:11.000Z</time>
      </trkpt>
      <trkpt lat="43.54802" lon="2.58903">
        <ele>766.79998779297</ele>
        <time>2021-07-03T08:36:15.000Z</time>
      </trkpt>
      <trkpt lat="43.54804" lon="2.589">
        <ele>767.20001220703</ele>
        <time>2021-07-03T08:36:16.000Z</time>
      </trkpt>
      <trkpt lat="43.54806" lon="2.58897">
        <ele>767.59997558594</ele>
        <time>2021-07-03T08:36:17.000Z</time>
      </trkpt>
      <trkpt lat="43.54808" lon="2.58894">
        <ele>768</ele>
        <time>2021-07-03T08:36:18.000Z</time>
      </trkpt>
      <trkpt lat="43.5481" lon="2.58891">
        <ele>768.40002441406</ele>
        <time>2021-07-03T08:36:19.000Z</time>
      </trkpt>
      <trkpt lat="43.5482" lon="2.58876">
        <ele>768.40002441406</ele>
        <time>2021-07-03T08:36:24.000Z</time>
      </trkpt>
      <trkpt lat="43.5483" lon="2.58855">
        <ele>768.40002441406</ele>
        <time>2021-07-03T08:36:30.000Z</time>
      </trkpt>
      <trkpt lat="43.54834" lon="2.5885">
        <ele>768.79998779297</ele>
        <time>2021-07-03T08:36:32.000Z</time>
      </trkpt>
      <trkpt lat="43.54835" lon="2.58847">
        <ele>769.20001220703</ele>
        <time>2021-07-03T08:36:33.000Z</time>
      </trkpt>
      <trkpt lat="43.54837" lon="2.58844">
        <ele>769.59997558594</ele>
        <time>2021-07-03T08:36:34.000Z</time>
      </trkpt>
      <trkpt lat="43.54838" lon="2.58841">
        <ele>770</ele>
        <time>2021-07-03T08:36:35.000Z</time>
      </trkpt>
      <trkpt lat="43.5484" lon="2.58838">
        <ele>770.40002441406</ele>
        <time>2021-07-03T08:36:36.000Z</time>
      </trkpt>
      <trkpt lat="43.54852" lon="2.58815">
        <ele>770.40002441406</ele>
        <time>2021-07-03T08:36:44.000Z</time>
      </trkpt>
      <trkpt lat="43.54854" lon="2.58811">
        <ele>770.79998779297</ele>
        <time>2021-07-03T08:36:45.000Z</time>
      </trkpt>
      <trkpt lat="43.54856" lon="2.58807">
        <ele>771.20001220703</ele>
        <time>2021-07-03T08:36:46.000Z</time>
      </trkpt>
      <trkpt lat="43.54857" lon="2.58804">
        <ele>771.59997558594</ele>
        <time>2021-07-03T08:36:47.000Z</time>
      </trkpt>
      <trkpt lat="43.54859" lon="2.58801">
        <ele>772</ele>
        <time>2021-07-03T08:36:48.000Z</time>
      </trkpt>
      <trkpt lat="43.54861" lon="2.58798">
        <ele>772.40002441406</ele>
        <time>2021-07-03T08:36:49.000Z</time>
      </trkpt>
      <trkpt lat="43.54865" lon="2.58793">
        <ele>772.40002441406</ele>
        <time>2021-07-03T08:36:51.000Z</time>
      </trkpt>
      <trkpt lat="43.54872" lon="2.58779">
        <ele>772.40002441406</ele>
        <time>2021-07-03T08:36:56.000Z</time>
      </trkpt>
      <trkpt lat="43.54874" lon="2.58774">
        <ele>772.40002441406</ele>
        <time>2021-07-03T08:36:58.000Z</time>
      </trkpt>
      <trkpt lat="43.54875" lon="2.5877">
        <ele>772.40002441406</ele>
        <time>2021-07-03T08:37:00.000Z</time>
      </trkpt>
      <trkpt lat="43.54883" lon="2.58758">
        <ele>772.40002441406</ele>
        <time>2021-07-03T08:37:05.000Z</time>
      </trkpt>
      <trkpt lat="43.54891" lon="2.58741">
        <ele>772.40002441406</ele>
        <time>2021-07-03T08:37:11.000Z</time>
      </trkpt>
      <trkpt lat="43.54897" lon="2.58723">
        <ele>772.40002441406</ele>
        <time>2021-07-03T08:37:17.000Z</time>
      </trkpt>
      <trkpt lat="43.54904" lon="2.58707">
        <ele>772.40002441406</ele>
        <time>2021-07-03T08:37:22.000Z</time>
      </trkpt>
      <trkpt lat="43.54908" lon="2.58698">
        <ele>772.40002441406</ele>
        <time>2021-07-03T08:37:26.000Z</time>
      </trkpt>
      <trkpt lat="43.54909" lon="2.58696">
        <ele>772.40002441406</ele>
        <time>2021-07-03T08:37:30.000Z</time>
      </trkpt>
      <trkpt lat="43.54916" lon="2.58683">
        <ele>772.40002441406</ele>
        <time>2021-07-03T08:37:35.000Z</time>
      </trkpt>
      <trkpt lat="43.54927" lon="2.58657">
        <ele>772.40002441406</ele>
        <time>2021-07-03T08:37:43.000Z</time>
      </trkpt>
      <trkpt lat="43.54935" lon="2.58639">
        <ele>772.40002441406</ele>
        <time>2021-07-03T08:37:48.000Z</time>
      </trkpt>
      <trkpt lat="43.54937" lon="2.58635">
        <ele>772.79998779297</ele>
        <time>2021-07-03T08:37:49.000Z</time>
      </trkpt>
      <trkpt lat="43.54938" lon="2.58632">
        <ele>773.20001220703</ele>
        <time>2021-07-03T08:37:50.000Z</time>
      </trkpt>
      <trkpt lat="43.5494" lon="2.58629">
        <ele>773.59997558594</ele>
        <time>2021-07-03T08:37:51.000Z</time>
      </trkpt>
      <trkpt lat="43.54941" lon="2.58626">
        <ele>774</ele>
        <time>2021-07-03T08:37:52.000Z</time>
      </trkpt>
      <trkpt lat="43.54942" lon="2.58623">
        <ele>774.40002441406</ele>
        <time>2021-07-03T08:37:53.000Z</time>
      </trkpt>
      <trkpt lat="43.54951" lon="2.58611">
        <ele>774.40002441406</ele>
        <time>2021-07-03T08:37:58.000Z</time>
      </trkpt>
      <trkpt lat="43.54963" lon="2.58598">
        <ele>774.40002441406</ele>
        <time>2021-07-03T08:38:03.000Z</time>
      </trkpt>
      <trkpt lat="43.54971" lon="2.58588">
        <ele>774.40002441406</ele>
        <time>2021-07-03T08:38:08.000Z</time>
      </trkpt>
      <trkpt lat="43.54977" lon="2.5858">
        <ele>774.40002441406</ele>
        <time>2021-07-03T08:38:12.000Z</time>
      </trkpt>
      <trkpt lat="43.5498" lon="2.58575">
        <ele>774.40002441406</ele>
        <time>2021-07-03T08:38:14.000Z</time>
      </trkpt>
      <trkpt lat="43.54989" lon="2.58562">
        <ele>774.40002441406</ele>
        <time>2021-07-03T08:38:19.000Z</time>
      </trkpt>
      <trkpt lat="43.55" lon="2.58548">
        <ele>774.40002441406</ele>
        <time>2021-07-03T08:38:24.000Z</time>
      </trkpt>
      <trkpt lat="43.55018" lon="2.58525">
        <ele>774.40002441406</ele>
        <time>2021-07-03T08:38:30.000Z</time>
      </trkpt>
      <trkpt lat="43.55037" lon="2.58501">
        <ele>774.40002441406</ele>
        <time>2021-07-03T08:38:37.000Z</time>
      </trkpt>
      <trkpt lat="43.55052" lon="2.58485">
        <ele>774.40002441406</ele>
        <time>2021-07-03T08:38:43.000Z</time>
      </trkpt>
      <trkpt lat="43.55066" lon="2.58472">
        <ele>774.40002441406</ele>
        <time>2021-07-03T08:38:48.000Z</time>
      </trkpt>
      <trkpt lat="43.5508" lon="2.58451">
        <ele>774.40002441406</ele>
        <time>2021-07-03T08:38:54.000Z</time>
      </trkpt>
      <trkpt lat="43.55088" lon="2.58435">
        <ele>774.40002441406</ele>
        <time>2021-07-03T08:38:58.000Z</time>
      </trkpt>
      <trkpt lat="43.5509" lon="2.58432">
        <ele>774.40002441406</ele>
        <time>2021-07-03T08:38:59.000Z</time>
      </trkpt>
      <trkpt lat="43.55095" lon="2.58421">
        <ele>774.40002441406</ele>
        <time>2021-07-03T08:39:02.000Z</time>
      </trkpt>
      <trkpt lat="43.55108" lon="2.58399">
        <ele>774.40002441406</ele>
        <time>2021-07-03T08:39:07.000Z</time>
      </trkpt>
      <trkpt lat="43.5512" lon="2.58374">
        <ele>774.40002441406</ele>
        <time>2021-07-03T08:39:13.000Z</time>
      </trkpt>
      <trkpt lat="43.55133" lon="2.58341">
        <ele>774.40002441406</ele>
        <time>2021-07-03T08:39:20.000Z</time>
      </trkpt>
      <trkpt lat="43.55145" lon="2.58312">
        <ele>774.40002441406</ele>
        <time>2021-07-03T08:39:27.000Z</time>
      </trkpt>
      <trkpt lat="43.55153" lon="2.58288">
        <ele>774.40002441406</ele>
        <time>2021-07-03T08:39:33.000Z</time>
      </trkpt>
      <trkpt lat="43.55158" lon="2.58268">
        <ele>774.40002441406</ele>
        <time>2021-07-03T08:39:39.000Z</time>
      </trkpt>
      <trkpt lat="43.55165" lon="2.58247">
        <ele>774.40002441406</ele>
        <time>2021-07-03T08:39:46.000Z</time>
      </trkpt>
      <trkpt lat="43.55172" lon="2.58228">
        <ele>774.40002441406</ele>
        <time>2021-07-03T08:39:51.000Z</time>
      </trkpt>
      <trkpt lat="43.55175" lon="2.58217">
        <ele>774</ele>
        <time>2021-07-03T08:39:54.000Z</time>
      </trkpt>
      <trkpt lat="43.55176" lon="2.58214">
        <ele>773.59997558594</ele>
        <time>2021-07-03T08:39:55.000Z</time>
      </trkpt>
      <trkpt lat="43.55177" lon="2.5821">
        <ele>773.20001220703</ele>
        <time>2021-07-03T08:39:56.000Z</time>
      </trkpt>
      <trkpt lat="43.55179" lon="2.58206">
        <ele>772.59997558594</ele>
        <time>2021-07-03T08:39:57.000Z</time>
      </trkpt>
      <trkpt lat="43.55182" lon="2.58201">
        <ele>772.20001220703</ele>
        <time>2021-07-03T08:39:58.000Z</time>
      </trkpt>
      <trkpt lat="43.55185" lon="2.58189">
        <ele>772.20001220703</ele>
        <time>2021-07-03T08:40:01.000Z</time>
      </trkpt>
      <trkpt lat="43.55196" lon="2.58158">
        <ele>772.20001220703</ele>
        <time>2021-07-03T08:40:07.000Z</time>
      </trkpt>
      <trkpt lat="43.55198" lon="2.58153">
        <ele>772.20001220703</ele>
        <time>2021-07-03T08:40:08.000Z</time>
      </trkpt>
      <trkpt lat="43.55202" lon="2.58137">
        <ele>772.20001220703</ele>
        <time>2021-07-03T08:40:11.000Z</time>
      </trkpt>
      <trkpt lat="43.55203" lon="2.58133">
        <ele>772.20001220703</ele>
        <time>2021-07-03T08:40:12.000Z</time>
      </trkpt>
      <trkpt lat="43.55204" lon="2.58122">
        <ele>771.79998779297</ele>
        <time>2021-07-03T08:40:14.000Z</time>
      </trkpt>
      <trkpt lat="43.55205" lon="2.58117">
        <ele>771.40002441406</ele>
        <time>2021-07-03T08:40:15.000Z</time>
      </trkpt>
      <trkpt lat="43.55206" lon="2.58111">
        <ele>771</ele>
        <time>2021-07-03T08:40:16.000Z</time>
      </trkpt>
      <trkpt lat="43.55207" lon="2.58105">
        <ele>770.59997558594</ele>
        <time>2021-07-03T08:40:17.000Z</time>
      </trkpt>
      <trkpt lat="43.5521" lon="2.581">
        <ele>770.20001220703</ele>
        <time>2021-07-03T08:40:18.000Z</time>
      </trkpt>
      <trkpt lat="43.55219" lon="2.58082">
        <ele>770.20001220703</ele>
        <time>2021-07-03T08:40:22.000Z</time>
      </trkpt>
      <trkpt lat="43.55224" lon="2.58069">
        <ele>769.79998779297</ele>
        <time>2021-07-03T08:40:25.000Z</time>
      </trkpt>
      <trkpt lat="43.55226" lon="2.58066">
        <ele>769.40002441406</ele>
        <time>2021-07-03T08:40:26.000Z</time>
      </trkpt>
      <trkpt lat="43.55227" lon="2.58062">
        <ele>769</ele>
        <time>2021-07-03T08:40:27.000Z</time>
      </trkpt>
      <trkpt lat="43.55229" lon="2.58058">
        <ele>768.40002441406</ele>
        <time>2021-07-03T08:40:28.000Z</time>
      </trkpt>
      <trkpt lat="43.55231" lon="2.58054">
        <ele>768</ele>
        <time>2021-07-03T08:40:29.000Z</time>
      </trkpt>
      <trkpt lat="43.55236" lon="2.58045">
        <ele>767.59997558594</ele>
        <time>2021-07-03T08:40:32.000Z</time>
      </trkpt>
      <trkpt lat="43.55238" lon="2.58043">
        <ele>766.59997558594</ele>
        <time>2021-07-03T08:40:33.000Z</time>
      </trkpt>
      <trkpt lat="43.5524" lon="2.58041">
        <ele>766.20001220703</ele>
        <time>2021-07-03T08:40:34.000Z</time>
      </trkpt>
      <trkpt lat="43.55242" lon="2.58039">
        <ele>765.79998779297</ele>
        <time>2021-07-03T08:40:35.000Z</time>
      </trkpt>
      <trkpt lat="43.55247" lon="2.58034">
        <ele>765.40002441406</ele>
        <time>2021-07-03T08:40:38.000Z</time>
      </trkpt>
      <trkpt lat="43.55248" lon="2.58032">
        <ele>764.79998779297</ele>
        <time>2021-07-03T08:40:39.000Z</time>
      </trkpt>
      <trkpt lat="43.55249" lon="2.58029">
        <ele>764.40002441406</ele>
        <time>2021-07-03T08:40:40.000Z</time>
      </trkpt>
      <trkpt lat="43.55251" lon="2.58026">
        <ele>764</ele>
        <time>2021-07-03T08:40:41.000Z</time>
      </trkpt>
      <trkpt lat="43.55252" lon="2.58023">
        <ele>763.59997558594</ele>
        <time>2021-07-03T08:40:42.000Z</time>
      </trkpt>
      <trkpt lat="43.55253" lon="2.58021">
        <ele>763.59997558594</ele>
        <time>2021-07-03T08:40:43.000Z</time>
      </trkpt>
      <trkpt lat="43.55259" lon="2.58008">
        <ele>763.20001220703</ele>
        <time>2021-07-03T08:40:48.000Z</time>
      </trkpt>
      <trkpt lat="43.55261" lon="2.58005">
        <ele>762.79998779297</ele>
        <time>2021-07-03T08:40:49.000Z</time>
      </trkpt>
      <trkpt lat="43.55263" lon="2.58002">
        <ele>762.20001220703</ele>
        <time>2021-07-03T08:40:50.000Z</time>
      </trkpt>
      <trkpt lat="43.55265" lon="2.57999">
        <ele>761.79998779297</ele>
        <time>2021-07-03T08:40:51.000Z</time>
      </trkpt>
      <trkpt lat="43.55267" lon="2.57995">
        <ele>761.40002441406</ele>
        <time>2021-07-03T08:40:52.000Z</time>
      </trkpt>
      <trkpt lat="43.5527" lon="2.57988">
        <ele>761</ele>
        <time>2021-07-03T08:40:54.000Z</time>
      </trkpt>
      <trkpt lat="43.55272" lon="2.57984">
        <ele>760.59997558594</ele>
        <time>2021-07-03T08:40:55.000Z</time>
      </trkpt>
      <trkpt lat="43.55274" lon="2.57981">
        <ele>760</ele>
        <time>2021-07-03T08:40:56.000Z</time>
      </trkpt>
      <trkpt lat="43.55276" lon="2.57978">
        <ele>759.59997558594</ele>
        <time>2021-07-03T08:40:57.000Z</time>
      </trkpt>
      <trkpt lat="43.55277" lon="2.57975">
        <ele>759.20001220703</ele>
        <time>2021-07-03T08:40:58.000Z</time>
      </trkpt>
      <trkpt lat="43.55279" lon="2.57972">
        <ele>759.20001220703</ele>
        <time>2021-07-03T08:40:59.000Z</time>
      </trkpt>
      <trkpt lat="43.55284" lon="2.57966">
        <ele>759.20001220703</ele>
        <time>2021-07-03T08:41:01.000Z</time>
      </trkpt>
      <trkpt lat="43.55287" lon="2.57957">
        <ele>758.79998779297</ele>
        <time>2021-07-03T08:41:03.000Z</time>
      </trkpt>
      <trkpt lat="43.55288" lon="2.57953">
        <ele>758.40002441406</ele>
        <time>2021-07-03T08:41:04.000Z</time>
      </trkpt>
      <trkpt lat="43.55288" lon="2.57949">
        <ele>758</ele>
        <time>2021-07-03T08:41:05.000Z</time>
      </trkpt>
      <trkpt lat="43.55288" lon="2.57946">
        <ele>757.40002441406</ele>
        <time>2021-07-03T08:41:06.000Z</time>
      </trkpt>
      <trkpt lat="43.55288" lon="2.57942">
        <ele>757</ele>
        <time>2021-07-03T08:41:07.000Z</time>
      </trkpt>
      <trkpt lat="43.55287" lon="2.57937">
        <ele>757</ele>
        <time>2021-07-03T08:41:08.000Z</time>
      </trkpt>
      <trkpt lat="43.55284" lon="2.57922">
        <ele>756.59997558594</ele>
        <time>2021-07-03T08:41:11.000Z</time>
      </trkpt>
      <trkpt lat="43.55283" lon="2.57917">
        <ele>756.20001220703</ele>
        <time>2021-07-03T08:41:12.000Z</time>
      </trkpt>
      <trkpt lat="43.55282" lon="2.57912">
        <ele>755.79998779297</ele>
        <time>2021-07-03T08:41:13.000Z</time>
      </trkpt>
      <trkpt lat="43.55281" lon="2.57908">
        <ele>755.40002441406</ele>
        <time>2021-07-03T08:41:14.000Z</time>
      </trkpt>
      <trkpt lat="43.5528" lon="2.57904">
        <ele>755</ele>
        <time>2021-07-03T08:41:15.000Z</time>
      </trkpt>
      <trkpt lat="43.55278" lon="2.57891">
        <ele>755</ele>
        <time>2021-07-03T08:41:18.000Z</time>
      </trkpt>
      <trkpt lat="43.55277" lon="2.57883">
        <ele>755</ele>
        <time>2021-07-03T08:41:20.000Z</time>
      </trkpt>
      <trkpt lat="43.55277" lon="2.57876">
        <ele>755</ele>
        <time>2021-07-03T08:41:22.000Z</time>
      </trkpt>
      <trkpt lat="43.55277" lon="2.57866">
        <ele>754.59997558594</ele>
        <time>2021-07-03T08:41:25.000Z</time>
      </trkpt>
      <trkpt lat="43.55278" lon="2.57864">
        <ele>754</ele>
        <time>2021-07-03T08:41:26.000Z</time>
      </trkpt>
      <trkpt lat="43.55278" lon="2.57862">
        <ele>753.59997558594</ele>
        <time>2021-07-03T08:41:27.000Z</time>
      </trkpt>
      <trkpt lat="43.55278" lon="2.5786">
        <ele>753.20001220703</ele>
        <time>2021-07-03T08:41:28.000Z</time>
      </trkpt>
      <trkpt lat="43.55278" lon="2.57859">
        <ele>752.79998779297</ele>
        <time>2021-07-03T08:41:29.000Z</time>
      </trkpt>
      <trkpt lat="43.55278" lon="2.57856">
        <ele>752.79998779297</ele>
        <time>2021-07-03T08:41:33.000Z</time>
      </trkpt>
      <trkpt lat="43.55279" lon="2.57852">
        <ele>752.79998779297</ele>
        <time>2021-07-03T08:41:34.000Z</time>
      </trkpt>
      <trkpt lat="43.55283" lon="2.57825">
        <ele>752.79998779297</ele>
        <time>2021-07-03T08:41:39.000Z</time>
      </trkpt>
      <trkpt lat="43.55285" lon="2.5781">
        <ele>752.40002441406</ele>
        <time>2021-07-03T08:41:41.000Z</time>
      </trkpt>
      <trkpt lat="43.55286" lon="2.57801">
        <ele>752</ele>
        <time>2021-07-03T08:41:42.000Z</time>
      </trkpt>
      <trkpt lat="43.55286" lon="2.57793">
        <ele>751.59997558594</ele>
        <time>2021-07-03T08:41:43.000Z</time>
      </trkpt>
      <trkpt lat="43.55287" lon="2.57784">
        <ele>751.20001220703</ele>
        <time>2021-07-03T08:41:44.000Z</time>
      </trkpt>
      <trkpt lat="43.55288" lon="2.57775">
        <ele>750.79998779297</ele>
        <time>2021-07-03T08:41:45.000Z</time>
      </trkpt>
      <trkpt lat="43.55291" lon="2.57748">
        <ele>749.79998779297</ele>
        <time>2021-07-03T08:41:48.000Z</time>
      </trkpt>
      <trkpt lat="43.55292" lon="2.57739">
        <ele>749.40002441406</ele>
        <time>2021-07-03T08:41:49.000Z</time>
      </trkpt>
      <trkpt lat="43.55293" lon="2.57731">
        <ele>748.79998779297</ele>
        <time>2021-07-03T08:41:50.000Z</time>
      </trkpt>
      <trkpt lat="43.55294" lon="2.57722">
        <ele>748.40002441406</ele>
        <time>2021-07-03T08:41:51.000Z</time>
      </trkpt>
      <trkpt lat="43.55295" lon="2.57707">
        <ele>748.40002441406</ele>
        <time>2021-07-03T08:41:53.000Z</time>
      </trkpt>
      <trkpt lat="43.553" lon="2.57672">
        <ele>748</ele>
        <time>2021-07-03T08:41:58.000Z</time>
      </trkpt>
      <trkpt lat="43.553" lon="2.57665">
        <ele>747.59997558594</ele>
        <time>2021-07-03T08:41:59.000Z</time>
      </trkpt>
      <trkpt lat="43.55301" lon="2.57658">
        <ele>747.20001220703</ele>
        <time>2021-07-03T08:42:00.000Z</time>
      </trkpt>
      <trkpt lat="43.55302" lon="2.57651">
        <ele>746.59997558594</ele>
        <time>2021-07-03T08:42:01.000Z</time>
      </trkpt>
      <trkpt lat="43.55302" lon="2.57646">
        <ele>746.20001220703</ele>
        <time>2021-07-03T08:42:02.000Z</time>
      </trkpt>
      <trkpt lat="43.55304" lon="2.57631">
        <ele>745.79998779297</ele>
        <time>2021-07-03T08:42:05.000Z</time>
      </trkpt>
      <trkpt lat="43.55304" lon="2.57626">
        <ele>745.40002441406</ele>
        <time>2021-07-03T08:42:06.000Z</time>
      </trkpt>
      <trkpt lat="43.55305" lon="2.57619">
        <ele>745</ele>
        <time>2021-07-03T08:42:07.000Z</time>
      </trkpt>
      <trkpt lat="43.55307" lon="2.57613">
        <ele>744.59997558594</ele>
        <time>2021-07-03T08:42:08.000Z</time>
      </trkpt>
      <trkpt lat="43.55309" lon="2.57605">
        <ele>744.20001220703</ele>
        <time>2021-07-03T08:42:09.000Z</time>
      </trkpt>
      <trkpt lat="43.55311" lon="2.57597">
        <ele>744.20001220703</ele>
        <time>2021-07-03T08:42:10.000Z</time>
      </trkpt>
      <trkpt lat="43.55312" lon="2.57588">
        <ele>743.59997558594</ele>
        <time>2021-07-03T08:42:11.000Z</time>
      </trkpt>
      <trkpt lat="43.55313" lon="2.57578">
        <ele>742.59997558594</ele>
        <time>2021-07-03T08:42:12.000Z</time>
      </trkpt>
      <trkpt lat="43.55313" lon="2.57568">
        <ele>742</ele>
        <time>2021-07-03T08:42:13.000Z</time>
      </trkpt>
      <trkpt lat="43.55314" lon="2.57559">
        <ele>741.40002441406</ele>
        <time>2021-07-03T08:42:14.000Z</time>
      </trkpt>
      <trkpt lat="43.55315" lon="2.57541">
        <ele>741</ele>
        <time>2021-07-03T08:42:16.000Z</time>
      </trkpt>
      <trkpt lat="43.55315" lon="2.57532">
        <ele>740.59997558594</ele>
        <time>2021-07-03T08:42:17.000Z</time>
      </trkpt>
      <trkpt lat="43.55315" lon="2.57524">
        <ele>740.20001220703</ele>
        <time>2021-07-03T08:42:18.000Z</time>
      </trkpt>
      <trkpt lat="43.55316" lon="2.57516">
        <ele>739.79998779297</ele>
        <time>2021-07-03T08:42:19.000Z</time>
      </trkpt>
      <trkpt lat="43.55316" lon="2.57509">
        <ele>739.40002441406</ele>
        <time>2021-07-03T08:42:20.000Z</time>
      </trkpt>
      <trkpt lat="43.55317" lon="2.57476">
        <ele>739.40002441406</ele>
        <time>2021-07-03T08:42:25.000Z</time>
      </trkpt>
      <trkpt lat="43.55321" lon="2.57437">
        <ele>739.40002441406</ele>
        <time>2021-07-03T08:42:32.000Z</time>
      </trkpt>
      <trkpt lat="43.55328" lon="2.57408">
        <ele>739.40002441406</ele>
        <time>2021-07-03T08:42:38.000Z</time>
      </trkpt>
      <trkpt lat="43.55339" lon="2.57385">
        <ele>739.40002441406</ele>
        <time>2021-07-03T08:42:43.000Z</time>
      </trkpt>
      <trkpt lat="43.55357" lon="2.57357">
        <ele>739.40002441406</ele>
        <time>2021-07-03T08:42:49.000Z</time>
      </trkpt>
      <trkpt lat="43.55376" lon="2.57325">
        <ele>739</ele>
        <time>2021-07-03T08:42:57.000Z</time>
      </trkpt>
      <trkpt lat="43.55378" lon="2.57321">
        <ele>738.59997558594</ele>
        <time>2021-07-03T08:42:58.000Z</time>
      </trkpt>
      <trkpt lat="43.5538" lon="2.57317">
        <ele>738.20001220703</ele>
        <time>2021-07-03T08:42:59.000Z</time>
      </trkpt>
      <trkpt lat="43.55382" lon="2.57313">
        <ele>737.79998779297</ele>
        <time>2021-07-03T08:43:00.000Z</time>
      </trkpt>
      <trkpt lat="43.55383" lon="2.57308">
        <ele>737.40002441406</ele>
        <time>2021-07-03T08:43:01.000Z</time>
      </trkpt>
      <trkpt lat="43.55389" lon="2.57296">
        <ele>737.40002441406</ele>
        <time>2021-07-03T08:43:04.000Z</time>
      </trkpt>
      <trkpt lat="43.55392" lon="2.57288">
        <ele>737</ele>
        <time>2021-07-03T08:43:06.000Z</time>
      </trkpt>
      <trkpt lat="43.55393" lon="2.57285">
        <ele>736.59997558594</ele>
        <time>2021-07-03T08:43:07.000Z</time>
      </trkpt>
      <trkpt lat="43.55395" lon="2.57281">
        <ele>736.20001220703</ele>
        <time>2021-07-03T08:43:08.000Z</time>
      </trkpt>
      <trkpt lat="43.55397" lon="2.57277">
        <ele>735.79998779297</ele>
        <time>2021-07-03T08:43:09.000Z</time>
      </trkpt>
      <trkpt lat="43.55398" lon="2.57273">
        <ele>735.40002441406</ele>
        <time>2021-07-03T08:43:10.000Z</time>
      </trkpt>
      <trkpt lat="43.55401" lon="2.57264">
        <ele>735</ele>
        <time>2021-07-03T08:43:12.000Z</time>
      </trkpt>
      <trkpt lat="43.55403" lon="2.5726">
        <ele>734.59997558594</ele>
        <time>2021-07-03T08:43:13.000Z</time>
      </trkpt>
      <trkpt lat="43.55404" lon="2.57255">
        <ele>734.20001220703</ele>
        <time>2021-07-03T08:43:14.000Z</time>
      </trkpt>
      <trkpt lat="43.55405" lon="2.57251">
        <ele>733.79998779297</ele>
        <time>2021-07-03T08:43:15.000Z</time>
      </trkpt>
      <trkpt lat="43.55406" lon="2.57247">
        <ele>733.40002441406</ele>
        <time>2021-07-03T08:43:16.000Z</time>
      </trkpt>
      <trkpt lat="43.55407" lon="2.57242">
        <ele>733.40002441406</ele>
        <time>2021-07-03T08:43:17.000Z</time>
      </trkpt>
      <trkpt lat="43.55407" lon="2.57236">
        <ele>733</ele>
        <time>2021-07-03T08:43:18.000Z</time>
      </trkpt>
      <trkpt lat="43.55407" lon="2.5723">
        <ele>732.40002441406</ele>
        <time>2021-07-03T08:43:19.000Z</time>
      </trkpt>
      <trkpt lat="43.55407" lon="2.57224">
        <ele>732</ele>
        <time>2021-07-03T08:43:20.000Z</time>
      </trkpt>
      <trkpt lat="43.55407" lon="2.57217">
        <ele>731.59997558594</ele>
        <time>2021-07-03T08:43:21.000Z</time>
      </trkpt>
      <trkpt lat="43.55407" lon="2.5721">
        <ele>731.20001220703</ele>
        <time>2021-07-03T08:43:22.000Z</time>
      </trkpt>
      <trkpt lat="43.55407" lon="2.57203">
        <ele>731.20001220703</ele>
        <time>2021-07-03T08:43:23.000Z</time>
      </trkpt>
      <trkpt lat="43.5541" lon="2.57186">
        <ele>731.20001220703</ele>
        <time>2021-07-03T08:43:26.000Z</time>
      </trkpt>
      <trkpt lat="43.55411" lon="2.5718">
        <ele>731.20001220703</ele>
        <time>2021-07-03T08:43:27.000Z</time>
      </trkpt>
      <trkpt lat="43.55416" lon="2.57163">
        <ele>730.79998779297</ele>
        <time>2021-07-03T08:43:30.000Z</time>
      </trkpt>
      <trkpt lat="43.55418" lon="2.57158">
        <ele>730.40002441406</ele>
        <time>2021-07-03T08:43:31.000Z</time>
      </trkpt>
      <trkpt lat="43.55419" lon="2.57153">
        <ele>730</ele>
        <time>2021-07-03T08:43:32.000Z</time>
      </trkpt>
      <trkpt lat="43.55421" lon="2.57148">
        <ele>729.59997558594</ele>
        <time>2021-07-03T08:43:33.000Z</time>
      </trkpt>
      <trkpt lat="43.55423" lon="2.57143">
        <ele>729.20001220703</ele>
        <time>2021-07-03T08:43:34.000Z</time>
      </trkpt>
      <trkpt lat="43.55437" lon="2.57106">
        <ele>729.20001220703</ele>
        <time>2021-07-03T08:43:41.000Z</time>
      </trkpt>
      <trkpt lat="43.55438" lon="2.571">
        <ele>729.20001220703</ele>
        <time>2021-07-03T08:43:42.000Z</time>
      </trkpt>
      <trkpt lat="43.55442" lon="2.57078">
        <ele>729.20001220703</ele>
        <time>2021-07-03T08:43:46.000Z</time>
      </trkpt>
      <trkpt lat="43.55448" lon="2.57048">
        <ele>729.20001220703</ele>
        <time>2021-07-03T08:43:52.000Z</time>
      </trkpt>
      <trkpt lat="43.55453" lon="2.57007">
        <ele>729.20001220703</ele>
        <time>2021-07-03T08:44:00.000Z</time>
      </trkpt>
      <trkpt lat="43.55456" lon="2.56968">
        <ele>729.20001220703</ele>
        <time>2021-07-03T08:44:08.000Z</time>
      </trkpt>
      <trkpt lat="43.55458" lon="2.56943">
        <ele>729.20001220703</ele>
        <time>2021-07-03T08:44:14.000Z</time>
      </trkpt>
      <trkpt lat="43.55461" lon="2.5693">
        <ele>728.79998779297</ele>
        <time>2021-07-03T08:44:17.000Z</time>
      </trkpt>
      <trkpt lat="43.55462" lon="2.56925">
        <ele>728.20001220703</ele>
        <time>2021-07-03T08:44:18.000Z</time>
      </trkpt>
      <trkpt lat="43.55463" lon="2.56921">
        <ele>727.79998779297</ele>
        <time>2021-07-03T08:44:19.000Z</time>
      </trkpt>
      <trkpt lat="43.55464" lon="2.56916">
        <ele>727.40002441406</ele>
        <time>2021-07-03T08:44:20.000Z</time>
      </trkpt>
      <trkpt lat="43.55465" lon="2.56911">
        <ele>726.79998779297</ele>
        <time>2021-07-03T08:44:21.000Z</time>
      </trkpt>
      <trkpt lat="43.55466" lon="2.56894">
        <ele>726.40002441406</ele>
        <time>2021-07-03T08:44:24.000Z</time>
      </trkpt>
      <trkpt lat="43.55466" lon="2.56888">
        <ele>726</ele>
        <time>2021-07-03T08:44:25.000Z</time>
      </trkpt>
      <trkpt lat="43.55465" lon="2.56882">
        <ele>725.59997558594</ele>
        <time>2021-07-03T08:44:26.000Z</time>
      </trkpt>
      <trkpt lat="43.55464" lon="2.56877">
        <ele>725.20001220703</ele>
        <time>2021-07-03T08:44:27.000Z</time>
      </trkpt>
      <trkpt lat="43.55462" lon="2.56871">
        <ele>724.79998779297</ele>
        <time>2021-07-03T08:44:28.000Z</time>
      </trkpt>
      <trkpt lat="43.55455" lon="2.56858">
        <ele>724.40002441406</ele>
        <time>2021-07-03T08:44:31.000Z</time>
      </trkpt>
      <trkpt lat="43.55452" lon="2.56854">
        <ele>724</ele>
        <time>2021-07-03T08:44:32.000Z</time>
      </trkpt>
      <trkpt lat="43.55449" lon="2.5685">
        <ele>723.59997558594</ele>
        <time>2021-07-03T08:44:33.000Z</time>
      </trkpt>
      <trkpt lat="43.55445" lon="2.56846">
        <ele>723.20001220703</ele>
        <time>2021-07-03T08:44:34.000Z</time>
      </trkpt>
      <trkpt lat="43.55441" lon="2.56844">
        <ele>722.79998779297</ele>
        <time>2021-07-03T08:44:35.000Z</time>
      </trkpt>
      <trkpt lat="43.55437" lon="2.56842">
        <ele>722.79998779297</ele>
        <time>2021-07-03T08:44:36.000Z</time>
      </trkpt>
      <trkpt lat="43.55433" lon="2.5684">
        <ele>722.20001220703</ele>
        <time>2021-07-03T08:44:37.000Z</time>
      </trkpt>
      <trkpt lat="43.55429" lon="2.56839">
        <ele>721.79998779297</ele>
        <time>2021-07-03T08:44:38.000Z</time>
      </trkpt>
      <trkpt lat="43.55425" lon="2.56838">
        <ele>721.40002441406</ele>
        <time>2021-07-03T08:44:39.000Z</time>
      </trkpt>
      <trkpt lat="43.55421" lon="2.56836">
        <ele>720.79998779297</ele>
        <time>2021-07-03T08:44:40.000Z</time>
      </trkpt>
      <trkpt lat="43.55417" lon="2.56835">
        <ele>720</ele>
        <time>2021-07-03T08:44:41.000Z</time>
      </trkpt>
      <trkpt lat="43.55413" lon="2.56834">
        <ele>719.59997558594</ele>
        <time>2021-07-03T08:44:42.000Z</time>
      </trkpt>
      <trkpt lat="43.5541" lon="2.56833">
        <ele>719</ele>
        <time>2021-07-03T08:44:43.000Z</time>
      </trkpt>
      <trkpt lat="43.55406" lon="2.56831">
        <ele>718.59997558594</ele>
        <time>2021-07-03T08:44:44.000Z</time>
      </trkpt>
      <trkpt lat="43.55402" lon="2.56828">
        <ele>718.20001220703</ele>
        <time>2021-07-03T08:44:45.000Z</time>
      </trkpt>
      <trkpt lat="43.55398" lon="2.56824">
        <ele>717.59997558594</ele>
        <time>2021-07-03T08:44:46.000Z</time>
      </trkpt>
      <trkpt lat="43.55396" lon="2.56819">
        <ele>717.20001220703</ele>
        <time>2021-07-03T08:44:47.000Z</time>
      </trkpt>
      <trkpt lat="43.55393" lon="2.56814">
        <ele>716.79998779297</ele>
        <time>2021-07-03T08:44:48.000Z</time>
      </trkpt>
      <trkpt lat="43.55391" lon="2.56809">
        <ele>716.20001220703</ele>
        <time>2021-07-03T08:44:49.000Z</time>
      </trkpt>
      <trkpt lat="43.55389" lon="2.56803">
        <ele>715.79998779297</ele>
        <time>2021-07-03T08:44:50.000Z</time>
      </trkpt>
      <trkpt lat="43.55387" lon="2.56797">
        <ele>715.79998779297</ele>
        <time>2021-07-03T08:44:51.000Z</time>
      </trkpt>
      <trkpt lat="43.55386" lon="2.56791">
        <ele>715.79998779297</ele>
        <time>2021-07-03T08:44:52.000Z</time>
      </trkpt>
      <trkpt lat="43.55383" lon="2.56783">
        <ele>715.40002441406</ele>
        <time>2021-07-03T08:44:54.000Z</time>
      </trkpt>
      <trkpt lat="43.55382" lon="2.5678">
        <ele>715</ele>
        <time>2021-07-03T08:44:55.000Z</time>
      </trkpt>
      <trkpt lat="43.5538" lon="2.56776">
        <ele>714.59997558594</ele>
        <time>2021-07-03T08:44:56.000Z</time>
      </trkpt>
      <trkpt lat="43.55379" lon="2.56773">
        <ele>714.20001220703</ele>
        <time>2021-07-03T08:44:57.000Z</time>
      </trkpt>
      <trkpt lat="43.55377" lon="2.56768">
        <ele>713.79998779297</ele>
        <time>2021-07-03T08:44:58.000Z</time>
      </trkpt>
      <trkpt lat="43.55376" lon="2.56763">
        <ele>713.40002441406</ele>
        <time>2021-07-03T08:44:59.000Z</time>
      </trkpt>
      <trkpt lat="43.55375" lon="2.56757">
        <ele>712.79998779297</ele>
        <time>2021-07-03T08:45:00.000Z</time>
      </trkpt>
      <trkpt lat="43.55374" lon="2.56751">
        <ele>712.40002441406</ele>
        <time>2021-07-03T08:45:01.000Z</time>
      </trkpt>
      <trkpt lat="43.55373" lon="2.56744">
        <ele>712</ele>
        <time>2021-07-03T08:45:02.000Z</time>
      </trkpt>
      <trkpt lat="43.55373" lon="2.56738">
        <ele>711.59997558594</ele>
        <time>2021-07-03T08:45:03.000Z</time>
      </trkpt>
      <trkpt lat="43.55372" lon="2.56732">
        <ele>711.59997558594</ele>
        <time>2021-07-03T08:45:04.000Z</time>
      </trkpt>
      <trkpt lat="43.55372" lon="2.5672">
        <ele>710.59997558594</ele>
        <time>2021-07-03T08:45:06.000Z</time>
      </trkpt>
      <trkpt lat="43.55372" lon="2.56714">
        <ele>710.20001220703</ele>
        <time>2021-07-03T08:45:07.000Z</time>
      </trkpt>
      <trkpt lat="43.55372" lon="2.5671">
        <ele>709.79998779297</ele>
        <time>2021-07-03T08:45:08.000Z</time>
      </trkpt>
      <trkpt lat="43.55371" lon="2.56706">
        <ele>709.40002441406</ele>
        <time>2021-07-03T08:45:09.000Z</time>
      </trkpt>
      <trkpt lat="43.55371" lon="2.56703">
        <ele>708.79998779297</ele>
        <time>2021-07-03T08:45:10.000Z</time>
      </trkpt>
      <trkpt lat="43.55369" lon="2.56701">
        <ele>708.40002441406</ele>
        <time>2021-07-03T08:45:11.000Z</time>
      </trkpt>
      <trkpt lat="43.55367" lon="2.567">
        <ele>707.79998779297</ele>
        <time>2021-07-03T08:45:12.000Z</time>
      </trkpt>
      <trkpt lat="43.55366" lon="2.56699">
        <ele>707.40002441406</ele>
        <time>2021-07-03T08:45:13.000Z</time>
      </trkpt>
      <trkpt lat="43.55364" lon="2.56693">
        <ele>707.40002441406</ele>
        <time>2021-07-03T08:45:16.000Z</time>
      </trkpt>
      <trkpt lat="43.55364" lon="2.56692">
        <ele>707</ele>
        <time>2021-07-03T08:45:17.000Z</time>
      </trkpt>
      <trkpt lat="43.55365" lon="2.56689">
        <ele>706.40002441406</ele>
        <time>2021-07-03T08:45:18.000Z</time>
      </trkpt>
      <trkpt lat="43.55366" lon="2.56686">
        <ele>706</ele>
        <time>2021-07-03T08:45:19.000Z</time>
      </trkpt>
      <trkpt lat="43.55367" lon="2.56684">
        <ele>705.59997558594</ele>
        <time>2021-07-03T08:45:20.000Z</time>
      </trkpt>
      <trkpt lat="43.55368" lon="2.56682">
        <ele>705.20001220703</ele>
        <time>2021-07-03T08:45:21.000Z</time>
      </trkpt>
      <trkpt lat="43.55369" lon="2.56682">
        <ele>705.20001220703</ele>
        <time>2021-07-03T08:45:22.000Z</time>
      </trkpt>
      <trkpt lat="43.55374" lon="2.56686">
        <ele>705.20001220703</ele>
        <time>2021-07-03T08:45:26.000Z</time>
      </trkpt>
      <trkpt lat="43.55375" lon="2.56688">
        <ele>704.59997558594</ele>
        <time>2021-07-03T08:45:27.000Z</time>
      </trkpt>
      <trkpt lat="43.55377" lon="2.5669">
        <ele>704.20001220703</ele>
        <time>2021-07-03T08:45:28.000Z</time>
      </trkpt>
      <trkpt lat="43.55378" lon="2.56693">
        <ele>703.79998779297</ele>
        <time>2021-07-03T08:45:29.000Z</time>
      </trkpt>
      <trkpt lat="43.5538" lon="2.56695">
        <ele>702.79998779297</ele>
        <time>2021-07-03T08:45:30.000Z</time>
      </trkpt>
      <trkpt lat="43.55381" lon="2.56696">
        <ele>702.40002441406</ele>
        <time>2021-07-03T08:45:31.000Z</time>
      </trkpt>
      <trkpt lat="43.55383" lon="2.56697">
        <ele>701.79998779297</ele>
        <time>2021-07-03T08:45:32.000Z</time>
      </trkpt>
      <trkpt lat="43.55385" lon="2.56698">
        <ele>701.40002441406</ele>
        <time>2021-07-03T08:45:33.000Z</time>
      </trkpt>
      <trkpt lat="43.55386" lon="2.56699">
        <ele>700.79998779297</ele>
        <time>2021-07-03T08:45:34.000Z</time>
      </trkpt>
      <trkpt lat="43.55388" lon="2.56699">
        <ele>700.40002441406</ele>
        <time>2021-07-03T08:45:35.000Z</time>
      </trkpt>
      <trkpt lat="43.5539" lon="2.56699">
        <ele>700</ele>
        <time>2021-07-03T08:45:36.000Z</time>
      </trkpt>
      <trkpt lat="43.55391" lon="2.56699">
        <ele>699.59997558594</ele>
        <time>2021-07-03T08:45:37.000Z</time>
      </trkpt>
      <trkpt lat="43.55392" lon="2.567">
        <ele>699.20001220703</ele>
        <time>2021-07-03T08:45:38.000Z</time>
      </trkpt>
      <trkpt lat="43.55394" lon="2.56701">
        <ele>698.79998779297</ele>
        <time>2021-07-03T08:45:39.000Z</time>
      </trkpt>
      <trkpt lat="43.55396" lon="2.56703">
        <ele>698.20001220703</ele>
        <time>2021-07-03T08:45:40.000Z</time>
      </trkpt>
      <trkpt lat="43.55398" lon="2.56705">
        <ele>697.79998779297</ele>
        <time>2021-07-03T08:45:41.000Z</time>
      </trkpt>
      <trkpt lat="43.554" lon="2.56706">
        <ele>697.40002441406</ele>
        <time>2021-07-03T08:45:42.000Z</time>
      </trkpt>
      <trkpt lat="43.55402" lon="2.56707">
        <ele>697</ele>
        <time>2021-07-03T08:45:43.000Z</time>
      </trkpt>
      <trkpt lat="43.55404" lon="2.56708">
        <ele>696.59997558594</ele>
        <time>2021-07-03T08:45:44.000Z</time>
      </trkpt>
      <trkpt lat="43.55411" lon="2.56713">
        <ele>696.20001220703</ele>
        <time>2021-07-03T08:45:47.000Z</time>
      </trkpt>
      <trkpt lat="43.55413" lon="2.56714">
        <ele>695.79998779297</ele>
        <time>2021-07-03T08:45:48.000Z</time>
      </trkpt>
      <trkpt lat="43.55416" lon="2.56716">
        <ele>695.20001220703</ele>
        <time>2021-07-03T08:45:49.000Z</time>
      </trkpt>
      <trkpt lat="43.55419" lon="2.56717">
        <ele>694.79998779297</ele>
        <time>2021-07-03T08:45:50.000Z</time>
      </trkpt>
      <trkpt lat="43.55422" lon="2.56718">
        <ele>694.40002441406</ele>
        <time>2021-07-03T08:45:51.000Z</time>
      </trkpt>
      <trkpt lat="43.55428" lon="2.56721">
        <ele>694.40002441406</ele>
        <time>2021-07-03T08:45:53.000Z</time>
      </trkpt>
      <trkpt lat="43.5543" lon="2.56723">
        <ele>694</ele>
        <time>2021-07-03T08:45:54.000Z</time>
      </trkpt>
      <trkpt lat="43.55432" lon="2.56724">
        <ele>693</ele>
        <time>2021-07-03T08:45:55.000Z</time>
      </trkpt>
      <trkpt lat="43.55434" lon="2.56726">
        <ele>692.59997558594</ele>
        <time>2021-07-03T08:45:56.000Z</time>
      </trkpt>
      <trkpt lat="43.55437" lon="2.56727">
        <ele>692.20001220703</ele>
        <time>2021-07-03T08:45:57.000Z</time>
      </trkpt>
      <trkpt lat="43.55442" lon="2.5673">
        <ele>691.79998779297</ele>
        <time>2021-07-03T08:46:00.000Z</time>
      </trkpt>
      <trkpt lat="43.55444" lon="2.56731">
        <ele>691.40002441406</ele>
        <time>2021-07-03T08:46:01.000Z</time>
      </trkpt>
      <trkpt lat="43.55445" lon="2.56732">
        <ele>691</ele>
        <time>2021-07-03T08:46:02.000Z</time>
      </trkpt>
      <trkpt lat="43.55446" lon="2.56733">
        <ele>690.59997558594</ele>
        <time>2021-07-03T08:46:03.000Z</time>
      </trkpt>
      <trkpt lat="43.55448" lon="2.56733">
        <ele>690.20001220703</ele>
        <time>2021-07-03T08:46:04.000Z</time>
      </trkpt>
      <trkpt lat="43.55449" lon="2.56732">
        <ele>690.20001220703</ele>
        <time>2021-07-03T08:46:05.000Z</time>
      </trkpt>
      <trkpt lat="43.5545" lon="2.56732">
        <ele>690.20001220703</ele>
        <time>2021-07-03T08:46:06.000Z</time>
      </trkpt>
      <trkpt lat="43.55457" lon="2.56732">
        <ele>688</ele>
        <time>2021-07-03T08:46:35.000Z</time>
      </trkpt>
      <trkpt lat="43.55469" lon="2.5673">
        <ele>688</ele>
        <time>2021-07-03T08:46:40.000Z</time>
      </trkpt>
      <trkpt lat="43.55478" lon="2.56726">
        <ele>687.59997558594</ele>
        <time>2021-07-03T08:46:44.000Z</time>
      </trkpt>
      <trkpt lat="43.5548" lon="2.56726">
        <ele>686.79998779297</ele>
        <time>2021-07-03T08:46:45.000Z</time>
      </trkpt>
      <trkpt lat="43.55482" lon="2.56726">
        <ele>686.40002441406</ele>
        <time>2021-07-03T08:46:46.000Z</time>
      </trkpt>
      <trkpt lat="43.55484" lon="2.56726">
        <ele>686</ele>
        <time>2021-07-03T08:46:47.000Z</time>
      </trkpt>
      <trkpt lat="43.55486" lon="2.56727">
        <ele>686</ele>
        <time>2021-07-03T08:46:48.000Z</time>
      </trkpt>
      <trkpt lat="43.55489" lon="2.56729">
        <ele>686</ele>
        <time>2021-07-03T08:46:50.000Z</time>
      </trkpt>
      <trkpt lat="43.55494" lon="2.56732">
        <ele>685.59997558594</ele>
        <time>2021-07-03T08:46:55.000Z</time>
      </trkpt>
      <trkpt lat="43.55496" lon="2.56734">
        <ele>685.20001220703</ele>
        <time>2021-07-03T08:46:56.000Z</time>
      </trkpt>
      <trkpt lat="43.55497" lon="2.56733">
        <ele>684.79998779297</ele>
        <time>2021-07-03T08:46:57.000Z</time>
      </trkpt>
      <trkpt lat="43.55499" lon="2.56734">
        <ele>684.40002441406</ele>
        <time>2021-07-03T08:46:58.000Z</time>
      </trkpt>
      <trkpt lat="43.55504" lon="2.56734">
        <ele>683.20001220703</ele>
        <time>2021-07-03T08:47:11.000Z</time>
      </trkpt>
      <trkpt lat="43.55506" lon="2.56735">
        <ele>682.79998779297</ele>
        <time>2021-07-03T08:47:12.000Z</time>
      </trkpt>
      <trkpt lat="43.55508" lon="2.56735">
        <ele>682.20001220703</ele>
        <time>2021-07-03T08:47:13.000Z</time>
      </trkpt>
      <trkpt lat="43.5551" lon="2.56736">
        <ele>681.79998779297</ele>
        <time>2021-07-03T08:47:14.000Z</time>
      </trkpt>
      <trkpt lat="43.55516" lon="2.56739">
        <ele>681.40002441406</ele>
        <time>2021-07-03T08:47:17.000Z</time>
      </trkpt>
      <trkpt lat="43.55518" lon="2.5674">
        <ele>681</ele>
        <time>2021-07-03T08:47:18.000Z</time>
      </trkpt>
      <trkpt lat="43.55519" lon="2.56741">
        <ele>680.40002441406</ele>
        <time>2021-07-03T08:47:19.000Z</time>
      </trkpt>
      <trkpt lat="43.55521" lon="2.56742">
        <ele>680</ele>
        <time>2021-07-03T08:47:20.000Z</time>
      </trkpt>
      <trkpt lat="43.55522" lon="2.56743">
        <ele>679.59997558594</ele>
        <time>2021-07-03T08:47:21.000Z</time>
      </trkpt>
      <trkpt lat="43.55527" lon="2.56743">
        <ele>679.20001220703</ele>
        <time>2021-07-03T08:47:24.000Z</time>
      </trkpt>
      <trkpt lat="43.55529" lon="2.56744">
        <ele>678.79998779297</ele>
        <time>2021-07-03T08:47:25.000Z</time>
      </trkpt>
      <trkpt lat="43.55532" lon="2.56745">
        <ele>678.40002441406</ele>
        <time>2021-07-03T08:47:26.000Z</time>
      </trkpt>
      <trkpt lat="43.55533" lon="2.56745">
        <ele>678</ele>
        <time>2021-07-03T08:47:27.000Z</time>
      </trkpt>
      <trkpt lat="43.55535" lon="2.56744">
        <ele>677.59997558594</ele>
        <time>2021-07-03T08:47:28.000Z</time>
      </trkpt>
      <trkpt lat="43.55538" lon="2.56745">
        <ele>677.59997558594</ele>
        <time>2021-07-03T08:47:29.000Z</time>
      </trkpt>
      <trkpt lat="43.55546" lon="2.56746">
        <ele>677</ele>
        <time>2021-07-03T08:47:32.000Z</time>
      </trkpt>
      <trkpt lat="43.5555" lon="2.56745">
        <ele>676.59997558594</ele>
        <time>2021-07-03T08:47:33.000Z</time>
      </trkpt>
      <trkpt lat="43.55556" lon="2.56745">
        <ele>675.79998779297</ele>
        <time>2021-07-03T08:47:34.000Z</time>
      </trkpt>
      <trkpt lat="43.55561" lon="2.56743">
        <ele>675.20001220703</ele>
        <time>2021-07-03T08:47:35.000Z</time>
      </trkpt>
      <trkpt lat="43.55564" lon="2.56741">
        <ele>675.20001220703</ele>
        <time>2021-07-03T08:47:36.000Z</time>
      </trkpt>
      <trkpt lat="43.55575" lon="2.56734">
        <ele>675.20001220703</ele>
        <time>2021-07-03T08:47:39.000Z</time>
      </trkpt>
      <trkpt lat="43.55582" lon="2.56725">
        <ele>674.79998779297</ele>
        <time>2021-07-03T08:47:42.000Z</time>
      </trkpt>
      <trkpt lat="43.55583" lon="2.56723">
        <ele>674.40002441406</ele>
        <time>2021-07-03T08:47:43.000Z</time>
      </trkpt>
      <trkpt lat="43.55584" lon="2.56721">
        <ele>674</ele>
        <time>2021-07-03T08:47:44.000Z</time>
      </trkpt>
      <trkpt lat="43.55584" lon="2.56721">
        <ele>673.59997558594</ele>
        <time>2021-07-03T08:47:45.000Z</time>
      </trkpt>
      <trkpt lat="43.55589" lon="2.5671">
        <ele>673.20001220703</ele>
        <time>2021-07-03T08:50:03.000Z</time>
      </trkpt>
      <trkpt lat="43.55591" lon="2.56696">
        <ele>673.20001220703</ele>
        <time>2021-07-03T08:50:07.000Z</time>
      </trkpt>
      <trkpt lat="43.55591" lon="2.56679">
        <ele>673.20001220703</ele>
        <time>2021-07-03T08:50:11.000Z</time>
      </trkpt>
      <trkpt lat="43.55595" lon="2.56664">
        <ele>673.20001220703</ele>
        <time>2021-07-03T08:50:14.000Z</time>
      </trkpt>
      <trkpt lat="43.55598" lon="2.56654">
        <ele>673.20001220703</ele>
        <time>2021-07-03T08:50:16.000Z</time>
      </trkpt>
      <trkpt lat="43.55601" lon="2.56631">
        <ele>673.20001220703</ele>
        <time>2021-07-03T08:50:21.000Z</time>
      </trkpt>
      <trkpt lat="43.55602" lon="2.56626">
        <ele>673.59997558594</ele>
        <time>2021-07-03T08:50:22.000Z</time>
      </trkpt>
      <trkpt lat="43.55603" lon="2.56621">
        <ele>674</ele>
        <time>2021-07-03T08:50:23.000Z</time>
      </trkpt>
      <trkpt lat="43.55605" lon="2.56616">
        <ele>674.40002441406</ele>
        <time>2021-07-03T08:50:24.000Z</time>
      </trkpt>
      <trkpt lat="43.55606" lon="2.56611">
        <ele>674.79998779297</ele>
        <time>2021-07-03T08:50:25.000Z</time>
      </trkpt>
      <trkpt lat="43.55608" lon="2.56607">
        <ele>675.20001220703</ele>
        <time>2021-07-03T08:50:26.000Z</time>
      </trkpt>
      <trkpt lat="43.5561" lon="2.56603">
        <ele>675.20001220703</ele>
        <time>2021-07-03T08:50:27.000Z</time>
      </trkpt>
      <trkpt lat="43.55615" lon="2.56598">
        <ele>675.59997558594</ele>
        <time>2021-07-03T08:50:29.000Z</time>
      </trkpt>
      <trkpt lat="43.55618" lon="2.56595">
        <ele>676.20001220703</ele>
        <time>2021-07-03T08:50:30.000Z</time>
      </trkpt>
      <trkpt lat="43.55621" lon="2.56593">
        <ele>676.59997558594</ele>
        <time>2021-07-03T08:50:31.000Z</time>
      </trkpt>
      <trkpt lat="43.55624" lon="2.56591">
        <ele>677</ele>
        <time>2021-07-03T08:50:32.000Z</time>
      </trkpt>
      <trkpt lat="43.55627" lon="2.56589">
        <ele>677.40002441406</ele>
        <time>2021-07-03T08:50:33.000Z</time>
      </trkpt>
      <trkpt lat="43.55635" lon="2.5658">
        <ele>677.79998779297</ele>
        <time>2021-07-03T08:50:36.000Z</time>
      </trkpt>
      <trkpt lat="43.55637" lon="2.56577">
        <ele>678.40002441406</ele>
        <time>2021-07-03T08:50:37.000Z</time>
      </trkpt>
      <trkpt lat="43.5564" lon="2.56574">
        <ele>678.79998779297</ele>
        <time>2021-07-03T08:50:38.000Z</time>
      </trkpt>
      <trkpt lat="43.55642" lon="2.56571">
        <ele>679.20001220703</ele>
        <time>2021-07-03T08:50:39.000Z</time>
      </trkpt>
      <trkpt lat="43.55645" lon="2.56568">
        <ele>679.79998779297</ele>
        <time>2021-07-03T08:50:40.000Z</time>
      </trkpt>
      <trkpt lat="43.55654" lon="2.56562">
        <ele>680.20001220703</ele>
        <time>2021-07-03T08:50:43.000Z</time>
      </trkpt>
      <trkpt lat="43.55656" lon="2.5656">
        <ele>680.79998779297</ele>
        <time>2021-07-03T08:50:44.000Z</time>
      </trkpt>
      <trkpt lat="43.5566" lon="2.56559">
        <ele>681.20001220703</ele>
        <time>2021-07-03T08:50:45.000Z</time>
      </trkpt>
      <trkpt lat="43.55663" lon="2.56558">
        <ele>681.59997558594</ele>
        <time>2021-07-03T08:50:46.000Z</time>
      </trkpt>
      <trkpt lat="43.55666" lon="2.56557">
        <ele>682</ele>
        <time>2021-07-03T08:50:47.000Z</time>
      </trkpt>
      <trkpt lat="43.5568" lon="2.56557">
        <ele>682</ele>
        <time>2021-07-03T08:50:51.000Z</time>
      </trkpt>
      <trkpt lat="43.55683" lon="2.56557">
        <ele>682.59997558594</ele>
        <time>2021-07-03T08:50:52.000Z</time>
      </trkpt>
      <trkpt lat="43.55686" lon="2.56557">
        <ele>683.40002441406</ele>
        <time>2021-07-03T08:50:53.000Z</time>
      </trkpt>
      <trkpt lat="43.55689" lon="2.56557">
        <ele>683.79998779297</ele>
        <time>2021-07-03T08:50:54.000Z</time>
      </trkpt>
      <trkpt lat="43.55692" lon="2.56557">
        <ele>684.20001220703</ele>
        <time>2021-07-03T08:50:55.000Z</time>
      </trkpt>
      <trkpt lat="43.55699" lon="2.56558">
        <ele>684.20001220703</ele>
        <time>2021-07-03T08:50:57.000Z</time>
      </trkpt>
      <trkpt lat="43.55706" lon="2.5656">
        <ele>684.59997558594</ele>
        <time>2021-07-03T08:50:59.000Z</time>
      </trkpt>
      <trkpt lat="43.55709" lon="2.56562">
        <ele>685</ele>
        <time>2021-07-03T08:51:00.000Z</time>
      </trkpt>
      <trkpt lat="43.55712" lon="2.56563">
        <ele>685.40002441406</ele>
        <time>2021-07-03T08:51:01.000Z</time>
      </trkpt>
      <trkpt lat="43.55713" lon="2.56563">
        <ele>685.79998779297</ele>
        <time>2021-07-03T08:51:02.000Z</time>
      </trkpt>
      <trkpt lat="43.55715" lon="2.56563">
        <ele>686.20001220703</ele>
        <time>2021-07-03T08:51:03.000Z</time>
      </trkpt>
      <trkpt lat="43.55718" lon="2.56562">
        <ele>686.59997558594</ele>
        <time>2021-07-03T08:51:05.000Z</time>
      </trkpt>
      <trkpt lat="43.55718" lon="2.56562">
        <ele>687</ele>
        <time>2021-07-03T08:51:06.000Z</time>
      </trkpt>
      <trkpt lat="43.55718" lon="2.56561">
        <ele>687.40002441406</ele>
        <time>2021-07-03T08:51:07.000Z</time>
      </trkpt>
      <trkpt lat="43.55718" lon="2.56561">
        <ele>687.79998779297</ele>
        <time>2021-07-03T08:51:08.000Z</time>
      </trkpt>
      <trkpt lat="43.55722" lon="2.56561">
        <ele>688.40002441406</ele>
        <time>2021-07-03T08:51:33.000Z</time>
      </trkpt>
      <trkpt lat="43.55735" lon="2.56566">
        <ele>688.40002441406</ele>
        <time>2021-07-03T08:51:38.000Z</time>
      </trkpt>
      <trkpt lat="43.5574" lon="2.56568">
        <ele>688.79998779297</ele>
        <time>2021-07-03T08:51:40.000Z</time>
      </trkpt>
      <trkpt lat="43.55743" lon="2.56568">
        <ele>689.20001220703</ele>
        <time>2021-07-03T08:51:41.000Z</time>
      </trkpt>
      <trkpt lat="43.55746" lon="2.56567">
        <ele>689.59997558594</ele>
        <time>2021-07-03T08:51:42.000Z</time>
      </trkpt>
      <trkpt lat="43.5575" lon="2.56565">
        <ele>690.40002441406</ele>
        <time>2021-07-03T08:51:43.000Z</time>
      </trkpt>
      <trkpt lat="43.55756" lon="2.5656">
        <ele>690.79998779297</ele>
        <time>2021-07-03T08:51:45.000Z</time>
      </trkpt>
      <trkpt lat="43.55758" lon="2.56559">
        <ele>691.40002441406</ele>
        <time>2021-07-03T08:51:46.000Z</time>
      </trkpt>
      <trkpt lat="43.5576" lon="2.56558">
        <ele>691.79998779297</ele>
        <time>2021-07-03T08:51:47.000Z</time>
      </trkpt>
      <trkpt lat="43.55762" lon="2.56557">
        <ele>692.20001220703</ele>
        <time>2021-07-03T08:51:48.000Z</time>
      </trkpt>
      <trkpt lat="43.55765" lon="2.56555">
        <ele>692.59997558594</ele>
        <time>2021-07-03T08:51:49.000Z</time>
      </trkpt>
      <trkpt lat="43.55771" lon="2.5655">
        <ele>692.59997558594</ele>
        <time>2021-07-03T08:51:53.000Z</time>
      </trkpt>
      <trkpt lat="43.55775" lon="2.56545">
        <ele>693</ele>
        <time>2021-07-03T08:51:57.000Z</time>
      </trkpt>
      <trkpt lat="43.55776" lon="2.56545">
        <ele>693.40002441406</ele>
        <time>2021-07-03T08:51:58.000Z</time>
      </trkpt>
      <trkpt lat="43.55777" lon="2.56544">
        <ele>693.79998779297</ele>
        <time>2021-07-03T08:51:59.000Z</time>
      </trkpt>
      <trkpt lat="43.55778" lon="2.56542">
        <ele>694.20001220703</ele>
        <time>2021-07-03T08:52:00.000Z</time>
      </trkpt>
      <trkpt lat="43.5578" lon="2.56541">
        <ele>694.59997558594</ele>
        <time>2021-07-03T08:52:01.000Z</time>
      </trkpt>
      <trkpt lat="43.55781" lon="2.5654">
        <ele>694.59997558594</ele>
        <time>2021-07-03T08:52:02.000Z</time>
      </trkpt>
      <trkpt lat="43.55795" lon="2.56528">
        <ele>695</ele>
        <time>2021-07-03T08:52:09.000Z</time>
      </trkpt>
      <trkpt lat="43.55798" lon="2.56526">
        <ele>695.40002441406</ele>
        <time>2021-07-03T08:52:10.000Z</time>
      </trkpt>
      <trkpt lat="43.55801" lon="2.56524">
        <ele>695.79998779297</ele>
        <time>2021-07-03T08:52:11.000Z</time>
      </trkpt>
      <trkpt lat="43.55803" lon="2.56521">
        <ele>696.20001220703</ele>
        <time>2021-07-03T08:52:12.000Z</time>
      </trkpt>
      <trkpt lat="43.55806" lon="2.56519">
        <ele>696.79998779297</ele>
        <time>2021-07-03T08:52:13.000Z</time>
      </trkpt>
      <trkpt lat="43.55813" lon="2.56513">
        <ele>697.20001220703</ele>
        <time>2021-07-03T08:52:16.000Z</time>
      </trkpt>
      <trkpt lat="43.55816" lon="2.56511">
        <ele>697.59997558594</ele>
        <time>2021-07-03T08:52:17.000Z</time>
      </trkpt>
      <trkpt lat="43.55818" lon="2.56509">
        <ele>698.20001220703</ele>
        <time>2021-07-03T08:52:18.000Z</time>
      </trkpt>
      <trkpt lat="43.55821" lon="2.56507">
        <ele>698.59997558594</ele>
        <time>2021-07-03T08:52:19.000Z</time>
      </trkpt>
      <trkpt lat="43.55824" lon="2.56505">
        <ele>699</ele>
        <time>2021-07-03T08:52:20.000Z</time>
      </trkpt>
      <trkpt lat="43.55833" lon="2.56499">
        <ele>699</ele>
        <time>2021-07-03T08:52:23.000Z</time>
      </trkpt>
      <trkpt lat="43.55839" lon="2.56495">
        <ele>699.40002441406</ele>
        <time>2021-07-03T08:52:25.000Z</time>
      </trkpt>
      <trkpt lat="43.55842" lon="2.56493">
        <ele>699.79998779297</ele>
        <time>2021-07-03T08:52:26.000Z</time>
      </trkpt>
      <trkpt lat="43.55845" lon="2.56491">
        <ele>700.20001220703</ele>
        <time>2021-07-03T08:52:27.000Z</time>
      </trkpt>
      <trkpt lat="43.55849" lon="2.56489">
        <ele>700.79998779297</ele>
        <time>2021-07-03T08:52:28.000Z</time>
      </trkpt>
      <trkpt lat="43.55852" lon="2.56487">
        <ele>701.20001220703</ele>
        <time>2021-07-03T08:52:29.000Z</time>
      </trkpt>
      <trkpt lat="43.55856" lon="2.56485">
        <ele>701.20001220703</ele>
        <time>2021-07-03T08:52:30.000Z</time>
      </trkpt>
      <trkpt lat="43.5587" lon="2.56479">
        <ele>701.20001220703</ele>
        <time>2021-07-03T08:52:35.000Z</time>
      </trkpt>
      <trkpt lat="43.55889" lon="2.56471">
        <ele>701.20001220703</ele>
        <time>2021-07-03T08:52:42.000Z</time>
      </trkpt>
      <trkpt lat="43.55906" lon="2.56463">
        <ele>701.20001220703</ele>
        <time>2021-07-03T08:52:48.000Z</time>
      </trkpt>
      <trkpt lat="43.55927" lon="2.56452">
        <ele>701.20001220703</ele>
        <time>2021-07-03T08:52:54.000Z</time>
      </trkpt>
      <trkpt lat="43.55946" lon="2.56442">
        <ele>701.20001220703</ele>
        <time>2021-07-03T08:53:00.000Z</time>
      </trkpt>
      <trkpt lat="43.5597" lon="2.56428">
        <ele>701.20001220703</ele>
        <time>2021-07-03T08:53:06.000Z</time>
      </trkpt>
      <trkpt lat="43.55995" lon="2.5642">
        <ele>701.20001220703</ele>
        <time>2021-07-03T08:53:12.000Z</time>
      </trkpt>
      <trkpt lat="43.56024" lon="2.56414">
        <ele>701.20001220703</ele>
        <time>2021-07-03T08:53:20.000Z</time>
      </trkpt>
      <trkpt lat="43.56053" lon="2.56407">
        <ele>701.20001220703</ele>
        <time>2021-07-03T08:53:27.000Z</time>
      </trkpt>
      <trkpt lat="43.56088" lon="2.56396">
        <ele>701.20001220703</ele>
        <time>2021-07-03T08:53:35.000Z</time>
      </trkpt>
      <trkpt lat="43.56093" lon="2.56394">
        <ele>700.79998779297</ele>
        <time>2021-07-03T08:53:36.000Z</time>
      </trkpt>
      <trkpt lat="43.56097" lon="2.56391">
        <ele>700.20001220703</ele>
        <time>2021-07-03T08:53:37.000Z</time>
      </trkpt>
      <trkpt lat="43.56101" lon="2.56388">
        <ele>699.79998779297</ele>
        <time>2021-07-03T08:53:38.000Z</time>
      </trkpt>
      <trkpt lat="43.56106" lon="2.56386">
        <ele>699.40002441406</ele>
        <time>2021-07-03T08:53:39.000Z</time>
      </trkpt>
      <trkpt lat="43.5611" lon="2.56383">
        <ele>699</ele>
        <time>2021-07-03T08:53:40.000Z</time>
      </trkpt>
      <trkpt lat="43.56119" lon="2.56378">
        <ele>699</ele>
        <time>2021-07-03T08:53:42.000Z</time>
      </trkpt>
      <trkpt lat="43.56126" lon="2.56372">
        <ele>698.59997558594</ele>
        <time>2021-07-03T08:53:44.000Z</time>
      </trkpt>
      <trkpt lat="43.56129" lon="2.56369">
        <ele>698.20001220703</ele>
        <time>2021-07-03T08:53:45.000Z</time>
      </trkpt>
      <trkpt lat="43.56134" lon="2.56366">
        <ele>697.79998779297</ele>
        <time>2021-07-03T08:53:46.000Z</time>
      </trkpt>
      <trkpt lat="43.56139" lon="2.56363">
        <ele>697.40002441406</ele>
        <time>2021-07-03T08:53:47.000Z</time>
      </trkpt>
      <trkpt lat="43.56145" lon="2.56359">
        <ele>697</ele>
        <time>2021-07-03T08:53:48.000Z</time>
      </trkpt>
      <trkpt lat="43.56155" lon="2.56351">
        <ele>697</ele>
        <time>2021-07-03T08:53:50.000Z</time>
      </trkpt>
      <trkpt lat="43.56162" lon="2.56338">
        <ele>696.59997558594</ele>
        <time>2021-07-03T08:53:52.000Z</time>
      </trkpt>
      <trkpt lat="43.56165" lon="2.56332">
        <ele>696.20001220703</ele>
        <time>2021-07-03T08:53:53.000Z</time>
      </trkpt>
      <trkpt lat="43.56166" lon="2.56326">
        <ele>695.79998779297</ele>
        <time>2021-07-03T08:53:54.000Z</time>
      </trkpt>
      <trkpt lat="43.56167" lon="2.56322">
        <ele>695.40002441406</ele>
        <time>2021-07-03T08:53:55.000Z</time>
      </trkpt>
      <trkpt lat="43.56167" lon="2.56318">
        <ele>695</ele>
        <time>2021-07-03T08:53:56.000Z</time>
      </trkpt>
      <trkpt lat="43.56168" lon="2.56314">
        <ele>695</ele>
        <time>2021-07-03T08:53:57.000Z</time>
      </trkpt>
      <trkpt lat="43.56171" lon="2.56288">
        <ele>695</ele>
        <time>2021-07-03T08:54:03.000Z</time>
      </trkpt>
      <trkpt lat="43.56169" lon="2.56258">
        <ele>695</ele>
        <time>2021-07-03T08:54:09.000Z</time>
      </trkpt>
      <trkpt lat="43.56171" lon="2.56238">
        <ele>695</ele>
        <time>2021-07-03T08:54:14.000Z</time>
      </trkpt>
      <trkpt lat="43.56174" lon="2.56228">
        <ele>695</ele>
        <time>2021-07-03T08:54:18.000Z</time>
      </trkpt>
      <trkpt lat="43.56176" lon="2.56224">
        <ele>695</ele>
        <time>2021-07-03T08:54:19.000Z</time>
      </trkpt>
      <trkpt lat="43.56187" lon="2.56207">
        <ele>695</ele>
        <time>2021-07-03T08:54:24.000Z</time>
      </trkpt>
      <trkpt lat="43.56192" lon="2.56203">
        <ele>695.40002441406</ele>
        <time>2021-07-03T08:54:26.000Z</time>
      </trkpt>
      <trkpt lat="43.56195" lon="2.56202">
        <ele>695.79998779297</ele>
        <time>2021-07-03T08:54:27.000Z</time>
      </trkpt>
      <trkpt lat="43.56197" lon="2.562">
        <ele>696.20001220703</ele>
        <time>2021-07-03T08:54:28.000Z</time>
      </trkpt>
      <trkpt lat="43.56199" lon="2.56198">
        <ele>696.59997558594</ele>
        <time>2021-07-03T08:54:29.000Z</time>
      </trkpt>
      <trkpt lat="43.56201" lon="2.56197">
        <ele>697</ele>
        <time>2021-07-03T08:54:30.000Z</time>
      </trkpt>
      <trkpt lat="43.56214" lon="2.56188">
        <ele>697</ele>
        <time>2021-07-03T08:54:36.000Z</time>
      </trkpt>
      <trkpt lat="43.56229" lon="2.56173">
        <ele>697</ele>
        <time>2021-07-03T08:54:43.000Z</time>
      </trkpt>
      <trkpt lat="43.56244" lon="2.56163">
        <ele>697</ele>
        <time>2021-07-03T08:54:49.000Z</time>
      </trkpt>
      <trkpt lat="43.56253" lon="2.56159">
        <ele>697</ele>
        <time>2021-07-03T08:54:54.000Z</time>
      </trkpt>
      <trkpt lat="43.56254" lon="2.56159">
        <ele>697</ele>
        <time>2021-07-03T08:54:56.000Z</time>
      </trkpt>
      <trkpt lat="43.56258" lon="2.56158">
        <ele>697.40002441406</ele>
        <time>2021-07-03T08:55:16.000Z</time>
      </trkpt>
      <trkpt lat="43.56262" lon="2.56157">
        <ele>697.79998779297</ele>
        <time>2021-07-03T08:55:17.000Z</time>
      </trkpt>
      <trkpt lat="43.56266" lon="2.56155">
        <ele>698.40002441406</ele>
        <time>2021-07-03T08:55:18.000Z</time>
      </trkpt>
      <trkpt lat="43.5627" lon="2.56154">
        <ele>699.20001220703</ele>
        <time>2021-07-03T08:55:19.000Z</time>
      </trkpt>
      <trkpt lat="43.56278" lon="2.56147">
        <ele>699.20001220703</ele>
        <time>2021-07-03T08:55:21.000Z</time>
      </trkpt>
      <trkpt lat="43.56289" lon="2.56127">
        <ele>699.59997558594</ele>
        <time>2021-07-03T08:55:26.000Z</time>
      </trkpt>
      <trkpt lat="43.5629" lon="2.56123">
        <ele>700</ele>
        <time>2021-07-03T08:55:27.000Z</time>
      </trkpt>
      <trkpt lat="43.5629" lon="2.56118">
        <ele>700.40002441406</ele>
        <time>2021-07-03T08:55:28.000Z</time>
      </trkpt>
      <trkpt lat="43.56291" lon="2.56115">
        <ele>700.79998779297</ele>
        <time>2021-07-03T08:55:29.000Z</time>
      </trkpt>
      <trkpt lat="43.56291" lon="2.5611">
        <ele>701.20001220703</ele>
        <time>2021-07-03T08:55:30.000Z</time>
      </trkpt>
      <trkpt lat="43.56291" lon="2.561">
        <ele>701.20001220703</ele>
        <time>2021-07-03T08:55:32.000Z</time>
      </trkpt>
      <trkpt lat="43.5629" lon="2.56061">
        <ele>701.20001220703</ele>
        <time>2021-07-03T08:55:40.000Z</time>
      </trkpt>
      <trkpt lat="43.56291" lon="2.56047">
        <ele>701.20001220703</ele>
        <time>2021-07-03T08:55:44.000Z</time>
      </trkpt>
      <trkpt lat="43.56296" lon="2.56041">
        <ele>701.20001220703</ele>
        <time>2021-07-03T08:55:47.000Z</time>
      </trkpt>
      <trkpt lat="43.56298" lon="2.56042">
        <ele>701.20001220703</ele>
        <time>2021-07-03T08:55:48.000Z</time>
      </trkpt>
      <trkpt lat="43.563" lon="2.56042">
        <ele>701.59997558594</ele>
        <time>2021-07-03T08:55:49.000Z</time>
      </trkpt>
      <trkpt lat="43.56302" lon="2.56042">
        <ele>702</ele>
        <time>2021-07-03T08:55:50.000Z</time>
      </trkpt>
      <trkpt lat="43.56304" lon="2.56042">
        <ele>702.40002441406</ele>
        <time>2021-07-03T08:55:51.000Z</time>
      </trkpt>
      <trkpt lat="43.56305" lon="2.56042">
        <ele>702.79998779297</ele>
        <time>2021-07-03T08:55:52.000Z</time>
      </trkpt>
      <trkpt lat="43.56307" lon="2.56042">
        <ele>703.20001220703</ele>
        <time>2021-07-03T08:55:53.000Z</time>
      </trkpt>
      <trkpt lat="43.56314" lon="2.56043">
        <ele>703.20001220703</ele>
        <time>2021-07-03T08:55:56.000Z</time>
      </trkpt>
      <trkpt lat="43.56334" lon="2.56048">
        <ele>703.20001220703</ele>
        <time>2021-07-03T08:56:04.000Z</time>
      </trkpt>
      <trkpt lat="43.5634" lon="2.56051">
        <ele>703.20001220703</ele>
        <time>2021-07-03T08:56:09.000Z</time>
      </trkpt>
      <trkpt lat="43.56343" lon="2.56051">
        <ele>703.20001220703</ele>
        <time>2021-07-03T08:56:14.000Z</time>
      </trkpt>
      <trkpt lat="43.56348" lon="2.5605">
        <ele>703.20001220703</ele>
        <time>2021-07-03T08:56:16.000Z</time>
      </trkpt>
      <trkpt lat="43.56361" lon="2.56052">
        <ele>703.59997558594</ele>
        <time>2021-07-03T08:56:21.000Z</time>
      </trkpt>
      <trkpt lat="43.56363" lon="2.56053">
        <ele>704.20001220703</ele>
        <time>2021-07-03T08:56:22.000Z</time>
      </trkpt>
      <trkpt lat="43.56365" lon="2.56054">
        <ele>704.59997558594</ele>
        <time>2021-07-03T08:56:23.000Z</time>
      </trkpt>
      <trkpt lat="43.56367" lon="2.56054">
        <ele>705</ele>
        <time>2021-07-03T08:56:24.000Z</time>
      </trkpt>
      <trkpt lat="43.5637" lon="2.56055">
        <ele>705.40002441406</ele>
        <time>2021-07-03T08:56:25.000Z</time>
      </trkpt>
      <trkpt lat="43.56373" lon="2.56056">
        <ele>705.40002441406</ele>
        <time>2021-07-03T08:56:26.000Z</time>
      </trkpt>
      <trkpt lat="43.56382" lon="2.56061">
        <ele>705.79998779297</ele>
        <time>2021-07-03T08:56:29.000Z</time>
      </trkpt>
      <trkpt lat="43.56384" lon="2.56061">
        <ele>706.40002441406</ele>
        <time>2021-07-03T08:56:30.000Z</time>
      </trkpt>
      <trkpt lat="43.56387" lon="2.56063">
        <ele>706.79998779297</ele>
        <time>2021-07-03T08:56:31.000Z</time>
      </trkpt>
      <trkpt lat="43.5639" lon="2.56064">
        <ele>707.20001220703</ele>
        <time>2021-07-03T08:56:32.000Z</time>
      </trkpt>
      <trkpt lat="43.56393" lon="2.56065">
        <ele>707.59997558594</ele>
        <time>2021-07-03T08:56:33.000Z</time>
      </trkpt>
      <trkpt lat="43.56401" lon="2.56068">
        <ele>708</ele>
        <time>2021-07-03T08:56:37.000Z</time>
      </trkpt>
      <trkpt lat="43.56403" lon="2.56068">
        <ele>708.40002441406</ele>
        <time>2021-07-03T08:56:38.000Z</time>
      </trkpt>
      <trkpt lat="43.56406" lon="2.56068">
        <ele>708.79998779297</ele>
        <time>2021-07-03T08:56:39.000Z</time>
      </trkpt>
      <trkpt lat="43.56409" lon="2.56068">
        <ele>709.20001220703</ele>
        <time>2021-07-03T08:56:40.000Z</time>
      </trkpt>
      <trkpt lat="43.56411" lon="2.56069">
        <ele>709.79998779297</ele>
        <time>2021-07-03T08:56:41.000Z</time>
      </trkpt>
      <trkpt lat="43.56416" lon="2.56069">
        <ele>709.79998779297</ele>
        <time>2021-07-03T08:56:43.000Z</time>
      </trkpt>
      <trkpt lat="43.56426" lon="2.56069">
        <ele>710.20001220703</ele>
        <time>2021-07-03T08:56:47.000Z</time>
      </trkpt>
      <trkpt lat="43.56429" lon="2.56068">
        <ele>710.59997558594</ele>
        <time>2021-07-03T08:56:48.000Z</time>
      </trkpt>
      <trkpt lat="43.56431" lon="2.56066">
        <ele>711</ele>
        <time>2021-07-03T08:56:49.000Z</time>
      </trkpt>
      <trkpt lat="43.56433" lon="2.56063">
        <ele>711.40002441406</ele>
        <time>2021-07-03T08:56:50.000Z</time>
      </trkpt>
      <trkpt lat="43.56435" lon="2.56061">
        <ele>711.79998779297</ele>
        <time>2021-07-03T08:56:51.000Z</time>
      </trkpt>
      <trkpt lat="43.56444" lon="2.56054">
        <ele>711.79998779297</ele>
        <time>2021-07-03T08:56:55.000Z</time>
      </trkpt>
      <trkpt lat="43.56454" lon="2.56051">
        <ele>712.20001220703</ele>
        <time>2021-07-03T08:56:59.000Z</time>
      </trkpt>
      <trkpt lat="43.56456" lon="2.56049">
        <ele>712.59997558594</ele>
        <time>2021-07-03T08:57:00.000Z</time>
      </trkpt>
      <trkpt lat="43.56458" lon="2.56048">
        <ele>713</ele>
        <time>2021-07-03T08:57:01.000Z</time>
      </trkpt>
      <trkpt lat="43.56459" lon="2.56045">
        <ele>713.59997558594</ele>
        <time>2021-07-03T08:57:02.000Z</time>
      </trkpt>
      <trkpt lat="43.5646" lon="2.56043">
        <ele>714</ele>
        <time>2021-07-03T08:57:03.000Z</time>
      </trkpt>
      <trkpt lat="43.56466" lon="2.56038">
        <ele>714</ele>
        <time>2021-07-03T08:57:06.000Z</time>
      </trkpt>
      <trkpt lat="43.56483" lon="2.56027">
        <ele>714</ele>
        <time>2021-07-03T08:57:12.000Z</time>
      </trkpt>
      <trkpt lat="43.56501" lon="2.56023">
        <ele>713.40002441406</ele>
        <time>2021-07-03T08:57:17.000Z</time>
      </trkpt>
      <trkpt lat="43.56505" lon="2.56023">
        <ele>713</ele>
        <time>2021-07-03T08:57:18.000Z</time>
      </trkpt>
      <trkpt lat="43.5651" lon="2.56024">
        <ele>712.59997558594</ele>
        <time>2021-07-03T08:57:19.000Z</time>
      </trkpt>
      <trkpt lat="43.56514" lon="2.56025">
        <ele>712</ele>
        <time>2021-07-03T08:57:20.000Z</time>
      </trkpt>
      <trkpt lat="43.56519" lon="2.56026">
        <ele>711.59997558594</ele>
        <time>2021-07-03T08:57:21.000Z</time>
      </trkpt>
      <trkpt lat="43.56524" lon="2.56026">
        <ele>711.20001220703</ele>
        <time>2021-07-03T08:57:22.000Z</time>
      </trkpt>
      <trkpt lat="43.56528" lon="2.56027">
        <ele>710.20001220703</ele>
        <time>2021-07-03T08:57:23.000Z</time>
      </trkpt>
      <trkpt lat="43.56533" lon="2.56027">
        <ele>709.79998779297</ele>
        <time>2021-07-03T08:57:24.000Z</time>
      </trkpt>
      <trkpt lat="43.56537" lon="2.56029">
        <ele>709.40002441406</ele>
        <time>2021-07-03T08:57:25.000Z</time>
      </trkpt>
      <trkpt lat="43.56542" lon="2.56031">
        <ele>708.79998779297</ele>
        <time>2021-07-03T08:57:26.000Z</time>
      </trkpt>
      <trkpt lat="43.56547" lon="2.56034">
        <ele>708.40002441406</ele>
        <time>2021-07-03T08:57:27.000Z</time>
      </trkpt>
      <trkpt lat="43.56552" lon="2.56037">
        <ele>707.79998779297</ele>
        <time>2021-07-03T08:57:28.000Z</time>
      </trkpt>
      <trkpt lat="43.56556" lon="2.56041">
        <ele>707.40002441406</ele>
        <time>2021-07-03T08:57:29.000Z</time>
      </trkpt>
      <trkpt lat="43.5656" lon="2.56045">
        <ele>706.79998779297</ele>
        <time>2021-07-03T08:57:30.000Z</time>
      </trkpt>
      <trkpt lat="43.56564" lon="2.56049">
        <ele>706.20001220703</ele>
        <time>2021-07-03T08:57:31.000Z</time>
      </trkpt>
      <trkpt lat="43.56568" lon="2.56054">
        <ele>705.79998779297</ele>
        <time>2021-07-03T08:57:32.000Z</time>
      </trkpt>
      <trkpt lat="43.56571" lon="2.56058">
        <ele>705.20001220703</ele>
        <time>2021-07-03T08:57:33.000Z</time>
      </trkpt>
      <trkpt lat="43.56575" lon="2.56062">
        <ele>704.59997558594</ele>
        <time>2021-07-03T08:57:34.000Z</time>
      </trkpt>
      <trkpt lat="43.56578" lon="2.56066">
        <ele>704</ele>
        <time>2021-07-03T08:57:35.000Z</time>
      </trkpt>
      <trkpt lat="43.56582" lon="2.5607">
        <ele>703.40002441406</ele>
        <time>2021-07-03T08:57:36.000Z</time>
      </trkpt>
      <trkpt lat="43.56585" lon="2.56073">
        <ele>702.79998779297</ele>
        <time>2021-07-03T08:57:37.000Z</time>
      </trkpt>
      <trkpt lat="43.56588" lon="2.56076">
        <ele>702.20001220703</ele>
        <time>2021-07-03T08:57:38.000Z</time>
      </trkpt>
      <trkpt lat="43.56591" lon="2.56079">
        <ele>701.79998779297</ele>
        <time>2021-07-03T08:57:39.000Z</time>
      </trkpt>
      <trkpt lat="43.56594" lon="2.56081">
        <ele>701.20001220703</ele>
        <time>2021-07-03T08:57:40.000Z</time>
      </trkpt>
      <trkpt lat="43.56597" lon="2.5608">
        <ele>700.59997558594</ele>
        <time>2021-07-03T08:57:41.000Z</time>
      </trkpt>
      <trkpt lat="43.566" lon="2.56076">
        <ele>700</ele>
        <time>2021-07-03T08:57:42.000Z</time>
      </trkpt>
      <trkpt lat="43.566" lon="2.56072">
        <ele>699.59997558594</ele>
        <time>2021-07-03T08:57:43.000Z</time>
      </trkpt>
      <trkpt lat="43.56598" lon="2.56071">
        <ele>699.20001220703</ele>
        <time>2021-07-03T08:57:44.000Z</time>
      </trkpt>
      <trkpt lat="43.56596" lon="2.56069">
        <ele>698.79998779297</ele>
        <time>2021-07-03T08:57:45.000Z</time>
      </trkpt>
      <trkpt lat="43.56596" lon="2.56066">
        <ele>698.20001220703</ele>
        <time>2021-07-03T08:57:46.000Z</time>
      </trkpt>
      <trkpt lat="43.56595" lon="2.56064">
        <ele>697.79998779297</ele>
        <time>2021-07-03T08:57:47.000Z</time>
      </trkpt>
      <trkpt lat="43.56591" lon="2.56059">
        <ele>697.79998779297</ele>
        <time>2021-07-03T08:57:49.000Z</time>
      </trkpt>
      <trkpt lat="43.56585" lon="2.56044">
        <ele>697.79998779297</ele>
        <time>2021-07-03T08:57:54.000Z</time>
      </trkpt>
      <trkpt lat="43.56581" lon="2.56027">
        <ele>697.79998779297</ele>
        <time>2021-07-03T08:57:58.000Z</time>
      </trkpt>
      <trkpt lat="43.56581" lon="2.56023">
        <ele>697.40002441406</ele>
        <time>2021-07-03T08:57:59.000Z</time>
      </trkpt>
      <trkpt lat="43.56581" lon="2.56019">
        <ele>697</ele>
        <time>2021-07-03T08:58:00.000Z</time>
      </trkpt>
      <trkpt lat="43.56582" lon="2.56014">
        <ele>696.59997558594</ele>
        <time>2021-07-03T08:58:01.000Z</time>
      </trkpt>
      <trkpt lat="43.56582" lon="2.56008">
        <ele>696</ele>
        <time>2021-07-03T08:58:02.000Z</time>
      </trkpt>
      <trkpt lat="43.56582" lon="2.56004">
        <ele>695.59997558594</ele>
        <time>2021-07-03T08:58:03.000Z</time>
      </trkpt>
      <trkpt lat="43.56583" lon="2.56001">
        <ele>695.20001220703</ele>
        <time>2021-07-03T08:58:04.000Z</time>
      </trkpt>
      <trkpt lat="43.56587" lon="2.55996">
        <ele>694.59997558594</ele>
        <time>2021-07-03T08:58:05.000Z</time>
      </trkpt>
      <trkpt lat="43.5659" lon="2.55993">
        <ele>694.20001220703</ele>
        <time>2021-07-03T08:58:06.000Z</time>
      </trkpt>
      <trkpt lat="43.56593" lon="2.55993">
        <ele>693.59997558594</ele>
        <time>2021-07-03T08:58:07.000Z</time>
      </trkpt>
      <trkpt lat="43.56596" lon="2.55992">
        <ele>693.20001220703</ele>
        <time>2021-07-03T08:58:08.000Z</time>
      </trkpt>
      <trkpt lat="43.56617" lon="2.55994">
        <ele>692.79998779297</ele>
        <time>2021-07-03T08:58:13.000Z</time>
      </trkpt>
      <trkpt lat="43.56622" lon="2.55993">
        <ele>692.20001220703</ele>
        <time>2021-07-03T08:58:14.000Z</time>
      </trkpt>
      <trkpt lat="43.56626" lon="2.55992">
        <ele>691.79998779297</ele>
        <time>2021-07-03T08:58:15.000Z</time>
      </trkpt>
      <trkpt lat="43.5663" lon="2.55991">
        <ele>691.40002441406</ele>
        <time>2021-07-03T08:58:16.000Z</time>
      </trkpt>
      <trkpt lat="43.56635" lon="2.55989">
        <ele>691</ele>
        <time>2021-07-03T08:58:17.000Z</time>
      </trkpt>
      <trkpt lat="43.56639" lon="2.55987">
        <ele>691</ele>
        <time>2021-07-03T08:58:18.000Z</time>
      </trkpt>
      <trkpt lat="43.56654" lon="2.55973">
        <ele>691</ele>
        <time>2021-07-03T08:58:22.000Z</time>
      </trkpt>
      <trkpt lat="43.56669" lon="2.55963">
        <ele>691</ele>
        <time>2021-07-03T08:58:27.000Z</time>
      </trkpt>
      <trkpt lat="43.56672" lon="2.5596">
        <ele>691</ele>
        <time>2021-07-03T08:58:30.000Z</time>
      </trkpt>
      <trkpt lat="43.56672" lon="2.5596">
        <ele>691</ele>
        <time>2021-07-03T08:58:31.000Z</time>
      </trkpt>
      <trkpt lat="43.56665" lon="2.55968">
        <ele>691</ele>
        <time>2021-07-03T08:58:34.000Z</time>
      </trkpt>
      <trkpt lat="43.56665" lon="2.55977">
        <ele>691</ele>
        <time>2021-07-03T08:58:37.000Z</time>
      </trkpt>
      <trkpt lat="43.56672" lon="2.55983">
        <ele>691.59997558594</ele>
        <time>2021-07-03T08:58:40.000Z</time>
      </trkpt>
      <trkpt lat="43.56674" lon="2.55985">
        <ele>692</ele>
        <time>2021-07-03T08:58:41.000Z</time>
      </trkpt>
      <trkpt lat="43.56678" lon="2.55988">
        <ele>692.40002441406</ele>
        <time>2021-07-03T08:58:42.000Z</time>
      </trkpt>
      <trkpt lat="43.56681" lon="2.5599">
        <ele>693</ele>
        <time>2021-07-03T08:58:43.000Z</time>
      </trkpt>
      <trkpt lat="43.56683" lon="2.55993">
        <ele>693.40002441406</ele>
        <time>2021-07-03T08:58:44.000Z</time>
      </trkpt>
      <trkpt lat="43.56687" lon="2.55995">
        <ele>693.79998779297</ele>
        <time>2021-07-03T08:58:45.000Z</time>
      </trkpt>
      <trkpt lat="43.5669" lon="2.55998">
        <ele>694.40002441406</ele>
        <time>2021-07-03T08:58:46.000Z</time>
      </trkpt>
      <trkpt lat="43.56692" lon="2.56001">
        <ele>694.79998779297</ele>
        <time>2021-07-03T08:58:47.000Z</time>
      </trkpt>
      <trkpt lat="43.56694" lon="2.56005">
        <ele>695.40002441406</ele>
        <time>2021-07-03T08:58:48.000Z</time>
      </trkpt>
      <trkpt lat="43.56697" lon="2.56008">
        <ele>695.79998779297</ele>
        <time>2021-07-03T08:58:49.000Z</time>
      </trkpt>
      <trkpt lat="43.56708" lon="2.56022">
        <ele>695.79998779297</ele>
        <time>2021-07-03T08:58:53.000Z</time>
      </trkpt>
      <trkpt lat="43.56715" lon="2.56024">
        <ele>696.20001220703</ele>
        <time>2021-07-03T08:58:55.000Z</time>
      </trkpt>
      <trkpt lat="43.56718" lon="2.56024">
        <ele>696.59997558594</ele>
        <time>2021-07-03T08:58:56.000Z</time>
      </trkpt>
      <trkpt lat="43.56721" lon="2.56025">
        <ele>697</ele>
        <time>2021-07-03T08:58:57.000Z</time>
      </trkpt>
      <trkpt lat="43.56723" lon="2.56025">
        <ele>697.59997558594</ele>
        <time>2021-07-03T08:58:58.000Z</time>
      </trkpt>
      <trkpt lat="43.56726" lon="2.56025">
        <ele>698</ele>
        <time>2021-07-03T08:58:59.000Z</time>
      </trkpt>
      <trkpt lat="43.56734" lon="2.56028">
        <ele>698</ele>
        <time>2021-07-03T08:59:03.000Z</time>
      </trkpt>
      <trkpt lat="43.56747" lon="2.56043">
        <ele>698.40002441406</ele>
        <time>2021-07-03T08:59:07.000Z</time>
      </trkpt>
      <trkpt lat="43.56749" lon="2.56047">
        <ele>698.79998779297</ele>
        <time>2021-07-03T08:59:08.000Z</time>
      </trkpt>
      <trkpt lat="43.56752" lon="2.56051">
        <ele>699.20001220703</ele>
        <time>2021-07-03T08:59:09.000Z</time>
      </trkpt>
      <trkpt lat="43.56753" lon="2.56056">
        <ele>699.59997558594</ele>
        <time>2021-07-03T08:59:10.000Z</time>
      </trkpt>
      <trkpt lat="43.56755" lon="2.5606">
        <ele>700</ele>
        <time>2021-07-03T08:59:11.000Z</time>
      </trkpt>
      <trkpt lat="43.5676" lon="2.56066">
        <ele>700</ele>
        <time>2021-07-03T08:59:13.000Z</time>
      </trkpt>
      <trkpt lat="43.56772" lon="2.56075">
        <ele>700.40002441406</ele>
        <time>2021-07-03T08:59:17.000Z</time>
      </trkpt>
      <trkpt lat="43.56774" lon="2.56077">
        <ele>700.79998779297</ele>
        <time>2021-07-03T08:59:18.000Z</time>
      </trkpt>
      <trkpt lat="43.56777" lon="2.5608">
        <ele>701.20001220703</ele>
        <time>2021-07-03T08:59:19.000Z</time>
      </trkpt>
      <trkpt lat="43.5678" lon="2.56082">
        <ele>701.79998779297</ele>
        <time>2021-07-03T08:59:20.000Z</time>
      </trkpt>
      <trkpt lat="43.56783" lon="2.56084">
        <ele>702.20001220703</ele>
        <time>2021-07-03T08:59:21.000Z</time>
      </trkpt>
      <trkpt lat="43.56795" lon="2.56093">
        <ele>702.20001220703</ele>
        <time>2021-07-03T08:59:25.000Z</time>
      </trkpt>
      <trkpt lat="43.56806" lon="2.56104">
        <ele>702.59997558594</ele>
        <time>2021-07-03T08:59:29.000Z</time>
      </trkpt>
      <trkpt lat="43.56808" lon="2.56107">
        <ele>703</ele>
        <time>2021-07-03T08:59:30.000Z</time>
      </trkpt>
      <trkpt lat="43.5681" lon="2.56111">
        <ele>703.40002441406</ele>
        <time>2021-07-03T08:59:31.000Z</time>
      </trkpt>
      <trkpt lat="43.56812" lon="2.56114">
        <ele>703.79998779297</ele>
        <time>2021-07-03T08:59:32.000Z</time>
      </trkpt>
      <trkpt lat="43.56814" lon="2.56118">
        <ele>704.20001220703</ele>
        <time>2021-07-03T08:59:33.000Z</time>
      </trkpt>
      <trkpt lat="43.56826" lon="2.56137">
        <ele>704.20001220703</ele>
        <time>2021-07-03T08:59:38.000Z</time>
      </trkpt>
      <trkpt lat="43.56835" lon="2.56154">
        <ele>704.59997558594</ele>
        <time>2021-07-03T08:59:42.000Z</time>
      </trkpt>
      <trkpt lat="43.56836" lon="2.56159">
        <ele>705</ele>
        <time>2021-07-03T08:59:43.000Z</time>
      </trkpt>
      <trkpt lat="43.56838" lon="2.56164">
        <ele>705.40002441406</ele>
        <time>2021-07-03T08:59:44.000Z</time>
      </trkpt>
      <trkpt lat="43.56839" lon="2.56169">
        <ele>706</ele>
        <time>2021-07-03T08:59:45.000Z</time>
      </trkpt>
      <trkpt lat="43.56841" lon="2.56173">
        <ele>706.40002441406</ele>
        <time>2021-07-03T08:59:46.000Z</time>
      </trkpt>
      <trkpt lat="43.56845" lon="2.56191">
        <ele>706.40002441406</ele>
        <time>2021-07-03T08:59:50.000Z</time>
      </trkpt>
      <trkpt lat="43.56844" lon="2.56221">
        <ele>706.40002441406</ele>
        <time>2021-07-03T08:59:56.000Z</time>
      </trkpt>
      <trkpt lat="43.56843" lon="2.56246">
        <ele>706.40002441406</ele>
        <time>2021-07-03T09:00:02.000Z</time>
      </trkpt>
      <trkpt lat="43.56842" lon="2.56266">
        <ele>706.79998779297</ele>
        <time>2021-07-03T09:00:07.000Z</time>
      </trkpt>
      <trkpt lat="43.56842" lon="2.56269">
        <ele>707.20001220703</ele>
        <time>2021-07-03T09:00:08.000Z</time>
      </trkpt>
      <trkpt lat="43.56842" lon="2.56273">
        <ele>707.59997558594</ele>
        <time>2021-07-03T09:00:09.000Z</time>
      </trkpt>
      <trkpt lat="43.56841" lon="2.56277">
        <ele>708</ele>
        <time>2021-07-03T09:00:10.000Z</time>
      </trkpt>
      <trkpt lat="43.56841" lon="2.56281">
        <ele>708.59997558594</ele>
        <time>2021-07-03T09:00:11.000Z</time>
      </trkpt>
      <trkpt lat="43.5684" lon="2.56293">
        <ele>708.59997558594</ele>
        <time>2021-07-03T09:00:15.000Z</time>
      </trkpt>
      <trkpt lat="43.5684" lon="2.56308">
        <ele>708.59997558594</ele>
        <time>2021-07-03T09:00:20.000Z</time>
      </trkpt>
      <trkpt lat="43.5684" lon="2.56312">
        <ele>708.59997558594</ele>
        <time>2021-07-03T09:00:21.000Z</time>
      </trkpt>
      <trkpt lat="43.5684" lon="2.56316">
        <ele>709</ele>
        <time>2021-07-03T09:00:22.000Z</time>
      </trkpt>
      <trkpt lat="43.56839" lon="2.5632">
        <ele>709.40002441406</ele>
        <time>2021-07-03T09:00:23.000Z</time>
      </trkpt>
      <trkpt lat="43.56839" lon="2.56323">
        <ele>709.79998779297</ele>
        <time>2021-07-03T09:00:24.000Z</time>
      </trkpt>
      <trkpt lat="43.56838" lon="2.56326">
        <ele>710.20001220703</ele>
        <time>2021-07-03T09:00:25.000Z</time>
      </trkpt>
      <trkpt lat="43.56837" lon="2.5633">
        <ele>710.59997558594</ele>
        <time>2021-07-03T09:00:26.000Z</time>
      </trkpt>
      <trkpt lat="43.56836" lon="2.56346">
        <ele>710.59997558594</ele>
        <time>2021-07-03T09:00:30.000Z</time>
      </trkpt>
      <trkpt lat="43.56836" lon="2.56367">
        <ele>710.59997558594</ele>
        <time>2021-07-03T09:00:37.000Z</time>
      </trkpt>
      <trkpt lat="43.56837" lon="2.56382">
        <ele>710.59997558594</ele>
        <time>2021-07-03T09:00:42.000Z</time>
      </trkpt>
      <trkpt lat="43.56838" lon="2.56397">
        <ele>710.59997558594</ele>
        <time>2021-07-03T09:00:46.000Z</time>
      </trkpt>
      <trkpt lat="43.56841" lon="2.56419">
        <ele>710.59997558594</ele>
        <time>2021-07-03T09:00:52.000Z</time>
      </trkpt>
      <trkpt lat="43.56841" lon="2.56423">
        <ele>711</ele>
        <time>2021-07-03T09:00:53.000Z</time>
      </trkpt>
      <trkpt lat="43.56841" lon="2.56426">
        <ele>711.40002441406</ele>
        <time>2021-07-03T09:00:54.000Z</time>
      </trkpt>
      <trkpt lat="43.56841" lon="2.56429">
        <ele>712</ele>
        <time>2021-07-03T09:00:55.000Z</time>
      </trkpt>
      <trkpt lat="43.56841" lon="2.56432">
        <ele>712.40002441406</ele>
        <time>2021-07-03T09:00:56.000Z</time>
      </trkpt>
      <trkpt lat="43.56842" lon="2.56434">
        <ele>712.79998779297</ele>
        <time>2021-07-03T09:00:57.000Z</time>
      </trkpt>
      <trkpt lat="43.56843" lon="2.56453">
        <ele>712.79998779297</ele>
        <time>2021-07-03T09:01:02.000Z</time>
      </trkpt>
      <trkpt lat="43.56843" lon="2.56463">
        <ele>712.79998779297</ele>
        <time>2021-07-03T09:01:05.000Z</time>
      </trkpt>
      <trkpt lat="43.56843" lon="2.56465">
        <ele>712.79998779297</ele>
        <time>2021-07-03T09:01:06.000Z</time>
      </trkpt>
      <trkpt lat="43.56844" lon="2.56475">
        <ele>712.79998779297</ele>
        <time>2021-07-03T09:01:09.000Z</time>
      </trkpt>
      <trkpt lat="43.56844" lon="2.56482">
        <ele>712.79998779297</ele>
        <time>2021-07-03T09:01:11.000Z</time>
      </trkpt>
      <trkpt lat="43.56837" lon="2.56507">
        <ele>712.79998779297</ele>
        <time>2021-07-03T09:01:16.000Z</time>
      </trkpt>
      <trkpt lat="43.56836" lon="2.56517">
        <ele>713.20001220703</ele>
        <time>2021-07-03T09:01:18.000Z</time>
      </trkpt>
      <trkpt lat="43.56835" lon="2.56522">
        <ele>713.59997558594</ele>
        <time>2021-07-03T09:01:19.000Z</time>
      </trkpt>
      <trkpt lat="43.56834" lon="2.56528">
        <ele>714</ele>
        <time>2021-07-03T09:01:20.000Z</time>
      </trkpt>
      <trkpt lat="43.56833" lon="2.56534">
        <ele>714.40002441406</ele>
        <time>2021-07-03T09:01:21.000Z</time>
      </trkpt>
      <trkpt lat="43.56832" lon="2.5654">
        <ele>714.79998779297</ele>
        <time>2021-07-03T09:01:22.000Z</time>
      </trkpt>
      <trkpt lat="43.56822" lon="2.56572">
        <ele>714.79998779297</ele>
        <time>2021-07-03T09:01:28.000Z</time>
      </trkpt>
      <trkpt lat="43.56812" lon="2.5659">
        <ele>714.79998779297</ele>
        <time>2021-07-03T09:01:33.000Z</time>
      </trkpt>
      <trkpt lat="43.56809" lon="2.56593">
        <ele>715.20001220703</ele>
        <time>2021-07-03T09:01:34.000Z</time>
      </trkpt>
      <trkpt lat="43.56807" lon="2.56596">
        <ele>715.59997558594</ele>
        <time>2021-07-03T09:01:35.000Z</time>
      </trkpt>
      <trkpt lat="43.56805" lon="2.56599">
        <ele>716.20001220703</ele>
        <time>2021-07-03T09:01:36.000Z</time>
      </trkpt>
      <trkpt lat="43.56802" lon="2.56601">
        <ele>716.59997558594</ele>
        <time>2021-07-03T09:01:37.000Z</time>
      </trkpt>
      <trkpt lat="43.568" lon="2.56603">
        <ele>717</ele>
        <time>2021-07-03T09:01:38.000Z</time>
      </trkpt>
      <trkpt lat="43.56799" lon="2.56605">
        <ele>717</ele>
        <time>2021-07-03T09:01:39.000Z</time>
      </trkpt>
      <trkpt lat="43.56798" lon="2.56607">
        <ele>717</ele>
        <time>2021-07-03T09:01:40.000Z</time>
      </trkpt>
      <trkpt lat="43.56798" lon="2.56614">
        <ele>717</ele>
        <time>2021-07-03T09:01:43.000Z</time>
      </trkpt>
      <trkpt lat="43.56799" lon="2.56617">
        <ele>717</ele>
        <time>2021-07-03T09:01:44.000Z</time>
      </trkpt>
      <trkpt lat="43.56802" lon="2.56621">
        <ele>717</ele>
        <time>2021-07-03T09:01:47.000Z</time>
      </trkpt>
      <trkpt lat="43.56803" lon="2.56622">
        <ele>717</ele>
        <time>2021-07-03T09:02:24.000Z</time>
      </trkpt>
      <trkpt lat="43.56804" lon="2.56624">
        <ele>717</ele>
        <time>2021-07-03T09:02:25.000Z</time>
      </trkpt>
      <trkpt lat="43.56804" lon="2.56627">
        <ele>717</ele>
        <time>2021-07-03T09:02:26.000Z</time>
      </trkpt>
      <trkpt lat="43.568" lon="2.5663">
        <ele>717</ele>
        <time>2021-07-03T09:02:29.000Z</time>
      </trkpt>
      <trkpt lat="43.56797" lon="2.56632">
        <ele>717</ele>
        <time>2021-07-03T09:02:32.000Z</time>
      </trkpt>
      <trkpt lat="43.56787" lon="2.56644">
        <ele>717</ele>
        <time>2021-07-03T09:02:37.000Z</time>
      </trkpt>
      <trkpt lat="43.56775" lon="2.56661">
        <ele>717</ele>
        <time>2021-07-03T09:02:43.000Z</time>
      </trkpt>
      <trkpt lat="43.56764" lon="2.56681">
        <ele>717</ele>
        <time>2021-07-03T09:02:49.000Z</time>
      </trkpt>
      <trkpt lat="43.56753" lon="2.56703">
        <ele>717</ele>
        <time>2021-07-03T09:02:55.000Z</time>
      </trkpt>
      <trkpt lat="43.56748" lon="2.56714">
        <ele>717.40002441406</ele>
        <time>2021-07-03T09:02:58.000Z</time>
      </trkpt>
      <trkpt lat="43.56746" lon="2.56718">
        <ele>717.79998779297</ele>
        <time>2021-07-03T09:02:59.000Z</time>
      </trkpt>
      <trkpt lat="43.56744" lon="2.56722">
        <ele>718.20001220703</ele>
        <time>2021-07-03T09:03:00.000Z</time>
      </trkpt>
      <trkpt lat="43.56744" lon="2.56725">
        <ele>718.59997558594</ele>
        <time>2021-07-03T09:03:01.000Z</time>
      </trkpt>
      <trkpt lat="43.56745" lon="2.56729">
        <ele>719.20001220703</ele>
        <time>2021-07-03T09:03:02.000Z</time>
      </trkpt>
      <trkpt lat="43.56752" lon="2.56743">
        <ele>719.20001220703</ele>
        <time>2021-07-03T09:03:05.000Z</time>
      </trkpt>
      <trkpt lat="43.56755" lon="2.56747">
        <ele>719.20001220703</ele>
        <time>2021-07-03T09:03:06.000Z</time>
      </trkpt>
      <trkpt lat="43.56774" lon="2.56771">
        <ele>719.20001220703</ele>
        <time>2021-07-03T09:03:11.000Z</time>
      </trkpt>
      <trkpt lat="43.56795" lon="2.56795">
        <ele>719.20001220703</ele>
        <time>2021-07-03T09:03:17.000Z</time>
      </trkpt>
      <trkpt lat="43.56798" lon="2.568">
        <ele>719.20001220703</ele>
        <time>2021-07-03T09:03:18.000Z</time>
      </trkpt>
      <trkpt lat="43.56813" lon="2.56819">
        <ele>719.20001220703</ele>
        <time>2021-07-03T09:03:22.000Z</time>
      </trkpt>
      <trkpt lat="43.56821" lon="2.56828">
        <ele>719.20001220703</ele>
        <time>2021-07-03T09:03:24.000Z</time>
      </trkpt>
      <trkpt lat="43.56838" lon="2.56855">
        <ele>719.20001220703</ele>
        <time>2021-07-03T09:03:30.000Z</time>
      </trkpt>
      <trkpt lat="43.5685" lon="2.56883">
        <ele>719.20001220703</ele>
        <time>2021-07-03T09:03:36.000Z</time>
      </trkpt>
      <trkpt lat="43.56852" lon="2.56888">
        <ele>719.59997558594</ele>
        <time>2021-07-03T09:03:37.000Z</time>
      </trkpt>
      <trkpt lat="43.56854" lon="2.56893">
        <ele>720</ele>
        <time>2021-07-03T09:03:38.000Z</time>
      </trkpt>
      <trkpt lat="43.56856" lon="2.56898">
        <ele>720.40002441406</ele>
        <time>2021-07-03T09:03:39.000Z</time>
      </trkpt>
      <trkpt lat="43.56857" lon="2.56903">
        <ele>720.79998779297</ele>
        <time>2021-07-03T09:03:40.000Z</time>
      </trkpt>
      <trkpt lat="43.56859" lon="2.56908">
        <ele>721.20001220703</ele>
        <time>2021-07-03T09:03:41.000Z</time>
      </trkpt>
      <trkpt lat="43.56868" lon="2.56928">
        <ele>721.20001220703</ele>
        <time>2021-07-03T09:03:45.000Z</time>
      </trkpt>
      <trkpt lat="43.56873" lon="2.56936">
        <ele>721.59997558594</ele>
        <time>2021-07-03T09:03:47.000Z</time>
      </trkpt>
      <trkpt lat="43.56876" lon="2.56941">
        <ele>722</ele>
        <time>2021-07-03T09:03:48.000Z</time>
      </trkpt>
      <trkpt lat="43.56878" lon="2.56945">
        <ele>722.40002441406</ele>
        <time>2021-07-03T09:03:49.000Z</time>
      </trkpt>
      <trkpt lat="43.56881" lon="2.56949">
        <ele>722.79998779297</ele>
        <time>2021-07-03T09:03:50.000Z</time>
      </trkpt>
      <trkpt lat="43.56884" lon="2.56953">
        <ele>723.20001220703</ele>
        <time>2021-07-03T09:03:51.000Z</time>
      </trkpt>
      <trkpt lat="43.5689" lon="2.5696">
        <ele>723.20001220703</ele>
        <time>2021-07-03T09:03:53.000Z</time>
      </trkpt>
      <trkpt lat="43.56909" lon="2.56982">
        <ele>723.59997558594</ele>
        <time>2021-07-03T09:03:59.000Z</time>
      </trkpt>
      <trkpt lat="43.56912" lon="2.56985">
        <ele>724.20001220703</ele>
        <time>2021-07-03T09:04:00.000Z</time>
      </trkpt>
      <trkpt lat="43.56916" lon="2.56989">
        <ele>724.59997558594</ele>
        <time>2021-07-03T09:04:01.000Z</time>
      </trkpt>
      <trkpt lat="43.56919" lon="2.56993">
        <ele>725</ele>
        <time>2021-07-03T09:04:02.000Z</time>
      </trkpt>
      <trkpt lat="43.56923" lon="2.56997">
        <ele>725.40002441406</ele>
        <time>2021-07-03T09:04:03.000Z</time>
      </trkpt>
      <trkpt lat="43.56941" lon="2.57014">
        <ele>725.40002441406</ele>
        <time>2021-07-03T09:04:08.000Z</time>
      </trkpt>
      <trkpt lat="43.56949" lon="2.57018">
        <ele>725.40002441406</ele>
        <time>2021-07-03T09:04:10.000Z</time>
      </trkpt>
      <trkpt lat="43.56967" lon="2.57024">
        <ele>725.40002441406</ele>
        <time>2021-07-03T09:04:14.000Z</time>
      </trkpt>
      <trkpt lat="43.56975" lon="2.57027">
        <ele>725.40002441406</ele>
        <time>2021-07-03T09:04:16.000Z</time>
      </trkpt>
      <trkpt lat="43.56982" lon="2.57029">
        <ele>725.79998779297</ele>
        <time>2021-07-03T09:04:18.000Z</time>
      </trkpt>
      <trkpt lat="43.56985" lon="2.57031">
        <ele>726.40002441406</ele>
        <time>2021-07-03T09:04:19.000Z</time>
      </trkpt>
      <trkpt lat="43.56988" lon="2.57033">
        <ele>726.79998779297</ele>
        <time>2021-07-03T09:04:20.000Z</time>
      </trkpt>
      <trkpt lat="43.56991" lon="2.57035">
        <ele>727.59997558594</ele>
        <time>2021-07-03T09:04:21.000Z</time>
      </trkpt>
      <trkpt lat="43.56993" lon="2.57037">
        <ele>728.20001220703</ele>
        <time>2021-07-03T09:04:22.000Z</time>
      </trkpt>
      <trkpt lat="43.56996" lon="2.5704">
        <ele>729.59997558594</ele>
        <time>2021-07-03T09:04:23.000Z</time>
      </trkpt>
      <trkpt lat="43.56998" lon="2.57043">
        <ele>730.20001220703</ele>
        <time>2021-07-03T09:04:24.000Z</time>
      </trkpt>
      <trkpt lat="43.56998" lon="2.57046">
        <ele>730.79998779297</ele>
        <time>2021-07-03T09:04:25.000Z</time>
      </trkpt>
      <trkpt lat="43.56997" lon="2.57049">
        <ele>731.59997558594</ele>
        <time>2021-07-03T09:04:26.000Z</time>
      </trkpt>
      <trkpt lat="43.56995" lon="2.57051">
        <ele>732.20001220703</ele>
        <time>2021-07-03T09:04:27.000Z</time>
      </trkpt>
      <trkpt lat="43.56994" lon="2.57052">
        <ele>732.79998779297</ele>
        <time>2021-07-03T09:04:28.000Z</time>
      </trkpt>
      <trkpt lat="43.56993" lon="2.57052">
        <ele>732.79998779297</ele>
        <time>2021-07-03T09:04:29.000Z</time>
      </trkpt>
    </trkseg>
  </trk>
</gpx>